Wetterdaten: Sonntag, 23.07.2017
Datum Zeit Temp. A. Temp. A. max Feuchte A. Luftdruck Regen Wind Richtung Richtung Sonnenschein ET UV Solar Taupunkt Windchill Windböen
23.07.2017 00:00 15,9 °C 15,9 °C 85 % 1011,9 hPa 0,0 mm 0,0 km/h (0 Bft) SW 223 ° 0 min 0,000 mm 0,0 UV-I 0 W/m² 13,4 °C 15,9 °C 0,0 km/h (0 Bft)
23.07.2017 00:01 15,9 °C 15,9 °C 85 % 1012,0 hPa 0,0 mm 0,0 km/h (0 Bft) SW 223 ° 0 min 0,000 mm 0,0 UV-I 0 W/m² 13,4 °C 15,9 °C 0,0 km/h (0 Bft)
23.07.2017 00:02 15,9 °C 15,9 °C 85 % 1011,9 hPa 0,0 mm 0,0 km/h (0 Bft) SW 223 ° 0 min 0,000 mm 0,0 UV-I 0 W/m² 13,4 °C 15,9 °C 0,0 km/h (0 Bft)
23.07.2017 00:03 16,1 °C 16,1 °C 85 % 1011,9 hPa 0,0 mm 0,0 km/h (0 Bft) SW 223 ° 0 min 0,000 mm 0,0 UV-I 0 W/m² 13,6 °C 16,1 °C 0,0 km/h (0 Bft)
23.07.2017 00:04 16,1 °C 16,1 °C 84 % 1011,9 hPa 0,0 mm 0,0 km/h (0 Bft) SW 223 ° 0 min 0,000 mm 0,0 UV-I 0 W/m² 13,4 °C 16,1 °C 0,0 km/h (0 Bft)
23.07.2017 00:05 16,2 °C 16,2 °C 84 % 1012,0 hPa 0,0 mm 0,0 km/h (0 Bft) SW 223 ° 0 min 0,000 mm 0,0 UV-I 0 W/m² 13,5 °C 16,2 °C 0,0 km/h (0 Bft)
23.07.2017 00:06 16,2 °C 16,2 °C 84 % 1012,0 hPa 0,0 mm 0,0 km/h (0 Bft) SW 223 ° 0 min 0,000 mm 0,0 UV-I 0 W/m² 13,5 °C 16,2 °C 0,0 km/h (0 Bft)
23.07.2017 00:07 16,2 °C 16,2 °C 84 % 1011,9 hPa 0,0 mm 0,0 km/h (0 Bft) SW 223 ° 0 min 0,000 mm 0,0 UV-I 0 W/m² 13,5 °C 16,2 °C 0,0 km/h (0 Bft)
23.07.2017 00:08 16,1 °C 16,2 °C 84 % 1011,9 hPa 0,0 mm 0,0 km/h (0 Bft) SW 223 ° 0 min 0,000 mm 0,0 UV-I 0 W/m² 13,4 °C 16,1 °C 0,0 km/h (0 Bft)
23.07.2017 00:09 16,1 °C 16,2 °C 84 % 1011,9 hPa 0,0 mm 0,0 km/h (0 Bft) SW 223 ° 0 min 0,000 mm 0,0 UV-I 0 W/m² 13,4 °C 16,1 °C 0,0 km/h (0 Bft)
23.07.2017 00:10 16,1 °C 16,1 °C 85 % 1011,9 hPa 0,0 mm 0,0 km/h (0 Bft) SW 223 ° 0 min 0,000 mm 0,0 UV-I 0 W/m² 13,6 °C 16,1 °C 0,0 km/h (0 Bft)
23.07.2017 00:11 16,0 °C 16,1 °C 85 % 1011,8 hPa 0,0 mm 0,0 km/h (0 Bft) SW 223 ° 0 min 0,000 mm 0,0 UV-I 0 W/m² 13,5 °C 16,0 °C 0,0 km/h (0 Bft)
23.07.2017 00:12 15,9 °C 16,0 °C 85 % 1011,9 hPa 0,0 mm 0,0 km/h (0 Bft) SW 223 ° 0 min 0,000 mm 0,0 UV-I 0 W/m² 13,4 °C 15,9 °C 0,0 km/h (0 Bft)
23.07.2017 00:13 16,0 °C 16,0 °C 85 % 1011,9 hPa 0,0 mm 0,0 km/h (0 Bft) SW 223 ° 0 min 0,000 mm 0,0 UV-I 0 W/m² 13,5 °C 16,0 °C 0,0 km/h (0 Bft)
23.07.2017 00:14 16,0 °C 16,1 °C 85 % 1011,9 hPa 0,0 mm 0,0 km/h (0 Bft) SW 223 ° 0 min 0,000 mm 0,0 UV-I 0 W/m² 13,5 °C 16,0 °C 0,0 km/h (0 Bft)
23.07.2017 00:15 16,1 °C 16,1 °C 84 % 1011,9 hPa 0,0 mm 0,0 km/h (0 Bft) SW 223 ° 0 min 0,000 mm 0,0 UV-I 0 W/m² 13,4 °C 16,1 °C 0,0 km/h (0 Bft)
23.07.2017 00:16 16,1 °C 16,1 °C 84 % 1011,9 hPa 0,0 mm 0,0 km/h (0 Bft) SW 223 ° 0 min 0,000 mm 0,0 UV-I 0 W/m² 13,4 °C 16,1 °C 0,0 km/h (0 Bft)
23.07.2017 00:17 16,1 °C 16,1 °C 84 % 1011,9 hPa 0,0 mm 0,0 km/h (0 Bft) SW 223 ° 0 min 0,000 mm 0,0 UV-I 0 W/m² 13,4 °C 16,1 °C 0,0 km/h (0 Bft)
23.07.2017 00:18 16,1 °C 16,1 °C 84 % 1011,9 hPa 0,0 mm 0,0 km/h (0 Bft) SW 223 ° 0 min 0,000 mm 0,0 UV-I 0 W/m² 13,4 °C 16,1 °C 0,0 km/h (0 Bft)
23.07.2017 00:19 16,1 °C 16,1 °C 84 % 1011,9 hPa 0,0 mm 0,0 km/h (0 Bft) SW 223 ° 0 min 0,000 mm 0,0 UV-I 0 W/m² 13,4 °C 16,1 °C 0,0 km/h (0 Bft)
23.07.2017 00:20 16,1 °C 16,1 °C 84 % 1011,9 hPa 0,0 mm 0,0 km/h (0 Bft) SW 223 ° 0 min 0,000 mm 0,0 UV-I 0 W/m² 13,4 °C 16,1 °C 0,0 km/h (0 Bft)
23.07.2017 00:21 16,0 °C 16,1 °C 84 % 1012,0 hPa 0,0 mm 0,0 km/h (0 Bft) SW 223 ° 0 min 0,000 mm 0,0 UV-I 0 W/m² 13,3 °C 16,0 °C 0,0 km/h (0 Bft)
23.07.2017 00:22 15,9 °C 16,0 °C 85 % 1012,0 hPa 0,0 mm 0,0 km/h (0 Bft) SW 223 ° 0 min 0,000 mm 0,0 UV-I 0 W/m² 13,4 °C 15,9 °C 0,0 km/h (0 Bft)
23.07.2017 00:23 15,9 °C 15,9 °C 84 % 1012,0 hPa 0,0 mm 0,0 km/h (0 Bft) SW 223 ° 0 min 0,000 mm 0,0 UV-I 0 W/m² 13,2 °C 15,9 °C 0,0 km/h (0 Bft)
23.07.2017 00:24 15,8 °C 15,9 °C 85 % 1012,0 hPa 0,0 mm 0,0 km/h (0 Bft) SW 223 ° 0 min 0,000 mm 0,0 UV-I 0 W/m² 13,3 °C 15,8 °C 0,0 km/h (0 Bft)
23.07.2017 00:25 15,8 °C 15,9 °C 86 % 1012,0 hPa 0,0 mm 0,0 km/h (0 Bft) SW 223 ° 0 min 0,000 mm 0,0 UV-I 0 W/m² 13,5 °C 15,8 °C 0,0 km/h (0 Bft)
23.07.2017 00:26 15,8 °C 15,8 °C 86 % 1012,0 hPa 0,0 mm 0,0 km/h (0 Bft) SW 223 ° 0 min 0,000 mm 0,0 UV-I 0 W/m² 13,5 °C 15,8 °C 0,0 km/h (0 Bft)
23.07.2017 00:27 15,7 °C 15,8 °C 86 % 1012,0 hPa 0,0 mm 0,0 km/h (0 Bft) SW 223 ° 0 min 0,000 mm 0,0 UV-I 0 W/m² 13,4 °C 15,7 °C 0,0 km/h (0 Bft)
23.07.2017 00:28 15,7 °C 15,7 °C 85 % 1012,0 hPa 0,0 mm 0,0 km/h (0 Bft) SW 223 ° 0 min 0,000 mm 0,0 UV-I 0 W/m² 13,2 °C 15,7 °C 0,0 km/h (0 Bft)
23.07.2017 00:29 15,7 °C 15,7 °C 85 % 1012,0 hPa 0,0 mm 0,0 km/h (0 Bft) SW 223 ° 0 min 0,000 mm 0,0 UV-I 0 W/m² 13,2 °C 15,7 °C 0,0 km/h (0 Bft)
23.07.2017 00:30 15,7 °C 15,7 °C 85 % 1011,9 hPa 0,0 mm 0,0 km/h (0 Bft) SW 223 ° 0 min 0,000 mm 0,0 UV-I 0 W/m² 13,2 °C 15,7 °C 0,0 km/h (0 Bft)
23.07.2017 00:31 15,7 °C 15,7 °C 86 % 1011,9 hPa 0,0 mm 0,0 km/h (0 Bft) SW 223 ° 0 min 0,000 mm 0,0 UV-I 0 W/m² 13,4 °C 15,7 °C 0,0 km/h (0 Bft)
23.07.2017 00:32 15,6 °C 15,7 °C 86 % 1011,8 hPa 0,0 mm 0,0 km/h (0 Bft) SW 223 ° 0 min 0,000 mm 0,0 UV-I 0 W/m² 13,3 °C 15,6 °C 0,0 km/h (0 Bft)
23.07.2017 00:33 15,5 °C 15,6 °C 87 % 1011,8 hPa 0,0 mm 0,0 km/h (0 Bft) SW 223 ° 0 min 0,000 mm 0,0 UV-I 0 W/m² 13,3 °C 15,5 °C 0,0 km/h (0 Bft)
23.07.2017 00:34 15,4 °C 15,6 °C 87 % 1011,8 hPa 0,0 mm 0,0 km/h (0 Bft) SW 223 ° 0 min 0,000 mm 0,0 UV-I 0 W/m² 13,2 °C 15,4 °C 0,0 km/h (0 Bft)
23.07.2017 00:35 15,4 °C 15,5 °C 87 % 1011,9 hPa 0,0 mm 0,0 km/h (0 Bft) SW 223 ° 0 min 0,000 mm 0,0 UV-I 0 W/m² 13,2 °C 15,4 °C 0,0 km/h (0 Bft)
23.07.2017 00:36 15,4 °C 15,4 °C 87 % 1011,9 hPa 0,0 mm 0,0 km/h (0 Bft) SW 223 ° 0 min 0,000 mm 0,0 UV-I 0 W/m² 13,2 °C 15,4 °C 0,0 km/h (0 Bft)
23.07.2017 00:37 15,4 °C 15,4 °C 87 % 1011,9 hPa 0,0 mm 0,0 km/h (0 Bft) SW 223 ° 0 min 0,000 mm 0,0 UV-I 0 W/m² 13,2 °C 15,4 °C 0,0 km/h (0 Bft)
23.07.2017 00:38 15,4 °C 15,4 °C 87 % 1011,9 hPa 0,0 mm 0,0 km/h (0 Bft) SW 223 ° 0 min 0,000 mm 0,0 UV-I 0 W/m² 13,2 °C 15,4 °C 0,0 km/h (0 Bft)
23.07.2017 00:39 15,4 °C 15,4 °C 87 % 1011,9 hPa 0,0 mm 0,0 km/h (0 Bft) SW 223 ° 0 min 0,000 mm 0,0 UV-I 0 W/m² 13,2 °C 15,4 °C 0,0 km/h (0 Bft)
23.07.2017 00:40 15,4 °C 15,4 °C 87 % 1011,9 hPa 0,0 mm 0,0 km/h (0 Bft) SW 223 ° 0 min 0,000 mm 0,0 UV-I 0 W/m² 13,2 °C 15,4 °C 0,0 km/h (0 Bft)
23.07.2017 00:41 15,4 °C 15,4 °C 87 % 1011,9 hPa 0,0 mm 0,0 km/h (0 Bft) SW 223 ° 0 min 0,000 mm 0,0 UV-I 0 W/m² 13,2 °C 15,4 °C 0,0 km/h (0 Bft)
23.07.2017 00:42 15,4 °C 15,4 °C 87 % 1011,9 hPa 0,0 mm 0,0 km/h (0 Bft) SW 223 ° 0 min 0,000 mm 0,0 UV-I 0 W/m² 13,2 °C 15,4 °C 0,0 km/h (0 Bft)
23.07.2017 00:43 15,3 °C 15,4 °C 87 % 1011,9 hPa 0,0 mm 0,0 km/h (0 Bft) SW 223 ° 0 min 0,000 mm 0,0 UV-I 0 W/m² 13,1 °C 15,3 °C 0,0 km/h (0 Bft)
23.07.2017 00:44 15,4 °C 15,4 °C 87 % 1011,9 hPa 0,0 mm 0,0 km/h (0 Bft) SW 223 ° 0 min 0,000 mm 0,0 UV-I 0 W/m² 13,2 °C 15,4 °C 0,0 km/h (0 Bft)
23.07.2017 00:45 15,4 °C 15,4 °C 87 % 1011,9 hPa 0,0 mm 0,0 km/h (0 Bft) SW 223 ° 0 min 0,000 mm 0,0 UV-I 0 W/m² 13,2 °C 15,4 °C 0,0 km/h (0 Bft)
23.07.2017 00:46 15,4 °C 15,4 °C 87 % 1011,9 hPa 0,0 mm 0,0 km/h (0 Bft) SW 223 ° 0 min 0,000 mm 0,0 UV-I 0 W/m² 13,2 °C 15,4 °C 0,0 km/h (0 Bft)
23.07.2017 00:47 15,4 °C 15,4 °C 87 % 1011,9 hPa 0,0 mm 0,0 km/h (0 Bft) SW 223 ° 0 min 0,000 mm 0,0 UV-I 0 W/m² 13,2 °C 15,4 °C 0,0 km/h (0 Bft)
23.07.2017 00:48 15,4 °C 15,4 °C 87 % 1011,9 hPa 0,0 mm 0,0 km/h (0 Bft) SW 223 ° 0 min 0,000 mm 0,0 UV-I 0 W/m² 13,2 °C 15,4 °C 0,0 km/h (0 Bft)
23.07.2017 00:49 15,4 °C 15,4 °C 87 % 1011,9 hPa 0,0 mm 0,0 km/h (0 Bft) SW 223 ° 0 min 0,000 mm 0,0 UV-I 0 W/m² 13,2 °C 15,4 °C 0,0 km/h (0 Bft)
23.07.2017 00:50 15,6 °C 15,6 °C 86 % 1011,9 hPa 0,0 mm 0,0 km/h (0 Bft) SW 223 ° 0 min 0,000 mm 0,0 UV-I 0 W/m² 13,3 °C 15,6 °C 0,0 km/h (0 Bft)
23.07.2017 00:51 15,7 °C 15,7 °C 87 % 1011,8 hPa 0,0 mm 0,0 km/h (0 Bft) SW 223 ° 0 min 0,000 mm 0,0 UV-I 0 W/m² 13,5 °C 15,7 °C 0,0 km/h (0 Bft)
23.07.2017 00:52 15,7 °C 15,7 °C 86 % 1011,8 hPa 0,0 mm 0,0 km/h (0 Bft) SW 223 ° 0 min 0,000 mm 0,0 UV-I 0 W/m² 13,4 °C 15,7 °C 0,0 km/h (0 Bft)
23.07.2017 00:53 15,7 °C 15,7 °C 86 % 1011,9 hPa 0,0 mm 0,0 km/h (0 Bft) SW 223 ° 0 min 0,000 mm 0,0 UV-I 0 W/m² 13,4 °C 15,7 °C 0,0 km/h (0 Bft)
23.07.2017 00:54 15,8 °C 15,8 °C 86 % 1011,8 hPa 0,0 mm 0,0 km/h (0 Bft) SW 223 ° 0 min 0,000 mm 0,0 UV-I 0 W/m² 13,5 °C 15,8 °C 0,0 km/h (0 Bft)
23.07.2017 00:55 15,7 °C 15,8 °C 87 % 1011,8 hPa 0,0 mm 0,0 km/h (0 Bft) SW 223 ° 0 min 0,000 mm 0,0 UV-I 0 W/m² 13,5 °C 15,7 °C 0,0 km/h (0 Bft)
23.07.2017 00:56 15,7 °C 15,7 °C 87 % 1011,9 hPa 0,0 mm 0,0 km/h (0 Bft) SW 223 ° 0 min 0,000 mm 0,0 UV-I 0 W/m² 13,5 °C 15,7 °C 0,0 km/h (0 Bft)
23.07.2017 00:57 15,7 °C 15,7 °C 87 % 1011,9 hPa 0,0 mm 0,0 km/h (0 Bft) SW 223 ° 0 min 0,000 mm 0,0 UV-I 0 W/m² 13,5 °C 15,7 °C 0,0 km/h (0 Bft)
23.07.2017 00:58 15,7 °C 15,7 °C 87 % 1011,8 hPa 0,0 mm 0,0 km/h (0 Bft) SW 223 ° 0 min 0,000 mm 0,0 UV-I 0 W/m² 13,5 °C 15,7 °C 0,0 km/h (0 Bft)
23.07.2017 00:59 15,7 °C 15,7 °C 87 % 1011,9 hPa 0,0 mm 0,0 km/h (0 Bft) SW 223 ° 0 min 0,000 mm 0,0 UV-I 0 W/m² 13,5 °C 15,7 °C 0,0 km/h (0 Bft)
23.07.2017 01:00 15,7 °C 15,7 °C 87 % 1011,9 hPa 0,0 mm 0,0 km/h (0 Bft) SW 223 ° 0 min 0,000 mm 0,0 UV-I 0 W/m² 13,5 °C 15,7 °C 0,0 km/h (0 Bft)
23.07.2017 01:01 15,7 °C 15,7 °C 87 % 1011,8 hPa 0,0 mm 0,0 km/h (0 Bft) SW 223 ° 0 min 0,000 mm 0,0 UV-I 0 W/m² 13,5 °C 15,7 °C 0,0 km/h (0 Bft)
23.07.2017 01:02 15,7 °C 15,7 °C 86 % 1011,8 hPa 0,0 mm 0,0 km/h (0 Bft) SW 223 ° 0 min 0,000 mm 0,0 UV-I 0 W/m² 13,4 °C 15,7 °C 0,0 km/h (0 Bft)
23.07.2017 01:03 15,7 °C 15,7 °C 87 % 1011,8 hPa 0,0 mm 0,0 km/h (0 Bft) SW 223 ° 0 min 0,000 mm 0,0 UV-I 0 W/m² 13,5 °C 15,7 °C 0,0 km/h (0 Bft)
23.07.2017 01:04 15,7 °C 15,7 °C 87 % 1011,9 hPa 0,0 mm 0,0 km/h (0 Bft) SW 223 ° 0 min 0,000 mm 0,0 UV-I 0 W/m² 13,5 °C 15,7 °C 0,0 km/h (0 Bft)
23.07.2017 01:05 15,7 °C 15,7 °C 88 % 1011,9 hPa 0,0 mm 0,0 km/h (0 Bft) SW 223 ° 0 min 0,000 mm 0,0 UV-I 0 W/m² 13,7 °C 15,7 °C 0,0 km/h (0 Bft)
23.07.2017 01:06 15,6 °C 15,7 °C 88 % 1011,9 hPa 0,0 mm 0,0 km/h (0 Bft) SW 223 ° 0 min 0,000 mm 0,0 UV-I 0 W/m² 13,6 °C 15,6 °C 0,0 km/h (0 Bft)
23.07.2017 01:07 15,7 °C 15,7 °C 88 % 1012,0 hPa 0,0 mm 0,0 km/h (0 Bft) SW 223 ° 0 min 0,000 mm 0,0 UV-I 0 W/m² 13,7 °C 15,7 °C 0,0 km/h (0 Bft)
23.07.2017 01:08 15,6 °C 15,7 °C 88 % 1012,0 hPa 0,0 mm 0,0 km/h (0 Bft) SW 223 ° 0 min 0,000 mm 0,0 UV-I 0 W/m² 13,6 °C 15,6 °C 0,0 km/h (0 Bft)
23.07.2017 01:09 15,6 °C 15,7 °C 88 % 1012,0 hPa 0,0 mm 0,5 km/h (0 Bft) SW 223 ° 0 min 0,000 mm 0,0 UV-I 0 W/m² 13,6 °C 15,6 °C 1,6 km/h (1 Bft)
23.07.2017 01:10 15,7 °C 15,7 °C 88 % 1012,1 hPa 0,0 mm 1,0 km/h (0 Bft) SW 223 ° 0 min 0,000 mm 0,0 UV-I 0 W/m² 13,7 °C 15,7 °C 1,6 km/h (1 Bft)
23.07.2017 01:11 15,6 °C 15,7 °C 88 % 1012,2 hPa 0,0 mm 0,9 km/h (0 Bft) SW 223 ° 0 min 0,000 mm 0,0 UV-I 0 W/m² 13,6 °C 15,6 °C 1,6 km/h (1 Bft)
23.07.2017 01:12 15,6 °C 15,7 °C 88 % 1012,2 hPa 0,0 mm 0,1 km/h (0 Bft) SW 223 ° 0 min 0,000 mm 0,0 UV-I 0 W/m² 13,6 °C 15,6 °C 1,6 km/h (1 Bft)
23.07.2017 01:13 15,6 °C 15,7 °C 88 % 1012,2 hPa 0,0 mm 0,0 km/h (0 Bft) SW 223 ° 0 min 0,000 mm 0,0 UV-I 0 W/m² 13,6 °C 15,6 °C 0,0 km/h (0 Bft)
23.07.2017 01:14 15,7 °C 15,7 °C 88 % 1012,2 hPa 0,0 mm 0,0 km/h (0 Bft) SW 223 ° 0 min 0,000 mm 0,0 UV-I 0 W/m² 13,7 °C 15,7 °C 0,0 km/h (0 Bft)
23.07.2017 01:15 15,7 °C 15,7 °C 87 % 1012,2 hPa 0,0 mm 0,0 km/h (0 Bft) SW 223 ° 0 min 0,000 mm 0,0 UV-I 0 W/m² 13,5 °C 15,7 °C 0,0 km/h (0 Bft)
23.07.2017 01:16 15,7 °C 15,7 °C 87 % 1012,2 hPa 0,0 mm 0,0 km/h (0 Bft) SW 223 ° 0 min 0,000 mm 0,0 UV-I 0 W/m² 13,5 °C 15,7 °C 0,0 km/h (0 Bft)
23.07.2017 01:17 15,7 °C 15,7 °C 88 % 1012,3 hPa 0,0 mm 0,0 km/h (0 Bft) SW 223 ° 0 min 0,000 mm 0,0 UV-I 0 W/m² 13,7 °C 15,7 °C 0,0 km/h (0 Bft)
23.07.2017 01:18 15,7 °C 15,7 °C 88 % 1012,3 hPa 0,0 mm 0,0 km/h (0 Bft) SW 223 ° 0 min 0,000 mm 0,0 UV-I 0 W/m² 13,7 °C 15,7 °C 0,0 km/h (0 Bft)
23.07.2017 01:19 15,7 °C 15,7 °C 88 % 1012,4 hPa 0,0 mm 0,0 km/h (0 Bft) SW 223 ° 0 min 0,000 mm 0,0 UV-I 0 W/m² 13,7 °C 15,7 °C 0,0 km/h (0 Bft)
23.07.2017 01:20 15,7 °C 15,7 °C 88 % 1012,4 hPa 0,0 mm 0,0 km/h (0 Bft) SW 223 ° 0 min 0,000 mm 0,0 UV-I 0 W/m² 13,7 °C 15,7 °C 0,0 km/h (0 Bft)
23.07.2017 01:21 15,7 °C 15,7 °C 88 % 1012,4 hPa 0,0 mm 2,6 km/h (1 Bft) SW 232 ° 0 min 0,000 mm 0,0 UV-I 0 W/m² 13,7 °C 15,7 °C 4,8 km/h (1 Bft)
23.07.2017 01:22 15,7 °C 15,7 °C 88 % 1012,8 hPa 0,0 mm 2,9 km/h (1 Bft) W 268 ° 0 min 0,000 mm 0,0 UV-I 0 W/m² 13,7 °C 15,7 °C 3,2 km/h (1 Bft)
23.07.2017 01:23 15,7 °C 15,7 °C 88 % 1012,8 hPa 0,0 mm 4,9 km/h (1 Bft) W 265 ° 0 min 0,000 mm 0,0 UV-I 0 W/m² 13,7 °C 15,7 °C 9,7 km/h (2 Bft)
23.07.2017 01:24 15,7 °C 15,7 °C 89 % 1013,4 hPa 0,0 mm 9,7 km/h (2 Bft) W 259 ° 0 min 0,000 mm 0,0 UV-I 0 W/m² 13,9 °C 15,7 °C 12,9 km/h (3 Bft)
23.07.2017 01:25 15,8 °C 15,8 °C 88 % 1013,8 hPa 0,0 mm 11,9 km/h (2 Bft) W 267 ° 0 min 0,000 mm 0,0 UV-I 0 W/m² 13,8 °C 15,8 °C 17,7 km/h (3 Bft)
23.07.2017 01:26 15,9 °C 15,9 °C 88 % 1013,8 hPa 0,0 mm 13,9 km/h (3 Bft) NW 304 ° 0 min 0,000 mm 0,0 UV-I 0 W/m² 13,9 °C 15,9 °C 19,3 km/h (3 Bft)
23.07.2017 01:27 16,0 °C 16,0 °C 85 % 1014,1 hPa 0,0 mm 27,8 km/h (4 Bft) W 272 ° 0 min 0,000 mm 0,0 UV-I 0 W/m² 13,5 °C 16,0 °C 59,5 km/h (7 Bft)
23.07.2017 01:28 16,1 °C 16,1 °C 84 % 1013,9 hPa 0,0 mm 20,6 km/h (4 Bft) SW 233 ° 0 min 0,000 mm 0,0 UV-I 0 W/m² 13,4 °C 16,1 °C 30,6 km/h (5 Bft)
23.07.2017 01:29 16,3 °C 16,3 °C 83 % 1013,9 hPa 0,0 mm 19,2 km/h (3 Bft) W 274 ° 0 min 0,000 mm 0,0 UV-I 0 W/m² 13,4 °C 16,3 °C 27,4 km/h (4 Bft)
23.07.2017 01:30 16,4 °C 16,4 °C 83 % 1013,9 hPa 0,0 mm 18,5 km/h (3 Bft) W 278 ° 0 min 0,000 mm 0,0 UV-I 0 W/m² 13,5 °C 16,4 °C 25,7 km/h (4 Bft)
23.07.2017 01:31 16,6 °C 16,6 °C 82 % 1013,9 hPa 0,0 mm 18,9 km/h (3 Bft) W-NW 289 ° 0 min 0,000 mm 0,0 UV-I 0 W/m² 13,5 °C 16,6 °C 20,9 km/h (4 Bft)
23.07.2017 01:32 16,7 °C 16,7 °C 82 % 1014,1 hPa 0,0 mm 17,8 km/h (3 Bft) W 272 ° 0 min 0,000 mm 0,0 UV-I 0 W/m² 13,6 °C 16,7 °C 49,9 km/h (6 Bft)
23.07.2017 01:33 16,8 °C 16,8 °C 82 % 1014,0 hPa 0,0 mm 24,7 km/h (4 Bft) W-SW 247 ° 0 min 0,000 mm 0,0 UV-I 0 W/m² 13,7 °C 16,8 °C 49,9 km/h (6 Bft)
23.07.2017 01:34 16,8 °C 16,8 °C 81 % 1014,0 hPa 0,0 mm 18,5 km/h (3 Bft) W 272 ° 0 min 0,000 mm 0,0 UV-I 0 W/m² 13,5 °C 16,8 °C 27,4 km/h (4 Bft)
23.07.2017 01:35 16,9 °C 16,9 °C 81 % 1014,1 hPa 0,0 mm 30,2 km/h (5 Bft) W 271 ° 0 min 0,000 mm 0,0 UV-I 0 W/m² 13,6 °C 16,9 °C 49,9 km/h (6 Bft)
23.07.2017 01:36 16,9 °C 16,9 °C 81 % 1014,3 hPa 0,0 mm 22,3 km/h (4 Bft) W-SW 246 ° 0 min 0,000 mm 0,0 UV-I 0 W/m² 13,6 °C 16,9 °C 37,0 km/h (5 Bft)
23.07.2017 01:37 17,0 °C 17,0 °C 81 % 1014,3 hPa 0,0 mm 25,0 km/h (4 Bft) NW 306 ° 0 min 0,000 mm 0,0 UV-I 0 W/m² 13,7 °C 17,0 °C 37,0 km/h (5 Bft)
23.07.2017 01:38 16,9 °C 17,0 °C 81 % 1014,6 hPa 0,0 mm 28,4 km/h (4 Bft) W 262 ° 0 min 0,000 mm 0,0 UV-I 0 W/m² 13,6 °C 16,9 °C 41,8 km/h (6 Bft)
23.07.2017 01:39 16,9 °C 17,0 °C 82 % 1014,7 hPa 0,0 mm 31,6 km/h (5 Bft) W 278 ° 0 min 0,000 mm 0,0 UV-I 0 W/m² 13,8 °C 16,9 °C 46,7 km/h (6 Bft)
23.07.2017 01:40 16,7 °C 16,9 °C 83 % 1014,7 hPa 0,2 mm 32,6 km/h (5 Bft) SW 225 ° 0 min 0,000 mm 0,0 UV-I 0 W/m² 13,8 °C 16,7 °C 49,9 km/h (6 Bft)
23.07.2017 01:41 16,6 °C 16,7 °C 84 % 1014,9 hPa 0,2 mm 21,4 km/h (4 Bft) W-NW 292 ° 0 min 0,000 mm 0,0 UV-I 0 W/m² 13,9 °C 16,6 °C 35,4 km/h (5 Bft)
23.07.2017 01:42 16,3 °C 16,6 °C 85 % 1015,1 hPa 0,4 mm 28,2 km/h (4 Bft) W-SW 256 ° 0 min 0,000 mm 0,0 UV-I 0 W/m² 13,8 °C 16,3 °C 33,8 km/h (5 Bft)
23.07.2017 01:43 16,1 °C 16,3 °C 85 % 1014,9 hPa 0,4 mm 21,5 km/h (4 Bft) W-SW 251 ° 0 min 0,000 mm 0,0 UV-I 0 W/m² 13,6 °C 16,1 °C 32,2 km/h (5 Bft)
23.07.2017 01:44 15,8 °C 16,1 °C 87 % 1014,9 hPa 0,4 mm 21,6 km/h (4 Bft) W-SW 238 ° 0 min 0,000 mm 0,0 UV-I 0 W/m² 13,6 °C 15,8 °C 32,2 km/h (5 Bft)
23.07.2017 01:45 15,6 °C 15,8 °C 87 % 1015,2 hPa 0,4 mm 17,6 km/h (3 Bft) W 261 ° 0 min 0,000 mm 0,0 UV-I 0 W/m² 13,4 °C 15,6 °C 32,2 km/h (5 Bft)
23.07.2017 01:46 15,4 °C 15,6 °C 88 % 1015,2 hPa 0,6 mm 25,8 km/h (4 Bft) W 277 ° 0 min 0,000 mm 0,0 UV-I 0 W/m² 13,4 °C 15,4 °C 40,2 km/h (6 Bft)
23.07.2017 01:47 15,3 °C 15,4 °C 88 % 1015,0 hPa 0,4 mm 21,5 km/h (4 Bft) W-NW 290 ° 0 min 0,000 mm 0,0 UV-I 0 W/m² 13,3 °C 15,3 °C 33,8 km/h (5 Bft)
23.07.2017 01:48 15,2 °C 15,3 °C 89 % 1015,1 hPa 0,2 mm 22,0 km/h (4 Bft) W 281 ° 0 min 0,000 mm 0,0 UV-I 0 W/m² 13,4 °C 15,2 °C 32,2 km/h (5 Bft)
23.07.2017 01:49 15,1 °C 15,2 °C 89 % 1015,1 hPa 0,2 mm 16,6 km/h (3 Bft) W 275 ° 0 min 0,000 mm 0,0 UV-I 0 W/m² 13,3 °C 15,1 °C 22,5 km/h (4 Bft)
23.07.2017 01:50 15,0 °C 15,1 °C 90 % 1015,0 hPa 0,2 mm 19,4 km/h (3 Bft) W-SW 240 ° 0 min 0,000 mm 0,0 UV-I 0 W/m² 13,4 °C 15,0 °C 30,6 km/h (5 Bft)
23.07.2017 01:51 15,0 °C 15,0 °C 90 % 1015,3 hPa 0,0 mm 19,6 km/h (3 Bft) SW 219 ° 0 min 0,000 mm 0,0 UV-I 0 W/m² 13,4 °C 15,0 °C 27,4 km/h (4 Bft)
23.07.2017 01:52 14,9 °C 15,0 °C 90 % 1015,2 hPa 0,2 mm 19,9 km/h (4 Bft) W 265 ° 0 min 0,000 mm 0,0 UV-I 0 W/m² 13,3 °C 14,9 °C 30,6 km/h (5 Bft)
23.07.2017 01:53 14,9 °C 14,9 °C 90 % 1015,2 hPa 0,0 mm 16,3 km/h (3 Bft) W-SW 247 ° 0 min 0,000 mm 0,0 UV-I 0 W/m² 13,3 °C 14,9 °C 25,7 km/h (4 Bft)
23.07.2017 01:54 14,8 °C 14,9 °C 91 % 1015,2 hPa 0,2 mm 12,9 km/h (3 Bft) NW 323 ° 0 min 0,000 mm 0,0 UV-I 0 W/m² 13,3 °C 14,8 °C 20,9 km/h (4 Bft)
23.07.2017 01:55 14,8 °C 14,8 °C 91 % 1015,2 hPa 0,2 mm 12,5 km/h (3 Bft) W 273 ° 0 min 0,000 mm 0,0 UV-I 0 W/m² 13,3 °C 14,8 °C 20,9 km/h (4 Bft)
23.07.2017 01:56 14,8 °C 14,8 °C 91 % 1015,3 hPa 0,0 mm 18,9 km/h (3 Bft) W 269 ° 0 min 0,000 mm 0,0 UV-I 0 W/m² 13,3 °C 14,8 °C 33,8 km/h (5 Bft)
23.07.2017 01:57 14,8 °C 14,8 °C 91 % 1015,3 hPa 0,2 mm 22,3 km/h (4 Bft) W 263 ° 0 min 0,000 mm 0,0 UV-I 0 W/m² 13,3 °C 14,8 °C 32,2 km/h (5 Bft)
23.07.2017 01:58 14,7 °C 14,8 °C 91 % 1015,3 hPa 0,0 mm 19,7 km/h (3 Bft) W 278 ° 0 min 0,000 mm 0,0 UV-I 0 W/m² 13,2 °C 14,7 °C 25,7 km/h (4 Bft)
23.07.2017 01:59 14,7 °C 14,7 °C 91 % 1015,4 hPa 0,2 mm 16,7 km/h (3 Bft) S 171 ° 0 min 0,000 mm 0,0 UV-I 0 W/m² 13,2 °C 14,7 °C 24,1 km/h (4 Bft)
23.07.2017 02:00 14,7 °C 14,7 °C 91 % 1015,4 hPa 0,0 mm 14,9 km/h (3 Bft) W 261 ° 0 min 0,025 mm 0,0 UV-I 0 W/m² 13,2 °C 14,7 °C 22,5 km/h (4 Bft)
23.07.2017 02:01 14,7 °C 14,7 °C 91 % 1015,4 hPa 0,2 mm 11,9 km/h (2 Bft) S 190 ° 0 min 0,000 mm 0,0 UV-I 0 W/m² 13,2 °C 14,7 °C 19,3 km/h (3 Bft)
23.07.2017 02:02 14,7 °C 14,7 °C 91 % 1015,4 hPa 0,0 mm 11,4 km/h (2 Bft) W-SW 249 ° 0 min 0,000 mm 0,0 UV-I 0 W/m² 13,2 °C 14,7 °C 17,7 km/h (3 Bft)
23.07.2017 02:03 14,7 °C 14,7 °C 91 % 1015,5 hPa 0,0 mm 16,0 km/h (3 Bft) W 267 ° 0 min 0,000 mm 0,0 UV-I 0 W/m² 13,2 °C 14,7 °C 22,5 km/h (4 Bft)
23.07.2017 02:04 14,7 °C 14,7 °C 92 % 1015,4 hPa 0,0 mm 11,6 km/h (2 Bft) W 263 ° 0 min 0,000 mm 0,0 UV-I 0 W/m² 13,4 °C 14,7 °C 19,3 km/h (3 Bft)
23.07.2017 02:05 14,7 °C 14,7 °C 91 % 1015,5 hPa 0,2 mm 10,2 km/h (2 Bft) W-NW 296 ° 0 min 0,000 mm 0,0 UV-I 0 W/m² 13,2 °C 14,7 °C 19,3 km/h (3 Bft)
23.07.2017 02:06 14,7 °C 14,7 °C 92 % 1015,5 hPa 0,0 mm 14,3 km/h (3 Bft) W 275 ° 0 min 0,000 mm 0,0 UV-I 0 W/m² 13,4 °C 14,7 °C 24,1 km/h (4 Bft)
23.07.2017 02:07 14,7 °C 14,7 °C 92 % 1015,6 hPa 0,0 mm 13,2 km/h (3 Bft) W 268 ° 0 min 0,000 mm 0,0 UV-I 0 W/m² 13,4 °C 14,7 °C 20,9 km/h (4 Bft)
23.07.2017 02:08 14,7 °C 14,7 °C 92 % 1015,6 hPa 0,0 mm 12,3 km/h (3 Bft) W-NW 289 ° 0 min 0,000 mm 0,0 UV-I 0 W/m² 13,4 °C 14,7 °C 16,1 km/h (3 Bft)
23.07.2017 02:09 14,7 °C 14,7 °C 92 % 1015,7 hPa 0,0 mm 17,4 km/h (3 Bft) NW 304 ° 0 min 0,000 mm 0,0 UV-I 0 W/m² 13,4 °C 14,7 °C 25,7 km/h (4 Bft)
23.07.2017 02:10 14,7 °C 14,7 °C 92 % 1015,7 hPa 0,0 mm 10,9 km/h (2 Bft) W-SW 250 ° 0 min 0,000 mm 0,0 UV-I 0 W/m² 13,4 °C 14,7 °C 17,7 km/h (3 Bft)
23.07.2017 02:11 14,7 °C 14,7 °C 92 % 1015,6 hPa 0,2 mm 8,0 km/h (2 Bft) W 268 ° 0 min 0,000 mm 0,0 UV-I 0 W/m² 13,4 °C 14,7 °C 14,5 km/h (3 Bft)
23.07.2017 02:12 14,7 °C 14,7 °C 92 % 1015,6 hPa 0,0 mm 10,6 km/h (2 Bft) W 263 ° 0 min 0,000 mm 0,0 UV-I 0 W/m² 13,4 °C 14,7 °C 14,5 km/h (3 Bft)
23.07.2017 02:13 14,7 °C 14,7 °C 92 % 1015,6 hPa 0,0 mm 10,4 km/h (2 Bft) W 281 ° 0 min 0,000 mm 0,0 UV-I 0 W/m² 13,4 °C 14,7 °C 14,5 km/h (3 Bft)
23.07.2017 02:14 14,6 °C 14,7 °C 92 % 1015,6 hPa 0,2 mm 13,7 km/h (3 Bft) W-SW 245 ° 0 min 0,000 mm 0,0 UV-I 0 W/m² 13,3 °C 14,6 °C 22,5 km/h (4 Bft)
23.07.2017 02:15 14,6 °C 14,6 °C 92 % 1015,5 hPa 0,0 mm 7,5 km/h (2 Bft) W-SW 253 ° 0 min 0,000 mm 0,0 UV-I 0 W/m² 13,3 °C 14,6 °C 11,3 km/h (2 Bft)
23.07.2017 02:16 14,6 °C 14,6 °C 92 % 1015,6 hPa 0,0 mm 12,6 km/h (3 Bft) S-SW 210 ° 0 min 0,000 mm 0,0 UV-I 0 W/m² 13,3 °C 14,6 °C 20,9 km/h (4 Bft)
23.07.2017 02:17 14,6 °C 14,6 °C 92 % 1015,6 hPa 0,2 mm 5,3 km/h (1 Bft) W 267 ° 0 min 0,000 mm 0,0 UV-I 0 W/m² 13,3 °C 14,6 °C 9,7 km/h (2 Bft)
23.07.2017 02:18 14,6 °C 14,6 °C 92 % 1015,6 hPa 0,0 mm 9,4 km/h (2 Bft) NW 326 ° 0 min 0,000 mm 0,0 UV-I 0 W/m² 13,3 °C 14,6 °C 12,9 km/h (3 Bft)
23.07.2017 02:19 14,6 °C 14,6 °C 92 % 1015,6 hPa 0,2 mm 13,1 km/h (3 Bft) SW 230 ° 0 min 0,000 mm 0,0 UV-I 0 W/m² 13,3 °C 14,6 °C 20,9 km/h (4 Bft)
23.07.2017 02:20 14,6 °C 14,6 °C 92 % 1015,5 hPa 0,0 mm 6,3 km/h (2 Bft) S-SW 200 ° 0 min 0,000 mm 0,0 UV-I 0 W/m² 13,3 °C 14,6 °C 12,9 km/h (3 Bft)
23.07.2017 02:21 14,5 °C 14,6 °C 92 % 1015,5 hPa 0,2 mm 7,6 km/h (2 Bft) W 265 ° 0 min 0,000 mm 0,0 UV-I 0 W/m² 13,2 °C 14,5 °C 12,9 km/h (3 Bft)
23.07.2017 02:22 14,5 °C 14,6 °C 92 % 1015,5 hPa 0,0 mm 7,8 km/h (2 Bft) W 277 ° 0 min 0,000 mm 0,0 UV-I 0 W/m² 13,2 °C 14,5 °C 20,9 km/h (4 Bft)
23.07.2017 02:23 14,5 °C 14,6 °C 92 % 1015,5 hPa 0,2 mm 8,4 km/h (2 Bft) S 186 ° 0 min 0,000 mm 0,0 UV-I 0 W/m² 13,2 °C 14,5 °C 14,5 km/h (3 Bft)
23.07.2017 02:24 14,5 °C 14,5 °C 92 % 1015,5 hPa 0,0 mm 8,4 km/h (2 Bft) W-SW 245 ° 0 min 0,000 mm 0,0 UV-I 0 W/m² 13,2 °C 14,5 °C 12,9 km/h (3 Bft)
23.07.2017 02:25 14,5 °C 14,5 °C 92 % 1015,5 hPa 0,0 mm 8,3 km/h (2 Bft) S 183 ° 0 min 0,000 mm 0,0 UV-I 0 W/m² 13,2 °C 14,5 °C 11,3 km/h (2 Bft)
23.07.2017 02:26 14,4 °C 14,5 °C 92 % 1015,5 hPa 0,2 mm 5,9 km/h (2 Bft) S 184 ° 0 min 0,000 mm 0,0 UV-I 0 W/m² 13,1 °C 14,4 °C 11,3 km/h (2 Bft)
23.07.2017 02:27 14,5 °C 14,5 °C 92 % 1015,5 hPa 0,0 mm 4,3 km/h (1 Bft) W-SW 246 ° 0 min 0,000 mm 0,0 UV-I 0 W/m² 13,2 °C 14,5 °C 6,4 km/h (2 Bft)
23.07.2017 02:28 14,5 °C 14,5 °C 92 % 1015,4 hPa 0,2 mm 1,5 km/h (1 Bft) S-SW 198 ° 0 min 0,000 mm 0,0 UV-I 0 W/m² 13,2 °C 14,5 °C 4,8 km/h (1 Bft)
23.07.2017 02:29 14,5 °C 14,5 °C 92 % 1015,4 hPa 0,0 mm 0,2 km/h (0 Bft) S-SW 198 ° 0 min 0,000 mm 0,0 UV-I 0 W/m² 13,2 °C 14,5 °C 3,2 km/h (1 Bft)
23.07.2017 02:30 14,4 °C 14,5 °C 92 % 1015,4 hPa 0,0 mm 4,4 km/h (1 Bft) NW 315 ° 0 min 0,000 mm 0,0 UV-I 0 W/m² 13,1 °C 14,4 °C 6,4 km/h (2 Bft)
23.07.2017 02:31 14,4 °C 14,5 °C 92 % 1015,4 hPa 0,2 mm 5,9 km/h (2 Bft) W 266 ° 0 min 0,000 mm 0,0 UV-I 0 W/m² 13,1 °C 14,4 °C 11,3 km/h (2 Bft)
23.07.2017 02:32 14,5 °C 14,5 °C 92 % 1015,4 hPa 0,0 mm 3,8 km/h (1 Bft) SW 229 ° 0 min 0,000 mm 0,0 UV-I 0 W/m² 13,2 °C 14,5 °C 6,4 km/h (2 Bft)
23.07.2017 02:33 14,4 °C 14,5 °C 92 % 1015,4 hPa 0,0 mm 3,7 km/h (1 Bft) S-SW 197 ° 0 min 0,000 mm 0,0 UV-I 0 W/m² 13,1 °C 14,4 °C 6,4 km/h (2 Bft)
23.07.2017 02:34 14,4 °C 14,5 °C 92 % 1015,4 hPa 0,2 mm 2,6 km/h (1 Bft) S-SW 198 ° 0 min 0,000 mm 0,0 UV-I 0 W/m² 13,1 °C 14,4 °C 4,8 km/h (1 Bft)
23.07.2017 02:35 14,4 °C 14,5 °C 92 % 1015,3 hPa 0,0 mm 3,1 km/h (1 Bft) SW 222 ° 0 min 0,000 mm 0,0 UV-I 0 W/m² 13,1 °C 14,4 °C 4,8 km/h (1 Bft)
23.07.2017 02:36 14,4 °C 14,4 °C 92 % 1015,3 hPa 0,0 mm 3,8 km/h (1 Bft) SW 229 ° 0 min 0,000 mm 0,0 UV-I 0 W/m² 13,1 °C 14,4 °C 6,4 km/h (2 Bft)
23.07.2017 02:37 14,4 °C 14,5 °C 92 % 1015,3 hPa 0,2 mm 2,0 km/h (1 Bft) W-SW 239 ° 0 min 0,000 mm 0,0 UV-I 0 W/m² 13,1 °C 14,4 °C 4,8 km/h (1 Bft)
23.07.2017 02:38 14,4 °C 14,4 °C 92 % 1015,1 hPa 0,0 mm 1,0 km/h (0 Bft) W-SW 256 ° 0 min 0,000 mm 0,0 UV-I 0 W/m² 13,1 °C 14,4 °C 3,2 km/h (1 Bft)
23.07.2017 02:39 14,4 °C 14,4 °C 92 % 1015,1 hPa 0,0 mm 2,5 km/h (1 Bft) S 187 ° 0 min 0,000 mm 0,0 UV-I 0 W/m² 13,1 °C 14,4 °C 6,4 km/h (2 Bft)
23.07.2017 02:40 14,4 °C 14,4 °C 92 % 1015,1 hPa 0,2 mm 7,2 km/h (2 Bft) S 184 ° 0 min 0,000 mm 0,0 UV-I 0 W/m² 13,1 °C 14,4 °C 11,3 km/h (2 Bft)
23.07.2017 02:41 14,4 °C 14,4 °C 92 % 1015,1 hPa 0,2 mm 3,2 km/h (1 Bft) S-SW 197 ° 0 min 0,000 mm 0,0 UV-I 0 W/m² 13,1 °C 14,4 °C 9,7 km/h (2 Bft)
23.07.2017 02:42 14,3 °C 14,4 °C 91 % 1015,1 hPa 0,0 mm 1,7 km/h (1 Bft) S 191 ° 0 min 0,000 mm 0,0 UV-I 0 W/m² 12,8 °C 14,3 °C 4,8 km/h (1 Bft)
23.07.2017 02:43 14,4 °C 14,4 °C 91 % 1015,1 hPa 0,2 mm 2,9 km/h (1 Bft) SW 217 ° 0 min 0,000 mm 0,0 UV-I 0 W/m² 12,9 °C 14,4 °C 6,4 km/h (2 Bft)
23.07.2017 02:44 14,4 °C 14,4 °C 91 % 1015,0 hPa 0,0 mm 2,8 km/h (1 Bft) S-SW 202 ° 0 min 0,000 mm 0,0 UV-I 0 W/m² 12,9 °C 14,4 °C 3,2 km/h (1 Bft)
23.07.2017 02:45 14,3 °C 14,4 °C 91 % 1015,0 hPa 0,2 mm 2,4 km/h (1 Bft) W-SW 243 ° 0 min 0,000 mm 0,0 UV-I 0 W/m² 12,8 °C 14,3 °C 4,8 km/h (1 Bft)
23.07.2017 02:46 14,4 °C 14,4 °C 91 % 1015,0 hPa 0,0 mm 2,4 km/h (1 Bft) S-SO 165 ° 0 min 0,000 mm 0,0 UV-I 0 W/m² 12,9 °C 14,4 °C 3,2 km/h (1 Bft)
23.07.2017 02:47 14,3 °C 14,4 °C 91 % 1015,0 hPa 0,2 mm 4,2 km/h (1 Bft) SW 222 ° 0 min 0,000 mm 0,0 UV-I 0 W/m² 12,8 °C 14,3 °C 9,7 km/h (2 Bft)
23.07.2017 02:48 14,3 °C 14,3 °C 91 % 1015,0 hPa 0,2 mm 1,9 km/h (1 Bft) SW 214 ° 0 min 0,000 mm 0,0 UV-I 0 W/m² 12,8 °C 14,3 °C 3,2 km/h (1 Bft)
23.07.2017 02:49 14,3 °C 14,3 °C 92 % 1014,9 hPa 0,2 mm 3,5 km/h (1 Bft) S-SW 211 ° 0 min 0,000 mm 0,0 UV-I 0 W/m² 13,0 °C 14,3 °C 6,4 km/h (2 Bft)
23.07.2017 02:50 14,3 °C 14,3 °C 92 % 1015,0 hPa 0,0 mm 3,4 km/h (1 Bft) S-SW 193 ° 0 min 0,000 mm 0,0 UV-I 0 W/m² 13,0 °C 14,3 °C 6,4 km/h (2 Bft)
23.07.2017 02:51 14,3 °C 14,3 °C 92 % 1015,0 hPa 0,2 mm 2,4 km/h (1 Bft) SO 128 ° 0 min 0,000 mm 0,0 UV-I 0 W/m² 13,0 °C 14,3 °C 3,2 km/h (1 Bft)
23.07.2017 02:52 14,2 °C 14,3 °C 92 % 1014,9 hPa 0,0 mm 1,9 km/h (1 Bft) SO 129 ° 0 min 0,000 mm 0,0 UV-I 0 W/m² 12,9 °C 14,2 °C 3,2 km/h (1 Bft)
23.07.2017 02:53 14,2 °C 14,2 °C 92 % 1015,0 hPa 0,0 mm 1,1 km/h (1 Bft) SO 129 ° 0 min 0,000 mm 0,0 UV-I 0 W/m² 12,9 °C 14,2 °C 3,2 km/h (1 Bft)
23.07.2017 02:54 14,2 °C 14,2 °C 92 % 1015,0 hPa 0,2 mm 0,1 km/h (0 Bft) SO 129 ° 0 min 0,000 mm 0,0 UV-I 0 W/m² 12,9 °C 14,2 °C 1,6 km/h (1 Bft)
23.07.2017 02:55 14,1 °C 14,2 °C 92 % 1015,0 hPa 0,0 mm 0,1 km/h (0 Bft) SO 129 ° 0 min 0,000 mm 0,0 UV-I 0 W/m² 12,8 °C 14,1 °C 1,6 km/h (1 Bft)
23.07.2017 02:56 14,1 °C 14,1 °C 93 % 1015,0 hPa 0,0 mm 0,1 km/h (0 Bft) SO 129 ° 0 min 0,000 mm 0,0 UV-I 0 W/m² 13,0 °C 14,1 °C 1,6 km/h (1 Bft)
23.07.2017 02:57 14,1 °C 14,1 °C 93 % 1015,0 hPa 0,0 mm 0,0 km/h (0 Bft) SO 129 ° 0 min 0,000 mm 0,0 UV-I 0 W/m² 13,0 °C 14,1 °C 0,0 km/h (0 Bft)
23.07.2017 02:58 14,1 °C 14,1 °C 93 % 1015,0 hPa 0,2 mm 0,0 km/h (0 Bft) SO 129 ° 0 min 0,000 mm 0,0 UV-I 0 W/m² 13,0 °C 14,1 °C 0,0 km/h (0 Bft)
23.07.2017 02:59 14,1 °C 14,1 °C 93 % 1015,0 hPa 0,0 mm 0,0 km/h (0 Bft) SO 129 ° 0 min 0,000 mm 0,0 UV-I 0 W/m² 13,0 °C 14,1 °C 0,0 km/h (0 Bft)
23.07.2017 03:00 14,0 °C 14,1 °C 93 % 1015,1 hPa 0,0 mm 0,0 km/h (0 Bft) SO 129 ° 0 min 0,000 mm 0,0 UV-I 0 W/m² 12,9 °C 14,0 °C 0,0 km/h (0 Bft)
23.07.2017 03:01 14,1 °C 14,1 °C 93 % 1015,1 hPa 0,0 mm 0,3 km/h (0 Bft) SO 129 ° 0 min 0,000 mm 0,0 UV-I 0 W/m² 13,0 °C 14,1 °C 1,6 km/h (1 Bft)
23.07.2017 03:02 14,0 °C 14,1 °C 93 % 1015,0 hPa 0,0 mm 0,1 km/h (0 Bft) SO 129 ° 0 min 0,000 mm 0,0 UV-I 0 W/m² 12,9 °C 14,0 °C 1,6 km/h (1 Bft)
23.07.2017 03:03 14,0 °C 14,0 °C 93 % 1015,0 hPa 0,0 mm 0,0 km/h (0 Bft) SO 129 ° 0 min 0,000 mm 0,0 UV-I 0 W/m² 12,9 °C 14,0 °C 0,0 km/h (0 Bft)
23.07.2017 03:04 13,9 °C 14,0 °C 93 % 1015,0 hPa 0,2 mm 0,0 km/h (0 Bft) SO 129 ° 0 min 0,000 mm 0,0 UV-I 0 W/m² 12,8 °C 13,9 °C 0,0 km/h (0 Bft)
23.07.2017 03:05 13,9 °C 14,0 °C 93 % 1015,0 hPa 0,0 mm 0,0 km/h (0 Bft) SO 129 ° 0 min 0,000 mm 0,0 UV-I 0 W/m² 12,8 °C 13,9 °C 0,0 km/h (0 Bft)
23.07.2017 03:06 13,9 °C 13,9 °C 93 % 1014,9 hPa 0,0 mm 0,0 km/h (0 Bft) SO 129 ° 0 min 0,000 mm 0,0 UV-I 0 W/m² 12,8 °C 13,9 °C 0,0 km/h (0 Bft)
23.07.2017 03:07 13,9 °C 13,9 °C 93 % 1014,9 hPa 0,0 mm 1,1 km/h (1 Bft) O-SO 121 ° 0 min 0,000 mm 0,0 UV-I 0 W/m² 12,8 °C 13,9 °C 3,2 km/h (1 Bft)
23.07.2017 03:08 13,9 °C 13,9 °C 93 % 1014,8 hPa 0,0 mm 0,6 km/h (0 Bft) O-SO 121 ° 0 min 0,000 mm 0,0 UV-I 0 W/m² 12,8 °C 13,9 °C 1,6 km/h (1 Bft)
23.07.2017 03:09 13,9 °C 13,9 °C 94 % 1014,9 hPa 0,0 mm 0,0 km/h (0 Bft) O-SO 121 ° 0 min 0,000 mm 0,0 UV-I 0 W/m² 12,9 °C 13,9 °C 0,0 km/h (0 Bft)
23.07.2017 03:10 13,9 °C 13,9 °C 94 % 1014,8 hPa 0,0 mm 0,0 km/h (0 Bft) O-SO 121 ° 0 min 0,000 mm 0,0 UV-I 0 W/m² 12,9 °C 13,9 °C 0,0 km/h (0 Bft)
23.07.2017 03:11 13,9 °C 13,9 °C 94 % 1014,8 hPa 0,0 mm 0,0 km/h (0 Bft) O-SO 121 ° 0 min 0,000 mm 0,0 UV-I 0 W/m² 12,9 °C 13,9 °C 0,0 km/h (0 Bft)
23.07.2017 03:12 13,9 °C 13,9 °C 94 % 1014,8 hPa 0,0 mm 0,0 km/h (0 Bft) O-SO 121 ° 0 min 0,000 mm 0,0 UV-I 0 W/m² 12,9 °C 13,9 °C 0,0 km/h (0 Bft)
23.07.2017 03:13 13,9 °C 13,9 °C 94 % 1014,8 hPa 0,0 mm 0,0 km/h (0 Bft) O-SO 121 ° 0 min 0,000 mm 0,0 UV-I 0 W/m² 12,9 °C 13,9 °C 0,0 km/h (0 Bft)
23.07.2017 03:14 13,9 °C 13,9 °C 94 % 1014,8 hPa 0,0 mm 0,2 km/h (0 Bft) SW 228 ° 0 min 0,000 mm 0,0 UV-I 0 W/m² 12,9 °C 13,9 °C 1,6 km/h (1 Bft)
23.07.2017 03:15 13,8 °C 13,9 °C 94 % 1014,8 hPa 0,0 mm 0,3 km/h (0 Bft) SW 228 ° 0 min 0,000 mm 0,0 UV-I 0 W/m² 12,9 °C 13,8 °C 1,6 km/h (1 Bft)
23.07.2017 03:16 13,8 °C 13,8 °C 94 % 1014,8 hPa 0,0 mm 0,0 km/h (0 Bft) SW 228 ° 0 min 0,000 mm 0,0 UV-I 0 W/m² 12,9 °C 13,8 °C 0,0 km/h (0 Bft)
23.07.2017 03:17 13,8 °C 13,9 °C 94 % 1014,8 hPa 0,0 mm 0,0 km/h (0 Bft) SW 228 ° 0 min 0,000 mm 0,0 UV-I 0 W/m² 12,9 °C 13,8 °C 0,0 km/h (0 Bft)
23.07.2017 03:18 13,8 °C 13,8 °C 94 % 1014,8 hPa 0,0 mm 0,7 km/h (0 Bft) S 184 ° 0 min 0,000 mm 0,0 UV-I 0 W/m² 12,9 °C 13,8 °C 1,6 km/h (1 Bft)
23.07.2017 03:19 13,8 °C 13,8 °C 94 % 1014,8 hPa 0,0 mm 0,0 km/h (0 Bft) S 184 ° 0 min 0,000 mm 0,0 UV-I 0 W/m² 12,9 °C 13,8 °C 0,0 km/h (0 Bft)
23.07.2017 03:20 13,8 °C 13,8 °C 94 % 1014,8 hPa 0,0 mm 0,0 km/h (0 Bft) S 184 ° 0 min 0,000 mm 0,0 UV-I 0 W/m² 12,9 °C 13,8 °C 0,0 km/h (0 Bft)
23.07.2017 03:21 13,8 °C 13,8 °C 94 % 1014,8 hPa 0,0 mm 0,0 km/h (0 Bft) S 184 ° 0 min 0,000 mm 0,0 UV-I 0 W/m² 12,9 °C 13,8 °C 0,0 km/h (0 Bft)
23.07.2017 03:22 13,8 °C 13,8 °C 94 % 1014,7 hPa 0,0 mm 0,1 km/h (0 Bft) S 184 ° 0 min 0,000 mm 0,0 UV-I 0 W/m² 12,9 °C 13,8 °C 1,6 km/h (1 Bft)
23.07.2017 03:23 13,8 °C 13,8 °C 94 % 1014,7 hPa 0,0 mm 0,0 km/h (0 Bft) S 184 ° 0 min 0,000 mm 0,0 UV-I 0 W/m² 12,9 °C 13,8 °C 0,0 km/h (0 Bft)
23.07.2017 03:24 13,8 °C 13,8 °C 94 % 1014,7 hPa 0,0 mm 0,0 km/h (0 Bft) S 184 ° 0 min 0,000 mm 0,0 UV-I 0 W/m² 12,9 °C 13,8 °C 0,0 km/h (0 Bft)
23.07.2017 03:25 13,8 °C 13,8 °C 94 % 1014,6 hPa 0,0 mm 0,0 km/h (0 Bft) S 184 ° 0 min 0,000 mm 0,0 UV-I 0 W/m² 12,9 °C 13,8 °C 0,0 km/h (0 Bft)
23.07.2017 03:26 13,8 °C 13,8 °C 94 % 1014,6 hPa 0,0 mm 0,0 km/h (0 Bft) S 184 ° 0 min 0,000 mm 0,0 UV-I 0 W/m² 12,9 °C 13,8 °C 0,0 km/h (0 Bft)
23.07.2017 03:27 13,8 °C 13,8 °C 94 % 1014,6 hPa 0,0 mm 0,0 km/h (0 Bft) S 184 ° 0 min 0,000 mm 0,0 UV-I 0 W/m² 12,9 °C 13,8 °C 0,0 km/h (0 Bft)
23.07.2017 03:28 13,8 °C 13,8 °C 94 % 1014,6 hPa 0,0 mm 0,0 km/h (0 Bft) S 184 ° 0 min 0,000 mm 0,0 UV-I 0 W/m² 12,9 °C 13,8 °C 0,0 km/h (0 Bft)
23.07.2017 03:29 13,8 °C 13,8 °C 94 % 1014,6 hPa 0,0 mm 0,0 km/h (0 Bft) S 184 ° 0 min 0,000 mm 0,0 UV-I 0 W/m² 12,9 °C 13,8 °C 0,0 km/h (0 Bft)
23.07.2017 03:30 13,8 °C 13,8 °C 94 % 1014,5 hPa 0,0 mm 0,0 km/h (0 Bft) S 184 ° 0 min 0,000 mm 0,0 UV-I 0 W/m² 12,9 °C 13,8 °C 0,0 km/h (0 Bft)
23.07.2017 03:31 13,8 °C 13,8 °C 94 % 1014,4 hPa 0,0 mm 0,6 km/h (0 Bft) O-SO 123 ° 0 min 0,000 mm 0,0 UV-I 0 W/m² 12,9 °C 13,8 °C 3,2 km/h (1 Bft)
23.07.2017 03:32 13,8 °C 13,8 °C 94 % 1014,4 hPa 0,0 mm 1,5 km/h (1 Bft) O-SO 123 ° 0 min 0,000 mm 0,0 UV-I 0 W/m² 12,9 °C 13,8 °C 3,2 km/h (1 Bft)
23.07.2017 03:33 13,8 °C 13,8 °C 94 % 1014,4 hPa 0,0 mm 0,1 km/h (0 Bft) O-SO 123 ° 0 min 0,000 mm 0,0 UV-I 0 W/m² 12,9 °C 13,8 °C 1,6 km/h (1 Bft)
23.07.2017 03:34 13,8 °C 13,8 °C 94 % 1014,4 hPa 0,0 mm 0,0 km/h (0 Bft) O-SO 123 ° 0 min 0,000 mm 0,0 UV-I 0 W/m² 12,9 °C 13,8 °C 0,0 km/h (0 Bft)
23.07.2017 03:35 13,8 °C 13,8 °C 94 % 1014,4 hPa 0,0 mm 0,0 km/h (0 Bft) O-SO 123 ° 0 min 0,000 mm 0,0 UV-I 0 W/m² 12,9 °C 13,8 °C 0,0 km/h (0 Bft)
23.07.2017 03:36 13,8 °C 13,8 °C 94 % 1014,5 hPa 0,0 mm 0,0 km/h (0 Bft) O-SO 123 ° 0 min 0,000 mm 0,0 UV-I 0 W/m² 12,9 °C 13,8 °C 0,0 km/h (0 Bft)
23.07.2017 03:37 13,8 °C 13,8 °C 94 % 1014,4 hPa 0,0 mm 0,0 km/h (0 Bft) O-SO 123 ° 0 min 0,000 mm 0,0 UV-I 0 W/m² 12,9 °C 13,8 °C 0,0 km/h (0 Bft)
23.07.2017 03:38 13,8 °C 13,8 °C 94 % 1014,4 hPa 0,0 mm 0,0 km/h (0 Bft) O-SO 123 ° 0 min 0,000 mm 0,0 UV-I 0 W/m² 12,9 °C 13,8 °C 0,0 km/h (0 Bft)
23.07.2017 03:39 13,8 °C 13,8 °C 94 % 1014,4 hPa 0,0 mm 0,0 km/h (0 Bft) O-SO 123 ° 0 min 0,000 mm 0,0 UV-I 0 W/m² 12,9 °C 13,8 °C 0,0 km/h (0 Bft)
23.07.2017 03:40 13,8 °C 13,8 °C 94 % 1014,4 hPa 0,0 mm 0,0 km/h (0 Bft) O-SO 123 ° 0 min 0,000 mm 0,0 UV-I 0 W/m² 12,9 °C 13,8 °C 0,0 km/h (0 Bft)
23.07.2017 03:41 13,7 °C 13,8 °C 94 % 1014,3 hPa 0,0 mm 0,0 km/h (0 Bft) O-SO 123 ° 0 min 0,000 mm 0,0 UV-I 0 W/m² 12,8 °C 13,7 °C 0,0 km/h (0 Bft)
23.07.2017 03:42 13,7 °C 13,8 °C 94 % 1014,3 hPa 0,0 mm 0,0 km/h (0 Bft) O-SO 123 ° 0 min 0,000 mm 0,0 UV-I 0 W/m² 12,8 °C 13,7 °C 0,0 km/h (0 Bft)
23.07.2017 03:43 13,7 °C 13,7 °C 94 % 1014,3 hPa 0,0 mm 0,0 km/h (0 Bft) O-SO 123 ° 0 min 0,000 mm 0,0 UV-I 0 W/m² 12,8 °C 13,7 °C 0,0 km/h (0 Bft)
23.07.2017 03:44 13,7 °C 13,7 °C 94 % 1014,3 hPa 0,0 mm 0,0 km/h (0 Bft) O-SO 123 ° 0 min 0,000 mm 0,0 UV-I 0 W/m² 12,8 °C 13,7 °C 0,0 km/h (0 Bft)
23.07.2017 03:45 13,7 °C 13,7 °C 94 % 1014,2 hPa 0,0 mm 0,0 km/h (0 Bft) O-SO 123 ° 0 min 0,000 mm 0,0 UV-I 0 W/m² 12,8 °C 13,7 °C 0,0 km/h (0 Bft)
23.07.2017 03:46 13,7 °C 13,7 °C 94 % 1014,2 hPa 0,0 mm 0,0 km/h (0 Bft) O-SO 123 ° 0 min 0,000 mm 0,0 UV-I 0 W/m² 12,8 °C 13,7 °C 0,0 km/h (0 Bft)
23.07.2017 03:47 13,6 °C 13,7 °C 94 % 1014,2 hPa 0,0 mm 0,0 km/h (0 Bft) O-SO 123 ° 0 min 0,000 mm 0,0 UV-I 0 W/m² 12,7 °C 13,6 °C 0,0 km/h (0 Bft)
23.07.2017 03:48 13,6 °C 13,7 °C 94 % 1014,2 hPa 0,0 mm 0,0 km/h (0 Bft) O-SO 123 ° 0 min 0,000 mm 0,0 UV-I 0 W/m² 12,7 °C 13,6 °C 0,0 km/h (0 Bft)
23.07.2017 03:49 13,6 °C 13,6 °C 94 % 1014,2 hPa 0,0 mm 0,1 km/h (0 Bft) S-SW 200 ° 0 min 0,000 mm 0,0 UV-I 0 W/m² 12,7 °C 13,6 °C 1,6 km/h (1 Bft)
23.07.2017 03:50 13,6 °C 13,6 °C 94 % 1014,3 hPa 0,0 mm 0,1 km/h (0 Bft) O-SO 115 ° 0 min 0,000 mm 0,0 UV-I 0 W/m² 12,7 °C 13,6 °C 1,6 km/h (1 Bft)
23.07.2017 03:51 13,6 °C 13,6 °C 94 % 1014,3 hPa 0,0 mm 0,0 km/h (0 Bft) O-SO 115 ° 0 min 0,000 mm 0,0 UV-I 0 W/m² 12,7 °C 13,6 °C 0,0 km/h (0 Bft)
23.07.2017 03:52 13,5 °C 13,6 °C 94 % 1014,2 hPa 0,0 mm 0,1 km/h (0 Bft) O-SO 115 ° 0 min 0,000 mm 0,0 UV-I 0 W/m² 12,6 °C 13,5 °C 1,6 km/h (1 Bft)
23.07.2017 03:53 13,5 °C 13,5 °C 95 % 1014,2 hPa 0,0 mm 0,0 km/h (0 Bft) O-SO 115 ° 0 min 0,000 mm 0,0 UV-I 0 W/m² 12,7 °C 13,5 °C 0,0 km/h (0 Bft)
23.07.2017 03:54 13,5 °C 13,5 °C 95 % 1014,2 hPa 0,0 mm 0,0 km/h (0 Bft) O-SO 115 ° 0 min 0,000 mm 0,0 UV-I 0 W/m² 12,7 °C 13,5 °C 0,0 km/h (0 Bft)
23.07.2017 03:55 13,4 °C 13,5 °C 95 % 1014,2 hPa 0,0 mm 0,0 km/h (0 Bft) O-SO 115 ° 0 min 0,000 mm 0,0 UV-I 0 W/m² 12,6 °C 13,4 °C 0,0 km/h (0 Bft)
23.07.2017 03:56 13,4 °C 13,4 °C 94 % 1014,2 hPa 0,0 mm 0,0 km/h (0 Bft) O-SO 115 ° 0 min 0,000 mm 0,0 UV-I 0 W/m² 12,5 °C 13,4 °C 0,0 km/h (0 Bft)
23.07.2017 03:57 13,4 °C 13,4 °C 94 % 1014,2 hPa 0,0 mm 1,1 km/h (1 Bft) O-SO 114 ° 0 min 0,000 mm 0,0 UV-I 0 W/m² 12,5 °C 13,4 °C 3,2 km/h (1 Bft)
23.07.2017 03:58 13,4 °C 13,4 °C 94 % 1014,2 hPa 0,0 mm 0,1 km/h (0 Bft) O-SO 114 ° 0 min 0,000 mm 0,0 UV-I 0 W/m² 12,5 °C 13,4 °C 1,6 km/h (1 Bft)
23.07.2017 03:59 13,4 °C 13,4 °C 95 % 1014,2 hPa 0,0 mm 0,0 km/h (0 Bft) O-SO 114 ° 0 min 0,000 mm 0,0 UV-I 0 W/m² 12,6 °C 13,4 °C 0,0 km/h (0 Bft)
23.07.2017 04:00 13,4 °C 13,4 °C 95 % 1014,2 hPa 0,0 mm 0,6 km/h (0 Bft) O 80 ° 0 min 0,000 mm 0,0 UV-I 0 W/m² 12,6 °C 13,4 °C 3,2 km/h (1 Bft)
23.07.2017 04:02 13,3 °C 13,4 °C 95 % 1014,1 hPa 0,0 mm 0,1 km/h (0 Bft) O 80 ° 0 min 0,000 mm 0,0 UV-I 0 W/m² 12,5 °C 13,3 °C 1,6 km/h (1 Bft)
23.07.2017 04:03 13,4 °C 13,4 °C 95 % 1014,1 hPa 0,0 mm 3,3 km/h (1 Bft) O 100 ° 0 min 0,000 mm 0,0 UV-I 0 W/m² 12,6 °C 13,4 °C 6,4 km/h (2 Bft)
23.07.2017 04:04 13,4 °C 13,4 °C 95 % 1014,1 hPa 0,0 mm 0,4 km/h (0 Bft) O 99 ° 0 min 0,000 mm 0,0 UV-I 0 W/m² 12,6 °C 13,4 °C 3,2 km/h (1 Bft)
23.07.2017 04:05 13,4 °C 13,4 °C 95 % 1014,1 hPa 0,0 mm 1,0 km/h (0 Bft) O 98 ° 0 min 0,000 mm 0,0 UV-I 0 W/m² 12,6 °C 13,4 °C 3,2 km/h (1 Bft)
23.07.2017 04:06 13,4 °C 13,4 °C 95 % 1014,1 hPa 0,0 mm 0,0 km/h (0 Bft) O 98 ° 0 min 0,000 mm 0,0 UV-I 0 W/m² 12,6 °C 13,4 °C 0,0 km/h (0 Bft)
23.07.2017 04:07 13,4 °C 13,4 °C 95 % 1014,1 hPa 0,0 mm 0,0 km/h (0 Bft) O 98 ° 0 min 0,000 mm 0,0 UV-I 0 W/m² 12,6 °C 13,4 °C 0,0 km/h (0 Bft)
23.07.2017 04:08 13,4 °C 13,4 °C 95 % 1014,0 hPa 0,0 mm 0,5 km/h (0 Bft) O 98 ° 0 min 0,000 mm 0,0 UV-I 0 W/m² 12,6 °C 13,4 °C 3,2 km/h (1 Bft)
23.07.2017 04:09 13,4 °C 13,4 °C 95 % 1014,1 hPa 0,0 mm 0,7 km/h (0 Bft) O 98 ° 0 min 0,000 mm 0,0 UV-I 0 W/m² 12,6 °C 13,4 °C 1,6 km/h (1 Bft)
23.07.2017 04:10 13,3 °C 13,4 °C 95 % 1014,0 hPa 0,0 mm 0,0 km/h (0 Bft) O 98 ° 0 min 0,000 mm 0,0 UV-I 0 W/m² 12,5 °C 13,3 °C 0,0 km/h (0 Bft)
23.07.2017 04:11 13,3 °C 13,3 °C 95 % 1014,0 hPa 0,0 mm 1,7 km/h (1 Bft) O 96 ° 0 min 0,000 mm 0,0 UV-I 0 W/m² 12,5 °C 13,3 °C 3,2 km/h (1 Bft)
23.07.2017 04:12 13,3 °C 13,3 °C 95 % 1014,0 hPa 0,0 mm 0,0 km/h (0 Bft) O 96 ° 0 min 0,000 mm 0,0 UV-I 0 W/m² 12,5 °C 13,3 °C 0,0 km/h (0 Bft)
23.07.2017 04:13 13,3 °C 13,3 °C 95 % 1014,0 hPa 0,0 mm 0,0 km/h (0 Bft) O 96 ° 0 min 0,000 mm 0,0 UV-I 0 W/m² 12,5 °C 13,3 °C 0,0 km/h (0 Bft)
23.07.2017 04:14 13,2 °C 13,3 °C 95 % 1014,0 hPa 0,0 mm 0,0 km/h (0 Bft) O 96 ° 0 min 0,000 mm 0,0 UV-I 0 W/m² 12,4 °C 13,2 °C 0,0 km/h (0 Bft)
23.07.2017 04:15 13,2 °C 13,3 °C 95 % 1014,1 hPa 0,0 mm 0,0 km/h (0 Bft) O 96 ° 0 min 0,000 mm 0,0 UV-I 0 W/m² 12,4 °C 13,2 °C 0,0 km/h (0 Bft)
23.07.2017 04:16 13,2 °C 13,2 °C 95 % 1014,1 hPa 0,0 mm 0,0 km/h (0 Bft) O 96 ° 0 min 0,000 mm 0,0 UV-I 0 W/m² 12,4 °C 13,2 °C 0,0 km/h (0 Bft)
23.07.2017 04:17 13,2 °C 13,2 °C 95 % 1014,1 hPa 0,0 mm 0,0 km/h (0 Bft) O 96 ° 0 min 0,000 mm 0,0 UV-I 0 W/m² 12,4 °C 13,2 °C 0,0 km/h (0 Bft)
23.07.2017 04:18 13,3 °C 13,3 °C 95 % 1014,1 hPa 0,0 mm 0,0 km/h (0 Bft) O 96 ° 0 min 0,000 mm 0,0 UV-I 0 W/m² 12,5 °C 13,3 °C 0,0 km/h (0 Bft)
23.07.2017 04:19 13,2 °C 13,3 °C 95 % 1014,1 hPa 0,0 mm 0,0 km/h (0 Bft) O 96 ° 0 min 0,000 mm 0,0 UV-I 0 W/m² 12,4 °C 13,2 °C 0,0 km/h (0 Bft)
23.07.2017 04:20 13,2 °C 13,3 °C 95 % 1014,2 hPa 0,0 mm 0,0 km/h (0 Bft) O 96 ° 0 min 0,000 mm 0,0 UV-I 0 W/m² 12,4 °C 13,2 °C 0,0 km/h (0 Bft)
23.07.2017 04:21 13,2 °C 13,2 °C 95 % 1014,1 hPa 0,0 mm 0,0 km/h (0 Bft) O 96 ° 0 min 0,000 mm 0,0 UV-I 0 W/m² 12,4 °C 13,2 °C 0,0 km/h (0 Bft)
23.07.2017 04:22 13,2 °C 13,2 °C 95 % 1014,1 hPa 0,0 mm 0,0 km/h (0 Bft) O 96 ° 0 min 0,000 mm 0,0 UV-I 0 W/m² 12,4 °C 13,2 °C 0,0 km/h (0 Bft)
23.07.2017 04:23 13,2 °C 13,2 °C 95 % 1014,1 hPa 0,0 mm 0,0 km/h (0 Bft) O 96 ° 0 min 0,000 mm 0,0 UV-I 0 W/m² 12,4 °C 13,2 °C 0,0 km/h (0 Bft)
23.07.2017 04:24 13,2 °C 13,2 °C 95 % 1014,1 hPa 0,0 mm 0,0 km/h (0 Bft) O 96 ° 0 min 0,000 mm 0,0 UV-I 0 W/m² 12,4 °C 13,2 °C 0,0 km/h (0 Bft)
23.07.2017 04:25 13,2 °C 13,2 °C 95 % 1014,1 hPa 0,0 mm 0,0 km/h (0 Bft) O 96 ° 0 min 0,000 mm 0,0 UV-I 0 W/m² 12,4 °C 13,2 °C 0,0 km/h (0 Bft)
23.07.2017 04:26 13,2 °C 13,2 °C 95 % 1014,1 hPa 0,0 mm 0,0 km/h (0 Bft) O 96 ° 0 min 0,000 mm 0,0 UV-I 0 W/m² 12,4 °C 13,2 °C 0,0 km/h (0 Bft)
23.07.2017 04:27 13,1 °C 13,2 °C 95 % 1014,1 hPa 0,0 mm 0,0 km/h (0 Bft) O 96 ° 0 min 0,000 mm 0,0 UV-I 0 W/m² 12,3 °C 13,1 °C 0,0 km/h (0 Bft)
23.07.2017 04:28 13,1 °C 13,2 °C 95 % 1014,1 hPa 0,0 mm 0,0 km/h (0 Bft) O 96 ° 0 min 0,000 mm 0,0 UV-I 0 W/m² 12,3 °C 13,1 °C 0,0 km/h (0 Bft)
23.07.2017 04:29 13,1 °C 13,1 °C 95 % 1014,1 hPa 0,0 mm 0,0 km/h (0 Bft) O 96 ° 0 min 0,000 mm 0,0 UV-I 0 W/m² 12,3 °C 13,1 °C 0,0 km/h (0 Bft)
23.07.2017 04:30 13,1 °C 13,1 °C 95 % 1014,0 hPa 0,0 mm 0,0 km/h (0 Bft) O 96 ° 0 min 0,000 mm 0,0 UV-I 0 W/m² 12,3 °C 13,1 °C 0,0 km/h (0 Bft)
23.07.2017 04:31 13,1 °C 13,1 °C 95 % 1014,1 hPa 0,0 mm 0,0 km/h (0 Bft) O 96 ° 0 min 0,000 mm 0,0 UV-I 0 W/m² 12,3 °C 13,1 °C 0,0 km/h (0 Bft)
23.07.2017 04:32 13,1 °C 13,2 °C 95 % 1014,0 hPa 0,0 mm 0,0 km/h (0 Bft) O 96 ° 0 min 0,000 mm 0,0 UV-I 0 W/m² 12,3 °C 13,1 °C 0,0 km/h (0 Bft)
23.07.2017 04:33 13,1 °C 13,1 °C 95 % 1014,1 hPa 0,0 mm 0,0 km/h (0 Bft) O 96 ° 0 min 0,000 mm 0,0 UV-I 0 W/m² 12,3 °C 13,1 °C 0,0 km/h (0 Bft)
23.07.2017 04:34 13,1 °C 13,2 °C 95 % 1014,0 hPa 0,0 mm 0,6 km/h (0 Bft) O 96 ° 0 min 0,000 mm 0,0 UV-I 0 W/m² 12,3 °C 13,1 °C 1,6 km/h (1 Bft)
23.07.2017 04:35 13,1 °C 13,1 °C 95 % 1014,0 hPa 0,0 mm 0,0 km/h (0 Bft) O 96 ° 0 min 0,000 mm 0,0 UV-I 0 W/m² 12,3 °C 13,1 °C 0,0 km/h (0 Bft)
23.07.2017 04:36 13,1 °C 13,1 °C 95 % 1014,1 hPa 0,0 mm 0,0 km/h (0 Bft) O 96 ° 0 min 0,000 mm 0,0 UV-I 0 W/m² 12,3 °C 13,1 °C 0,0 km/h (0 Bft)
23.07.2017 04:37 13,0 °C 13,1 °C 95 % 1014,1 hPa 0,0 mm 0,0 km/h (0 Bft) O 96 ° 0 min 0,000 mm 0,0 UV-I 0 W/m² 12,2 °C 13,0 °C 0,0 km/h (0 Bft)
23.07.2017 04:38 12,9 °C 13,0 °C 95 % 1014,1 hPa 0,0 mm 0,0 km/h (0 Bft) O 96 ° 0 min 0,000 mm 0,0 UV-I 0 W/m² 12,1 °C 12,9 °C 0,0 km/h (0 Bft)
23.07.2017 04:39 13,0 °C 13,0 °C 95 % 1014,1 hPa 0,0 mm 0,0 km/h (0 Bft) O 96 ° 0 min 0,000 mm 0,0 UV-I 0 W/m² 12,2 °C 13,0 °C 0,0 km/h (0 Bft)
23.07.2017 04:40 13,0 °C 13,0 °C 95 % 1014,1 hPa 0,0 mm 0,0 km/h (0 Bft) O 96 ° 0 min 0,000 mm 0,0 UV-I 0 W/m² 12,2 °C 13,0 °C 0,0 km/h (0 Bft)
23.07.2017 04:41 13,0 °C 13,0 °C 95 % 1014,1 hPa 0,0 mm 0,0 km/h (0 Bft) O 96 ° 0 min 0,000 mm 0,0 UV-I 0 W/m² 12,2 °C 13,0 °C 0,0 km/h (0 Bft)
23.07.2017 04:42 13,0 °C 13,0 °C 95 % 1014,1 hPa 0,0 mm 0,0 km/h (0 Bft) O 96 ° 0 min 0,000 mm 0,0 UV-I 0 W/m² 12,2 °C 13,0 °C 0,0 km/h (0 Bft)
23.07.2017 04:43 13,0 °C 13,0 °C 95 % 1014,1 hPa 0,0 mm 0,0 km/h (0 Bft) O 96 ° 0 min 0,000 mm 0,0 UV-I 0 W/m² 12,2 °C 13,0 °C 0,0 km/h (0 Bft)
23.07.2017 04:44 13,0 °C 13,0 °C 95 % 1014,0 hPa 0,0 mm 0,1 km/h (0 Bft) O 96 ° 0 min 0,000 mm 0,0 UV-I 0 W/m² 12,2 °C 13,0 °C 1,6 km/h (1 Bft)
23.07.2017 04:45 13,0 °C 13,0 °C 95 % 1014,0 hPa 0,0 mm 0,0 km/h (0 Bft) O 96 ° 0 min 0,000 mm 0,0 UV-I 0 W/m² 12,2 °C 13,0 °C 0,0 km/h (0 Bft)
23.07.2017 04:46 12,9 °C 13,0 °C 95 % 1014,0 hPa 0,0 mm 0,0 km/h (0 Bft) O 96 ° 0 min 0,000 mm 0,0 UV-I 0 W/m² 12,1 °C 12,9 °C 0,0 km/h (0 Bft)
23.07.2017 04:47 12,9 °C 13,0 °C 95 % 1014,0 hPa 0,0 mm 0,0 km/h (0 Bft) O 96 ° 0 min 0,000 mm 0,0 UV-I 0 W/m² 12,1 °C 12,9 °C 0,0 km/h (0 Bft)
23.07.2017 04:48 12,9 °C 12,9 °C 95 % 1014,0 hPa 0,0 mm 0,0 km/h (0 Bft) O 96 ° 0 min 0,000 mm 0,0 UV-I 0 W/m² 12,1 °C 12,9 °C 0,0 km/h (0 Bft)
23.07.2017 04:49 13,0 °C 13,0 °C 95 % 1013,9 hPa 0,0 mm 0,0 km/h (0 Bft) O 96 ° 0 min 0,000 mm 0,0 UV-I 0 W/m² 12,2 °C 13,0 °C 0,0 km/h (0 Bft)
23.07.2017 04:50 13,1 °C 13,1 °C 95 % 1013,9 hPa 0,0 mm 0,0 km/h (0 Bft) O 96 ° 0 min 0,000 mm 0,0 UV-I 0 W/m² 12,3 °C 13,1 °C 0,0 km/h (0 Bft)
23.07.2017 04:51 13,1 °C 13,1 °C 95 % 1013,9 hPa 0,0 mm 0,0 km/h (0 Bft) O 96 ° 0 min 0,000 mm 0,0 UV-I 0 W/m² 12,3 °C 13,1 °C 0,0 km/h (0 Bft)
23.07.2017 04:52 13,1 °C 13,1 °C 95 % 1013,9 hPa 0,0 mm 0,0 km/h (0 Bft) O 96 ° 0 min 0,000 mm 0,0 UV-I 0 W/m² 12,3 °C 13,1 °C 0,0 km/h (0 Bft)
23.07.2017 04:53 13,1 °C 13,1 °C 95 % 1013,9 hPa 0,0 mm 0,5 km/h (0 Bft) O 96 ° 0 min 0,000 mm 0,0 UV-I 0 W/m² 12,3 °C 13,1 °C 1,6 km/h (1 Bft)
23.07.2017 04:54 13,1 °C 13,1 °C 95 % 1013,9 hPa 0,0 mm 0,0 km/h (0 Bft) O 96 ° 0 min 0,000 mm 0,0 UV-I 0 W/m² 12,3 °C 13,1 °C 0,0 km/h (0 Bft)
23.07.2017 04:55 13,1 °C 13,1 °C 95 % 1014,0 hPa 0,0 mm 0,0 km/h (0 Bft) O 96 ° 0 min 0,000 mm 0,0 UV-I 0 W/m² 12,3 °C 13,1 °C 0,0 km/h (0 Bft)
23.07.2017 04:56 13,1 °C 13,1 °C 95 % 1013,9 hPa 0,0 mm 0,0 km/h (0 Bft) O 96 ° 0 min 0,000 mm 0,0 UV-I 0 W/m² 12,3 °C 13,1 °C 0,0 km/h (0 Bft)
23.07.2017 04:57 13,2 °C 13,2 °C 95 % 1014,0 hPa 0,0 mm 0,0 km/h (0 Bft) O 96 ° 0 min 0,000 mm 0,0 UV-I 0 W/m² 12,4 °C 13,2 °C 0,0 km/h (0 Bft)
23.07.2017 04:58 13,2 °C 13,2 °C 95 % 1014,1 hPa 0,0 mm 0,5 km/h (0 Bft) O 96 ° 0 min 0,000 mm 0,0 UV-I 0 W/m² 12,4 °C 13,2 °C 1,6 km/h (1 Bft)
23.07.2017 04:59 13,1 °C 13,2 °C 95 % 1014,0 hPa 0,0 mm 0,3 km/h (0 Bft) O 96 ° 0 min 0,000 mm 0,0 UV-I 0 W/m² 12,3 °C 13,1 °C 1,6 km/h (1 Bft)
23.07.2017 05:00 13,1 °C 13,1 °C 95 % 1014,0 hPa 0,0 mm 0,4 km/h (0 Bft) O 96 ° 0 min 0,000 mm 0,0 UV-I 0 W/m² 12,3 °C 13,1 °C 1,6 km/h (1 Bft)
23.07.2017 05:01 13,0 °C 13,1 °C 95 % 1014,1 hPa 0,0 mm 0,0 km/h (0 Bft) O 96 ° 0 min 0,000 mm 0,0 UV-I 0 W/m² 12,2 °C 13,0 °C 0,0 km/h (0 Bft)
23.07.2017 05:02 13,1 °C 13,1 °C 95 % 1014,0 hPa 0,0 mm 0,0 km/h (0 Bft) O 96 ° 0 min 0,000 mm 0,0 UV-I 0 W/m² 12,3 °C 13,1 °C 0,0 km/h (0 Bft)
23.07.2017 05:03 13,1 °C 13,1 °C 95 % 1014,0 hPa 0,0 mm 0,0 km/h (0 Bft) O 96 ° 0 min 0,000 mm 0,0 UV-I 0 W/m² 12,3 °C 13,1 °C 0,0 km/h (0 Bft)
23.07.2017 05:04 13,1 °C 13,1 °C 95 % 1014,0 hPa 0,0 mm 0,0 km/h (0 Bft) O 96 ° 0 min 0,000 mm 0,0 UV-I 0 W/m² 12,3 °C 13,1 °C 0,0 km/h (0 Bft)
23.07.2017 05:05 13,1 °C 13,1 °C 95 % 1014,0 hPa 0,0 mm 0,0 km/h (0 Bft) O 96 ° 0 min 0,000 mm 0,0 UV-I 0 W/m² 12,3 °C 13,1 °C 0,0 km/h (0 Bft)
23.07.2017 05:06 13,1 °C 13,1 °C 95 % 1014,0 hPa 0,0 mm 0,0 km/h (0 Bft) O 96 ° 0 min 0,000 mm 0,0 UV-I 0 W/m² 12,3 °C 13,1 °C 0,0 km/h (0 Bft)
23.07.2017 05:07 13,1 °C 13,1 °C 95 % 1014,0 hPa 0,0 mm 0,0 km/h (0 Bft) O 96 ° 0 min 0,000 mm 0,0 UV-I 0 W/m² 12,3 °C 13,1 °C 0,0 km/h (0 Bft)
23.07.2017 05:08 13,1 °C 13,1 °C 95 % 1014,0 hPa 0,0 mm 0,0 km/h (0 Bft) O 96 ° 0 min 0,000 mm 0,0 UV-I 0 W/m² 12,3 °C 13,1 °C 0,0 km/h (0 Bft)
23.07.2017 05:09 13,1 °C 13,1 °C 95 % 1013,9 hPa 0,0 mm 0,8 km/h (0 Bft) O 95 ° 0 min 0,000 mm 0,0 UV-I 0 W/m² 12,3 °C 13,1 °C 3,2 km/h (1 Bft)
23.07.2017 05:10 13,1 °C 13,1 °C 95 % 1013,9 hPa 0,0 mm 0,0 km/h (0 Bft) O 95 ° 0 min 0,000 mm 0,0 UV-I 0 W/m² 12,3 °C 13,1 °C 0,0 km/h (0 Bft)
23.07.2017 05:11 13,1 °C 13,1 °C 95 % 1013,9 hPa 0,0 mm 0,0 km/h (0 Bft) O 95 ° 0 min 0,000 mm 0,0 UV-I 0 W/m² 12,3 °C 13,1 °C 0,0 km/h (0 Bft)
23.07.2017 05:12 13,1 °C 13,1 °C 95 % 1013,9 hPa 0,0 mm 0,8 km/h (0 Bft) O 95 ° 0 min 0,000 mm 0,0 UV-I 0 W/m² 12,3 °C 13,1 °C 3,2 km/h (1 Bft)
23.07.2017 05:13 13,1 °C 13,1 °C 95 % 1013,9 hPa 0,0 mm 0,1 km/h (0 Bft) O 95 ° 0 min 0,000 mm 0,0 UV-I 0 W/m² 12,3 °C 13,1 °C 1,6 km/h (1 Bft)
23.07.2017 05:14 13,1 °C 13,1 °C 95 % 1013,9 hPa 0,0 mm 0,0 km/h (0 Bft) O 95 ° 0 min 0,000 mm 0,0 UV-I 0 W/m² 12,3 °C 13,1 °C 0,0 km/h (0 Bft)
23.07.2017 05:15 13,1 °C 13,1 °C 95 % 1013,9 hPa 0,0 mm 0,9 km/h (0 Bft) O 95 ° 0 min 0,000 mm 0,0 UV-I 0 W/m² 12,3 °C 13,1 °C 3,2 km/h (1 Bft)
23.07.2017 05:16 13,1 °C 13,1 °C 95 % 1013,9 hPa 0,0 mm 2,8 km/h (1 Bft) S 181 ° 0 min 0,000 mm 0,0 UV-I 0 W/m² 12,3 °C 13,1 °C 4,8 km/h (1 Bft)
23.07.2017 05:17 13,1 °C 13,1 °C 95 % 1014,0 hPa 0,0 mm 1,9 km/h (1 Bft) SW 233 ° 0 min 0,000 mm 0,0 UV-I 0 W/m² 12,3 °C 13,1 °C 4,8 km/h (1 Bft)
23.07.2017 05:18 13,2 °C 13,2 °C 95 % 1013,9 hPa 0,0 mm 0,0 km/h (0 Bft) SW 233 ° 0 min 0,000 mm 0,0 UV-I 0 W/m² 12,4 °C 13,2 °C 0,0 km/h (0 Bft)
23.07.2017 05:19 13,2 °C 13,2 °C 95 % 1013,9 hPa 0,0 mm 0,5 km/h (0 Bft) W-SW 244 ° 0 min 0,000 mm 0,0 UV-I 0 W/m² 12,4 °C 13,2 °C 1,6 km/h (1 Bft)
23.07.2017 05:20 13,2 °C 13,2 °C 95 % 1013,9 hPa 0,0 mm 0,0 km/h (0 Bft) W-SW 244 ° 0 min 0,000 mm 0,0 UV-I 0 W/m² 12,4 °C 13,2 °C 0,0 km/h (0 Bft)
23.07.2017 05:21 13,2 °C 13,2 °C 95 % 1013,9 hPa 0,0 mm 0,1 km/h (0 Bft) W-SW 244 ° 0 min 0,000 mm 0,0 UV-I 0 W/m² 12,4 °C 13,2 °C 1,6 km/h (1 Bft)
23.07.2017 05:22 13,2 °C 13,2 °C 95 % 1013,9 hPa 0,0 mm 0,0 km/h (0 Bft) W-SW 244 ° 0 min 0,000 mm 0,0 UV-I 0 W/m² 12,4 °C 13,2 °C 0,0 km/h (0 Bft)
23.07.2017 05:23 13,2 °C 13,2 °C 95 % 1013,9 hPa 0,0 mm 0,7 km/h (0 Bft) W-NW 300 ° 0 min 0,000 mm 0,0 UV-I 0 W/m² 12,4 °C 13,2 °C 3,2 km/h (1 Bft)
23.07.2017 05:24 13,2 °C 13,2 °C 95 % 1013,8 hPa 0,0 mm 0,0 km/h (0 Bft) W-NW 300 ° 0 min 0,000 mm 0,0 UV-I 0 W/m² 12,4 °C 13,2 °C 0,0 km/h (0 Bft)
23.07.2017 05:25 13,2 °C 13,2 °C 95 % 1013,8 hPa 0,0 mm 0,0 km/h (0 Bft) W-NW 300 ° 0 min 0,000 mm 0,0 UV-I 0 W/m² 12,4 °C 13,2 °C 0,0 km/h (0 Bft)
23.07.2017 05:26 13,2 °C 13,2 °C 95 % 1013,8 hPa 0,0 mm 0,8 km/h (0 Bft) NW 324 ° 0 min 0,000 mm 0,0 UV-I 0 W/m² 12,4 °C 13,2 °C 3,2 km/h (1 Bft)
23.07.2017 05:27 13,1 °C 13,2 °C 95 % 1013,8 hPa 0,0 mm 1,5 km/h (1 Bft) NW 324 ° 0 min 0,000 mm 0,0 UV-I 0 W/m² 12,3 °C 13,1 °C 3,2 km/h (1 Bft)
23.07.2017 05:28 13,1 °C 13,2 °C 95 % 1013,8 hPa 0,0 mm 1,2 km/h (1 Bft) NW 322 ° 0 min 0,000 mm 0,0 UV-I 0 W/m² 12,3 °C 13,1 °C 3,2 km/h (1 Bft)
23.07.2017 05:29 13,1 °C 13,1 °C 95 % 1013,8 hPa 0,0 mm 1,2 km/h (1 Bft) NW 322 ° 0 min 0,000 mm 0,0 UV-I 0 W/m² 12,3 °C 13,1 °C 3,2 km/h (1 Bft)
23.07.2017 05:30 13,1 °C 13,1 °C 95 % 1013,8 hPa 0,0 mm 1,1 km/h (1 Bft) NW 322 ° 0 min 0,000 mm 0,0 UV-I 0 W/m² 12,3 °C 13,1 °C 3,2 km/h (1 Bft)
23.07.2017 05:31 13,1 °C 13,1 °C 95 % 1013,8 hPa 0,0 mm 0,0 km/h (0 Bft) NW 322 ° 0 min 0,000 mm 0,0 UV-I 0 W/m² 12,3 °C 13,1 °C 0,0 km/h (0 Bft)
23.07.2017 05:32 13,1 °C 13,1 °C 95 % 1013,8 hPa 0,0 mm 0,0 km/h (0 Bft) NW 322 ° 0 min 0,000 mm 0,0 UV-I 0 W/m² 12,3 °C 13,1 °C 0,0 km/h (0 Bft)
23.07.2017 05:33 13,1 °C 13,1 °C 95 % 1013,8 hPa 0,0 mm 0,0 km/h (0 Bft) NW 322 ° 0 min 0,000 mm 0,0 UV-I 0 W/m² 12,3 °C 13,1 °C 0,0 km/h (0 Bft)
23.07.2017 05:34 13,1 °C 13,1 °C 95 % 1013,9 hPa 0,0 mm 0,0 km/h (0 Bft) NW 322 ° 0 min 0,000 mm 0,0 UV-I 0 W/m² 12,3 °C 13,1 °C 0,0 km/h (0 Bft)
23.07.2017 05:35 13,0 °C 13,1 °C 95 % 1013,9 hPa 0,0 mm 0,3 km/h (0 Bft) NW 322 ° 0 min 0,000 mm 0,0 UV-I 0 W/m² 12,2 °C 13,0 °C 1,6 km/h (1 Bft)
23.07.2017 05:36 13,0 °C 13,0 °C 95 % 1013,8 hPa 0,0 mm 0,0 km/h (0 Bft) NW 322 ° 0 min 0,000 mm 0,0 UV-I 0 W/m² 12,2 °C 13,0 °C 0,0 km/h (0 Bft)
23.07.2017 05:37 13,0 °C 13,0 °C 95 % 1013,8 hPa 0,0 mm 0,0 km/h (0 Bft) NW 322 ° 0 min 0,000 mm 0,0 UV-I 0 W/m² 12,2 °C 13,0 °C 0,0 km/h (0 Bft)
23.07.2017 05:38 13,0 °C 13,0 °C 95 % 1013,8 hPa 0,0 mm 0,0 km/h (0 Bft) NW 322 ° 0 min 0,000 mm 0,0 UV-I 0 W/m² 12,2 °C 13,0 °C 0,0 km/h (0 Bft)
23.07.2017 05:39 13,1 °C 13,1 °C 96 % 1013,8 hPa 0,0 mm 0,0 km/h (0 Bft) NW 322 ° 0 min 0,000 mm 0,0 UV-I 0 W/m² 12,5 °C 13,1 °C 0,0 km/h (0 Bft)
23.07.2017 05:40 13,1 °C 13,1 °C 96 % 1013,9 hPa 0,0 mm 0,0 km/h (0 Bft) NW 322 ° 0 min 0,000 mm 0,0 UV-I 0 W/m² 12,5 °C 13,1 °C 0,0 km/h (0 Bft)
23.07.2017 05:41 12,9 °C 13,1 °C 95 % 1013,9 hPa 0,0 mm 1,0 km/h (0 Bft) NW 322 ° 0 min 0,000 mm 0,0 UV-I 0 W/m² 12,1 °C 12,9 °C 3,2 km/h (1 Bft)
23.07.2017 05:42 12,9 °C 12,9 °C 95 % 1013,9 hPa 0,0 mm 0,0 km/h (0 Bft) NW 322 ° 0 min 0,000 mm 0,0 UV-I 0 W/m² 12,1 °C 12,9 °C 0,0 km/h (0 Bft)
23.07.2017 05:43 12,9 °C 12,9 °C 95 % 1014,0 hPa 0,0 mm 0,0 km/h (0 Bft) NW 322 ° 0 min 0,000 mm 0,0 UV-I 0 W/m² 12,1 °C 12,9 °C 0,0 km/h (0 Bft)
23.07.2017 05:44 12,9 °C 12,9 °C 95 % 1014,0 hPa 0,0 mm 0,0 km/h (0 Bft) NW 322 ° 0 min 0,000 mm 0,0 UV-I 0 W/m² 12,1 °C 12,9 °C 0,0 km/h (0 Bft)
23.07.2017 05:45 12,9 °C 12,9 °C 96 % 1014,0 hPa 0,0 mm 0,0 km/h (0 Bft) NW 322 ° 0 min 0,000 mm 0,0 UV-I 0 W/m² 12,3 °C 12,9 °C 0,0 km/h (0 Bft)
23.07.2017 05:46 12,9 °C 13,0 °C 96 % 1013,9 hPa 0,0 mm 0,5 km/h (0 Bft) NW 322 ° 0 min 0,000 mm 0,0 UV-I 0 W/m² 12,3 °C 12,9 °C 1,6 km/h (1 Bft)
23.07.2017 05:47 12,9 °C 13,0 °C 96 % 1013,9 hPa 0,0 mm 0,0 km/h (0 Bft) NW 322 ° 0 min 0,000 mm 0,0 UV-I 0 W/m² 12,3 °C 12,9 °C 0,0 km/h (0 Bft)
23.07.2017 05:48 13,1 °C 13,1 °C 96 % 1013,9 hPa 0,0 mm 0,0 km/h (0 Bft) NW 322 ° 0 min 0,000 mm 0,0 UV-I 0 W/m² 12,5 °C 13,1 °C 0,0 km/h (0 Bft)
23.07.2017 05:49 12,9 °C 13,1 °C 96 % 1013,8 hPa 0,0 mm 0,0 km/h (0 Bft) NW 322 ° 0 min 0,000 mm 0,0 UV-I 0 W/m² 12,3 °C 12,9 °C 0,0 km/h (0 Bft)
23.07.2017 05:50 12,9 °C 13,0 °C 96 % 1013,9 hPa 0,0 mm 0,0 km/h (0 Bft) NW 322 ° 0 min 0,000 mm 0,0 UV-I 0 W/m² 12,3 °C 12,9 °C 0,0 km/h (0 Bft)
23.07.2017 05:51 12,9 °C 12,9 °C 96 % 1013,8 hPa 0,0 mm 0,0 km/h (0 Bft) NW 322 ° 0 min 0,000 mm 0,0 UV-I 0 W/m² 12,3 °C 12,9 °C 0,0 km/h (0 Bft)
23.07.2017 05:52 12,9 °C 12,9 °C 96 % 1013,8 hPa 0,0 mm 0,0 km/h (0 Bft) NW 322 ° 0 min 0,000 mm 0,0 UV-I 0 W/m² 12,3 °C 12,9 °C 0,0 km/h (0 Bft)
23.07.2017 05:53 12,9 °C 12,9 °C 95 % 1013,8 hPa 0,0 mm 0,0 km/h (0 Bft) NW 322 ° 0 min 0,000 mm 0,0 UV-I 0 W/m² 12,1 °C 12,9 °C 0,0 km/h (0 Bft)
23.07.2017 05:54 12,9 °C 12,9 °C 96 % 1013,7 hPa 0,0 mm 0,0 km/h (0 Bft) NW 323 ° 0 min 0,000 mm 0,0 UV-I 0 W/m² 12,3 °C 12,9 °C 0,0 km/h (0 Bft)
23.07.2017 05:55 12,9 °C 13,0 °C 96 % 1013,7 hPa 0,0 mm 0,0 km/h (0 Bft) NW 323 ° 0 min 0,000 mm 0,0 UV-I 0 W/m² 12,3 °C 12,9 °C 0,0 km/h (0 Bft)
23.07.2017 05:56 13,0 °C 13,0 °C 96 % 1013,8 hPa 0,0 mm 1,9 km/h (1 Bft) W-NW 293 ° 0 min 0,000 mm 0,0 UV-I 0 W/m² 12,4 °C 13,0 °C 4,8 km/h (1 Bft)
23.07.2017 05:57 12,9 °C 13,0 °C 96 % 1013,8 hPa 0,0 mm 1,9 km/h (1 Bft) W-NW 292 ° 0 min 0,000 mm 0,0 UV-I 0 W/m² 12,3 °C 12,9 °C 3,2 km/h (1 Bft)
23.07.2017 05:58 12,9 °C 12,9 °C 96 % 1013,8 hPa 0,0 mm 0,0 km/h (0 Bft) W-NW 293 ° 0 min 0,000 mm 0,0 UV-I 0 W/m² 12,3 °C 12,9 °C 0,0 km/h (0 Bft)
23.07.2017 05:59 13,0 °C 13,0 °C 96 % 1013,8 hPa 0,0 mm 0,0 km/h (0 Bft) W-NW 293 ° 0 min 0,000 mm 0,0 UV-I 0 W/m² 12,4 °C 13,0 °C 0,0 km/h (0 Bft)
23.07.2017 06:00 13,0 °C 13,0 °C 96 % 1013,8 hPa 0,0 mm 0,0 km/h (0 Bft) W-NW 293 ° 0 min 0,000 mm 0,0 UV-I 0 W/m² 12,4 °C 13,0 °C 0,0 km/h (0 Bft)
23.07.2017 06:01 13,0 °C 13,0 °C 96 % 1013,8 hPa 0,0 mm 0,9 km/h (0 Bft) W-NW 294 ° 0 min 0,000 mm 0,0 UV-I 0 W/m² 12,4 °C 13,0 °C 3,2 km/h (1 Bft)
23.07.2017 06:02 13,0 °C 13,0 °C 96 % 1013,8 hPa 0,0 mm 1,0 km/h (0 Bft) W-NW 294 ° 0 min 0,000 mm 0,0 UV-I 0 W/m² 12,4 °C 13,0 °C 3,2 km/h (1 Bft)
23.07.2017 06:03 13,0 °C 13,1 °C 96 % 1013,8 hPa 0,0 mm 0,6 km/h (0 Bft) W-NW 294 ° 0 min 0,000 mm 0,0 UV-I 5 W/m² 12,4 °C 13,0 °C 3,2 km/h (1 Bft)
23.07.2017 06:04 13,0 °C 13,0 °C 96 % 1013,8 hPa 0,0 mm 0,0 km/h (0 Bft) W-NW 294 ° 0 min 0,000 mm 0,0 UV-I 5 W/m² 12,4 °C 13,0 °C 0,0 km/h (0 Bft)
23.07.2017 06:05 13,0 °C 13,0 °C 96 % 1013,8 hPa 0,0 mm 0,0 km/h (0 Bft) W-NW 294 ° 0 min 0,000 mm 0,0 UV-I 5 W/m² 12,4 °C 13,0 °C 0,0 km/h (0 Bft)
23.07.2017 06:06 13,1 °C 13,1 °C 96 % 1013,9 hPa 0,0 mm 0,0 km/h (0 Bft) W-NW 294 ° 0 min 0,000 mm 0,0 UV-I 5 W/m² 12,5 °C 13,1 °C 0,0 km/h (0 Bft)
23.07.2017 06:07 13,1 °C 13,1 °C 96 % 1013,9 hPa 0,0 mm 0,0 km/h (0 Bft) W-NW 294 ° 0 min 0,000 mm 0,0 UV-I 5 W/m² 12,5 °C 13,1 °C 0,0 km/h (0 Bft)
23.07.2017 06:08 13,1 °C 13,1 °C 96 % 1014,0 hPa 0,0 mm 0,0 km/h (0 Bft) W-NW 294 ° 0 min 0,000 mm 0,0 UV-I 5 W/m² 12,5 °C 13,1 °C 0,0 km/h (0 Bft)
23.07.2017 06:09 13,0 °C 13,1 °C 96 % 1014,0 hPa 0,0 mm 0,0 km/h (0 Bft) W-NW 294 ° 0 min 0,000 mm 0,0 UV-I 5 W/m² 12,4 °C 13,0 °C 0,0 km/h (0 Bft)
23.07.2017 06:10 13,1 °C 13,1 °C 96 % 1014,0 hPa 0,0 mm 0,0 km/h (0 Bft) W-NW 294 ° 0 min 0,000 mm 0,0 UV-I 7 W/m² 12,5 °C 13,1 °C 0,0 km/h (0 Bft)
23.07.2017 06:11 13,1 °C 13,1 °C 96 % 1014,0 hPa 0,0 mm 0,0 km/h (0 Bft) W-NW 294 ° 0 min 0,000 mm 0,0 UV-I 7 W/m² 12,5 °C 13,1 °C 0,0 km/h (0 Bft)
23.07.2017 06:12 13,1 °C 13,1 °C 96 % 1014,0 hPa 0,0 mm 0,0 km/h (0 Bft) W-NW 294 ° 0 min 0,000 mm 0,0 UV-I 9 W/m² 12,5 °C 13,1 °C 0,0 km/h (0 Bft)
23.07.2017 06:13 13,2 °C 13,2 °C 96 % 1013,9 hPa 0,0 mm 0,0 km/h (0 Bft) W-NW 294 ° 0 min 0,000 mm 0,0 UV-I 9 W/m² 12,6 °C 13,2 °C 0,0 km/h (0 Bft)
23.07.2017 06:14 13,2 °C 13,2 °C 96 % 1013,9 hPa 0,0 mm 0,0 km/h (0 Bft) W-NW 294 ° 0 min 0,000 mm 0,0 UV-I 11 W/m² 12,6 °C 13,2 °C 0,0 km/h (0 Bft)
23.07.2017 06:15 13,2 °C 13,2 °C 96 % 1013,9 hPa 0,0 mm 0,0 km/h (0 Bft) W-NW 300 ° 0 min 0,000 mm 0,0 UV-I 14 W/m² 12,6 °C 13,2 °C 0,0 km/h (0 Bft)
23.07.2017 06:16 13,2 °C 13,2 °C 96 % 1013,8 hPa 0,0 mm 1,4 km/h (1 Bft) NW 304 ° 0 min 0,000 mm 0,0 UV-I 19 W/m² 12,6 °C 13,2 °C 3,2 km/h (1 Bft)
23.07.2017 06:17 13,2 °C 13,2 °C 96 % 1013,8 hPa 0,0 mm 0,7 km/h (0 Bft) NW 304 ° 0 min 0,000 mm 0,0 UV-I 19 W/m² 12,6 °C 13,2 °C 1,6 km/h (1 Bft)
23.07.2017 06:18 13,2 °C 13,3 °C 96 % 1013,8 hPa 0,0 mm 0,0 km/h (0 Bft) NW 304 ° 0 min 0,000 mm 0,0 UV-I 19 W/m² 12,6 °C 13,2 °C 0,0 km/h (0 Bft)
23.07.2017 06:19 13,3 °C 13,3 °C 96 % 1013,9 hPa 0,0 mm 0,0 km/h (0 Bft) NW 304 ° 0 min 0,000 mm 0,0 UV-I 19 W/m² 12,7 °C 13,3 °C 0,0 km/h (0 Bft)
23.07.2017 06:20 13,3 °C 13,3 °C 96 % 1013,9 hPa 0,0 mm 0,0 km/h (0 Bft) NW 304 ° 0 min 0,000 mm 0,0 UV-I 19 W/m² 12,7 °C 13,3 °C 0,0 km/h (0 Bft)
23.07.2017 06:21 13,3 °C 13,3 °C 96 % 1013,8 hPa 0,0 mm 0,0 km/h (0 Bft) NW 304 ° 0 min 0,000 mm 0,0 UV-I 19 W/m² 12,7 °C 13,3 °C 0,0 km/h (0 Bft)
23.07.2017 06:22 13,3 °C 13,3 °C 96 % 1013,9 hPa 0,0 mm 0,6 km/h (0 Bft) NW 304 ° 0 min 0,000 mm 0,0 UV-I 21 W/m² 12,7 °C 13,3 °C 1,6 km/h (1 Bft)
23.07.2017 06:23 13,3 °C 13,3 °C 96 % 1013,8 hPa 0,0 mm 0,2 km/h (0 Bft) NW 304 ° 0 min 0,000 mm 0,0 UV-I 21 W/m² 12,7 °C 13,3 °C 1,6 km/h (1 Bft)
23.07.2017 06:24 13,4 °C 13,4 °C 96 % 1013,9 hPa 0,0 mm 0,7 km/h (0 Bft) NW 304 ° 0 min 0,000 mm 0,0 UV-I 23 W/m² 12,8 °C 13,4 °C 1,6 km/h (1 Bft)
23.07.2017 06:25 13,4 °C 13,4 °C 96 % 1013,9 hPa 0,0 mm 0,8 km/h (0 Bft) W-NW 288 ° 0 min 0,000 mm 0,0 UV-I 28 W/m² 12,8 °C 13,4 °C 3,2 km/h (1 Bft)
23.07.2017 06:26 13,4 °C 13,4 °C 96 % 1013,9 hPa 0,0 mm 1,8 km/h (1 Bft) W-NW 288 ° 0 min 0,000 mm 0,0 UV-I 33 W/m² 12,8 °C 13,4 °C 3,2 km/h (1 Bft)
23.07.2017 06:27 13,5 °C 13,5 °C 96 % 1014,0 hPa 0,0 mm 1,7 km/h (1 Bft) W-SW 257 ° 0 min 0,000 mm 0,0 UV-I 35 W/m² 12,9 °C 13,5 °C 4,8 km/h (1 Bft)
23.07.2017 06:28 13,6 °C 13,6 °C 96 % 1014,0 hPa 0,0 mm 1,8 km/h (1 Bft) W-SW 258 ° 0 min 0,000 mm 0,0 UV-I 44 W/m² 13,0 °C 13,6 °C 4,8 km/h (1 Bft)
23.07.2017 06:29 13,6 °C 13,6 °C 96 % 1014,0 hPa 0,0 mm 1,4 km/h (1 Bft) W-SW 258 ° 0 min 0,000 mm 0,0 UV-I 47 W/m² 13,0 °C 13,6 °C 3,2 km/h (1 Bft)
23.07.2017 06:30 13,6 °C 13,6 °C 96 % 1014,0 hPa 0,0 mm 0,1 km/h (0 Bft) W-SW 258 ° 0 min 0,000 mm 0,0 UV-I 44 W/m² 13,0 °C 13,6 °C 1,6 km/h (1 Bft)
23.07.2017 06:31 13,6 °C 13,6 °C 96 % 1014,0 hPa 0,0 mm 4,0 km/h (1 Bft) W 275 ° 0 min 0,000 mm 0,0 UV-I 39 W/m² 13,0 °C 13,6 °C 6,4 km/h (2 Bft)
23.07.2017 06:32 13,7 °C 13,7 °C 96 % 1014,0 hPa 0,0 mm 4,0 km/h (1 Bft) W-NW 285 ° 0 min 0,000 mm 0,0 UV-I 37 W/m² 13,1 °C 13,7 °C 9,7 km/h (2 Bft)
23.07.2017 06:33 13,7 °C 13,7 °C 96 % 1014,0 hPa 0,0 mm 2,0 km/h (1 Bft) W-NW 285 ° 0 min 0,000 mm 0,0 UV-I 28 W/m² 13,1 °C 13,7 °C 3,2 km/h (1 Bft)
23.07.2017 06:34 13,8 °C 13,8 °C 96 % 1013,9 hPa 0,0 mm 0,9 km/h (0 Bft) W-NW 285 ° 0 min 0,000 mm 0,0 UV-I 32 W/m² 13,2 °C 13,8 °C 3,2 km/h (1 Bft)
23.07.2017 06:35 13,8 °C 13,8 °C 96 % 1014,0 hPa 0,0 mm 2,6 km/h (1 Bft) W-NW 285 ° 0 min 0,000 mm 0,0 UV-I 32 W/m² 13,2 °C 13,8 °C 4,8 km/h (1 Bft)
23.07.2017 06:36 13,8 °C 13,8 °C 95 % 1013,9 hPa 0,0 mm 2,5 km/h (1 Bft) W 259 ° 0 min 0,000 mm 0,0 UV-I 30 W/m² 13,0 °C 13,8 °C 4,8 km/h (1 Bft)
23.07.2017 06:37 13,8 °C 13,8 °C 95 % 1013,9 hPa 0,0 mm 0,9 km/h (0 Bft) W 261 ° 0 min 0,000 mm 0,0 UV-I 26 W/m² 13,0 °C 13,8 °C 3,2 km/h (1 Bft)
23.07.2017 06:38 13,7 °C 13,8 °C 95 % 1013,9 hPa 0,0 mm 0,0 km/h (0 Bft) W 262 ° 0 min 0,000 mm 0,0 UV-I 23 W/m² 12,9 °C 13,7 °C 0,0 km/h (0 Bft)
23.07.2017 06:39 13,7 °C 13,7 °C 95 % 1014,0 hPa 0,0 mm 2,5 km/h (1 Bft) W 271 ° 0 min 0,000 mm 0,0 UV-I 26 W/m² 12,9 °C 13,7 °C 6,4 km/h (2 Bft)
23.07.2017 06:40 13,7 °C 13,7 °C 95 % 1013,9 hPa 0,0 mm 1,3 km/h (1 Bft) W 271 ° 0 min 0,000 mm 0,0 UV-I 30 W/m² 12,9 °C 13,7 °C 3,2 km/h (1 Bft)
23.07.2017 06:41 13,7 °C 13,7 °C 95 % 1014,0 hPa 0,0 mm 0,0 km/h (0 Bft) W 271 ° 0 min 0,000 mm 0,0 UV-I 32 W/m² 12,9 °C 13,7 °C 0,0 km/h (0 Bft)
23.07.2017 06:42 13,7 °C 13,7 °C 95 % 1014,0 hPa 0,0 mm 1,4 km/h (1 Bft) W 271 ° 0 min 0,000 mm 0,0 UV-I 32 W/m² 12,9 °C 13,7 °C 3,2 km/h (1 Bft)
23.07.2017 06:43 13,7 °C 13,7 °C 95 % 1014,0 hPa 0,0 mm 1,2 km/h (1 Bft) W 271 ° 0 min 0,000 mm 0,0 UV-I 32 W/m² 12,9 °C 13,7 °C 3,2 km/h (1 Bft)
23.07.2017 06:44 13,7 °C 13,7 °C 95 % 1014,0 hPa 0,0 mm 1,1 km/h (1 Bft) W 271 ° 0 min 0,000 mm 0,0 UV-I 30 W/m² 12,9 °C 13,7 °C 3,2 km/h (1 Bft)
23.07.2017 06:45 13,7 °C 13,7 °C 95 % 1014,0 hPa 0,0 mm 0,0 km/h (0 Bft) W 271 ° 0 min 0,000 mm 0,0 UV-I 30 W/m² 12,9 °C 13,7 °C 0,0 km/h (0 Bft)
23.07.2017 06:46 13,7 °C 13,7 °C 95 % 1014,0 hPa 0,0 mm 0,0 km/h (0 Bft) W 271 ° 0 min 0,000 mm 0,0 UV-I 32 W/m² 12,9 °C 13,7 °C 0,0 km/h (0 Bft)
23.07.2017 06:47 13,6 °C 13,7 °C 95 % 1014,0 hPa 0,0 mm 0,0 km/h (0 Bft) W 271 ° 0 min 0,000 mm 0,0 UV-I 33 W/m² 12,8 °C 13,6 °C 0,0 km/h (0 Bft)
23.07.2017 06:48 13,6 °C 13,6 °C 95 % 1014,0 hPa 0,0 mm 0,0 km/h (0 Bft) W 271 ° 0 min 0,000 mm 0,0 UV-I 33 W/m² 12,8 °C 13,6 °C 0,0 km/h (0 Bft)
23.07.2017 06:49 13,6 °C 13,6 °C 95 % 1014,0 hPa 0,0 mm 0,0 km/h (0 Bft) W 271 ° 0 min 0,000 mm 0,0 UV-I 33 W/m² 12,8 °C 13,6 °C 0,0 km/h (0 Bft)
23.07.2017 06:50 13,6 °C 13,6 °C 95 % 1014,0 hPa 0,0 mm 0,0 km/h (0 Bft) W 271 ° 0 min 0,000 mm 0,0 UV-I 33 W/m² 12,8 °C 13,6 °C 0,0 km/h (0 Bft)
23.07.2017 06:51 13,6 °C 13,6 °C 95 % 1014,0 hPa 0,0 mm 0,0 km/h (0 Bft) W 271 ° 0 min 0,000 mm 0,0 UV-I 35 W/m² 12,8 °C 13,6 °C 0,0 km/h (0 Bft)
23.07.2017 06:52 13,6 °C 13,6 °C 95 % 1013,9 hPa 0,0 mm 0,0 km/h (0 Bft) W 271 ° 0 min 0,000 mm 0,0 UV-I 35 W/m² 12,8 °C 13,6 °C 0,0 km/h (0 Bft)
23.07.2017 06:53 13,6 °C 13,6 °C 95 % 1013,9 hPa 0,0 mm 0,0 km/h (0 Bft) W 271 ° 0 min 0,000 mm 0,0 UV-I 46 W/m² 12,8 °C 13,6 °C 0,0 km/h (0 Bft)
23.07.2017 06:54 13,6 °C 13,6 °C 95 % 1013,8 hPa 0,0 mm 0,0 km/h (0 Bft) W 271 ° 0 min 0,000 mm 0,0 UV-I 39 W/m² 12,8 °C 13,6 °C 0,0 km/h (0 Bft)
23.07.2017 06:55 13,6 °C 13,6 °C 95 % 1013,8 hPa 0,0 mm 0,0 km/h (0 Bft) W 271 ° 0 min 0,000 mm 0,0 UV-I 39 W/m² 12,8 °C 13,6 °C 0,0 km/h (0 Bft)
23.07.2017 06:56 13,6 °C 13,6 °C 95 % 1013,8 hPa 0,0 mm 0,0 km/h (0 Bft) W 271 ° 0 min 0,000 mm 0,0 UV-I 40 W/m² 12,8 °C 13,6 °C 0,0 km/h (0 Bft)
23.07.2017 06:57 13,6 °C 13,6 °C 95 % 1013,8 hPa 0,0 mm 0,0 km/h (0 Bft) W 271 ° 0 min 0,000 mm 0,0 UV-I 46 W/m² 12,8 °C 13,6 °C 0,0 km/h (0 Bft)
23.07.2017 06:58 13,6 °C 13,6 °C 95 % 1013,7 hPa 0,0 mm 0,0 km/h (0 Bft) W 271 ° 0 min 0,000 mm 0,0 UV-I 46 W/m² 12,8 °C 13,6 °C 0,0 km/h (0 Bft)
23.07.2017 06:59 13,6 °C 13,6 °C 95 % 1013,8 hPa 0,0 mm 0,5 km/h (0 Bft) W 271 ° 0 min 0,000 mm 0,0 UV-I 67 W/m² 12,8 °C 13,6 °C 1,6 km/h (1 Bft)
23.07.2017 07:00 13,6 °C 13,6 °C 95 % 1013,8 hPa 0,0 mm 0,2 km/h (0 Bft) W 271 ° 0 min 0,026 mm 0,0 UV-I 62 W/m² 12,8 °C 13,6 °C 1,6 km/h (1 Bft)
23.07.2017 07:01 13,7 °C 13,7 °C 95 % 1013,9 hPa 0,0 mm 0,0 km/h (0 Bft) W 271 ° 0 min 0,000 mm 0,0 UV-I 46 W/m² 12,9 °C 13,7 °C 0,0 km/h (0 Bft)
23.07.2017 07:02 13,7 °C 13,7 °C 95 % 1013,9 hPa 0,0 mm 0,0 km/h (0 Bft) W 271 ° 0 min 0,000 mm 0,0 UV-I 47 W/m² 12,9 °C 13,7 °C 0,0 km/h (0 Bft)
23.07.2017 07:03 13,7 °C 13,7 °C 95 % 1013,9 hPa 0,0 mm 0,0 km/h (0 Bft) W 271 ° 0 min 0,000 mm 0,0 UV-I 51 W/m² 12,9 °C 13,7 °C 0,0 km/h (0 Bft)
23.07.2017 07:04 13,7 °C 13,7 °C 95 % 1013,9 hPa 0,0 mm 0,0 km/h (0 Bft) W 271 ° 0 min 0,000 mm 0,5 UV-I 116 W/m² 12,9 °C 13,7 °C 0,0 km/h (0 Bft)
23.07.2017 07:05 13,7 °C 13,7 °C 95 % 1013,9 hPa 0,0 mm 0,2 km/h (0 Bft) W 271 ° 0 min 0,000 mm 0,5 UV-I 121 W/m² 12,9 °C 13,7 °C 1,6 km/h (1 Bft)
23.07.2017 07:06 13,7 °C 13,7 °C 95 % 1013,9 hPa 0,0 mm 0,1 km/h (0 Bft) W 271 ° 0 min 0,000 mm 0,5 UV-I 123 W/m² 12,9 °C 13,7 °C 1,6 km/h (1 Bft)
23.07.2017 07:07 13,7 °C 13,7 °C 95 % 1013,8 hPa 0,0 mm 0,1 km/h (0 Bft) W 271 ° 0 min 0,000 mm 0,5 UV-I 123 W/m² 12,9 °C 13,7 °C 1,6 km/h (1 Bft)
23.07.2017 07:08 13,8 °C 13,8 °C 95 % 1013,8 hPa 0,0 mm 0,0 km/h (0 Bft) W 271 ° 0 min 0,000 mm 0,5 UV-I 128 W/m² 13,0 °C 13,8 °C 0,0 km/h (0 Bft)
23.07.2017 07:09 13,8 °C 13,8 °C 95 % 1013,7 hPa 0,0 mm 0,0 km/h (0 Bft) W 271 ° 0 min 0,000 mm 0,5 UV-I 132 W/m² 13,0 °C 13,8 °C 0,0 km/h (0 Bft)
23.07.2017 07:10 13,8 °C 13,8 °C 95 % 1013,7 hPa 0,0 mm 0,0 km/h (0 Bft) W 271 ° 0 min 0,000 mm 0,5 UV-I 135 W/m² 13,0 °C 13,8 °C 0,0 km/h (0 Bft)
23.07.2017 07:11 13,9 °C 13,9 °C 95 % 1013,7 hPa 0,0 mm 0,0 km/h (0 Bft) W 271 ° 0 min 0,000 mm 0,6 UV-I 135 W/m² 13,1 °C 13,9 °C 0,0 km/h (0 Bft)
23.07.2017 07:12 14,0 °C 14,0 °C 96 % 1013,8 hPa 0,0 mm 0,5 km/h (0 Bft) W 273 ° 0 min 0,000 mm 0,6 UV-I 141 W/m² 13,4 °C 14,0 °C 3,2 km/h (1 Bft)
23.07.2017 07:13 14,1 °C 14,1 °C 96 % 1013,9 hPa 0,0 mm 0,3 km/h (0 Bft) W 273 ° 0 min 0,000 mm 0,6 UV-I 137 W/m² 13,5 °C 14,1 °C 1,6 km/h (1 Bft)
23.07.2017 07:14 14,1 °C 14,1 °C 95 % 1013,9 hPa 0,0 mm 0,5 km/h (0 Bft) W 273 ° 0 min 0,000 mm 0,6 UV-I 151 W/m² 13,3 °C 14,1 °C 1,6 km/h (1 Bft)
23.07.2017 07:15 14,2 °C 14,2 °C 96 % 1013,9 hPa 0,0 mm 0,6 km/h (0 Bft) W 274 ° 0 min 0,000 mm 0,5 UV-I 128 W/m² 13,6 °C 14,2 °C 1,6 km/h (1 Bft)
23.07.2017 07:16 14,3 °C 14,3 °C 96 % 1014,0 hPa 0,0 mm 0,0 km/h (0 Bft) W 274 ° 0 min 0,000 mm 0,5 UV-I 95 W/m² 13,7 °C 14,3 °C 0,0 km/h (0 Bft)
23.07.2017 07:17 14,4 °C 14,4 °C 96 % 1014,0 hPa 0,0 mm 0,0 km/h (0 Bft) W 274 ° 0 min 0,000 mm 0,5 UV-I 65 W/m² 13,8 °C 14,4 °C 0,0 km/h (0 Bft)
23.07.2017 07:18 14,6 °C 14,6 °C 96 % 1014,0 hPa 0,0 mm 0,0 km/h (0 Bft) W 274 ° 0 min 0,000 mm 0,5 UV-I 74 W/m² 14,0 °C 14,6 °C 0,0 km/h (0 Bft)
23.07.2017 07:19 14,7 °C 14,7 °C 95 % 1014,1 hPa 0,0 mm 0,0 km/h (0 Bft) W 274 ° 0 min 0,000 mm 0,5 UV-I 58 W/m² 13,9 °C 14,7 °C 0,0 km/h (0 Bft)
23.07.2017 07:20 14,7 °C 14,7 °C 95 % 1014,1 hPa 0,0 mm 1,9 km/h (1 Bft) SW 219 ° 0 min 0,000 mm 0,5 UV-I 72 W/m² 13,9 °C 14,7 °C 3,2 km/h (1 Bft)
23.07.2017 07:21 14,7 °C 14,7 °C 95 % 1014,1 hPa 0,0 mm 2,3 km/h (1 Bft) SW 218 ° 0 min 0,000 mm 0,5 UV-I 84 W/m² 13,9 °C 14,7 °C 4,8 km/h (1 Bft)
23.07.2017 07:22 14,7 °C 14,7 °C 95 % 1014,2 hPa 0,0 mm 0,0 km/h (0 Bft) SW 218 ° 0 min 0,000 mm 0,5 UV-I 95 W/m² 13,9 °C 14,7 °C 0,0 km/h (0 Bft)
23.07.2017 07:23 14,7 °C 14,7 °C 94 % 1014,2 hPa 0,0 mm 1,5 km/h (1 Bft) SW 218 ° 0 min 0,000 mm 0,5 UV-I 98 W/m² 13,7 °C 14,7 °C 3,2 km/h (1 Bft)
23.07.2017 07:24 14,7 °C 14,7 °C 94 % 1014,2 hPa 0,0 mm 1,3 km/h (1 Bft) SW 218 ° 0 min 0,000 mm 0,0 UV-I 97 W/m² 13,7 °C 14,7 °C 3,2 km/h (1 Bft)
23.07.2017 07:25 14,7 °C 14,8 °C 94 % 1014,2 hPa 0,0 mm 2,9 km/h (1 Bft) SO 140 ° 0 min 0,000 mm 0,0 UV-I 90 W/m² 13,7 °C 14,7 °C 6,4 km/h (2 Bft)
23.07.2017 07:26 14,7 °C 14,7 °C 94 % 1014,2 hPa 0,0 mm 0,3 km/h (0 Bft) SO 141 ° 0 min 0,000 mm 0,0 UV-I 65 W/m² 13,7 °C 14,7 °C 1,6 km/h (1 Bft)
23.07.2017 07:27 14,7 °C 14,8 °C 94 % 1014,2 hPa 0,0 mm 0,1 km/h (0 Bft) SO 141 ° 0 min 0,000 mm 0,0 UV-I 54 W/m² 13,7 °C 14,7 °C 1,6 km/h (1 Bft)
23.07.2017 07:28 14,7 °C 14,8 °C 94 % 1014,2 hPa 0,0 mm 0,1 km/h (0 Bft) SO 141 ° 0 min 0,000 mm 0,0 UV-I 46 W/m² 13,7 °C 14,7 °C 1,6 km/h (1 Bft)
23.07.2017 07:29 14,7 °C 14,7 °C 94 % 1014,2 hPa 0,0 mm 1,4 km/h (1 Bft) SO 141 ° 0 min 0,000 mm 0,0 UV-I 46 W/m² 13,7 °C 14,7 °C 3,2 km/h (1 Bft)
23.07.2017 07:30 14,7 °C 14,7 °C 94 % 1014,3 hPa 0,0 mm 1,5 km/h (1 Bft) SO 142 ° 0 min 0,000 mm 0,0 UV-I 42 W/m² 13,7 °C 14,7 °C 3,2 km/h (1 Bft)
23.07.2017 07:31 14,7 °C 14,7 °C 94 % 1014,3 hPa 0,0 mm 0,4 km/h (0 Bft) SO 144 ° 0 min 0,000 mm 0,0 UV-I 42 W/m² 13,7 °C 14,7 °C 1,6 km/h (1 Bft)
23.07.2017 07:32 14,7 °C 14,7 °C 94 % 1014,2 hPa 0,0 mm 2,0 km/h (1 Bft) SO 144 ° 0 min 0,000 mm 0,0 UV-I 40 W/m² 13,7 °C 14,7 °C 3,2 km/h (1 Bft)
23.07.2017 07:33 14,7 °C 14,7 °C 94 % 1014,2 hPa 0,0 mm 2,3 km/h (1 Bft) SO 144 ° 0 min 0,000 mm 0,0 UV-I 40 W/m² 13,7 °C 14,7 °C 3,2 km/h (1 Bft)
23.07.2017 07:34 14,6 °C 14,7 °C 94 % 1014,2 hPa 0,0 mm 0,3 km/h (0 Bft) SO 144 ° 0 min 0,000 mm 0,0 UV-I 40 W/m² 13,6 °C 14,6 °C 3,2 km/h (1 Bft)
23.07.2017 07:35 14,6 °C 14,6 °C 94 % 1014,2 hPa 0,0 mm 0,0 km/h (0 Bft) SO 144 ° 0 min 0,000 mm 0,0 UV-I 42 W/m² 13,6 °C 14,6 °C 0,0 km/h (0 Bft)
23.07.2017 07:36 14,6 °C 14,7 °C 94 % 1014,2 hPa 0,0 mm 0,0 km/h (0 Bft) SO 144 ° 0 min 0,000 mm 0,0 UV-I 42 W/m² 13,6 °C 14,6 °C 0,0 km/h (0 Bft)
23.07.2017 07:37 14,6 °C 14,7 °C 94 % 1014,2 hPa 0,0 mm 0,0 km/h (0 Bft) SO 144 ° 0 min 0,000 mm 0,0 UV-I 42 W/m² 13,6 °C 14,6 °C 0,0 km/h (0 Bft)
23.07.2017 07:38 14,7 °C 14,7 °C 94 % 1014,2 hPa 0,0 mm 3,5 km/h (1 Bft) SO 143 ° 0 min 0,000 mm 0,0 UV-I 44 W/m² 13,7 °C 14,7 °C 6,4 km/h (2 Bft)
23.07.2017 07:39 14,6 °C 14,7 °C 94 % 1014,1 hPa 0,0 mm 2,2 km/h (1 Bft) S-SO 147 ° 0 min 0,000 mm 0,0 UV-I 42 W/m² 13,6 °C 14,6 °C 4,8 km/h (1 Bft)
23.07.2017 07:40 14,6 °C 14,7 °C 94 % 1014,1 hPa 0,0 mm 1,0 km/h (0 Bft) S-SO 147 ° 0 min 0,000 mm 0,0 UV-I 42 W/m² 13,6 °C 14,6 °C 1,6 km/h (1 Bft)
23.07.2017 07:41 14,6 °C 14,6 °C 94 % 1014,2 hPa 0,0 mm 0,0 km/h (0 Bft) S-SO 147 ° 0 min 0,000 mm 0,0 UV-I 42 W/m² 13,6 °C 14,6 °C 0,0 km/h (0 Bft)
23.07.2017 07:42 14,6 °C 14,6 °C 94 % 1014,2 hPa 0,0 mm 0,0 km/h (0 Bft) S-SO 147 ° 0 min 0,000 mm 0,0 UV-I 44 W/m² 13,6 °C 14,6 °C 0,0 km/h (0 Bft)
23.07.2017 07:43 14,6 °C 14,6 °C 94 % 1014,2 hPa 0,0 mm 1,0 km/h (0 Bft) S-SO 147 ° 0 min 0,000 mm 0,0 UV-I 44 W/m² 13,6 °C 14,6 °C 1,6 km/h (1 Bft)
23.07.2017 07:44 14,6 °C 14,6 °C 94 % 1014,2 hPa 0,0 mm 0,9 km/h (0 Bft) S-SO 147 ° 0 min 0,000 mm 0,0 UV-I 44 W/m² 13,6 °C 14,6 °C 3,2 km/h (1 Bft)
23.07.2017 07:45 14,6 °C 14,6 °C 94 % 1014,2 hPa 0,0 mm 0,2 km/h (0 Bft) S-SO 147 ° 0 min 0,000 mm 0,0 UV-I 46 W/m² 13,6 °C 14,6 °C 1,6 km/h (1 Bft)
23.07.2017 07:46 14,6 °C 14,6 °C 94 % 1014,2 hPa 0,0 mm 1,9 km/h (1 Bft) S 182 ° 0 min 0,000 mm 0,0 UV-I 47 W/m² 13,6 °C 14,6 °C 4,8 km/h (1 Bft)
23.07.2017 07:47 14,6 °C 14,6 °C 94 % 1014,2 hPa 0,0 mm 0,5 km/h (0 Bft) S 182 ° 0 min 0,000 mm 0,0 UV-I 47 W/m² 13,6 °C 14,6 °C 1,6 km/h (1 Bft)
23.07.2017 07:48 14,6 °C 14,6 °C 94 % 1014,2 hPa 0,0 mm 0,8 km/h (0 Bft) S 182 ° 0 min 0,000 mm 0,0 UV-I 54 W/m² 13,6 °C 14,6 °C 3,2 km/h (1 Bft)
23.07.2017 07:49 14,6 °C 14,7 °C 94 % 1014,2 hPa 0,0 mm 0,7 km/h (0 Bft) S 182 ° 0 min 0,000 mm 0,0 UV-I 58 W/m² 13,6 °C 14,6 °C 1,6 km/h (1 Bft)
23.07.2017 07:50 14,7 °C 14,7 °C 94 % 1014,2 hPa 0,0 mm 0,0 km/h (0 Bft) S 182 ° 0 min 0,000 mm 0,0 UV-I 62 W/m² 13,7 °C 14,7 °C 0,0 km/h (0 Bft)
23.07.2017 07:51 14,7 °C 14,7 °C 95 % 1014,3 hPa 0,0 mm 0,0 km/h (0 Bft) S 182 ° 0 min 0,000 mm 0,5 UV-I 63 W/m² 13,9 °C 14,7 °C 0,0 km/h (0 Bft)
23.07.2017 07:52 14,7 °C 14,7 °C 95 % 1014,2 hPa 0,0 mm 0,0 km/h (0 Bft) S 182 ° 0 min 0,000 mm 0,5 UV-I 65 W/m² 13,9 °C 14,7 °C 0,0 km/h (0 Bft)
23.07.2017 07:53 14,7 °C 14,7 °C 95 % 1014,3 hPa 0,0 mm 0,0 km/h (0 Bft) S 182 ° 0 min 0,000 mm 0,5 UV-I 69 W/m² 13,9 °C 14,7 °C 0,0 km/h (0 Bft)
23.07.2017 07:54 14,7 °C 14,7 °C 95 % 1014,3 hPa 0,0 mm 0,0 km/h (0 Bft) S 182 ° 0 min 0,000 mm 0,5 UV-I 72 W/m² 13,9 °C 14,7 °C 0,0 km/h (0 Bft)
23.07.2017 07:55 14,7 °C 14,7 °C 95 % 1014,3 hPa 0,0 mm 0,0 km/h (0 Bft) S 182 ° 0 min 0,000 mm 0,6 UV-I 74 W/m² 13,9 °C 14,7 °C 0,0 km/h (0 Bft)
23.07.2017 07:56 14,7 °C 14,7 °C 94 % 1014,3 hPa 0,0 mm 0,0 km/h (0 Bft) S 182 ° 0 min 0,000 mm 0,6 UV-I 76 W/m² 13,7 °C 14,7 °C 0,0 km/h (0 Bft)
23.07.2017 07:57 14,8 °C 14,8 °C 95 % 1014,3 hPa 0,0 mm 0,0 km/h (0 Bft) S 182 ° 0 min 0,000 mm 0,6 UV-I 77 W/m² 14,0 °C 14,8 °C 0,0 km/h (0 Bft)
23.07.2017 07:58 14,8 °C 14,8 °C 95 % 1014,4 hPa 0,0 mm 0,0 km/h (0 Bft) S 182 ° 0 min 0,000 mm 0,6 UV-I 79 W/m² 14,0 °C 14,8 °C 0,0 km/h (0 Bft)
23.07.2017 07:59 14,9 °C 14,9 °C 95 % 1014,4 hPa 0,0 mm 0,0 km/h (0 Bft) S 182 ° 0 min 0,000 mm 0,7 UV-I 84 W/m² 14,1 °C 14,9 °C 0,0 km/h (0 Bft)
23.07.2017 08:00 14,9 °C 14,9 °C 95 % 1014,4 hPa 0,0 mm 0,0 km/h (0 Bft) S 182 ° 0 min 0,051 mm 0,7 UV-I 88 W/m² 14,1 °C 14,9 °C 0,0 km/h (0 Bft)
23.07.2017 08:01 15,0 °C 15,0 °C 95 % 1014,4 hPa 0,0 mm 0,0 km/h (0 Bft) S 182 ° 0 min 0,000 mm 0,7 UV-I 100 W/m² 14,2 °C 15,0 °C 0,0 km/h (0 Bft)
23.07.2017 08:02 15,1 °C 15,1 °C 95 % 1014,4 hPa 0,0 mm 0,0 km/h (0 Bft) S 182 ° 0 min 0,000 mm 0,8 UV-I 113 W/m² 14,3 °C 15,1 °C 0,0 km/h (0 Bft)
23.07.2017 08:03 15,1 °C 15,1 °C 95 % 1014,4 hPa 0,0 mm 0,0 km/h (0 Bft) S 182 ° 0 min 0,000 mm 0,9 UV-I 123 W/m² 14,3 °C 15,1 °C 0,0 km/h (0 Bft)
23.07.2017 08:04 15,1 °C 15,1 °C 95 % 1014,4 hPa 0,0 mm 0,0 km/h (0 Bft) S 182 ° 0 min 0,000 mm 0,9 UV-I 132 W/m² 14,3 °C 15,1 °C 0,0 km/h (0 Bft)
23.07.2017 08:05 15,1 °C 15,1 °C 95 % 1014,4 hPa 0,0 mm 0,0 km/h (0 Bft) S 182 ° 0 min 0,000 mm 1,0 UV-I 132 W/m² 14,3 °C 15,1 °C 0,0 km/h (0 Bft)
23.07.2017 08:06 15,1 °C 15,1 °C 95 % 1014,4 hPa 0,0 mm 0,0 km/h (0 Bft) S 182 ° 0 min 0,000 mm 1,0 UV-I 139 W/m² 14,3 °C 15,1 °C 0,0 km/h (0 Bft)
23.07.2017 08:07 15,2 °C 15,2 °C 95 % 1014,4 hPa 0,0 mm 0,0 km/h (0 Bft) S 182 ° 0 min 0,000 mm 1,0 UV-I 142 W/m² 14,4 °C 15,2 °C 0,0 km/h (0 Bft)
23.07.2017 08:08 15,2 °C 15,2 °C 95 % 1014,4 hPa 0,0 mm 0,0 km/h (0 Bft) S 182 ° 0 min 0,000 mm 1,0 UV-I 146 W/m² 14,4 °C 15,2 °C 0,0 km/h (0 Bft)
23.07.2017 08:09 15,2 °C 15,2 °C 95 % 1014,4 hPa 0,0 mm 0,0 km/h (0 Bft) S 182 ° 0 min 0,000 mm 1,1 UV-I 148 W/m² 14,4 °C 15,2 °C 0,0 km/h (0 Bft)
23.07.2017 08:10 15,3 °C 15,3 °C 95 % 1014,4 hPa 0,0 mm 0,0 km/h (0 Bft) S 182 ° 0 min 0,000 mm 1,1 UV-I 146 W/m² 14,5 °C 15,3 °C 0,0 km/h (0 Bft)
23.07.2017 08:11 15,3 °C 15,3 °C 95 % 1014,3 hPa 0,0 mm 0,0 km/h (0 Bft) S 182 ° 0 min 0,000 mm 1,1 UV-I 148 W/m² 14,5 °C 15,3 °C 0,0 km/h (0 Bft)
23.07.2017 08:12 15,3 °C 15,3 °C 95 % 1014,3 hPa 0,0 mm 0,0 km/h (0 Bft) S 182 ° 0 min 0,000 mm 1,1 UV-I 148 W/m² 14,5 °C 15,3 °C 0,0 km/h (0 Bft)
23.07.2017 08:13 15,3 °C 15,3 °C 95 % 1014,3 hPa 0,0 mm 0,0 km/h (0 Bft) S 182 ° 0 min 0,000 mm 1,0 UV-I 142 W/m² 14,5 °C 15,3 °C 0,0 km/h (0 Bft)
23.07.2017 08:14 15,3 °C 15,3 °C 94 % 1014,4 hPa 0,0 mm 0,0 km/h (0 Bft) S 182 ° 0 min 0,000 mm 1,0 UV-I 141 W/m² 14,3 °C 15,3 °C 0,0 km/h (0 Bft)
23.07.2017 08:15 15,3 °C 15,3 °C 94 % 1014,4 hPa 0,0 mm 0,0 km/h (0 Bft) S 182 ° 0 min 0,000 mm 1,0 UV-I 139 W/m² 14,3 °C 15,3 °C 0,0 km/h (0 Bft)
23.07.2017 08:16 15,4 °C 15,4 °C 94 % 1014,3 hPa 0,0 mm 1,8 km/h (1 Bft) S 182 ° 0 min 0,000 mm 1,0 UV-I 132 W/m² 14,4 °C 15,4 °C 3,2 km/h (1 Bft)
23.07.2017 08:17 15,4 °C 15,4 °C 94 % 1014,3 hPa 0,0 mm 2,2 km/h (1 Bft) S 182 ° 0 min 0,000 mm 1,0 UV-I 121 W/m² 14,4 °C 15,4 °C 3,2 km/h (1 Bft)
23.07.2017 08:18 15,3 °C 15,4 °C 94 % 1014,4 hPa 0,0 mm 2,0 km/h (1 Bft) S 185 ° 0 min 0,000 mm 0,9 UV-I 111 W/m² 14,3 °C 15,3 °C 3,2 km/h (1 Bft)
23.07.2017 08:19 15,3 °C 15,4 °C 94 % 1014,3 hPa 0,0 mm 0,1 km/h (0 Bft) S 185 ° 0 min 0,000 mm 0,9 UV-I 102 W/m² 14,3 °C 15,3 °C 1,6 km/h (1 Bft)
23.07.2017 08:20 15,4 °C 15,4 °C 94 % 1014,4 hPa 0,0 mm 1,1 km/h (1 Bft) S 185 ° 0 min 0,000 mm 1,0 UV-I 107 W/m² 14,4 °C 15,4 °C 1,6 km/h (1 Bft)
23.07.2017 08:21 15,3 °C 15,4 °C 94 % 1014,4 hPa 0,0 mm 1,2 km/h (1 Bft) S 185 ° 0 min 0,000 mm 1,0 UV-I 116 W/m² 14,3 °C 15,3 °C 3,2 km/h (1 Bft)
23.07.2017 08:22 15,3 °C 15,3 °C 94 % 1014,4 hPa 0,0 mm 1,1 km/h (1 Bft) S 185 ° 0 min 0,000 mm 1,1 UV-I 125 W/m² 14,3 °C 15,3 °C 3,2 km/h (1 Bft)
23.07.2017 08:23 15,3 °C 15,3 °C 94 % 1014,4 hPa 0,0 mm 3,0 km/h (1 Bft) S 185 ° 0 min 0,000 mm 1,1 UV-I 125 W/m² 14,3 °C 15,3 °C 3,2 km/h (1 Bft)
23.07.2017 08:24 15,3 °C 15,4 °C 94 % 1014,3 hPa 0,0 mm 3,8 km/h (1 Bft) S 179 ° 0 min 0,000 mm 1,2 UV-I 144 W/m² 14,3 °C 15,3 °C 6,4 km/h (2 Bft)
23.07.2017 08:25 15,3 °C 15,3 °C 94 % 1014,3 hPa 0,0 mm 2,3 km/h (1 Bft) S 179 ° 0 min 0,000 mm 1,2 UV-I 158 W/m² 14,3 °C 15,3 °C 3,2 km/h (1 Bft)
23.07.2017 08:26 15,4 °C 15,4 °C 93 % 1014,3 hPa 0,0 mm 1,4 km/h (1 Bft) S 179 ° 0 min 0,000 mm 1,2 UV-I 165 W/m² 14,3 °C 15,4 °C 3,2 km/h (1 Bft)
23.07.2017 08:27 15,4 °C 15,4 °C 94 % 1014,3 hPa 0,0 mm 2,5 km/h (1 Bft) S 179 ° 0 min 0,000 mm 1,2 UV-I 262 W/m² 14,4 °C 15,4 °C 4,8 km/h (1 Bft)
23.07.2017 08:28 15,5 °C 15,5 °C 94 % 1014,3 hPa 0,0 mm 1,8 km/h (1 Bft) S 179 ° 0 min 0,000 mm 1,1 UV-I 179 W/m² 14,5 °C 15,5 °C 3,2 km/h (1 Bft)
23.07.2017 08:29 15,5 °C 15,6 °C 94 % 1014,3 hPa 0,0 mm 1,8 km/h (1 Bft) S 179 ° 0 min 0,000 mm 1,0 UV-I 174 W/m² 14,5 °C 15,5 °C 3,2 km/h (1 Bft)
23.07.2017 08:30 15,6 °C 15,6 °C 94 % 1014,3 hPa 0,0 mm 1,4 km/h (1 Bft) S 179 ° 0 min 0,000 mm 0,9 UV-I 162 W/m² 14,6 °C 15,6 °C 3,2 km/h (1 Bft)
23.07.2017 08:31 15,6 °C 15,6 °C 94 % 1014,4 hPa 0,0 mm 2,7 km/h (1 Bft) S 186 ° 0 min 0,000 mm 0,8 UV-I 113 W/m² 14,6 °C 15,6 °C 4,8 km/h (1 Bft)
23.07.2017 08:32 15,7 °C 15,7 °C 93 % 1014,4 hPa 0,0 mm 1,5 km/h (1 Bft) S 186 ° 0 min 0,000 mm 0,6 UV-I 100 W/m² 14,6 °C 15,7 °C 4,8 km/h (1 Bft)
23.07.2017 08:33 15,7 °C 15,7 °C 93 % 1014,5 hPa 0,0 mm 2,8 km/h (1 Bft) S 180 ° 0 min 0,000 mm 0,5 UV-I 90 W/m² 14,6 °C 15,7 °C 4,8 km/h (1 Bft)
23.07.2017 08:34 15,8 °C 15,8 °C 93 % 1014,4 hPa 0,0 mm 2,5 km/h (1 Bft) S 180 ° 0 min 0,000 mm 0,5 UV-I 81 W/m² 14,7 °C 15,8 °C 4,8 km/h (1 Bft)
23.07.2017 08:35 15,7 °C 15,8 °C 93 % 1014,4 hPa 0,0 mm 0,2 km/h (0 Bft) S 180 ° 0 min 0,000 mm 0,5 UV-I 76 W/m² 14,6 °C 15,7 °C 1,6 km/h (1 Bft)
23.07.2017 08:36 15,7 °C 15,7 °C 92 % 1014,4 hPa 0,0 mm 0,0 km/h (0 Bft) S 180 ° 0 min 0,000 mm 0,5 UV-I 79 W/m² 14,4 °C 15,7 °C 0,0 km/h (0 Bft)
23.07.2017 08:37 15,6 °C 15,7 °C 93 % 1014,5 hPa 0,0 mm 0,0 km/h (0 Bft) S 180 ° 0 min 0,000 mm 0,6 UV-I 83 W/m² 14,5 °C 15,6 °C 0,0 km/h (0 Bft)
23.07.2017 08:38 15,6 °C 15,6 °C 93 % 1014,5 hPa 0,0 mm 0,0 km/h (0 Bft) S 180 ° 0 min 0,000 mm 0,6 UV-I 83 W/m² 14,5 °C 15,6 °C 0,0 km/h (0 Bft)
23.07.2017 08:39 15,6 °C 15,6 °C 93 % 1014,5 hPa 0,0 mm 0,0 km/h (0 Bft) S 180 ° 0 min 0,000 mm 0,7 UV-I 90 W/m² 14,5 °C 15,6 °C 0,0 km/h (0 Bft)
23.07.2017 08:40 15,7 °C 15,7 °C 93 % 1014,5 hPa 0,0 mm 0,7 km/h (0 Bft) S 180 ° 0 min 0,000 mm 0,7 UV-I 95 W/m² 14,6 °C 15,7 °C 3,2 km/h (1 Bft)
23.07.2017 08:41 15,7 °C 15,7 °C 93 % 1014,6 hPa 0,0 mm 1,9 km/h (1 Bft) S 180 ° 0 min 0,000 mm 0,8 UV-I 95 W/m² 14,6 °C 15,7 °C 3,2 km/h (1 Bft)
23.07.2017 08:42 15,7 °C 15,7 °C 93 % 1014,5 hPa 0,0 mm 0,0 km/h (0 Bft) S 180 ° 0 min 0,000 mm 0,8 UV-I 111 W/m² 14,6 °C 15,7 °C 0,0 km/h (0 Bft)
23.07.2017 08:43 15,8 °C 15,8 °C 93 % 1014,6 hPa 0,0 mm 0,0 km/h (0 Bft) S 180 ° 0 min 0,000 mm 0,7 UV-I 105 W/m² 14,7 °C 15,8 °C 0,0 km/h (0 Bft)
23.07.2017 08:44 15,7 °C 15,8 °C 93 % 1014,6 hPa 0,0 mm 0,0 km/h (0 Bft) S 180 ° 0 min 0,000 mm 0,7 UV-I 95 W/m² 14,6 °C 15,7 °C 0,0 km/h (0 Bft)
23.07.2017 08:45 15,7 °C 15,7 °C 93 % 1014,6 hPa 0,0 mm 0,0 km/h (0 Bft) S 180 ° 0 min 0,000 mm 0,6 UV-I 83 W/m² 14,6 °C 15,7 °C 0,0 km/h (0 Bft)
23.07.2017 08:46 15,7 °C 15,7 °C 93 % 1014,5 hPa 0,0 mm 0,0 km/h (0 Bft) S 180 ° 0 min 0,000 mm 0,5 UV-I 72 W/m² 14,6 °C 15,7 °C 0,0 km/h (0 Bft)
23.07.2017 08:47 15,7 °C 15,7 °C 93 % 1014,5 hPa 0,0 mm 0,6 km/h (0 Bft) S 180 ° 0 min 0,000 mm 0,5 UV-I 65 W/m² 14,6 °C 15,7 °C 3,2 km/h (1 Bft)
23.07.2017 08:48 15,7 °C 15,7 °C 92 % 1014,6 hPa 0,0 mm 4,5 km/h (1 Bft) S 184 ° 0 min 0,000 mm 0,5 UV-I 54 W/m² 14,4 °C 15,7 °C 9,7 km/h (2 Bft)
23.07.2017 08:49 15,7 °C 15,7 °C 92 % 1014,6 hPa 0,2 mm 2,1 km/h (1 Bft) S 184 ° 0 min 0,000 mm 0,0 UV-I 53 W/m² 14,4 °C 15,7 °C 4,8 km/h (1 Bft)
23.07.2017 08:50 15,7 °C 15,7 °C 92 % 1014,6 hPa 0,0 mm 3,4 km/h (1 Bft) S 182 ° 0 min 0,000 mm 0,0 UV-I 49 W/m² 14,4 °C 15,7 °C 4,8 km/h (1 Bft)
23.07.2017 08:51 15,7 °C 15,7 °C 92 % 1014,6 hPa 0,0 mm 2,7 km/h (1 Bft) S 182 ° 0 min 0,000 mm 0,0 UV-I 47 W/m² 14,4 °C 15,7 °C 4,8 km/h (1 Bft)
23.07.2017 08:52 15,7 °C 15,7 °C 92 % 1014,6 hPa 0,0 mm 2,5 km/h (1 Bft) S 182 ° 0 min 0,000 mm 0,0 UV-I 47 W/m² 14,4 °C 15,7 °C 4,8 km/h (1 Bft)
23.07.2017 08:53 15,7 °C 15,7 °C 92 % 1014,6 hPa 0,0 mm 2,5 km/h (1 Bft) S 182 ° 0 min 0,000 mm 0,0 UV-I 46 W/m² 14,4 °C 15,7 °C 4,8 km/h (1 Bft)
23.07.2017 08:54 15,7 °C 15,7 °C 92 % 1014,6 hPa 0,0 mm 1,8 km/h (1 Bft) S 182 ° 0 min 0,000 mm 0,0 UV-I 44 W/m² 14,4 °C 15,7 °C 4,8 km/h (1 Bft)
23.07.2017 08:55 15,7 °C 15,7 °C 92 % 1014,6 hPa 0,0 mm 0,3 km/h (0 Bft) S 182 ° 0 min 0,000 mm 0,0 UV-I 44 W/m² 14,4 °C 15,7 °C 1,6 km/h (1 Bft)
23.07.2017 08:56 15,6 °C 15,7 °C 93 % 1014,6 hPa 0,0 mm 2,9 km/h (1 Bft) S 182 ° 0 min 0,000 mm 0,0 UV-I 42 W/m² 14,5 °C 15,6 °C 4,8 km/h (1 Bft)
23.07.2017 08:57 15,6 °C 15,6 °C 92 % 1014,6 hPa 0,0 mm 1,7 km/h (1 Bft) S 182 ° 0 min 0,000 mm 0,0 UV-I 42 W/m² 14,3 °C 15,6 °C 3,2 km/h (1 Bft)
23.07.2017 08:58 15,6 °C 15,6 °C 92 % 1014,6 hPa 0,0 mm 0,6 km/h (0 Bft) S 182 ° 0 min 0,000 mm 0,0 UV-I 42 W/m² 14,3 °C 15,6 °C 1,6 km/h (1 Bft)
23.07.2017 08:59 15,6 °C 15,6 °C 92 % 1014,6 hPa 0,0 mm 4,1 km/h (1 Bft) S 182 ° 0 min 0,000 mm 0,0 UV-I 42 W/m² 14,3 °C 15,6 °C 6,4 km/h (2 Bft)
23.07.2017 09:00 15,6 °C 15,7 °C 92 % 1014,6 hPa 0,0 mm 3,9 km/h (1 Bft) S-SW 197 ° 0 min 0,050 mm 0,0 UV-I 46 W/m² 14,3 °C 15,6 °C 6,4 km/h (2 Bft)
23.07.2017 09:01 15,7 °C 15,7 °C 92 % 1014,5 hPa 0,0 mm 2,5 km/h (1 Bft) S-SW 197 ° 0 min 0,000 mm 0,0 UV-I 47 W/m² 14,4 °C 15,7 °C 3,2 km/h (1 Bft)
23.07.2017 09:02 15,7 °C 15,7 °C 93 % 1014,6 hPa 0,0 mm 2,2 km/h (1 Bft) S-SW 198 ° 0 min 0,000 mm 0,0 UV-I 49 W/m² 14,6 °C 15,7 °C 4,8 km/h (1 Bft)
23.07.2017 09:03 15,7 °C 15,7 °C 92 % 1014,6 hPa 0,0 mm 3,4 km/h (1 Bft) S-SW 196 ° 0 min 0,000 mm 0,0 UV-I 53 W/m² 14,4 °C 15,7 °C 4,8 km/h (1 Bft)
23.07.2017 09:04 15,7 °C 15,7 °C 92 % 1014,6 hPa 0,0 mm 2,3 km/h (1 Bft) S 189 ° 0 min 0,000 mm 0,0 UV-I 56 W/m² 14,4 °C 15,7 °C 4,8 km/h (1 Bft)
23.07.2017 09:05 15,8 °C 15,8 °C 91 % 1014,5 hPa 0,0 mm 1,0 km/h (0 Bft) S 189 ° 0 min 0,000 mm 0,5 UV-I 62 W/m² 14,3 °C 15,8 °C 3,2 km/h (1 Bft)
23.07.2017 09:06 16,0 °C 16,0 °C 91 % 1014,6 hPa 0,0 mm 0,9 km/h (0 Bft) S 189 ° 0 min 0,000 mm 0,5 UV-I 67 W/m² 14,5 °C 16,0 °C 1,6 km/h (1 Bft)
23.07.2017 09:07 16,1 °C 16,1 °C 90 % 1014,5 hPa 0,0 mm 0,4 km/h (0 Bft) S 189 ° 0 min 0,000 mm 0,5 UV-I 67 W/m² 14,5 °C 16,1 °C 1,6 km/h (1 Bft)
23.07.2017 09:08 16,1 °C 16,1 °C 90 % 1014,5 hPa 0,0 mm 1,2 km/h (1 Bft) S 189 ° 0 min 0,000 mm 0,5 UV-I 69 W/m² 14,5 °C 16,1 °C 1,6 km/h (1 Bft)
23.07.2017 09:09 16,1 °C 16,1 °C 90 % 1014,5 hPa 0,0 mm 1,7 km/h (1 Bft) S 189 ° 0 min 0,000 mm 0,6 UV-I 77 W/m² 14,5 °C 16,1 °C 3,2 km/h (1 Bft)
23.07.2017 09:10 16,1 °C 16,1 °C 90 % 1014,5 hPa 0,0 mm 0,0 km/h (0 Bft) S 189 ° 0 min 0,000 mm 0,6 UV-I 90 W/m² 14,5 °C 16,1 °C 0,0 km/h (0 Bft)
23.07.2017 09:11 16,1 °C 16,1 °C 91 % 1014,5 hPa 0,0 mm 0,3 km/h (0 Bft) S 189 ° 0 min 0,000 mm 0,7 UV-I 114 W/m² 14,6 °C 16,1 °C 1,6 km/h (1 Bft)
23.07.2017 09:12 16,2 °C 16,2 °C 91 % 1014,6 hPa 0,0 mm 5,4 km/h (1 Bft) W-SW 255 ° 0 min 0,000 mm 0,9 UV-I 123 W/m² 14,7 °C 16,2 °C 9,7 km/h (2 Bft)
23.07.2017 09:13 16,2 °C 16,2 °C 91 % 1014,6 hPa 0,0 mm 4,6 km/h (1 Bft) SW 222 ° 0 min 0,000 mm 0,9 UV-I 128 W/m² 14,7 °C 16,2 °C 6,4 km/h (2 Bft)
23.07.2017 09:14 16,3 °C 16,3 °C 90 % 1014,6 hPa 0,0 mm 2,4 km/h (1 Bft) SW 221 ° 0 min 0,000 mm 1,0 UV-I 130 W/m² 14,7 °C 16,3 °C 3,2 km/h (1 Bft)
23.07.2017 09:15 16,4 °C 16,4 °C 90 % 1014,6 hPa 0,0 mm 4,1 km/h (1 Bft) SW 232 ° 0 min 0,000 mm 1,1 UV-I 137 W/m² 14,8 °C 16,4 °C 6,4 km/h (2 Bft)
23.07.2017 09:16 16,5 °C 16,5 °C 90 % 1014,6 hPa 0,0 mm 4,4 km/h (1 Bft) W 259 ° 0 min 0,000 mm 1,1 UV-I 146 W/m² 14,9 °C 16,5 °C 6,4 km/h (2 Bft)
23.07.2017 09:17 16,6 °C 16,6 °C 90 % 1014,6 hPa 0,0 mm 5,8 km/h (2 Bft) W 263 ° 0 min 0,000 mm 1,2 UV-I 165 W/m² 15,0 °C 16,6 °C 8,0 km/h (2 Bft)
23.07.2017 09:18 16,6 °C 16,6 °C 89 % 1014,6 hPa 0,0 mm 3,7 km/h (1 Bft) W 263 ° 0 min 0,000 mm 1,3 UV-I 176 W/m² 14,8 °C 16,6 °C 4,8 km/h (1 Bft)
23.07.2017 09:19 16,7 °C 16,7 °C 89 % 1014,6 hPa 0,0 mm 0,7 km/h (0 Bft) W 263 ° 0 min 0,000 mm 1,4 UV-I 190 W/m² 14,9 °C 16,7 °C 3,2 km/h (1 Bft)
23.07.2017 09:20 16,8 °C 16,8 °C 90 % 1014,6 hPa 0,0 mm 0,0 km/h (0 Bft) W 263 ° 0 min 0,000 mm 1,4 UV-I 206 W/m² 15,1 °C 16,8 °C 0,0 km/h (0 Bft)
23.07.2017 09:21 16,7 °C 16,8 °C 91 % 1014,6 hPa 0,0 mm 0,0 km/h (0 Bft) W 263 ° 0 min 0,000 mm 1,5 UV-I 220 W/m² 15,2 °C 16,7 °C 0,0 km/h (0 Bft)
23.07.2017 09:22 16,6 °C 16,7 °C 90 % 1014,6 hPa 0,0 mm 0,0 km/h (0 Bft) W 263 ° 0 min 0,000 mm 1,5 UV-I 225 W/m² 15,0 °C 16,6 °C 0,0 km/h (0 Bft)
23.07.2017 09:23 16,4 °C 16,6 °C 91 % 1014,6 hPa 0,0 mm 0,0 km/h (0 Bft) W 263 ° 0 min 0,000 mm 1,6 UV-I 234 W/m² 14,9 °C 16,4 °C 0,0 km/h (0 Bft)
23.07.2017 09:24 16,4 °C 16,5 °C 92 % 1014,6 hPa 0,0 mm 0,0 km/h (0 Bft) W 263 ° 0 min 0,000 mm 1,6 UV-I 234 W/m² 15,1 °C 16,4 °C 0,0 km/h (0 Bft)
23.07.2017 09:25 16,5 °C 16,5 °C 92 % 1014,7 hPa 0,0 mm 0,0 km/h (0 Bft) W 263 ° 0 min 0,000 mm 1,6 UV-I 225 W/m² 15,2 °C 16,5 °C 0,0 km/h (0 Bft)
23.07.2017 09:26 16,5 °C 16,5 °C 92 % 1014,6 hPa 0,0 mm 0,0 km/h (0 Bft) W 263 ° 0 min 0,000 mm 1,6 UV-I 229 W/m² 15,2 °C 16,5 °C 0,0 km/h (0 Bft)
23.07.2017 09:27 16,6 °C 16,6 °C 91 % 1014,7 hPa 0,0 mm 0,0 km/h (0 Bft) W 263 ° 0 min 0,000 mm 1,6 UV-I 223 W/m² 15,1 °C 16,6 °C 0,0 km/h (0 Bft)
23.07.2017 09:28 16,7 °C 16,7 °C 91 % 1014,7 hPa 0,0 mm 0,0 km/h (0 Bft) W 263 ° 0 min 0,000 mm 1,8 UV-I 244 W/m² 15,2 °C 16,7 °C 0,0 km/h (0 Bft)
23.07.2017 09:29 16,9 °C 16,9 °C 92 % 1014,7 hPa 0,0 mm 1,6 km/h (1 Bft) W 263 ° 0 min 0,000 mm 1,7 UV-I 204 W/m² 15,6 °C 16,9 °C 4,8 km/h (1 Bft)
23.07.2017 09:30 16,9 °C 16,9 °C 91 % 1014,7 hPa 0,0 mm 4,1 km/h (1 Bft) W 271 ° 0 min 0,000 mm 1,7 UV-I 225 W/m² 15,4 °C 16,9 °C 6,4 km/h (2 Bft)
23.07.2017 09:31 17,1 °C 17,1 °C 89 % 1014,7 hPa 0,0 mm 5,2 km/h (1 Bft) W 271 ° 0 min 0,000 mm 1,7 UV-I 202 W/m² 15,3 °C 17,1 °C 6,4 km/h (2 Bft)
23.07.2017 09:32 17,2 °C 17,2 °C 90 % 1014,6 hPa 0,0 mm 4,4 km/h (1 Bft) W 264 ° 0 min 0,000 mm 1,7 UV-I 195 W/m² 15,5 °C 17,2 °C 6,4 km/h (2 Bft)
23.07.2017 09:33 17,3 °C 17,3 °C 90 % 1014,7 hPa 0,0 mm 1,5 km/h (1 Bft) W 264 ° 0 min 0,000 mm 1,8 UV-I 199 W/m² 15,6 °C 17,3 °C 3,2 km/h (1 Bft)
23.07.2017 09:34 17,3 °C 17,3 °C 88 % 1014,7 hPa 0,0 mm 1,9 km/h (1 Bft) W 264 ° 0 min 0,000 mm 1,8 UV-I 206 W/m² 15,3 °C 17,3 °C 3,2 km/h (1 Bft)
23.07.2017 09:35 17,3 °C 17,3 °C 88 % 1014,7 hPa 0,0 mm 3,5 km/h (1 Bft) W 264 ° 0 min 0,000 mm 1,9 UV-I 241 W/m² 15,3 °C 17,3 °C 4,8 km/h (1 Bft)
23.07.2017 09:36 17,5 °C 17,5 °C 88 % 1014,7 hPa 0,0 mm 1,3 km/h (1 Bft) W 264 ° 0 min 0,000 mm 2,0 UV-I 241 W/m² 15,5 °C 17,5 °C 4,8 km/h (1 Bft)
23.07.2017 09:37 17,5 °C 17,5 °C 88 % 1014,7 hPa 0,0 mm 4,2 km/h (1 Bft) W 262 ° 0 min 0,000 mm 2,0 UV-I 244 W/m² 15,5 °C 17,5 °C 9,7 km/h (2 Bft)
23.07.2017 09:38 17,6 °C 17,6 °C 87 % 1014,7 hPa 0,0 mm 5,0 km/h (1 Bft) W 269 ° 0 min 0,000 mm 2,0 UV-I 246 W/m² 15,4 °C 17,6 °C 6,4 km/h (2 Bft)
23.07.2017 09:39 17,6 °C 17,6 °C 88 % 1014,7 hPa 0,0 mm 5,8 km/h (2 Bft) W 261 ° 0 min 0,000 mm 2,0 UV-I 244 W/m² 15,6 °C 17,6 °C 9,7 km/h (2 Bft)
23.07.2017 09:40 17,7 °C 17,7 °C 87 % 1014,7 hPa 0,0 mm 6,0 km/h (2 Bft) W-SW 240 ° 0 min 0,000 mm 1,9 UV-I 227 W/m² 15,5 °C 17,7 °C 9,7 km/h (2 Bft)
23.07.2017 09:41 17,7 °C 17,7 °C 89 % 1014,7 hPa 0,0 mm 3,9 km/h (1 Bft) W-NW 282 ° 0 min 0,000 mm 1,9 UV-I 223 W/m² 15,9 °C 17,7 °C 6,4 km/h (2 Bft)
23.07.2017 09:42 17,7 °C 17,7 °C 88 % 1014,6 hPa 0,0 mm 3,9 km/h (1 Bft) W 267 ° 0 min 0,000 mm 2,0 UV-I 232 W/m² 15,7 °C 17,7 °C 6,4 km/h (2 Bft)
23.07.2017 09:43 17,7 °C 17,7 °C 88 % 1014,6 hPa 0,0 mm 4,1 km/h (1 Bft) W 263 ° 0 min 0,000 mm 2,0 UV-I 243 W/m² 15,7 °C 17,7 °C 6,4 km/h (2 Bft)
23.07.2017 09:44 17,7 °C 17,7 °C 88 % 1014,6 hPa 0,0 mm 4,2 km/h (1 Bft) W 273 ° 0 min 0,000 mm 1,9 UV-I 253 W/m² 15,7 °C 17,7 °C 4,8 km/h (1 Bft)
23.07.2017 09:45 17,7 °C 17,7 °C 88 % 1014,6 hPa 0,0 mm 2,6 km/h (1 Bft) W 273 ° 0 min 0,000 mm 2,1 UV-I 265 W/m² 15,7 °C 17,7 °C 6,4 km/h (2 Bft)
23.07.2017 09:46 17,8 °C 17,8 °C 88 % 1014,6 hPa 0,0 mm 2,0 km/h (1 Bft) W 271 ° 1 min 0,000 mm 2,1 UV-I 315 W/m² 15,8 °C 17,8 °C 4,8 km/h (1 Bft)
23.07.2017 09:47 17,8 °C 17,8 °C 88 % 1014,6 hPa 0,0 mm 0,3 km/h (0 Bft) W 260 ° 0 min 0,000 mm 2,2 UV-I 246 W/m² 15,8 °C 17,8 °C 1,6 km/h (1 Bft)
23.07.2017 09:48 17,8 °C 17,8 °C 87 % 1014,6 hPa 0,0 mm 1,5 km/h (1 Bft) W-SW 243 ° 0 min 0,000 mm 1,9 UV-I 223 W/m² 15,6 °C 17,8 °C 3,2 km/h (1 Bft)
23.07.2017 09:49 17,7 °C 17,8 °C 85 % 1014,6 hPa 0,0 mm 2,9 km/h (1 Bft) W-SW 257 ° 0 min 0,000 mm 1,8 UV-I 213 W/m² 15,1 °C 17,7 °C 8,0 km/h (2 Bft)
23.07.2017 09:50 17,8 °C 17,8 °C 87 % 1014,6 hPa 0,0 mm 5,5 km/h (1 Bft) W 277 ° 0 min 0,000 mm 1,9 UV-I 211 W/m² 15,6 °C 17,8 °C 11,3 km/h (2 Bft)
23.07.2017 09:51 17,8 °C 17,8 °C 87 % 1014,6 hPa 0,0 mm 2,7 km/h (1 Bft) W 265 ° 0 min 0,000 mm 1,8 UV-I 213 W/m² 15,6 °C 17,8 °C 4,8 km/h (1 Bft)
23.07.2017 09:52 17,8 °C 17,8 °C 87 % 1014,6 hPa 0,0 mm 5,8 km/h (2 Bft) W 262 ° 0 min 0,000 mm 1,9 UV-I 218 W/m² 15,6 °C 17,8 °C 9,7 km/h (2 Bft)
23.07.2017 09:53 17,8 °C 17,8 °C 87 % 1014,6 hPa 0,0 mm 6,4 km/h (2 Bft) W 263 ° 0 min 0,000 mm 2,0 UV-I 218 W/m² 15,6 °C 17,8 °C 9,7 km/h (2 Bft)
23.07.2017 09:54 17,8 °C 17,8 °C 87 % 1014,6 hPa 0,0 mm 4,2 km/h (1 Bft) SW 218 ° 0 min 0,000 mm 2,0 UV-I 223 W/m² 15,6 °C 17,8 °C 6,4 km/h (2 Bft)
23.07.2017 09:55 17,8 °C 17,8 °C 87 % 1014,6 hPa 0,0 mm 5,2 km/h (1 Bft) W-SW 253 ° 0 min 0,000 mm 2,1 UV-I 230 W/m² 15,6 °C 17,8 °C 9,7 km/h (2 Bft)
23.07.2017 09:56 17,8 °C 17,8 °C 87 % 1014,6 hPa 0,0 mm 4,6 km/h (1 Bft) W 261 ° 0 min 0,000 mm 2,1 UV-I 241 W/m² 15,6 °C 17,8 °C 9,7 km/h (2 Bft)
23.07.2017 09:57 17,8 °C 17,8 °C 87 % 1014,6 hPa 0,0 mm 3,5 km/h (1 Bft) W 261 ° 0 min 0,000 mm 2,3 UV-I 257 W/m² 15,6 °C 17,8 °C 11,3 km/h (2 Bft)
23.07.2017 09:58 17,9 °C 17,9 °C 87 % 1014,6 hPa 0,0 mm 7,6 km/h (2 Bft) W-SW 246 ° 0 min 0,000 mm 2,4 UV-I 274 W/m² 15,7 °C 17,9 °C 12,9 km/h (3 Bft)
23.07.2017 09:59 17,9 °C 17,9 °C 88 % 1014,6 hPa 0,0 mm 3,8 km/h (1 Bft) W 281 ° 1 min 0,000 mm 2,9 UV-I 311 W/m² 15,9 °C 17,9 °C 6,4 km/h (2 Bft)
23.07.2017 10:00 17,9 °C 17,9 °C 87 % 1014,6 hPa 0,0 mm 6,4 km/h (2 Bft) W-SW 255 ° 1 min 0,102 mm 2,5 UV-I 367 W/m² 15,7 °C 17,9 °C 12,9 km/h (3 Bft)
23.07.2017 10:01 17,9 °C 17,9 °C 86 % 1014,6 hPa 0,0 mm 4,5 km/h (1 Bft) W-NW 292 ° 1 min 0,000 mm 2,7 UV-I 327 W/m² 15,5 °C 17,9 °C 11,3 km/h (2 Bft)
23.07.2017 10:02 18,0 °C 18,0 °C 87 % 1014,6 hPa 0,0 mm 4,3 km/h (1 Bft) W 277 ° 1 min 0,000 mm 2,9 UV-I 334 W/m² 15,8 °C 18,0 °C 6,4 km/h (2 Bft)
23.07.2017 10:03 18,1 °C 18,1 °C 87 % 1014,6 hPa 0,0 mm 3,6 km/h (1 Bft) W 268 ° 1 min 0,000 mm 2,6 UV-I 323 W/m² 15,9 °C 18,1 °C 4,8 km/h (1 Bft)
23.07.2017 10:04 18,2 °C 18,2 °C 88 % 1014,6 hPa 0,0 mm 5,8 km/h (2 Bft) W 264 ° 1 min 0,000 mm 2,6 UV-I 341 W/m² 16,2 °C 18,2 °C 11,3 km/h (2 Bft)
23.07.2017 10:05 18,2 °C 18,2 °C 87 % 1014,6 hPa 0,0 mm 5,8 km/h (2 Bft) NW 320 ° 0 min 0,000 mm 2,4 UV-I 287 W/m² 16,0 °C 18,2 °C 9,7 km/h (2 Bft)
23.07.2017 10:06 18,3 °C 18,3 °C 86 % 1014,6 hPa 0,0 mm 3,2 km/h (1 Bft) SW 230 ° 1 min 0,000 mm 2,4 UV-I 294 W/m² 15,9 °C 18,3 °C 4,8 km/h (1 Bft)
23.07.2017 10:07 18,4 °C 18,4 °C 85 % 1014,6 hPa 0,0 mm 4,2 km/h (1 Bft) W-SW 240 ° 0 min 0,000 mm 2,3 UV-I 285 W/m² 15,8 °C 18,4 °C 11,3 km/h (2 Bft)
23.07.2017 10:08 18,3 °C 18,4 °C 85 % 1014,6 hPa 0,0 mm 2,8 km/h (1 Bft) S-SW 213 ° 0 min 0,000 mm 2,3 UV-I 265 W/m² 15,7 °C 18,3 °C 6,4 km/h (2 Bft)
23.07.2017 10:09 18,3 °C 18,3 °C 85 % 1014,6 hPa 0,0 mm 2,1 km/h (1 Bft) W-SW 242 ° 0 min 0,000 mm 2,2 UV-I 251 W/m² 15,7 °C 18,3 °C 3,2 km/h (1 Bft)
23.07.2017 10:10 18,3 °C 18,3 °C 85 % 1014,5 hPa 0,0 mm 4,4 km/h (1 Bft) W 259 ° 0 min 0,000 mm 2,2 UV-I 251 W/m² 15,7 °C 18,3 °C 4,8 km/h (1 Bft)
23.07.2017 10:11 18,2 °C 18,3 °C 84 % 1014,6 hPa 0,0 mm 5,5 km/h (1 Bft) W-NW 282 ° 1 min 0,000 mm 2,5 UV-I 320 W/m² 15,4 °C 18,2 °C 8,0 km/h (2 Bft)
23.07.2017 10:12 18,2 °C 18,3 °C 84 % 1014,6 hPa 0,0 mm 5,9 km/h (2 Bft) SW 236 ° 1 min 0,000 mm 2,3 UV-I 290 W/m² 15,4 °C 18,2 °C 9,7 km/h (2 Bft)
23.07.2017 10:13 18,3 °C 18,3 °C 85 % 1014,7 hPa 0,0 mm 7,4 km/h (2 Bft) W 265 ° 0 min 0,000 mm 2,2 UV-I 278 W/m² 15,7 °C 18,3 °C 11,3 km/h (2 Bft)
23.07.2017 10:14 18,2 °C 18,3 °C 85 % 1014,7 hPa 0,0 mm 10,3 km/h (2 Bft) W 265 ° 0 min 0,000 mm 2,2 UV-I 253 W/m² 15,6 °C 18,2 °C 12,9 km/h (3 Bft)
23.07.2017 10:15 18,2 °C 18,3 °C 84 % 1014,7 hPa 0,0 mm 5,8 km/h (2 Bft) W 273 ° 0 min 0,000 mm 1,9 UV-I 236 W/m² 15,4 °C 18,2 °C 12,9 km/h (3 Bft)
23.07.2017 10:16 18,2 °C 18,3 °C 85 % 1014,7 hPa 0,0 mm 5,1 km/h (1 Bft) S 169 ° 0 min 0,000 mm 1,7 UV-I 216 W/m² 15,6 °C 18,2 °C 8,0 km/h (2 Bft)
23.07.2017 10:17 18,2 °C 18,3 °C 85 % 1014,7 hPa 0,0 mm 4,2 km/h (1 Bft) W-NW 285 ° 0 min 0,000 mm 1,9 UV-I 234 W/m² 15,6 °C 18,2 °C 9,7 km/h (2 Bft)
23.07.2017 10:18 18,2 °C 18,2 °C 85 % 1014,7 hPa 0,0 mm 4,2 km/h (1 Bft) W-NW 290 ° 0 min 0,000 mm 1,9 UV-I 236 W/m² 15,6 °C 18,2 °C 6,4 km/h (2 Bft)
23.07.2017 10:19 18,3 °C 18,3 °C 85 % 1014,7 hPa 0,0 mm 3,5 km/h (1 Bft) W-NW 303 ° 0 min 0,000 mm 1,7 UV-I 213 W/m² 15,7 °C 18,3 °C 6,4 km/h (2 Bft)
23.07.2017 10:20 18,2 °C 18,3 °C 85 % 1014,7 hPa 0,0 mm 4,8 km/h (1 Bft) W 272 ° 0 min 0,000 mm 1,6 UV-I 206 W/m² 15,6 °C 18,2 °C 6,4 km/h (2 Bft)
23.07.2017 10:21 18,3 °C 18,3 °C 86 % 1014,7 hPa 0,0 mm 6,5 km/h (2 Bft) W 268 ° 0 min 0,000 mm 1,7 UV-I 211 W/m² 15,9 °C 18,3 °C 9,7 km/h (2 Bft)
23.07.2017 10:22 18,3 °C 18,3 °C 86 % 1014,7 hPa 0,0 mm 4,1 km/h (1 Bft) W 262 ° 0 min 0,000 mm 1,7 UV-I 209 W/m² 15,9 °C 18,3 °C 11,3 km/h (2 Bft)
23.07.2017 10:23 18,3 °C 18,3 °C 85 % 1014,7 hPa 0,0 mm 7,9 km/h (2 Bft) W 280 ° 0 min 0,000 mm 1,5 UV-I 195 W/m² 15,7 °C 18,3 °C 11,3 km/h (2 Bft)
23.07.2017 10:24 18,3 °C 18,3 °C 85 % 1014,8 hPa 0,0 mm 4,7 km/h (1 Bft) W-NW 282 ° 0 min 0,000 mm 1,5 UV-I 190 W/m² 15,7 °C 18,3 °C 6,4 km/h (2 Bft)
23.07.2017 10:25 18,3 °C 18,3 °C 85 % 1014,8 hPa 0,0 mm 5,2 km/h (1 Bft) W-NW 289 ° 0 min 0,000 mm 1,5 UV-I 188 W/m² 15,7 °C 18,3 °C 8,0 km/h (2 Bft)
23.07.2017 10:26 18,3 °C 18,3 °C 85 % 1014,7 hPa 0,0 mm 8,0 km/h (2 Bft) W-NW 294 ° 0 min 0,000 mm 1,7 UV-I 195 W/m² 15,7 °C 18,3 °C 12,9 km/h (3 Bft)
23.07.2017 10:27 18,3 °C 18,3 °C 84 % 1014,8 hPa 0,0 mm 7,9 km/h (2 Bft) W 260 ° 0 min 0,000 mm 1,8 UV-I 207 W/m² 15,5 °C 18,3 °C 12,9 km/h (3 Bft)
23.07.2017 10:28 18,2 °C 18,3 °C 85 % 1014,7 hPa 0,0 mm 10,9 km/h (2 Bft) W-NW 282 ° 0 min 0,000 mm 1,8 UV-I 218 W/m² 15,6 °C 18,2 °C 12,9 km/h (3 Bft)
23.07.2017 10:29 18,2 °C 18,3 °C 85 % 1014,7 hPa 0,0 mm 8,6 km/h (2 Bft) W-SW 248 ° 0 min 0,000 mm 2,0 UV-I 236 W/m² 15,6 °C 18,2 °C 12,9 km/h (3 Bft)
23.07.2017 10:30 18,2 °C 18,2 °C 86 % 1014,7 hPa 0,0 mm 8,6 km/h (2 Bft) W-NW 295 ° 0 min 0,000 mm 2,1 UV-I 255 W/m² 15,8 °C 18,2 °C 12,9 km/h (3 Bft)
23.07.2017 10:31 18,2 °C 18,2 °C 85 % 1014,7 hPa 0,0 mm 6,1 km/h (2 Bft) W-NW 300 ° 0 min 0,000 mm 2,2 UV-I 269 W/m² 15,6 °C 18,2 °C 8,0 km/h (2 Bft)
23.07.2017 10:32 18,2 °C 18,2 °C 85 % 1014,7 hPa 0,0 mm 3,7 km/h (1 Bft) W-NW 284 ° 0 min 0,000 mm 2,2 UV-I 272 W/m² 15,6 °C 18,2 °C 4,8 km/h (1 Bft)
23.07.2017 10:33 18,2 °C 18,2 °C 84 % 1014,7 hPa 0,0 mm 3,1 km/h (1 Bft) W-NW 291 ° 0 min 0,000 mm 2,0 UV-I 227 W/m² 15,4 °C 18,2 °C 4,8 km/h (1 Bft)
23.07.2017 10:34 18,2 °C 18,2 °C 85 % 1014,7 hPa 0,0 mm 3,9 km/h (1 Bft) W-NW 284 ° 0 min 0,000 mm 1,9 UV-I 223 W/m² 15,6 °C 18,2 °C 6,4 km/h (2 Bft)
23.07.2017 10:35 18,3 °C 18,3 °C 86 % 1014,7 hPa 0,0 mm 3,4 km/h (1 Bft) W-NW 286 ° 0 min 0,000 mm 2,2 UV-I 243 W/m² 15,9 °C 18,3 °C 4,8 km/h (1 Bft)
23.07.2017 10:36 18,3 °C 18,3 °C 85 % 1014,7 hPa 0,0 mm 4,5 km/h (1 Bft) NW 313 ° 0 min 0,000 mm 2,5 UV-I 272 W/m² 15,7 °C 18,3 °C 9,7 km/h (2 Bft)
23.07.2017 10:37 18,3 °C 18,3 °C 85 % 1014,7 hPa 0,0 mm 6,8 km/h (2 Bft) W 259 ° 0 min 0,000 mm 3,4 UV-I 272 W/m² 15,7 °C 18,3 °C 11,3 km/h (2 Bft)
23.07.2017 10:38 18,3 °C 18,3 °C 84 % 1014,7 hPa 0,0 mm 2,4 km/h (1 Bft) W-NW 286 ° 1 min 0,000 mm 3,3 UV-I 454 W/m² 15,5 °C 18,3 °C 4,8 km/h (1 Bft)
23.07.2017 10:39 18,4 °C 18,4 °C 85 % 1014,7 hPa 0,0 mm 4,2 km/h (1 Bft) N-NW 336 ° 1 min 0,000 mm 3,1 UV-I 352 W/m² 15,8 °C 18,4 °C 6,4 km/h (2 Bft)
23.07.2017 10:40 18,4 °C 18,4 °C 85 % 1014,8 hPa 0,0 mm 7,1 km/h (2 Bft) NW 317 ° 1 min 0,000 mm 3,0 UV-I 352 W/m² 15,8 °C 18,4 °C 11,3 km/h (2 Bft)
23.07.2017 10:41 18,5 °C 18,5 °C 85 % 1014,8 hPa 0,0 mm 4,4 km/h (1 Bft) W-NW 282 ° 1 min 0,000 mm 2,9 UV-I 330 W/m² 15,9 °C 18,5 °C 6,4 km/h (2 Bft)
23.07.2017 10:42 18,6 °C 18,6 °C 85 % 1014,8 hPa 0,0 mm 6,5 km/h (2 Bft) W-SW 255 ° 1 min 0,000 mm 2,9 UV-I 313 W/m² 16,0 °C 18,6 °C 11,3 km/h (2 Bft)
23.07.2017 10:43 18,6 °C 18,6 °C 85 % 1014,8 hPa 0,0 mm 5,6 km/h (1 Bft) W 278 ° 1 min 0,000 mm 2,8 UV-I 302 W/m² 16,0 °C 18,6 °C 9,7 km/h (2 Bft)
23.07.2017 10:44 18,6 °C 18,6 °C 83 % 1014,8 hPa 0,0 mm 5,8 km/h (2 Bft) W-NW 298 ° 1 min 0,000 mm 2,7 UV-I 290 W/m² 15,7 °C 18,6 °C 9,7 km/h (2 Bft)
23.07.2017 10:45 18,6 °C 18,6 °C 85 % 1014,8 hPa 0,0 mm 5,4 km/h (1 Bft) W 276 ° 1 min 0,000 mm 2,6 UV-I 290 W/m² 16,0 °C 18,6 °C 9,7 km/h (2 Bft)
23.07.2017 10:46 18,7 °C 18,7 °C 84 % 1014,8 hPa 0,0 mm 5,2 km/h (1 Bft) W-SW 257 ° 1 min 0,000 mm 2,6 UV-I 290 W/m² 15,9 °C 18,7 °C 11,3 km/h (2 Bft)
23.07.2017 10:47 18,7 °C 18,7 °C 85 % 1014,8 hPa 0,0 mm 7,3 km/h (2 Bft) W 265 ° 1 min 0,000 mm 2,6 UV-I 290 W/m² 16,1 °C 18,7 °C 11,3 km/h (2 Bft)
23.07.2017 10:48 18,8 °C 18,8 °C 85 % 1014,8 hPa 0,0 mm 13,1 km/h (3 Bft) NW 313 ° 1 min 0,000 mm 2,7 UV-I 294 W/m² 16,2 °C 18,8 °C 17,7 km/h (3 Bft)
23.07.2017 10:49 18,7 °C 18,8 °C 83 % 1014,8 hPa 0,0 mm 9,4 km/h (2 Bft) NW 317 ° 1 min 0,000 mm 2,7 UV-I 297 W/m² 15,8 °C 18,7 °C 14,5 km/h (3 Bft)
23.07.2017 10:50 18,7 °C 18,7 °C 82 % 1014,8 hPa 0,0 mm 12,3 km/h (3 Bft) NW 305 ° 1 min 0,000 mm 2,7 UV-I 297 W/m² 15,6 °C 18,7 °C 19,3 km/h (3 Bft)
23.07.2017 10:51 18,6 °C 18,7 °C 82 % 1014,8 hPa 0,0 mm 12,9 km/h (3 Bft) W 265 ° 0 min 0,000 mm 2,7 UV-I 288 W/m² 15,5 °C 18,6 °C 17,7 km/h (3 Bft)
23.07.2017 10:52 18,5 °C 18,6 °C 82 % 1014,8 hPa 0,0 mm 16,3 km/h (3 Bft) SW 226 ° 0 min 0,000 mm 2,4 UV-I 272 W/m² 15,4 °C 18,5 °C 20,9 km/h (4 Bft)
23.07.2017 10:53 18,5 °C 18,5 °C 83 % 1014,8 hPa 0,0 mm 13,9 km/h (3 Bft) W 271 ° 0 min 0,000 mm 2,2 UV-I 251 W/m² 15,6 °C 18,5 °C 19,3 km/h (3 Bft)
23.07.2017 10:54 18,4 °C 18,5 °C 83 % 1014,8 hPa 0,0 mm 8,8 km/h (2 Bft) W 273 ° 0 min 0,000 mm 2,0 UV-I 227 W/m² 15,5 °C 18,4 °C 12,9 km/h (3 Bft)
23.07.2017 10:55 18,4 °C 18,4 °C 83 % 1014,9 hPa 0,0 mm 5,7 km/h (1 Bft) W 275 ° 0 min 0,000 mm 1,8 UV-I 227 W/m² 15,5 °C 18,4 °C 11,3 km/h (2 Bft)
23.07.2017 10:56 18,4 °C 18,4 °C 84 % 1014,9 hPa 0,0 mm 11,3 km/h (2 Bft) W-NW 283 ° 0 min 0,000 mm 1,7 UV-I 186 W/m² 15,6 °C 18,4 °C 14,5 km/h (3 Bft)
23.07.2017 10:57 18,3 °C 18,4 °C 84 % 1014,9 hPa 0,0 mm 11,3 km/h (2 Bft) W 270 ° 0 min 0,000 mm 1,6 UV-I 183 W/m² 15,5 °C 18,3 °C 16,1 km/h (3 Bft)
23.07.2017 10:58 18,3 °C 18,3 °C 83 % 1014,9 hPa 0,0 mm 10,9 km/h (2 Bft) W 279 ° 0 min 0,000 mm 1,7 UV-I 188 W/m² 15,4 °C 18,3 °C 16,1 km/h (3 Bft)
23.07.2017 10:59 18,3 °C 18,3 °C 83 % 1014,9 hPa 0,0 mm 10,1 km/h (2 Bft) S-SW 200 ° 0 min 0,000 mm 1,8 UV-I 197 W/m² 15,4 °C 18,3 °C 16,1 km/h (3 Bft)
23.07.2017 11:00 18,2 °C 18,3 °C 83 % 1014,9 hPa 0,0 mm 11,7 km/h (2 Bft) W-NW 285 ° 0 min 0,000 mm 1,8 UV-I 202 W/m² 15,3 °C 18,2 °C 17,7 km/h (3 Bft)
23.07.2017 11:01 18,2 °C 18,2 °C 84 % 1014,8 hPa 0,0 mm 12,7 km/h (3 Bft) W-NW 295 ° 0 min 0,152 mm 1,8 UV-I 200 W/m² 15,4 °C 18,2 °C 17,7 km/h (3 Bft)
23.07.2017 11:02 18,2 °C 18,2 °C 83 % 1014,9 hPa 0,0 mm 6,7 km/h (2 Bft) N-NW 332 ° 0 min 0,000 mm 1,8 UV-I 195 W/m² 15,3 °C 18,2 °C 12,9 km/h (3 Bft)
23.07.2017 11:03 18,2 °C 18,2 °C 83 % 1015,0 hPa 0,0 mm 3,4 km/h (1 Bft) NW 325 ° 0 min 0,000 mm 1,7 UV-I 188 W/m² 15,3 °C 18,2 °C 8,0 km/h (2 Bft)
23.07.2017 11:04 18,2 °C 18,2 °C 84 % 1014,9 hPa 0,0 mm 4,7 km/h (1 Bft) W 265 ° 0 min 0,000 mm 1,7 UV-I 186 W/m² 15,4 °C 18,2 °C 12,9 km/h (3 Bft)
23.07.2017 11:05 18,2 °C 18,2 °C 84 % 1014,9 hPa 0,0 mm 6,0 km/h (2 Bft) W 266 ° 0 min 0,000 mm 1,6 UV-I 186 W/m² 15,4 °C 18,2 °C 11,3 km/h (2 Bft)
23.07.2017 11:06 18,2 °C 18,2 °C 84 % 1014,9 hPa 0,0 mm 4,3 km/h (1 Bft) W-NW 294 ° 0 min 0,000 mm 1,6 UV-I 186 W/m² 15,4 °C 18,2 °C 8,0 km/h (2 Bft)
23.07.2017 11:07 18,2 °C 18,2 °C 84 % 1014,9 hPa 0,0 mm 9,8 km/h (2 Bft) NW 311 ° 0 min 0,000 mm 1,6 UV-I 186 W/m² 15,4 °C 18,2 °C 17,7 km/h (3 Bft)
23.07.2017 11:08 18,2 °C 18,2 °C 84 % 1014,9 hPa 0,0 mm 7,8 km/h (2 Bft) W-NW 291 ° 0 min 0,000 mm 1,6 UV-I 185 W/m² 15,4 °C 18,2 °C 14,5 km/h (3 Bft)
23.07.2017 11:09 18,2 °C 18,2 °C 85 % 1014,9 hPa 0,0 mm 11,5 km/h (2 Bft) W-SW 257 ° 0 min 0,000 mm 1,6 UV-I 192 W/m² 15,6 °C 18,2 °C 14,5 km/h (3 Bft)
23.07.2017 11:10 18,1 °C 18,2 °C 83 % 1015,0 hPa 0,0 mm 7,7 km/h (2 Bft) W-SW 252 ° 0 min 0,000 mm 1,7 UV-I 199 W/m² 15,2 °C 18,1 °C 12,9 km/h (3 Bft)
23.07.2017 11:11 18,1 °C 18,2 °C 84 % 1014,9 hPa 0,0 mm 11,2 km/h (2 Bft) W-NW 302 ° 0 min 0,000 mm 1,8 UV-I 207 W/m² 15,4 °C 18,1 °C 14,5 km/h (3 Bft)
23.07.2017 11:12 18,1 °C 18,1 °C 85 % 1015,0 hPa 0,0 mm 7,4 km/h (2 Bft) W 265 ° 0 min 0,000 mm 1,8 UV-I 209 W/m² 15,5 °C 18,1 °C 11,3 km/h (2 Bft)
23.07.2017 11:13 18,1 °C 18,1 °C 85 % 1014,9 hPa 0,0 mm 7,5 km/h (2 Bft) W-NW 288 ° 0 min 0,000 mm 1,8 UV-I 204 W/m² 15,5 °C 18,1 °C 12,9 km/h (3 Bft)
23.07.2017 11:14 18,1 °C 18,1 °C 84 % 1015,0 hPa 0,0 mm 9,5 km/h (2 Bft) W 275 ° 0 min 0,000 mm 1,8 UV-I 199 W/m² 15,4 °C 18,1 °C 12,9 km/h (3 Bft)
23.07.2017 11:15 18,1 °C 18,1 °C 84 % 1015,0 hPa 0,0 mm 8,6 km/h (2 Bft) W-NW 286 ° 0 min 0,000 mm 1,5 UV-I 167 W/m² 15,4 °C 18,1 °C 12,9 km/h (3 Bft)
23.07.2017 11:16 18,1 °C 18,1 °C 84 % 1015,0 hPa 0,0 mm 8,8 km/h (2 Bft) W 275 ° 0 min 0,000 mm 1,3 UV-I 146 W/m² 15,4 °C 18,1 °C 16,1 km/h (3 Bft)
23.07.2017 11:17 18,1 °C 18,1 °C 85 % 1015,0 hPa 0,0 mm 11,5 km/h (2 Bft) W-NW 302 ° 0 min 0,000 mm 1,2 UV-I 135 W/m² 15,5 °C 18,1 °C 16,1 km/h (3 Bft)
23.07.2017 11:18 18,1 °C 18,1 °C 85 % 1015,0 hPa 0,0 mm 9,8 km/h (2 Bft) NW 317 ° 0 min 0,000 mm 1,3 UV-I 141 W/m² 15,5 °C 18,1 °C 14,5 km/h (3 Bft)
23.07.2017 11:19 17,9 °C 18,1 °C 85 % 1015,0 hPa 0,0 mm 8,3 km/h (2 Bft) N-NW 328 ° 0 min 0,000 mm 1,4 UV-I 156 W/m² 15,3 °C 17,9 °C 16,1 km/h (3 Bft)
23.07.2017 11:20 17,9 °C 18,0 °C 85 % 1015,1 hPa 0,0 mm 7,4 km/h (2 Bft) W 259 ° 0 min 0,000 mm 1,5 UV-I 190 W/m² 15,3 °C 17,9 °C 12,9 km/h (3 Bft)
23.07.2017 11:21 17,9 °C 17,9 °C 85 % 1015,1 hPa 0,0 mm 15,7 km/h (3 Bft) W-SW 250 ° 0 min 0,000 mm 1,9 UV-I 221 W/m² 15,3 °C 17,9 °C 22,5 km/h (4 Bft)
23.07.2017 11:22 17,8 °C 17,9 °C 84 % 1015,1 hPa 0,0 mm 12,0 km/h (2 Bft) W 281 ° 0 min 0,000 mm 2,2 UV-I 257 W/m² 15,1 °C 17,8 °C 16,1 km/h (3 Bft)
23.07.2017 11:23 17,7 °C 17,8 °C 84 % 1015,1 hPa 0,0 mm 11,5 km/h (2 Bft) NW 304 ° 1 min 0,000 mm 2,5 UV-I 292 W/m² 15,0 °C 17,7 °C 19,3 km/h (3 Bft)
23.07.2017 11:24 17,7 °C 17,7 °C 85 % 1015,1 hPa 0,0 mm 12,2 km/h (2 Bft) W 277 ° 1 min 0,000 mm 2,7 UV-I 325 W/m² 15,1 °C 17,7 °C 16,1 km/h (3 Bft)
23.07.2017 11:25 17,6 °C 17,7 °C 85 % 1015,1 hPa 0,0 mm 9,9 km/h (2 Bft) W-NW 293 ° 1 min 0,000 mm 2,9 UV-I 348 W/m² 15,0 °C 17,6 °C 14,5 km/h (3 Bft)
23.07.2017 11:26 17,6 °C 17,6 °C 85 % 1015,0 hPa 0,0 mm 5,3 km/h (1 Bft) W 265 ° 1 min 0,000 mm 2,9 UV-I 346 W/m² 15,0 °C 17,6 °C 8,0 km/h (2 Bft)
23.07.2017 11:27 17,6 °C 17,6 °C 85 % 1015,0 hPa 0,0 mm 4,8 km/h (1 Bft) W-NW 297 ° 1 min 0,000 mm 2,9 UV-I 341 W/m² 15,0 °C 17,6 °C 9,7 km/h (2 Bft)
23.07.2017 11:28 17,6 °C 17,6 °C 86 % 1015,0 hPa 0,0 mm 6,2 km/h (2 Bft) W-NW 298 ° 1 min 0,000 mm 2,9 UV-I 338 W/m² 15,2 °C 17,6 °C 9,7 km/h (2 Bft)
23.07.2017 11:29 17,7 °C 17,7 °C 84 % 1015,0 hPa 0,0 mm 9,7 km/h (2 Bft) W-SW 256 ° 1 min 0,000 mm 3,0 UV-I 343 W/m² 15,0 °C 17,7 °C 12,9 km/h (3 Bft)
23.07.2017 11:30 17,6 °C 17,7 °C 83 % 1015,0 hPa 0,0 mm 13,2 km/h (3 Bft) W 281 ° 1 min 0,000 mm 3,0 UV-I 357 W/m² 14,7 °C 17,6 °C 17,7 km/h (3 Bft)
23.07.2017 11:31 17,7 °C 17,7 °C 83 % 1015,1 hPa 0,0 mm 11,1 km/h (2 Bft) W-NW 286 ° 1 min 0,000 mm 3,1 UV-I 364 W/m² 14,8 °C 17,7 °C 14,5 km/h (3 Bft)
23.07.2017 11:32 17,6 °C 17,7 °C 82 % 1015,1 hPa 0,0 mm 5,9 km/h (2 Bft) NW 326 ° 1 min 0,000 mm 3,1 UV-I 378 W/m² 14,5 °C 17,6 °C 9,7 km/h (2 Bft)
23.07.2017 11:33 17,7 °C 17,7 °C 83 % 1015,0 hPa 0,0 mm 8,7 km/h (2 Bft) N-NW 348 ° 1 min 0,000 mm 3,6 UV-I 471 W/m² 14,8 °C 17,7 °C 17,7 km/h (3 Bft)
23.07.2017 11:34 17,7 °C 17,7 °C 82 % 1015,0 hPa 0,0 mm 8,3 km/h (2 Bft) W-NW 294 ° 1 min 0,000 mm 3,3 UV-I 408 W/m² 14,6 °C 17,7 °C 17,7 km/h (3 Bft)
23.07.2017 11:35 17,8 °C 17,8 °C 84 % 1015,1 hPa 0,0 mm 8,0 km/h (2 Bft) NW 310 ° 1 min 0,000 mm 3,3 UV-I 415 W/m² 15,1 °C 17,8 °C 16,1 km/h (3 Bft)
23.07.2017 11:36 17,8 °C 17,8 °C 84 % 1015,1 hPa 0,0 mm 10,1 km/h (2 Bft) NW 319 ° 1 min 0,000 mm 3,1 UV-I 378 W/m² 15,1 °C 17,8 °C 19,3 km/h (3 Bft)
23.07.2017 11:37 17,9 °C 17,9 °C 82 % 1015,0 hPa 0,0 mm 5,6 km/h (1 Bft) W 271 ° 1 min 0,000 mm 2,8 UV-I 339 W/m² 14,8 °C 17,9 °C 12,9 km/h (3 Bft)
23.07.2017 11:38 17,9 °C 17,9 °C 83 % 1015,1 hPa 0,0 mm 7,0 km/h (2 Bft) NW 306 ° 0 min 0,000 mm 2,5 UV-I 255 W/m² 15,0 °C 17,9 °C 11,3 km/h (2 Bft)
23.07.2017 11:39 17,9 °C 17,9 °C 82 % 1015,1 hPa 0,0 mm 9,0 km/h (2 Bft) NW 304 ° 0 min 0,000 mm 2,0 UV-I 230 W/m² 14,8 °C 17,9 °C 12,9 km/h (3 Bft)
23.07.2017 11:40 17,8 °C 17,9 °C 81 % 1015,1 hPa 0,0 mm 9,3 km/h (2 Bft) W-NW 293 ° 0 min 0,000 mm 1,9 UV-I 211 W/m² 14,5 °C 17,8 °C 12,9 km/h (3 Bft)
23.07.2017 11:41 17,8 °C 17,8 °C 80 % 1015,1 hPa 0,0 mm 10,4 km/h (2 Bft) W-NW 288 ° 0 min 0,000 mm 1,8 UV-I 202 W/m² 14,3 °C 17,8 °C 16,1 km/h (3 Bft)
23.07.2017 11:42 17,7 °C 17,8 °C 80 % 1015,0 hPa 0,0 mm 11,9 km/h (2 Bft) W-NW 291 ° 0 min 0,000 mm 1,8 UV-I 200 W/m² 14,2 °C 17,7 °C 17,7 km/h (3 Bft)
23.07.2017 11:43 17,6 °C 17,7 °C 80 % 1015,0 hPa 0,0 mm 6,1 km/h (2 Bft) W 281 ° 0 min 0,000 mm 1,9 UV-I 206 W/m² 14,1 °C 17,6 °C 11,3 km/h (2 Bft)
23.07.2017 11:44 17,6 °C 17,6 °C 81 % 1015,0 hPa 0,0 mm 5,3 km/h (1 Bft) W 267 ° 0 min 0,000 mm 1,9 UV-I 221 W/m² 14,3 °C 17,6 °C 6,4 km/h (2 Bft)
23.07.2017 11:45 17,6 °C 17,6 °C 81 % 1015,0 hPa 0,0 mm 3,6 km/h (1 Bft) W-NW 292 ° 0 min 0,000 mm 2,1 UV-I 234 W/m² 14,3 °C 17,6 °C 4,8 km/h (1 Bft)
23.07.2017 11:46 17,5 °C 17,6 °C 82 % 1015,0 hPa 0,0 mm 2,4 km/h (1 Bft) NW 315 ° 0 min 0,000 mm 2,2 UV-I 250 W/m² 14,4 °C 17,5 °C 3,2 km/h (1 Bft)
23.07.2017 11:47 17,6 °C 17,6 °C 83 % 1015,0 hPa 0,0 mm 3,9 km/h (1 Bft) W-SW 246 ° 0 min 0,000 mm 2,3 UV-I 265 W/m² 14,7 °C 17,6 °C 6,4 km/h (2 Bft)
23.07.2017 11:48 17,6 °C 17,6 °C 81 % 1014,9 hPa 0,0 mm 8,6 km/h (2 Bft) W-NW 294 ° 0 min 0,000 mm 2,4 UV-I 279 W/m² 14,3 °C 17,6 °C 14,5 km/h (3 Bft)
23.07.2017 11:49 17,4 °C 17,6 °C 81 % 1014,9 hPa 0,0 mm 4,9 km/h (1 Bft) W 269 ° 1 min 0,000 mm 2,5 UV-I 308 W/m² 14,1 °C 17,4 °C 11,3 km/h (2 Bft)
23.07.2017 11:50 17,5 °C 17,5 °C 83 % 1014,9 hPa 0,0 mm 6,8 km/h (2 Bft) W-NW 288 ° 1 min 0,000 mm 2,6 UV-I 311 W/m² 14,6 °C 17,5 °C 11,3 km/h (2 Bft)
23.07.2017 11:51 17,5 °C 17,5 °C 83 % 1014,9 hPa 0,0 mm 5,9 km/h (2 Bft) NW 311 ° 1 min 0,000 mm 2,7 UV-I 308 W/m² 14,6 °C 17,5 °C 9,7 km/h (2 Bft)
23.07.2017 11:52 17,5 °C 17,5 °C 82 % 1014,9 hPa 0,0 mm 8,3 km/h (2 Bft) W-NW 296 ° 1 min 0,000 mm 2,7 UV-I 309 W/m² 14,4 °C 17,5 °C 12,9 km/h (3 Bft)
23.07.2017 11:53 17,6 °C 17,6 °C 82 % 1014,9 hPa 0,0 mm 9,1 km/h (2 Bft) W 278 ° 1 min 0,000 mm 2,8 UV-I 322 W/m² 14,5 °C 17,6 °C 14,5 km/h (3 Bft)
23.07.2017 11:54 17,6 °C 17,6 °C 83 % 1015,0 hPa 0,0 mm 5,0 km/h (1 Bft) W-SW 251 ° 1 min 0,000 mm 3,0 UV-I 343 W/m² 14,7 °C 17,6 °C 11,3 km/h (2 Bft)
23.07.2017 11:55 17,6 °C 17,6 °C 81 % 1015,0 hPa 0,0 mm 7,4 km/h (2 Bft) W 275 ° 1 min 0,000 mm 3,2 UV-I 371 W/m² 14,3 °C 17,6 °C 12,9 km/h (3 Bft)
23.07.2017 11:56 17,6 °C 17,6 °C 81 % 1014,9 hPa 0,0 mm 7,3 km/h (2 Bft) W-NW 283 ° 1 min 0,000 mm 3,5 UV-I 452 W/m² 14,3 °C 17,6 °C 11,3 km/h (2 Bft)
23.07.2017 11:57 17,6 °C 17,6 °C 81 % 1014,9 hPa 0,0 mm 7,5 km/h (2 Bft) W-NW 291 ° 1 min 0,000 mm 4,0 UV-I 471 W/m² 14,3 °C 17,6 °C 14,5 km/h (3 Bft)
23.07.2017 11:58 17,6 °C 17,6 °C 83 % 1014,9 hPa 0,0 mm 8,5 km/h (2 Bft) W-NW 295 ° 1 min 0,000 mm 4,0 UV-I 459 W/m² 14,7 °C 17,6 °C 12,9 km/h (3 Bft)
23.07.2017 11:59 17,7 °C 17,7 °C 83 % 1014,9 hPa 0,0 mm 9,7 km/h (2 Bft) NW 309 ° 1 min 0,000 mm 3,8 UV-I 427 W/m² 14,8 °C 17,7 °C 16,1 km/h (3 Bft)
23.07.2017 12:00 17,8 °C 17,8 °C 83 % 1014,9 hPa 0,0 mm 8,6 km/h (2 Bft) W-NW 302 ° 1 min 0,000 mm 3,7 UV-I 415 W/m² 14,9 °C 17,8 °C 11,3 km/h (2 Bft)
23.07.2017 12:01 17,8 °C 17,8 °C 82 % 1014,9 hPa 0,0 mm 5,8 km/h (2 Bft) N-NW 329 ° 1 min 0,178 mm 3,7 UV-I 397 W/m² 14,7 °C 17,8 °C 11,3 km/h (2 Bft)
23.07.2017 12:02 17,8 °C 17,8 °C 85 % 1015,0 hPa 0,0 mm 8,6 km/h (2 Bft) N-NW 336 ° 1 min 0,000 mm 3,6 UV-I 396 W/m² 15,2 °C 17,8 °C 12,9 km/h (3 Bft)
23.07.2017 12:03 17,9 °C 17,9 °C 82 % 1015,0 hPa 0,0 mm 8,9 km/h (2 Bft) W-NW 301 ° 1 min 0,000 mm 3,5 UV-I 390 W/m² 14,8 °C 17,9 °C 12,9 km/h (3 Bft)
23.07.2017 12:04 17,9 °C 17,9 °C 83 % 1015,0 hPa 0,0 mm 6,0 km/h (2 Bft) W 279 ° 1 min 0,000 mm 3,5 UV-I 385 W/m² 15,0 °C 17,9 °C 12,9 km/h (3 Bft)
23.07.2017 12:05 17,9 °C 17,9 °C 82 % 1015,0 hPa 0,0 mm 2,6 km/h (1 Bft) W 280 ° 1 min 0,000 mm 3,7 UV-I 399 W/m² 14,8 °C 17,9 °C 3,2 km/h (1 Bft)
23.07.2017 12:06 17,8 °C 17,9 °C 81 % 1015,0 hPa 0,0 mm 2,7 km/h (1 Bft) W 281 ° 1 min 0,000 mm 3,7 UV-I 401 W/m² 14,5 °C 17,8 °C 4,8 km/h (1 Bft)
23.07.2017 12:07 17,8 °C 17,8 °C 82 % 1015,0 hPa 0,0 mm 3,5 km/h (1 Bft) NW 322 ° 1 min 0,000 mm 3,6 UV-I 362 W/m² 14,7 °C 17,8 °C 8,0 km/h (2 Bft)
23.07.2017 12:08 17,8 °C 17,8 °C 82 % 1015,0 hPa 0,0 mm 5,9 km/h (2 Bft) N-NW 335 ° 1 min 0,000 mm 3,0 UV-I 329 W/m² 14,7 °C 17,8 °C 8,0 km/h (2 Bft)
23.07.2017 12:09 17,8 °C 17,8 °C 83 % 1015,0 hPa 0,0 mm 6,3 km/h (2 Bft) SW 235 ° 1 min 0,000 mm 2,9 UV-I 316 W/m² 14,9 °C 17,8 °C 9,7 km/h (2 Bft)
23.07.2017 12:10 17,8 °C 17,8 °C 83 % 1015,0 hPa 0,0 mm 7,9 km/h (2 Bft) W 265 ° 1 min 0,000 mm 3,0 UV-I 316 W/m² 14,9 °C 17,8 °C 12,9 km/h (3 Bft)
23.07.2017 12:11 17,8 °C 17,8 °C 84 % 1015,0 hPa 0,0 mm 3,2 km/h (1 Bft) NW 311 ° 1 min 0,000 mm 3,0 UV-I 329 W/m² 15,1 °C 17,8 °C 4,8 km/h (1 Bft)
23.07.2017 12:12 17,8 °C 17,8 °C 83 % 1015,0 hPa 0,0 mm 6,2 km/h (2 Bft) W 273 ° 1 min 0,000 mm 3,1 UV-I 339 W/m² 14,9 °C 17,8 °C 11,3 km/h (2 Bft)
23.07.2017 12:13 17,8 °C 17,8 °C 83 % 1015,0 hPa 0,0 mm 8,3 km/h (2 Bft) W-NW 297 ° 1 min 0,000 mm 2,9 UV-I 322 W/m² 14,9 °C 17,8 °C 12,9 km/h (3 Bft)
23.07.2017 12:14 17,8 °C 17,8 °C 84 % 1015,0 hPa 0,0 mm 11,0 km/h (2 Bft) W-NW 294 ° 1 min 0,000 mm 2,9 UV-I 320 W/m² 15,1 °C 17,8 °C 16,1 km/h (3 Bft)
23.07.2017 12:15 17,8 °C 17,8 °C 82 % 1015,1 hPa 0,0 mm 5,8 km/h (2 Bft) W 279 ° 1 min 0,000 mm 2,8 UV-I 304 W/m² 14,7 °C 17,8 °C 8,0 km/h (2 Bft)
23.07.2017 12:16 17,7 °C 17,8 °C 84 % 1015,1 hPa 0,0 mm 8,2 km/h (2 Bft) W-NW 290 ° 1 min 0,000 mm 2,6 UV-I 292 W/m² 15,0 °C 17,7 °C 11,3 km/h (2 Bft)
23.07.2017 12:17 17,8 °C 17,8 °C 84 % 1015,1 hPa 0,0 mm 8,9 km/h (2 Bft) W-NW 300 ° 0 min 0,000 mm 2,5 UV-I 272 W/m² 15,1 °C 17,8 °C 16,1 km/h (3 Bft)
23.07.2017 12:18 17,7 °C 17,8 °C 83 % 1015,2 hPa 0,0 mm 7,0 km/h (2 Bft) W-NW 301 ° 0 min 0,000 mm 2,4 UV-I 262 W/m² 14,8 °C 17,7 °C 11,3 km/h (2 Bft)
23.07.2017 12:19 17,7 °C 17,8 °C 84 % 1015,2 hPa 0,0 mm 10,6 km/h (2 Bft) W-NW 287 ° 0 min 0,000 mm 2,4 UV-I 262 W/m² 15,0 °C 17,7 °C 16,1 km/h (3 Bft)
23.07.2017 12:20 17,7 °C 17,7 °C 84 % 1015,2 hPa 0,0 mm 5,0 km/h (1 Bft) NW 308 ° 0 min 0,000 mm 2,3 UV-I 255 W/m² 15,0 °C 17,7 °C 6,4 km/h (2 Bft)
23.07.2017 12:21 17,7 °C 17,7 °C 84 % 1015,2 hPa 0,0 mm 5,5 km/h (1 Bft) W 265 ° 0 min 0,000 mm 2,1 UV-I 236 W/m² 15,0 °C 17,7 °C 9,7 km/h (2 Bft)
23.07.2017 12:22 17,7 °C 17,7 °C 85 % 1015,2 hPa 0,0 mm 9,3 km/h (2 Bft) W-SW 257 ° 0 min 0,000 mm 2,0 UV-I 221 W/m² 15,1 °C 17,7 °C 11,3 km/h (2 Bft)
23.07.2017 12:23 17,7 °C 17,7 °C 85 % 1015,2 hPa 0,0 mm 6,7 km/h (2 Bft) W 279 ° 0 min 0,000 mm 1,9 UV-I 213 W/m² 15,1 °C 17,7 °C 8,0 km/h (2 Bft)
23.07.2017 12:24 17,6 °C 17,7 °C 83 % 1015,2 hPa 0,0 mm 6,4 km/h (2 Bft) W 259 ° 0 min 0,000 mm 1,9 UV-I 207 W/m² 14,7 °C 17,6 °C 12,9 km/h (3 Bft)
23.07.2017 12:25 17,6 °C 17,6 °C 83 % 1015,2 hPa 0,0 mm 8,6 km/h (2 Bft) W 281 ° 0 min 0,000 mm 1,8 UV-I 199 W/m² 14,7 °C 17,6 °C 11,3 km/h (2 Bft)
23.07.2017 12:26 17,5 °C 17,6 °C 84 % 1015,2 hPa 0,0 mm 5,4 km/h (1 Bft) W 273 ° 0 min 0,000 mm 1,8 UV-I 190 W/m² 14,8 °C 17,5 °C 9,7 km/h (2 Bft)
23.07.2017 12:27 17,5 °C 17,5 °C 84 % 1015,2 hPa 0,0 mm 9,5 km/h (2 Bft) W 270 ° 0 min 0,000 mm 2,0 UV-I 204 W/m² 14,8 °C 17,5 °C 12,9 km/h (3 Bft)
23.07.2017 12:28 17,4 °C 17,5 °C 83 % 1015,1 hPa 0,0 mm 5,0 km/h (1 Bft) W 259 ° 0 min 0,000 mm 2,2 UV-I 221 W/m² 14,5 °C 17,4 °C 6,4 km/h (2 Bft)
23.07.2017 12:29 17,4 °C 17,4 °C 86 % 1015,2 hPa 0,0 mm 7,7 km/h (2 Bft) W 265 ° 0 min 0,000 mm 2,2 UV-I 227 W/m² 15,0 °C 17,4 °C 14,5 km/h (3 Bft)
23.07.2017 12:30 17,5 °C 17,5 °C 84 % 1015,2 hPa 0,0 mm 8,2 km/h (2 Bft) SW 232 ° 0 min 0,000 mm 2,2 UV-I 234 W/m² 14,8 °C 17,5 °C 12,9 km/h (3 Bft)
23.07.2017 12:31 17,5 °C 17,5 °C 84 % 1015,2 hPa 0,0 mm 9,3 km/h (2 Bft) W 263 ° 0 min 0,000 mm 2,2 UV-I 248 W/m² 14,8 °C 17,5 °C 14,5 km/h (3 Bft)
23.07.2017 12:32 17,5 °C 17,5 °C 84 % 1015,2 hPa 0,0 mm 7,7 km/h (2 Bft) NW 305 ° 0 min 0,000 mm 2,2 UV-I 243 W/m² 14,8 °C 17,5 °C 12,9 km/h (3 Bft)
23.07.2017 12:33 17,5 °C 17,5 °C 84 % 1015,2 hPa 0,0 mm 3,6 km/h (1 Bft) W-NW 300 ° 0 min 0,000 mm 2,1 UV-I 230 W/m² 14,8 °C 17,5 °C 4,8 km/h (1 Bft)
23.07.2017 12:34 17,6 °C 17,6 °C 85 % 1015,2 hPa 0,0 mm 5,9 km/h (2 Bft) W 275 ° 0 min 0,000 mm 2,0 UV-I 216 W/m² 15,0 °C 17,6 °C 11,3 km/h (2 Bft)
23.07.2017 12:35 17,6 °C 17,6 °C 85 % 1015,2 hPa 0,0 mm 5,6 km/h (1 Bft) W-SW 247 ° 0 min 0,000 mm 1,9 UV-I 204 W/m² 15,0 °C 17,6 °C 8,0 km/h (2 Bft)
23.07.2017 12:36 17,6 °C 17,6 °C 84 % 1015,3 hPa 0,0 mm 4,8 km/h (1 Bft) W 278 ° 0 min 0,000 mm 1,8 UV-I 190 W/m² 14,9 °C 17,6 °C 9,7 km/h (2 Bft)
23.07.2017 12:37 17,6 °C 17,6 °C 85 % 1015,3 hPa 0,0 mm 6,9 km/h (2 Bft) W 275 ° 0 min 0,000 mm 1,8 UV-I 183 W/m² 15,0 °C 17,6 °C 9,7 km/h (2 Bft)
23.07.2017 12:38 17,6 °C 17,6 °C 85 % 1015,2 hPa 0,0 mm 9,1 km/h (2 Bft) W 275 ° 0 min 0,000 mm 1,6 UV-I 172 W/m² 15,0 °C 17,6 °C 11,3 km/h (2 Bft)
23.07.2017 12:39 17,6 °C 17,6 °C 85 % 1015,2 hPa 0,0 mm 6,3 km/h (2 Bft) W-SW 252 ° 0 min 0,000 mm 1,4 UV-I 156 W/m² 15,0 °C 17,6 °C 12,9 km/h (3 Bft)
23.07.2017 12:40 17,6 °C 17,6 °C 84 % 1015,3 hPa 0,0 mm 11,4 km/h (2 Bft) W 267 ° 0 min 0,000 mm 1,3 UV-I 146 W/m² 14,9 °C 17,6 °C 16,1 km/h (3 Bft)
23.07.2017 12:41 17,5 °C 17,6 °C 83 % 1015,3 hPa 0,0 mm 5,1 km/h (1 Bft) W-NW 302 ° 0 min 0,000 mm 1,3 UV-I 142 W/m² 14,6 °C 17,5 °C 11,3 km/h (2 Bft)
23.07.2017 12:42 17,5 °C 17,5 °C 85 % 1015,2 hPa 0,0 mm 3,2 km/h (1 Bft) W-SW 238 ° 0 min 0,000 mm 1,3 UV-I 146 W/m² 14,9 °C 17,5 °C 4,8 km/h (1 Bft)
23.07.2017 12:43 17,4 °C 17,5 °C 85 % 1015,3 hPa 0,0 mm 6,7 km/h (2 Bft) W-SW 254 ° 0 min 0,000 mm 1,3 UV-I 146 W/m² 14,8 °C 17,4 °C 11,3 km/h (2 Bft)
23.07.2017 12:44 17,4 °C 17,5 °C 85 % 1015,3 hPa 0,0 mm 5,4 km/h (1 Bft) W-SW 239 ° 0 min 0,000 mm 1,3 UV-I 142 W/m² 14,8 °C 17,4 °C 12,9 km/h (3 Bft)
23.07.2017 12:45 17,4 °C 17,4 °C 85 % 1015,3 hPa 0,0 mm 5,8 km/h (2 Bft) W-SW 257 ° 0 min 0,000 mm 1,3 UV-I 137 W/m² 14,8 °C 17,4 °C 12,9 km/h (3 Bft)
23.07.2017 12:46 17,4 °C 17,4 °C 85 % 1015,3 hPa 0,0 mm 7,2 km/h (2 Bft) W-SW 257 ° 0 min 0,000 mm 1,2 UV-I 132 W/m² 14,8 °C 17,4 °C 11,3 km/h (2 Bft)
23.07.2017 12:47 17,4 °C 17,4 °C 86 % 1015,3 hPa 0,0 mm 4,0 km/h (1 Bft) W-SW 250 ° 0 min 0,000 mm 1,2 UV-I 127 W/m² 15,0 °C 17,4 °C 6,4 km/h (2 Bft)
23.07.2017 12:48 17,4 °C 17,4 °C 86 % 1015,3 hPa 0,0 mm 6,2 km/h (2 Bft) W-NW 300 ° 0 min 0,000 mm 1,2 UV-I 128 W/m² 15,0 °C 17,4 °C 11,3 km/h (2 Bft)
23.07.2017 12:49 17,4 °C 17,4 °C 85 % 1015,3 hPa 0,0 mm 5,6 km/h (1 Bft) W-NW 285 ° 0 min 0,000 mm 1,3 UV-I 135 W/m² 14,8 °C 17,4 °C 9,7 km/h (2 Bft)
23.07.2017 12:50 17,4 °C 17,4 °C 84 % 1015,2 hPa 0,0 mm 6,6 km/h (2 Bft) W 273 ° 0 min 0,000 mm 1,3 UV-I 139 W/m² 14,7 °C 17,4 °C 9,7 km/h (2 Bft)
23.07.2017 12:51 17,4 °C 17,4 °C 84 % 1015,3 hPa 0,0 mm 2,7 km/h (1 Bft) W 274 ° 0 min 0,000 mm 1,3 UV-I 142 W/m² 14,7 °C 17,4 °C 4,8 km/h (1 Bft)
23.07.2017 12:52 17,4 °C 17,4 °C 85 % 1015,3 hPa 0,0 mm 4,0 km/h (1 Bft) W-NW 282 ° 0 min 0,000 mm 1,4 UV-I 148 W/m² 14,8 °C 17,4 °C 6,4 km/h (2 Bft)
23.07.2017 12:53 17,4 °C 17,4 °C 85 % 1015,2 hPa 0,0 mm 4,3 km/h (1 Bft) W 266 ° 0 min 0,000 mm 1,5 UV-I 155 W/m² 14,8 °C 17,4 °C 6,4 km/h (2 Bft)
23.07.2017 12:54 17,4 °C 17,4 °C 85 % 1015,2 hPa 0,0 mm 7,1 km/h (2 Bft) W 267 ° 0 min 0,000 mm 1,5 UV-I 158 W/m² 14,8 °C 17,4 °C 9,7 km/h (2 Bft)
23.07.2017 12:55 17,4 °C 17,4 °C 85 % 1015,2 hPa 0,0 mm 3,2 km/h (1 Bft) W 274 ° 0 min 0,000 mm 1,4 UV-I 151 W/m² 14,8 °C 17,4 °C 4,8 km/h (1 Bft)
23.07.2017 12:56 17,4 °C 17,4 °C 85 % 1015,1 hPa 0,0 mm 4,8 km/h (1 Bft) W 260 ° 0 min 0,000 mm 1,3 UV-I 141 W/m² 14,8 °C 17,4 °C 6,4 km/h (2 Bft)
23.07.2017 12:57 17,4 °C 17,4 °C 86 % 1015,2 hPa 0,0 mm 6,8 km/h (2 Bft) W-SW 255 ° 0 min 0,000 mm 1,2 UV-I 134 W/m² 15,0 °C 17,4 °C 11,3 km/h (2 Bft)
23.07.2017 12:58 17,4 °C 17,4 °C 85 % 1015,2 hPa 0,0 mm 9,0 km/h (2 Bft) W 278 ° 0 min 0,000 mm 1,2 UV-I 132 W/m² 14,8 °C 17,4 °C 11,3 km/h (2 Bft)
23.07.2017 12:59 17,4 °C 17,4 °C 85 % 1015,2 hPa 0,0 mm 7,2 km/h (2 Bft) W 269 ° 0 min 0,000 mm 1,3 UV-I 135 W/m² 14,8 °C 17,4 °C 9,7 km/h (2 Bft)
23.07.2017 13:00 17,4 °C 17,4 °C 85 % 1015,2 hPa 0,0 mm 5,3 km/h (1 Bft) NW 306 ° 0 min 0,127 mm 1,3 UV-I 141 W/m² 14,8 °C 17,4 °C 6,4 km/h (2 Bft)
23.07.2017 13:01 17,4 °C 17,5 °C 86 % 1015,2 hPa 0,0 mm 3,2 km/h (1 Bft) W 269 ° 0 min 0,000 mm 1,3 UV-I 137 W/m² 15,0 °C 17,4 °C 4,8 km/h (1 Bft)
23.07.2017 13:02 17,4 °C 17,4 °C 86 % 1015,2 hPa 0,0 mm 4,9 km/h (1 Bft) W-SW 257 ° 0 min 0,000 mm 1,2 UV-I 130 W/m² 15,0 °C 17,4 °C 9,7 km/h (2 Bft)
23.07.2017 13:03 17,4 °C 17,4 °C 84 % 1015,2 hPa 0,0 mm 4,2 km/h (1 Bft) W 280 ° 0 min 0,000 mm 1,1 UV-I 118 W/m² 14,7 °C 17,4 °C 6,4 km/h (2 Bft)
23.07.2017 13:04 17,4 °C 17,4 °C 85 % 1015,2 hPa 0,0 mm 7,0 km/h (2 Bft) W-NW 294 ° 0 min 0,000 mm 1,0 UV-I 105 W/m² 14,8 °C 17,4 °C 11,3 km/h (2 Bft)
23.07.2017 13:05 17,4 °C 17,4 °C 85 % 1015,3 hPa 0,0 mm 5,2 km/h (1 Bft) W-NW 283 ° 0 min 0,000 mm 0,9 UV-I 97 W/m² 14,8 °C 17,4 °C 8,0 km/h (2 Bft)
23.07.2017 13:06 17,4 °C 17,4 °C 85 % 1015,3 hPa 0,0 mm 7,0 km/h (2 Bft) W-SW 254 ° 0 min 0,000 mm 0,9 UV-I 90 W/m² 14,8 °C 17,4 °C 11,3 km/h (2 Bft)
23.07.2017 13:07 17,3 °C 17,4 °C 84 % 1015,2 hPa 0,0 mm 8,3 km/h (2 Bft) W 281 ° 0 min 0,000 mm 0,9 UV-I 90 W/m² 14,6 °C 17,3 °C 12,9 km/h (3 Bft)
23.07.2017 13:08 17,3 °C 17,3 °C 85 % 1015,2 hPa 0,0 mm 4,5 km/h (1 Bft) W-SW 255 ° 0 min 0,000 mm 0,9 UV-I 88 W/m² 14,8 °C 17,3 °C 6,4 km/h (2 Bft)
23.07.2017 13:09 17,3 °C 17,3 °C 85 % 1015,2 hPa 0,0 mm 5,6 km/h (1 Bft) W-SW 250 ° 0 min 0,000 mm 0,9 UV-I 86 W/m² 14,8 °C 17,3 °C 11,3 km/h (2 Bft)
23.07.2017 13:10 17,3 °C 17,3 °C 85 % 1015,2 hPa 0,0 mm 4,3 km/h (1 Bft) W 275 ° 0 min 0,000 mm 0,9 UV-I 88 W/m² 14,8 °C 17,3 °C 6,4 km/h (2 Bft)
23.07.2017 13:11 17,3 °C 17,3 °C 85 % 1015,2 hPa 0,0 mm 3,0 km/h (1 Bft) W 267 ° 0 min 0,000 mm 0,9 UV-I 90 W/m² 14,8 °C 17,3 °C 6,4 km/h (2 Bft)
23.07.2017 13:12 17,2 °C 17,3 °C 85 % 1015,2 hPa 0,0 mm 4,2 km/h (1 Bft) W-SW 248 ° 0 min 0,000 mm 0,9 UV-I 95 W/m² 14,7 °C 17,2 °C 6,4 km/h (2 Bft)
23.07.2017 13:13 17,3 °C 17,3 °C 85 % 1015,2 hPa 0,0 mm 5,7 km/h (1 Bft) W 281 ° 0 min 0,000 mm 1,0 UV-I 98 W/m² 14,8 °C 17,3 °C 9,7 km/h (2 Bft)
23.07.2017 13:14 17,3 °C 17,3 °C 85 % 1015,2 hPa 0,0 mm 7,5 km/h (2 Bft) SW 236 ° 0 min 0,000 mm 1,1 UV-I 104 W/m² 14,8 °C 17,3 °C 11,3 km/h (2 Bft)
23.07.2017 13:15 17,3 °C 17,3 °C 85 % 1015,1 hPa 0,0 mm 3,4 km/h (1 Bft) SW 227 ° 0 min 0,000 mm 1,1 UV-I 111 W/m² 14,8 °C 17,3 °C 6,4 km/h (2 Bft)
23.07.2017 13:16 17,2 °C 17,3 °C 85 % 1015,1 hPa 0,0 mm 3,7 km/h (1 Bft) W-NW 299 ° 0 min 0,000 mm 1,2 UV-I 114 W/m² 14,7 °C 17,2 °C 6,4 km/h (2 Bft)
23.07.2017 13:17 17,3 °C 17,3 °C 86 % 1015,1 hPa 0,0 mm 3,8 km/h (1 Bft) W-SW 253 ° 0 min 0,000 mm 1,1 UV-I 113 W/m² 14,9 °C 17,3 °C 6,4 km/h (2 Bft)
23.07.2017 13:18 17,3 °C 17,3 °C 86 % 1015,2 hPa 0,0 mm 4,4 km/h (1 Bft) W 281 ° 0 min 0,000 mm 1,1 UV-I 105 W/m² 14,9 °C 17,3 °C 6,4 km/h (2 Bft)
23.07.2017 13:19 17,3 °C 17,3 °C 86 % 1015,2 hPa 0,0 mm 3,2 km/h (1 Bft) W 265 ° 0 min 0,000 mm 1,0 UV-I 104 W/m² 14,9 °C 17,3 °C 6,4 km/h (2 Bft)
23.07.2017 13:20 17,3 °C 17,3 °C 85 % 1015,1 hPa 0,0 mm 0,6 km/h (0 Bft) W-NW 296 ° 0 min 0,000 mm 1,0 UV-I 104 W/m² 14,8 °C 17,3 °C 3,2 km/h (1 Bft)
23.07.2017 13:21 17,3 °C 17,3 °C 86 % 1015,1 hPa 0,0 mm 4,1 km/h (1 Bft) W 269 ° 0 min 0,000 mm 1,0 UV-I 105 W/m² 14,9 °C 17,3 °C 4,8 km/h (1 Bft)
23.07.2017 13:22 17,3 °C 17,3 °C 86 % 1015,1 hPa 0,0 mm 2,7 km/h (1 Bft) W 273 ° 0 min 0,000 mm 1,0 UV-I 105 W/m² 14,9 °C 17,3 °C 4,8 km/h (1 Bft)
23.07.2017 13:23 17,3 °C 17,3 °C 85 % 1015,1 hPa 0,0 mm 5,9 km/h (2 Bft) W-NW 296 ° 0 min 0,000 mm 1,1 UV-I 113 W/m² 14,8 °C 17,3 °C 9,7 km/h (2 Bft)
23.07.2017 13:24 17,3 °C 17,3 °C 86 % 1015,2 hPa 0,0 mm 3,1 km/h (1 Bft) W-NW 296 ° 0 min 0,000 mm 1,1 UV-I 116 W/m² 14,9 °C 17,3 °C 6,4 km/h (2 Bft)
23.07.2017 13:25 17,3 °C 17,3 °C 85 % 1015,1 hPa 0,0 mm 1,5 km/h (1 Bft) W-NW 296 ° 0 min 0,000 mm 1,1 UV-I 113 W/m² 14,8 °C 17,3 °C 3,2 km/h (1 Bft)
23.07.2017 13:26 17,3 °C 17,3 °C 86 % 1015,1 hPa 0,0 mm 2,4 km/h (1 Bft) W-NW 296 ° 0 min 0,000 mm 1,0 UV-I 107 W/m² 14,9 °C 17,3 °C 4,8 km/h (1 Bft)
23.07.2017 13:27 17,3 °C 17,3 °C 86 % 1015,1 hPa 0,0 mm 2,7 km/h (1 Bft) W 267 ° 0 min 0,000 mm 1,0 UV-I 102 W/m² 14,9 °C 17,3 °C 4,8 km/h (1 Bft)
23.07.2017 13:28 17,3 °C 17,3 °C 85 % 1015,1 hPa 0,0 mm 4,0 km/h (1 Bft) W 276 ° 0 min 0,000 mm 0,9 UV-I 95 W/m² 14,8 °C 17,3 °C 4,8 km/h (1 Bft)
23.07.2017 13:29 17,3 °C 17,3 °C 86 % 1015,1 hPa 0,0 mm 4,1 km/h (1 Bft) W-NW 290 ° 0 min 0,000 mm 0,8 UV-I 79 W/m² 14,9 °C 17,3 °C 6,4 km/h (2 Bft)
23.07.2017 13:30 17,3 °C 17,3 °C 86 % 1015,2 hPa 0,0 mm 4,0 km/h (1 Bft) W-NW 292 ° 0 min 0,000 mm 0,7 UV-I 72 W/m² 14,9 °C 17,3 °C 8,0 km/h (2 Bft)
23.07.2017 13:31 17,3 °C 17,3 °C 86 % 1015,1 hPa 0,0 mm 8,1 km/h (2 Bft) NW 318 ° 0 min 0,000 mm 0,7 UV-I 67 W/m² 14,9 °C 17,3 °C 11,3 km/h (2 Bft)
23.07.2017 13:32 17,3 °C 17,3 °C 86 % 1015,2 hPa 0,0 mm 6,0 km/h (2 Bft) W 275 ° 0 min 0,000 mm 0,7 UV-I 69 W/m² 14,9 °C 17,3 °C 11,3 km/h (2 Bft)
23.07.2017 13:33 17,3 °C 17,3 °C 86 % 1015,2 hPa 0,0 mm 7,5 km/h (2 Bft) W-NW 296 ° 0 min 0,000 mm 0,7 UV-I 69 W/m² 14,9 °C 17,3 °C 11,3 km/h (2 Bft)
23.07.2017 13:34 17,3 °C 17,3 °C 86 % 1015,2 hPa 0,0 mm 6,6 km/h (2 Bft) W 266 ° 0 min 0,000 mm 0,8 UV-I 77 W/m² 14,9 °C 17,3 °C 12,9 km/h (3 Bft)
23.07.2017 13:35 17,2 °C 17,3 °C 86 % 1015,2 hPa 0,0 mm 7,2 km/h (2 Bft) W 263 ° 0 min 0,000 mm 0,8 UV-I 79 W/m² 14,8 °C 17,2 °C 11,3 km/h (2 Bft)
23.07.2017 13:36 17,2 °C 17,2 °C 85 % 1015,2 hPa 0,0 mm 8,4 km/h (2 Bft) W-NW 283 ° 0 min 0,000 mm 0,7 UV-I 74 W/m² 14,7 °C 17,2 °C 11,3 km/h (2 Bft)
23.07.2017 13:37 17,2 °C 17,2 °C 86 % 1015,2 hPa 0,0 mm 5,3 km/h (1 Bft) W-NW 300 ° 0 min 0,000 mm 0,7 UV-I 67 W/m² 14,8 °C 17,2 °C 11,3 km/h (2 Bft)
23.07.2017 13:38 17,2 °C 17,2 °C 86 % 1015,3 hPa 0,0 mm 11,6 km/h (2 Bft) W-NW 300 ° 0 min 0,000 mm 0,6 UV-I 63 W/m² 14,8 °C 17,2 °C 16,1 km/h (3 Bft)
23.07.2017 13:39 17,2 °C 17,2 °C 85 % 1015,2 hPa 0,0 mm 7,0 km/h (2 Bft) W 271 ° 0 min 0,000 mm 0,6 UV-I 62 W/m² 14,7 °C 17,2 °C 12,9 km/h (3 Bft)
23.07.2017 13:40 17,2 °C 17,2 °C 85 % 1015,2 hPa 0,0 mm 8,3 km/h (2 Bft) W-SW 251 ° 0 min 0,000 mm 0,6 UV-I 62 W/m² 14,7 °C 17,2 °C 12,9 km/h (3 Bft)
23.07.2017 13:41 17,1 °C 17,2 °C 85 % 1015,2 hPa 0,0 mm 7,1 km/h (2 Bft) W-NW 290 ° 0 min 0,000 mm 0,7 UV-I 67 W/m² 14,6 °C 17,1 °C 11,3 km/h (2 Bft)
23.07.2017 13:42 17,1 °C 17,1 °C 85 % 1015,2 hPa 0,0 mm 3,4 km/h (1 Bft) W-NW 290 ° 0 min 0,000 mm 0,7 UV-I 72 W/m² 14,6 °C 17,1 °C 4,8 km/h (1 Bft)
23.07.2017 13:43 17,1 °C 17,1 °C 86 % 1015,2 hPa 0,0 mm 4,3 km/h (1 Bft) NW 311 ° 0 min 0,000 mm 0,8 UV-I 81 W/m² 14,7 °C 17,1 °C 6,4 km/h (2 Bft)
23.07.2017 13:44 17,1 °C 17,1 °C 86 % 1015,1 hPa 0,0 mm 6,4 km/h (2 Bft) W-NW 290 ° 0 min 0,000 mm 0,9 UV-I 90 W/m² 14,7 °C 17,1 °C 11,3 km/h (2 Bft)
23.07.2017 13:45 17,1 °C 17,1 °C 86 % 1015,2 hPa 0,0 mm 5,0 km/h (1 Bft) W-SW 255 ° 0 min 0,000 mm 1,0 UV-I 98 W/m² 14,7 °C 17,1 °C 6,4 km/h (2 Bft)
23.07.2017 13:46 17,1 °C 17,1 °C 86 % 1015,2 hPa 0,0 mm 9,1 km/h (2 Bft) W 263 ° 0 min 0,000 mm 1,1 UV-I 116 W/m² 14,7 °C 17,1 °C 16,1 km/h (3 Bft)
23.07.2017 13:47 17,1 °C 17,1 °C 86 % 1015,1 hPa 0,0 mm 6,0 km/h (2 Bft) W 280 ° 0 min 0,000 mm 1,3 UV-I 160 W/m² 14,7 °C 17,1 °C 12,9 km/h (3 Bft)
23.07.2017 13:48 17,1 °C 17,1 °C 87 % 1015,1 hPa 0,0 mm 6,1 km/h (2 Bft) NW 319 ° 0 min 0,000 mm 1,5 UV-I 165 W/m² 14,9 °C 17,1 °C 8,0 km/h (2 Bft)
23.07.2017 13:49 17,1 °C 17,1 °C 87 % 1015,1 hPa 0,0 mm 4,8 km/h (1 Bft) W 269 ° 0 min 0,000 mm 1,5 UV-I 163 W/m² 14,9 °C 17,1 °C 6,4 km/h (2 Bft)
23.07.2017 13:50 17,2 °C 17,2 °C 86 % 1015,1 hPa 0,0 mm 5,6 km/h (1 Bft) W-NW 296 ° 0 min 0,000 mm 1,6 UV-I 172 W/m² 14,8 °C 17,2 °C 9,7 km/h (2 Bft)
23.07.2017 13:51 17,2 °C 17,2 °C 86 % 1015,1 hPa 0,0 mm 4,8 km/h (1 Bft) W 281 ° 0 min 0,000 mm 1,7 UV-I 181 W/m² 14,8 °C 17,2 °C 6,4 km/h (2 Bft)
23.07.2017 13:52 17,2 °C 17,2 °C 86 % 1015,0 hPa 0,0 mm 3,6 km/h (1 Bft) W 259 ° 0 min 0,000 mm 1,8 UV-I 214 W/m² 14,8 °C 17,2 °C 6,4 km/h (2 Bft)
23.07.2017 13:53 17,2 °C 17,3 °C 85 % 1014,9 hPa 0,0 mm 7,6 km/h (2 Bft) W 281 ° 0 min 0,000 mm 1,9 UV-I 199 W/m² 14,7 °C 17,2 °C 11,3 km/h (2 Bft)
23.07.2017 13:54 17,3 °C 17,3 °C 85 % 1015,0 hPa 0,0 mm 5,5 km/h (1 Bft) W 270 ° 0 min 0,000 mm 1,7 UV-I 178 W/m² 14,8 °C 17,3 °C 9,7 km/h (2 Bft)
23.07.2017 13:55 17,3 °C 17,3 °C 86 % 1014,9 hPa 0,0 mm 5,6 km/h (1 Bft) NW 313 ° 0 min 0,000 mm 1,7 UV-I 185 W/m² 14,9 °C 17,3 °C 9,7 km/h (2 Bft)
23.07.2017 13:56 17,3 °C 17,3 °C 85 % 1015,0 hPa 0,0 mm 4,7 km/h (1 Bft) W-NW 302 ° 0 min 0,000 mm 1,6 UV-I 185 W/m² 14,8 °C 17,3 °C 6,4 km/h (2 Bft)
23.07.2017 13:57 17,3 °C 17,3 °C 86 % 1015,0 hPa 0,0 mm 4,9 km/h (1 Bft) W-NW 296 ° 0 min 0,000 mm 1,6 UV-I 178 W/m² 14,9 °C 17,3 °C 8,0 km/h (2 Bft)
23.07.2017 13:58 17,4 °C 17,4 °C 86 % 1015,0 hPa 0,0 mm 5,6 km/h (1 Bft) NW 318 ° 0 min 0,000 mm 1,5 UV-I 172 W/m² 15,0 °C 17,4 °C 8,0 km/h (2 Bft)
23.07.2017 13:59 17,4 °C 17,4 °C 85 % 1015,0 hPa 0,0 mm 5,1 km/h (1 Bft) W-SW 250 ° 0 min 0,000 mm 1,5 UV-I 165 W/m² 14,8 °C 17,4 °C 11,3 km/h (2 Bft)
23.07.2017 14:00 17,4 °C 17,4 °C 86 % 1015,0 hPa 0,0 mm 9,7 km/h (2 Bft) W-NW 296 ° 0 min 0,000 mm 1,5 UV-I 165 W/m² 15,0 °C 17,4 °C 14,5 km/h (3 Bft)
23.07.2017 14:01 17,4 °C 17,4 °C 85 % 1015,0 hPa 0,0 mm 6,1 km/h (2 Bft) NW 312 ° 0 min 0,076 mm 1,5 UV-I 165 W/m² 14,8 °C 17,4 °C 8,0 km/h (2 Bft)
23.07.2017 14:02 17,3 °C 17,4 °C 84 % 1015,0 hPa 0,0 mm 7,0 km/h (2 Bft) W-NW 288 ° 0 min 0,000 mm 1,6 UV-I 169 W/m² 14,6 °C 17,3 °C 11,3 km/h (2 Bft)
23.07.2017 14:03 17,3 °C 17,4 °C 85 % 1015,0 hPa 0,0 mm 4,8 km/h (1 Bft) W-NW 293 ° 0 min 0,000 mm 1,7 UV-I 176 W/m² 14,8 °C 17,3 °C 11,3 km/h (2 Bft)
23.07.2017 14:04 17,4 °C 17,4 °C 85 % 1015,0 hPa 0,0 mm 9,8 km/h (2 Bft) W-SW 246 ° 0 min 0,000 mm 1,9 UV-I 209 W/m² 14,8 °C 17,4 °C 16,1 km/h (3 Bft)
23.07.2017 14:05 17,4 °C 17,4 °C 84 % 1015,1 hPa 0,0 mm 9,8 km/h (2 Bft) W 267 ° 0 min 0,000 mm 2,3 UV-I 232 W/m² 14,7 °C 17,4 °C 12,9 km/h (3 Bft)
23.07.2017 14:06 17,4 °C 17,4 °C 84 % 1015,0 hPa 0,0 mm 8,4 km/h (2 Bft) W-NW 294 ° 0 min 0,000 mm 2,6 UV-I 255 W/m² 14,7 °C 17,4 °C 12,9 km/h (3 Bft)
23.07.2017 14:07 17,4 °C 17,4 °C 83 % 1015,0 hPa 0,0 mm 4,0 km/h (1 Bft) W 278 ° 0 min 0,000 mm 2,8 UV-I 276 W/m² 14,5 °C 17,4 °C 6,4 km/h (2 Bft)
23.07.2017 14:08 17,4 °C 17,4 °C 84 % 1015,0 hPa 0,0 mm 5,8 km/h (2 Bft) W-SW 240 ° 1 min 0,000 mm 2,9 UV-I 290 W/m² 14,7 °C 17,4 °C 14,5 km/h (3 Bft)
23.07.2017 14:09 17,4 °C 17,5 °C 84 % 1015,0 hPa 0,0 mm 7,5 km/h (2 Bft) W 272 ° 1 min 0,000 mm 3,0 UV-I 299 W/m² 14,7 °C 17,4 °C 11,3 km/h (2 Bft)
23.07.2017 14:10 17,6 °C 17,6 °C 85 % 1015,0 hPa 0,0 mm 9,6 km/h (2 Bft) W 265 ° 1 min 0,000 mm 3,0 UV-I 302 W/m² 15,0 °C 17,6 °C 11,3 km/h (2 Bft)
23.07.2017 14:11 17,6 °C 17,6 °C 84 % 1015,1 hPa 0,0 mm 7,1 km/h (2 Bft) W-NW 292 ° 0 min 0,000 mm 2,7 UV-I 287 W/m² 14,9 °C 17,6 °C 14,5 km/h (3 Bft)
23.07.2017 14:12 17,6 °C 17,6 °C 84 % 1015,1 hPa 0,0 mm 5,4 km/h (1 Bft) W-NW 299 ° 0 min 0,000 mm 2,4 UV-I 260 W/m² 14,9 °C 17,6 °C 11,3 km/h (2 Bft)
23.07.2017 14:13 17,6 °C 17,6 °C 84 % 1015,1 hPa 0,0 mm 3,0 km/h (1 Bft) W-NW 299 ° 0 min 0,000 mm 2,2 UV-I 237 W/m² 14,9 °C 17,6 °C 4,8 km/h (1 Bft)
23.07.2017 14:14 17,7 °C 17,7 °C 84 % 1015,1 hPa 0,0 mm 4,7 km/h (1 Bft) W-NW 282 ° 0 min 0,000 mm 2,1 UV-I 237 W/m² 15,0 °C 17,7 °C 9,7 km/h (2 Bft)
23.07.2017 14:15 17,7 °C 17,7 °C 85 % 1015,1 hPa 0,0 mm 2,1 km/h (1 Bft) W 275 ° 0 min 0,000 mm 2,1 UV-I 216 W/m² 15,1 °C 17,7 °C 6,4 km/h (2 Bft)
23.07.2017 14:16 17,8 °C 17,8 °C 86 % 1015,1 hPa 0,0 mm 3,1 km/h (1 Bft) W 275 ° 0 min 0,000 mm 2,0 UV-I 209 W/m² 15,4 °C 17,8 °C 4,8 km/h (1 Bft)
23.07.2017 14:17 17,9 °C 17,9 °C 85 % 1015,1 hPa 0,0 mm 3,6 km/h (1 Bft) W-NW 302 ° 0 min 0,000 mm 1,9 UV-I 202 W/m² 15,3 °C 17,9 °C 6,4 km/h (2 Bft)
23.07.2017 14:18 17,9 °C 17,9 °C 85 % 1015,1 hPa 0,0 mm 6,6 km/h (2 Bft) W 275 ° 0 min 0,000 mm 1,8 UV-I 188 W/m² 15,3 °C 17,9 °C 11,3 km/h (2 Bft)
23.07.2017 14:19 17,9 °C 17,9 °C 83 % 1015,1 hPa 0,0 mm 3,8 km/h (1 Bft) W-NW 290 ° 0 min 0,000 mm 1,6 UV-I 174 W/m² 15,0 °C 17,9 °C 6,4 km/h (2 Bft)
23.07.2017 14:20 17,9 °C 17,9 °C 84 % 1015,1 hPa 0,0 mm 8,0 km/h (2 Bft) W-NW 296 ° 0 min 0,000 mm 1,6 UV-I 163 W/m² 15,2 °C 17,9 °C 12,9 km/h (3 Bft)
23.07.2017 14:21 17,8 °C 17,9 °C 83 % 1015,2 hPa 0,0 mm 5,5 km/h (1 Bft) W-NW 291 ° 0 min 0,000 mm 1,5 UV-I 162 W/m² 14,9 °C 17,8 °C 8,0 km/h (2 Bft)
23.07.2017 14:22 17,8 °C 17,8 °C 83 % 1015,1 hPa 0,0 mm 4,9 km/h (1 Bft) W-NW 286 ° 0 min 0,000 mm 1,6 UV-I 162 W/m² 14,9 °C 17,8 °C 6,4 km/h (2 Bft)
23.07.2017 14:23 17,7 °C 17,8 °C 82 % 1015,1 hPa 0,0 mm 4,0 km/h (1 Bft) SW 231 ° 0 min 0,000 mm 1,6 UV-I 158 W/m² 14,6 °C 17,7 °C 9,7 km/h (2 Bft)
23.07.2017 14:24 17,7 °C 17,8 °C 84 % 1015,2 hPa 0,0 mm 5,2 km/h (1 Bft) W 259 ° 0 min 0,000 mm 1,5 UV-I 153 W/m² 15,0 °C 17,7 °C 9,7 km/h (2 Bft)
23.07.2017 14:25 17,7 °C 17,7 °C 84 % 1015,1 hPa 0,0 mm 5,1 km/h (1 Bft) W-NW 290 ° 0 min 0,000 mm 1,5 UV-I 148 W/m² 15,0 °C 17,7 °C 9,7 km/h (2 Bft)
23.07.2017 14:26 17,7 °C 17,7 °C 85 % 1015,2 hPa 0,0 mm 5,2 km/h (1 Bft) W-SW 254 ° 0 min 0,000 mm 1,5 UV-I 144 W/m² 15,1 °C 17,7 °C 8,0 km/h (2 Bft)
23.07.2017 14:27 17,7 °C 17,7 °C 84 % 1015,1 hPa 0,0 mm 3,4 km/h (1 Bft) W-NW 289 ° 0 min 0,000 mm 1,4 UV-I 139 W/m² 15,0 °C 17,7 °C 4,8 km/h (1 Bft)
23.07.2017 14:28 17,7 °C 17,7 °C 85 % 1015,1 hPa 0,0 mm 4,0 km/h (1 Bft) W 259 ° 0 min 0,000 mm 1,3 UV-I 128 W/m² 15,1 °C 17,7 °C 6,4 km/h (2 Bft)
23.07.2017 14:29 17,7 °C 17,7 °C 85 % 1015,2 hPa 0,0 mm 6,4 km/h (2 Bft) W 263 ° 0 min 0,000 mm 1,2 UV-I 123 W/m² 15,1 °C 17,7 °C 9,7 km/h (2 Bft)
23.07.2017 14:30 17,7 °C 17,7 °C 85 % 1015,2 hPa 0,0 mm 4,2 km/h (1 Bft) W 267 ° 0 min 0,000 mm 1,2 UV-I 121 W/m² 15,1 °C 17,7 °C 6,4 km/h (2 Bft)
23.07.2017 14:31 17,6 °C 17,7 °C 86 % 1015,2 hPa 0,0 mm 6,8 km/h (2 Bft) W 268 ° 0 min 0,000 mm 1,2 UV-I 118 W/m² 15,2 °C 17,6 °C 11,3 km/h (2 Bft)
23.07.2017 14:32 17,6 °C 17,6 °C 85 % 1015,2 hPa 0,0 mm 6,1 km/h (2 Bft) W-NW 286 ° 0 min 0,000 mm 1,2 UV-I 118 W/m² 15,0 °C 17,6 °C 9,7 km/h (2 Bft)
23.07.2017 14:33 17,6 °C 17,7 °C 85 % 1015,3 hPa 0,0 mm 4,2 km/h (1 Bft) W 275 ° 0 min 0,000 mm 1,2 UV-I 114 W/m² 15,0 °C 17,6 °C 6,4 km/h (2 Bft)
23.07.2017 14:34 17,6 °C 17,6 °C 85 % 1015,2 hPa 0,0 mm 5,8 km/h (2 Bft) W-NW 285 ° 0 min 0,000 mm 1,2 UV-I 109 W/m² 15,0 °C 17,6 °C 9,7 km/h (2 Bft)
23.07.2017 14:35 17,6 °C 17,6 °C 84 % 1015,2 hPa 0,0 mm 7,0 km/h (2 Bft) W 263 ° 0 min 0,000 mm 1,1 UV-I 102 W/m² 14,9 °C 17,6 °C 11,3 km/h (2 Bft)
23.07.2017 14:36 17,6 °C 17,6 °C 85 % 1015,2 hPa 0,0 mm 7,5 km/h (2 Bft) W 267 ° 0 min 0,000 mm 1,0 UV-I 93 W/m² 15,0 °C 17,6 °C 11,3 km/h (2 Bft)
23.07.2017 14:37 17,6 °C 17,6 °C 84 % 1015,2 hPa 0,0 mm 8,8 km/h (2 Bft) W 263 ° 0 min 0,000 mm 0,9 UV-I 84 W/m² 14,9 °C 17,6 °C 12,9 km/h (3 Bft)
23.07.2017 14:38 17,5 °C 17,6 °C 83 % 1015,2 hPa 0,0 mm 9,2 km/h (2 Bft) W 259 ° 0 min 0,000 mm 0,8 UV-I 76 W/m² 14,6 °C 17,5 °C 14,5 km/h (3 Bft)
23.07.2017 14:39 17,4 °C 17,5 °C 83 % 1015,2 hPa 0,0 mm 6,6 km/h (2 Bft) W 259 ° 0 min 0,000 mm 0,8 UV-I 74 W/m² 14,5 °C 17,4 °C 11,3 km/h (2 Bft)
23.07.2017 14:40 17,4 °C 17,4 °C 83 % 1015,3 hPa 0,0 mm 8,4 km/h (2 Bft) W-SW 256 ° 0 min 0,000 mm 0,8 UV-I 74 W/m² 14,5 °C 17,4 °C 11,3 km/h (2 Bft)
23.07.2017 14:41 17,3 °C 17,4 °C 84 % 1015,3 hPa 0,0 mm 8,2 km/h (2 Bft) W-NW 282 ° 0 min 0,000 mm 0,8 UV-I 77 W/m² 14,6 °C 17,3 °C 11,3 km/h (2 Bft)
23.07.2017 14:42 17,3 °C 17,3 °C 85 % 1015,3 hPa 0,0 mm 8,6 km/h (2 Bft) S-SW 193 ° 0 min 0,000 mm 0,8 UV-I 81 W/m² 14,8 °C 17,3 °C 12,9 km/h (3 Bft)
23.07.2017 14:43 17,3 °C 17,3 °C 84 % 1015,3 hPa 0,0 mm 3,4 km/h (1 Bft) W 260 ° 0 min 0,000 mm 0,8 UV-I 83 W/m² 14,6 °C 17,3 °C 9,7 km/h (2 Bft)
23.07.2017 14:44 17,3 °C 17,3 °C 85 % 1015,3 hPa 0,0 mm 7,9 km/h (2 Bft) W 265 ° 0 min 0,000 mm 0,9 UV-I 86 W/m² 14,8 °C 17,3 °C 12,9 km/h (3 Bft)
23.07.2017 14:45 17,2 °C 17,3 °C 84 % 1015,3 hPa 0,0 mm 4,5 km/h (1 Bft) W 265 ° 0 min 0,000 mm 0,9 UV-I 104 W/m² 14,5 °C 17,2 °C 6,4 km/h (2 Bft)
23.07.2017 14:46 17,2 °C 17,3 °C 84 % 1015,3 hPa 0,0 mm 2,9 km/h (1 Bft) W 268 ° 0 min 0,000 mm 1,1 UV-I 113 W/m² 14,5 °C 17,2 °C 6,4 km/h (2 Bft)
23.07.2017 14:47 17,2 °C 17,3 °C 85 % 1015,2 hPa 0,0 mm 3,0 km/h (1 Bft) W 264 ° 0 min 0,000 mm 1,1 UV-I 116 W/m² 14,7 °C 17,2 °C 4,8 km/h (1 Bft)
23.07.2017 14:48 17,3 °C 17,3 °C 85 % 1015,3 hPa 0,0 mm 3,4 km/h (1 Bft) W 261 ° 0 min 0,000 mm 1,1 UV-I 118 W/m² 14,8 °C 17,3 °C 4,8 km/h (1 Bft)
23.07.2017 14:49 17,3 °C 17,3 °C 86 % 1015,3 hPa 0,0 mm 3,1 km/h (1 Bft) W 262 ° 0 min 0,000 mm 1,2 UV-I 123 W/m² 14,9 °C 17,3 °C 6,4 km/h (2 Bft)
23.07.2017 14:50 17,3 °C 17,3 °C 86 % 1015,2 hPa 0,0 mm 3,7 km/h (1 Bft) W-SW 250 ° 0 min 0,000 mm 1,3 UV-I 132 W/m² 14,9 °C 17,3 °C 6,4 km/h (2 Bft)
23.07.2017 14:51 17,3 °C 17,3 °C 85 % 1015,2 hPa 0,0 mm 2,7 km/h (1 Bft) W-SW 253 ° 0 min 0,000 mm 1,4 UV-I 151 W/m² 14,8 °C 17,3 °C 4,8 km/h (1 Bft)
23.07.2017 14:52 17,3 °C 17,3 °C 85 % 1015,3 hPa 0,0 mm 0,0 km/h (0 Bft) W-SW 253 ° 0 min 0,000 mm 1,4 UV-I 155 W/m² 14,8 °C 17,3 °C 0,0 km/h (0 Bft)
23.07.2017 14:54 17,3 °C 17,3 °C 86 % 1015,3 hPa 0,0 mm 3,7 km/h (1 Bft) W-SW 254 ° 0 min 0,000 mm 1,4 UV-I 149 W/m² 14,9 °C 17,3 °C 11,3 km/h (2 Bft)
23.07.2017 14:55 17,3 °C 17,3 °C 86 % 1015,3 hPa 0,0 mm 4,2 km/h (1 Bft) W 266 ° 0 min 0,000 mm 1,4 UV-I 144 W/m² 14,9 °C 17,3 °C 6,4 km/h (2 Bft)
23.07.2017 14:56 17,3 °C 17,3 °C 85 % 1015,3 hPa 0,0 mm 6,4 km/h (2 Bft) W 271 ° 0 min 0,000 mm 1,3 UV-I 137 W/m² 14,8 °C 17,3 °C 9,7 km/h (2 Bft)
23.07.2017 14:57 17,3 °C 17,3 °C 85 % 1015,3 hPa 0,0 mm 5,2 km/h (1 Bft) W 265 ° 0 min 0,000 mm 1,3 UV-I 123 W/m² 14,8 °C 17,3 °C 6,4 km/h (2 Bft)
23.07.2017 14:58 17,3 °C 17,3 °C 86 % 1015,3 hPa 0,0 mm 7,3 km/h (2 Bft) W 259 ° 0 min 0,000 mm 1,1 UV-I 114 W/m² 14,9 °C 17,3 °C 11,3 km/h (2 Bft)
23.07.2017 14:59 17,3 °C 17,3 °C 85 % 1015,3 hPa 0,0 mm 6,6 km/h (2 Bft) W-SW 256 ° 0 min 0,000 mm 1,1 UV-I 111 W/m² 14,8 °C 17,3 °C 9,7 km/h (2 Bft)
23.07.2017 15:00 17,3 °C 17,3 °C 86 % 1015,3 hPa 0,0 mm 3,1 km/h (1 Bft) W 267 ° 0 min 0,000 mm 1,1 UV-I 111 W/m² 14,9 °C 17,3 °C 4,8 km/h (1 Bft)
23.07.2017 15:01 17,3 °C 17,3 °C 85 % 1015,3 hPa 0,0 mm 6,7 km/h (2 Bft) W-SW 242 ° 0 min 0,102 mm 1,1 UV-I 116 W/m² 14,8 °C 17,3 °C 11,3 km/h (2 Bft)
23.07.2017 15:02 17,3 °C 17,3 °C 85 % 1015,3 hPa 0,0 mm 4,2 km/h (1 Bft) W 261 ° 0 min 0,000 mm 1,1 UV-I 121 W/m² 14,8 °C 17,3 °C 6,4 km/h (2 Bft)
23.07.2017 15:03 17,2 °C 17,3 °C 84 % 1015,3 hPa 0,0 mm 2,6 km/h (1 Bft) W 279 ° 0 min 0,000 mm 1,2 UV-I 125 W/m² 14,5 °C 17,2 °C 4,8 km/h (1 Bft)
23.07.2017 15:04 17,2 °C 17,3 °C 85 % 1015,2 hPa 0,0 mm 4,6 km/h (1 Bft) W 275 ° 0 min 0,000 mm 1,2 UV-I 118 W/m² 14,7 °C 17,2 °C 9,7 km/h (2 Bft)
23.07.2017 15:05 17,3 °C 17,3 °C 86 % 1015,2 hPa 0,0 mm 6,9 km/h (2 Bft) W-SW 249 ° 0 min 0,000 mm 1,1 UV-I 109 W/m² 14,9 °C 17,3 °C 11,3 km/h (2 Bft)
23.07.2017 15:06 17,3 °C 17,3 °C 86 % 1015,2 hPa 0,0 mm 0,8 km/h (0 Bft) W-SW 249 ° 0 min 0,000 mm 1,0 UV-I 98 W/m² 14,9 °C 17,3 °C 1,6 km/h (1 Bft)
23.07.2017 15:07 17,3 °C 17,3 °C 86 % 1015,2 hPa 0,0 mm 1,1 km/h (1 Bft) W-SW 249 ° 0 min 0,000 mm 1,0 UV-I 88 W/m² 14,9 °C 17,3 °C 3,2 km/h (1 Bft)
23.07.2017 15:08 17,3 °C 17,3 °C 85 % 1015,2 hPa 0,0 mm 1,1 km/h (1 Bft) W-SW 245 ° 0 min 0,000 mm 1,0 UV-I 83 W/m² 14,8 °C 17,3 °C 3,2 km/h (1 Bft)
23.07.2017 15:09 17,3 °C 17,3 °C 85 % 1015,2 hPa 0,0 mm 2,7 km/h (1 Bft) W-SW 244 ° 0 min 0,000 mm 1,0 UV-I 90 W/m² 14,8 °C 17,3 °C 4,8 km/h (1 Bft)
23.07.2017 15:10 17,2 °C 17,3 °C 84 % 1015,2 hPa 0,0 mm 1,5 km/h (1 Bft) W-SW 244 ° 0 min 0,000 mm 1,0 UV-I 93 W/m² 14,5 °C 17,2 °C 3,2 km/h (1 Bft)
23.07.2017 15:11 17,2 °C 17,2 °C 85 % 1015,2 hPa 0,0 mm 1,3 km/h (1 Bft) W-SW 244 ° 0 min 0,000 mm 1,0 UV-I 97 W/m² 14,7 °C 17,2 °C 3,2 km/h (1 Bft)
23.07.2017 15:12 17,2 °C 17,2 °C 85 % 1015,2 hPa 0,0 mm 2,3 km/h (1 Bft) W 273 ° 0 min 0,000 mm 1,0 UV-I 102 W/m² 14,7 °C 17,2 °C 9,7 km/h (2 Bft)
23.07.2017 15:13 17,2 °C 17,2 °C 86 % 1015,2 hPa 0,0 mm 6,4 km/h (2 Bft) NW 306 ° 0 min 0,000 mm 1,0 UV-I 105 W/m² 14,8 °C 17,2 °C 9,7 km/h (2 Bft)
23.07.2017 15:14 17,2 °C 17,2 °C 86 % 1015,2 hPa 0,0 mm 5,7 km/h (1 Bft) W 267 ° 0 min 0,000 mm 1,0 UV-I 107 W/m² 14,8 °C 17,2 °C 9,7 km/h (2 Bft)
23.07.2017 15:15 17,2 °C 17,2 °C 86 % 1015,2 hPa 0,0 mm 1,3 km/h (1 Bft) W 267 ° 0 min 0,000 mm 1,0 UV-I 104 W/m² 14,8 °C 17,2 °C 4,8 km/h (1 Bft)
23.07.2017 15:16 17,2 °C 17,3 °C 86 % 1015,2 hPa 0,0 mm 4,7 km/h (1 Bft) W 262 ° 0 min 0,000 mm 1,0 UV-I 98 W/m² 14,8 °C 17,2 °C 9,7 km/h (2 Bft)
23.07.2017 15:17 17,2 °C 17,3 °C 86 % 1015,2 hPa 0,0 mm 4,8 km/h (1 Bft) W-NW 282 ° 0 min 0,000 mm 0,9 UV-I 93 W/m² 14,8 °C 17,2 °C 6,4 km/h (2 Bft)
23.07.2017 15:18 17,2 °C 17,3 °C 85 % 1015,2 hPa 0,0 mm 5,2 km/h (1 Bft) W-NW 302 ° 0 min 0,000 mm 0,9 UV-I 90 W/m² 14,7 °C 17,2 °C 6,4 km/h (2 Bft)
23.07.2017 15:19 17,2 °C 17,2 °C 85 % 1015,2 hPa 0,0 mm 4,2 km/h (1 Bft) W-NW 300 ° 0 min 0,000 mm 0,9 UV-I 93 W/m² 14,7 °C 17,2 °C 6,4 km/h (2 Bft)
23.07.2017 15:20 17,2 °C 17,2 °C 85 % 1015,2 hPa 0,0 mm 3,0 km/h (1 Bft) W-NW 291 ° 0 min 0,000 mm 1,0 UV-I 102 W/m² 14,7 °C 17,2 °C 4,8 km/h (1 Bft)
23.07.2017 15:21 17,2 °C 17,2 °C 86 % 1015,2 hPa 0,0 mm 3,0 km/h (1 Bft) W-NW 290 ° 0 min 0,000 mm 1,0 UV-I 102 W/m² 14,8 °C 17,2 °C 3,2 km/h (1 Bft)
23.07.2017 15:22 17,2 °C 17,2 °C 86 % 1015,2 hPa 0,0 mm 4,5 km/h (1 Bft) SW 230 ° 0 min 0,000 mm 1,0 UV-I 104 W/m² 14,8 °C 17,2 °C 6,4 km/h (2 Bft)
23.07.2017 15:23 17,3 °C 17,3 °C 86 % 1015,2 hPa 0,0 mm 3,9 km/h (1 Bft) W-SW 257 ° 0 min 0,000 mm 0,9 UV-I 97 W/m² 14,9 °C 17,3 °C 6,4 km/h (2 Bft)
23.07.2017 15:24 17,3 °C 17,3 °C 86 % 1015,2 hPa 0,0 mm 2,3 km/h (1 Bft) W-SW 257 ° 0 min 0,000 mm 0,8 UV-I 86 W/m² 14,9 °C 17,3 °C 3,2 km/h (1 Bft)
23.07.2017 15:25 17,3 °C 17,3 °C 87 % 1015,3 hPa 0,0 mm 3,1 km/h (1 Bft) W 268 ° 0 min 0,000 mm 0,8 UV-I 81 W/m² 15,1 °C 17,3 °C 4,8 km/h (1 Bft)
23.07.2017 15:26 17,3 °C 17,3 °C 86 % 1015,3 hPa 0,0 mm 1,6 km/h (1 Bft) W 267 ° 0 min 0,000 mm 0,8 UV-I 74 W/m² 14,9 °C 17,3 °C 3,2 km/h (1 Bft)
23.07.2017 15:27 17,2 °C 17,3 °C 86 % 1015,2 hPa 0,0 mm 1,5 km/h (1 Bft) W 267 ° 0 min 0,000 mm 0,7 UV-I 69 W/m² 14,8 °C 17,2 °C 3,2 km/h (1 Bft)
23.07.2017 15:28 17,2 °C 17,3 °C 86 % 1015,2 hPa 0,0 mm 4,1 km/h (1 Bft) W 261 ° 0 min 0,000 mm 0,7 UV-I 65 W/m² 14,8 °C 17,2 °C 6,4 km/h (2 Bft)
23.07.2017 15:29 17,2 °C 17,2 °C 85 % 1015,2 hPa 0,0 mm 5,0 km/h (1 Bft) W 277 ° 0 min 0,000 mm 0,6 UV-I 62 W/m² 14,7 °C 17,2 °C 6,4 km/h (2 Bft)
23.07.2017 15:30 17,2 °C 17,2 °C 86 % 1015,3 hPa 0,0 mm 4,5 km/h (1 Bft) W 269 ° 0 min 0,000 mm 0,6 UV-I 60 W/m² 14,8 °C 17,2 °C 6,4 km/h (2 Bft)
23.07.2017 15:31 17,2 °C 17,2 °C 85 % 1015,3 hPa 0,0 mm 3,9 km/h (1 Bft) W-SW 237 ° 0 min 0,000 mm 0,6 UV-I 58 W/m² 14,7 °C 17,2 °C 4,8 km/h (1 Bft)
23.07.2017 15:32 17,1 °C 17,2 °C 85 % 1015,3 hPa 0,0 mm 3,2 km/h (1 Bft) W-SW 253 ° 0 min 0,000 mm 0,0 UV-I 53 W/m² 14,6 °C 17,1 °C 4,8 km/h (1 Bft)
23.07.2017 15:33 17,1 °C 17,1 °C 86 % 1015,3 hPa 0,0 mm 2,9 km/h (1 Bft) W-SW 253 ° 0 min 0,000 mm 0,0 UV-I 49 W/m² 14,7 °C 17,1 °C 3,2 km/h (1 Bft)
23.07.2017 15:34 17,1 °C 17,1 °C 86 % 1015,3 hPa 0,0 mm 2,6 km/h (1 Bft) W-SW 254 ° 0 min 0,000 mm 0,0 UV-I 49 W/m² 14,7 °C 17,1 °C 4,8 km/h (1 Bft)
23.07.2017 15:35 17,1 °C 17,1 °C 86 % 1015,3 hPa 0,0 mm 4,7 km/h (1 Bft) W-SW 252 ° 0 min 0,000 mm 0,0 UV-I 49 W/m² 14,7 °C 17,1 °C 6,4 km/h (2 Bft)
23.07.2017 15:36 17,0 °C 17,1 °C 86 % 1015,3 hPa 0,0 mm 5,8 km/h (2 Bft) W 262 ° 0 min 0,000 mm 0,0 UV-I 53 W/m² 14,6 °C 17,0 °C 8,0 km/h (2 Bft)
23.07.2017 15:37 17,0 °C 17,0 °C 86 % 1015,3 hPa 0,0 mm 4,0 km/h (1 Bft) W 260 ° 0 min 0,000 mm 0,6 UV-I 58 W/m² 14,6 °C 17,0 °C 6,4 km/h (2 Bft)
23.07.2017 15:39 16,9 °C 17,0 °C 87 % 1015,3 hPa 0,0 mm 4,2 km/h (1 Bft) SW 224 ° 0 min 0,000 mm 0,8 UV-I 81 W/m² 14,7 °C 16,9 °C 11,3 km/h (2 Bft)
23.07.2017 15:40 16,9 °C 16,9 °C 87 % 1015,3 hPa 0,0 mm 3,1 km/h (1 Bft) W-SW 237 ° 0 min 0,000 mm 0,8 UV-I 86 W/m² 14,7 °C 16,9 °C 8,0 km/h (2 Bft)
23.07.2017 15:41 16,9 °C 16,9 °C 86 % 1015,2 hPa 0,0 mm 1,8 km/h (1 Bft) W-SW 238 ° 0 min 0,000 mm 0,8 UV-I 88 W/m² 14,5 °C 16,9 °C 4,8 km/h (1 Bft)
23.07.2017 15:42 16,9 °C 16,9 °C 86 % 1015,2 hPa 0,0 mm 1,7 km/h (1 Bft) W-SW 240 ° 0 min 0,000 mm 0,8 UV-I 84 W/m² 14,5 °C 16,9 °C 3,2 km/h (1 Bft)
23.07.2017 15:43 16,9 °C 16,9 °C 86 % 1015,2 hPa 0,0 mm 3,4 km/h (1 Bft) W 271 ° 0 min 0,000 mm 0,8 UV-I 74 W/m² 14,5 °C 16,9 °C 4,8 km/h (1 Bft)
23.07.2017 15:44 16,9 °C 16,9 °C 87 % 1015,2 hPa 0,0 mm 4,6 km/h (1 Bft) W-SW 251 ° 0 min 0,000 mm 0,7 UV-I 76 W/m² 14,7 °C 16,9 °C 6,4 km/h (2 Bft)
23.07.2017 15:45 16,9 °C 16,9 °C 87 % 1015,2 hPa 0,0 mm 2,7 km/h (1 Bft) W-SW 251 ° 0 min 0,000 mm 0,8 UV-I 84 W/m² 14,7 °C 16,9 °C 3,2 km/h (1 Bft)
23.07.2017 15:46 16,9 °C 16,9 °C 87 % 1015,2 hPa 0,0 mm 3,2 km/h (1 Bft) W-SW 252 ° 0 min 0,000 mm 0,8 UV-I 88 W/m² 14,7 °C 16,9 °C 4,8 km/h (1 Bft)
23.07.2017 15:47 16,9 °C 16,9 °C 86 % 1015,2 hPa 0,0 mm 1,1 km/h (1 Bft) W-SW 252 ° 0 min 0,000 mm 0,8 UV-I 88 W/m² 14,5 °C 16,9 °C 3,2 km/h (1 Bft)
23.07.2017 15:48 16,9 °C 16,9 °C 87 % 1015,2 hPa 0,0 mm 3,8 km/h (1 Bft) W 265 ° 0 min 0,000 mm 0,8 UV-I 88 W/m² 14,7 °C 16,9 °C 6,4 km/h (2 Bft)
23.07.2017 15:49 16,9 °C 16,9 °C 88 % 1015,2 hPa 0,0 mm 5,7 km/h (1 Bft) W-SW 253 ° 0 min 0,000 mm 0,8 UV-I 90 W/m² 14,9 °C 16,9 °C 8,0 km/h (2 Bft)
23.07.2017 15:50 16,9 °C 16,9 °C 86 % 1015,1 hPa 0,0 mm 6,0 km/h (2 Bft) W-SW 248 ° 0 min 0,000 mm 0,8 UV-I 90 W/m² 14,5 °C 16,9 °C 9,7 km/h (2 Bft)
23.07.2017 15:51 16,9 °C 16,9 °C 87 % 1015,1 hPa 0,0 mm 4,4 km/h (1 Bft) W-SW 258 ° 0 min 0,000 mm 0,8 UV-I 91 W/m² 14,7 °C 16,9 °C 6,4 km/h (2 Bft)
23.07.2017 15:52 16,9 °C 16,9 °C 86 % 1015,1 hPa 0,0 mm 5,6 km/h (1 Bft) W 259 ° 0 min 0,000 mm 0,9 UV-I 93 W/m² 14,5 °C 16,9 °C 11,3 km/h (2 Bft)
23.07.2017 15:53 16,9 °C 16,9 °C 87 % 1015,1 hPa 0,0 mm 8,3 km/h (2 Bft) W-SW 252 ° 0 min 0,000 mm 0,9 UV-I 95 W/m² 14,7 °C 16,9 °C 11,3 km/h (2 Bft)
23.07.2017 15:54 16,8 °C 16,9 °C 87 % 1015,1 hPa 0,0 mm 5,4 km/h (1 Bft) W 263 ° 0 min 0,000 mm 0,9 UV-I 98 W/m² 14,6 °C 16,8 °C 8,0 km/h (2 Bft)
23.07.2017 15:55 16,8 °C 16,9 °C 86 % 1015,0 hPa 0,0 mm 3,4 km/h (1 Bft) W 264 ° 0 min 0,000 mm 0,9 UV-I 98 W/m² 14,4 °C 16,8 °C 4,8 km/h (1 Bft)
23.07.2017 15:56 16,8 °C 16,9 °C 86 % 1015,1 hPa 0,0 mm 4,6 km/h (1 Bft) W 268 ° 0 min 0,000 mm 0,9 UV-I 98 W/m² 14,4 °C 16,8 °C 6,4 km/h (2 Bft)
23.07.2017 15:57 16,8 °C 16,9 °C 87 % 1015,0 hPa 0,0 mm 6,4 km/h (2 Bft) W 262 ° 0 min 0,000 mm 0,9 UV-I 98 W/m² 14,6 °C 16,8 °C 9,7 km/h (2 Bft)
23.07.2017 15:58 16,9 °C 16,9 °C 86 % 1015,0 hPa 0,0 mm 7,0 km/h (2 Bft) W-NW 282 ° 0 min 0,000 mm 0,9 UV-I 97 W/m² 14,5 °C 16,9 °C 9,7 km/h (2 Bft)
23.07.2017 15:59 16,9 °C 16,9 °C 87 % 1015,0 hPa 0,0 mm 5,3 km/h (1 Bft) W 275 ° 0 min 0,000 mm 0,8 UV-I 88 W/m² 14,7 °C 16,9 °C 9,7 km/h (2 Bft)
23.07.2017 16:00 16,8 °C 16,9 °C 87 % 1015,0 hPa 0,0 mm 3,7 km/h (1 Bft) W 271 ° 0 min 0,000 mm 0,7 UV-I 79 W/m² 14,6 °C 16,8 °C 4,8 km/h (1 Bft)
23.07.2017 16:01 16,8 °C 16,8 °C 86 % 1014,9 hPa 0,0 mm 2,8 km/h (1 Bft) W 271 ° 0 min 0,051 mm 0,6 UV-I 67 W/m² 14,4 °C 16,8 °C 4,8 km/h (1 Bft)
23.07.2017 16:02 16,8 °C 16,8 °C 88 % 1015,0 hPa 0,0 mm 3,4 km/h (1 Bft) W-SW 258 ° 0 min 0,000 mm 0,6 UV-I 65 W/m² 14,8 °C 16,8 °C 4,8 km/h (1 Bft)
23.07.2017 16:03 16,8 °C 16,8 °C 87 % 1015,0 hPa 0,0 mm 3,2 km/h (1 Bft) W 261 ° 0 min 0,000 mm 0,6 UV-I 63 W/m² 14,6 °C 16,8 °C 6,4 km/h (2 Bft)
23.07.2017 16:04 16,8 °C 16,8 °C 86 % 1015,0 hPa 0,0 mm 4,6 km/h (1 Bft) W-SW 255 ° 0 min 0,000 mm 0,6 UV-I 65 W/m² 14,4 °C 16,8 °C 8,0 km/h (2 Bft)
23.07.2017 16:05 16,8 °C 16,8 °C 87 % 1015,0 hPa 0,0 mm 6,4 km/h (2 Bft) W 261 ° 0 min 0,000 mm 0,6 UV-I 67 W/m² 14,6 °C 16,8 °C 14,5 km/h (3 Bft)
23.07.2017 16:06 16,8 °C 16,8 °C 86 % 1015,0 hPa 0,0 mm 7,3 km/h (2 Bft) W 263 ° 0 min 0,000 mm 0,6 UV-I 69 W/m² 14,4 °C 16,8 °C 12,9 km/h (3 Bft)
23.07.2017 16:07 16,8 °C 16,8 °C 87 % 1015,0 hPa 0,0 mm 5,0 km/h (1 Bft) W-SW 254 ° 0 min 0,000 mm 0,6 UV-I 70 W/m² 14,6 °C 16,8 °C 6,4 km/h (2 Bft)
23.07.2017 16:08 16,7 °C 16,8 °C 87 % 1015,0 hPa 0,0 mm 3,7 km/h (1 Bft) W-SW 256 ° 0 min 0,000 mm 0,6 UV-I 70 W/m² 14,5 °C 16,7 °C 6,4 km/h (2 Bft)
23.07.2017 16:09 16,7 °C 16,7 °C 87 % 1015,0 hPa 0,0 mm 4,6 km/h (1 Bft) W 265 ° 0 min 0,000 mm 0,6 UV-I 70 W/m² 14,5 °C 16,7 °C 6,4 km/h (2 Bft)
23.07.2017 16:10 16,7 °C 16,7 °C 87 % 1015,0 hPa 0,0 mm 3,3 km/h (1 Bft) W 265 ° 0 min 0,000 mm 0,6 UV-I 69 W/m² 14,5 °C 16,7 °C 4,8 km/h (1 Bft)
23.07.2017 16:11 16,7 °C 16,7 °C 86 % 1015,1 hPa 0,0 mm 0,6 km/h (0 Bft) W 265 ° 0 min 0,000 mm 0,6 UV-I 65 W/m² 14,3 °C 16,7 °C 3,2 km/h (1 Bft)
23.07.2017 16:12 16,7 °C 16,7 °C 87 % 1015,0 hPa 0,0 mm 3,9 km/h (1 Bft) W 266 ° 0 min 0,000 mm 0,5 UV-I 58 W/m² 14,5 °C 16,7 °C 6,4 km/h (2 Bft)
23.07.2017 16:13 16,7 °C 16,7 °C 87 % 1015,1 hPa 0,0 mm 4,7 km/h (1 Bft) W-SW 248 ° 0 min 0,000 mm 0,0 UV-I 53 W/m² 14,5 °C 16,7 °C 11,3 km/h (2 Bft)
23.07.2017 16:14 16,7 °C 16,7 °C 87 % 1015,1 hPa 0,0 mm 3,0 km/h (1 Bft) W-SW 249 ° 0 min 0,000 mm 0,0 UV-I 53 W/m² 14,5 °C 16,7 °C 6,4 km/h (2 Bft)
23.07.2017 16:15 16,6 °C 16,7 °C 87 % 1015,1 hPa 0,0 mm 7,5 km/h (2 Bft) W 265 ° 0 min 0,000 mm 0,0 UV-I 53 W/m² 14,4 °C 16,6 °C 11,3 km/h (2 Bft)
23.07.2017 16:16 16,6 °C 16,7 °C 87 % 1015,1 hPa 0,0 mm 3,0 km/h (1 Bft) W-SW 250 ° 0 min 0,000 mm 0,0 UV-I 53 W/m² 14,4 °C 16,6 °C 4,8 km/h (1 Bft)
23.07.2017 16:17 16,6 °C 16,6 °C 87 % 1015,1 hPa 0,0 mm 2,7 km/h (1 Bft) W 259 ° 0 min 0,000 mm 0,0 UV-I 51 W/m² 14,4 °C 16,6 °C 4,8 km/h (1 Bft)
23.07.2017 16:18 16,6 °C 16,6 °C 87 % 1015,1 hPa 0,0 mm 5,1 km/h (1 Bft) W 277 ° 0 min 0,000 mm 0,0 UV-I 49 W/m² 14,4 °C 16,6 °C 9,7 km/h (2 Bft)
23.07.2017 16:19 16,6 °C 16,6 °C 87 % 1015,1 hPa 0,0 mm 5,6 km/h (1 Bft) W 260 ° 0 min 0,000 mm 0,0 UV-I 44 W/m² 14,4 °C 16,6 °C 9,7 km/h (2 Bft)
23.07.2017 16:20 16,6 °C 16,6 °C 88 % 1015,1 hPa 0,0 mm 2,1 km/h (1 Bft) W 260 ° 0 min 0,000 mm 0,0 UV-I 46 W/m² 14,6 °C 16,6 °C 3,2 km/h (1 Bft)
23.07.2017 16:21 16,6 °C 16,6 °C 88 % 1015,1 hPa 0,0 mm 3,8 km/h (1 Bft) W 265 ° 0 min 0,000 mm 0,0 UV-I 47 W/m² 14,6 °C 16,6 °C 6,4 km/h (2 Bft)
23.07.2017 16:22 16,6 °C 16,6 °C 88 % 1015,1 hPa 0,0 mm 7,7 km/h (2 Bft) S-SW 210 ° 0 min 0,000 mm 0,0 UV-I 46 W/m² 14,6 °C 16,6 °C 9,7 km/h (2 Bft)
23.07.2017 16:23 16,6 °C 16,6 °C 87 % 1015,2 hPa 0,0 mm 6,2 km/h (2 Bft) W-SW 252 ° 0 min 0,000 mm 0,0 UV-I 42 W/m² 14,4 °C 16,6 °C 8,0 km/h (2 Bft)
23.07.2017 16:24 16,5 °C 16,6 °C 87 % 1015,2 hPa 0,0 mm 2,2 km/h (1 Bft) SW 236 ° 0 min 0,000 mm 0,0 UV-I 39 W/m² 14,3 °C 16,5 °C 4,8 km/h (1 Bft)
23.07.2017 16:25 16,5 °C 16,5 °C 87 % 1015,2 hPa 0,0 mm 7,6 km/h (2 Bft) W 265 ° 0 min 0,000 mm 0,0 UV-I 32 W/m² 14,3 °C 16,5 °C 14,5 km/h (3 Bft)
23.07.2017 16:26 16,4 °C 16,5 °C 88 % 1015,2 hPa 0,0 mm 5,6 km/h (1 Bft) W 267 ° 0 min 0,000 mm 0,0 UV-I 32 W/m² 14,4 °C 16,4 °C 11,3 km/h (2 Bft)
23.07.2017 16:27 16,4 °C 16,4 °C 88 % 1015,2 hPa 0,0 mm 8,2 km/h (2 Bft) SW 216 ° 0 min 0,000 mm 0,0 UV-I 33 W/m² 14,4 °C 16,4 °C 14,5 km/h (3 Bft)
23.07.2017 16:28 16,3 °C 16,4 °C 88 % 1015,2 hPa 0,0 mm 9,9 km/h (2 Bft) W 273 ° 0 min 0,000 mm 0,0 UV-I 33 W/m² 14,3 °C 16,3 °C 12,9 km/h (3 Bft)
23.07.2017 16:29 16,3 °C 16,4 °C 88 % 1015,2 hPa 0,0 mm 9,0 km/h (2 Bft) W-NW 293 ° 0 min 0,000 mm 0,0 UV-I 32 W/m² 14,3 °C 16,3 °C 12,9 km/h (3 Bft)
23.07.2017 16:30 16,3 °C 16,3 °C 88 % 1015,3 hPa 0,0 mm 8,8 km/h (2 Bft) W-NW 285 ° 0 min 0,000 mm 0,0 UV-I 33 W/m² 14,3 °C 16,3 °C 11,3 km/h (2 Bft)
23.07.2017 16:31 16,2 °C 16,3 °C 88 % 1015,2 hPa 0,0 mm 8,4 km/h (2 Bft) W 270 ° 0 min 0,000 mm 0,0 UV-I 33 W/m² 14,2 °C 16,2 °C 11,3 km/h (2 Bft)
23.07.2017 16:32 16,2 °C 16,2 °C 89 % 1015,2 hPa 0,0 mm 6,0 km/h (2 Bft) W 259 ° 0 min 0,000 mm 0,0 UV-I 35 W/m² 14,4 °C 16,2 °C 11,3 km/h (2 Bft)
23.07.2017 16:33 16,1 °C 16,2 °C 89 % 1015,2 hPa 0,0 mm 4,9 km/h (1 Bft) W 277 ° 0 min 0,000 mm 0,0 UV-I 33 W/m² 14,3 °C 16,1 °C 9,7 km/h (2 Bft)
23.07.2017 16:34 16,1 °C 16,1 °C 89 % 1015,3 hPa 0,0 mm 5,9 km/h (2 Bft) W-SW 249 ° 0 min 0,000 mm 0,0 UV-I 33 W/m² 14,3 °C 16,1 °C 11,3 km/h (2 Bft)
23.07.2017 16:35 16,1 °C 16,1 °C 89 % 1015,3 hPa 0,0 mm 4,9 km/h (1 Bft) W 266 ° 0 min 0,000 mm 0,0 UV-I 35 W/m² 14,3 °C 16,1 °C 11,3 km/h (2 Bft)
23.07.2017 16:36 16,0 °C 16,1 °C 89 % 1015,2 hPa 0,0 mm 5,9 km/h (2 Bft) W-SW 241 ° 0 min 0,000 mm 0,0 UV-I 44 W/m² 14,2 °C 16,0 °C 11,3 km/h (2 Bft)
23.07.2017 16:37 15,9 °C 16,0 °C 89 % 1015,2 hPa 0,0 mm 4,7 km/h (1 Bft) W-SW 255 ° 0 min 0,000 mm 0,0 UV-I 47 W/m² 14,1 °C 15,9 °C 6,4 km/h (2 Bft)
23.07.2017 16:38 15,9 °C 15,9 °C 90 % 1015,2 hPa 0,0 mm 5,6 km/h (1 Bft) W 267 ° 0 min 0,000 mm 0,0 UV-I 51 W/m² 14,3 °C 15,9 °C 12,9 km/h (3 Bft)
23.07.2017 16:39 15,9 °C 15,9 °C 89 % 1015,2 hPa 0,0 mm 4,9 km/h (1 Bft) SW 234 ° 0 min 0,000 mm 0,0 UV-I 54 W/m² 14,1 °C 15,9 °C 9,7 km/h (2 Bft)
23.07.2017 16:40 15,8 °C 15,9 °C 90 % 1015,2 hPa 0,0 mm 4,8 km/h (1 Bft) W-SW 252 ° 0 min 0,000 mm 0,5 UV-I 58 W/m² 14,2 °C 15,8 °C 9,7 km/h (2 Bft)
23.07.2017 16:41 15,8 °C 15,8 °C 90 % 1015,2 hPa 0,0 mm 3,0 km/h (1 Bft) SW 229 ° 0 min 0,000 mm 0,5 UV-I 58 W/m² 14,2 °C 15,8 °C 4,8 km/h (1 Bft)
23.07.2017 16:42 15,8 °C 15,8 °C 90 % 1015,2 hPa 0,0 mm 1,3 km/h (1 Bft) W 279 ° 0 min 0,000 mm 0,5 UV-I 62 W/m² 14,2 °C 15,8 °C 4,8 km/h (1 Bft)
23.07.2017 16:43 15,8 °C 15,8 °C 90 % 1015,1 hPa 0,0 mm 2,1 km/h (1 Bft) W 279 ° 0 min 0,000 mm 0,5 UV-I 67 W/m² 14,2 °C 15,8 °C 4,8 km/h (1 Bft)
23.07.2017 16:44 15,8 °C 15,8 °C 91 % 1015,1 hPa 0,0 mm 0,8 km/h (0 Bft) W 279 ° 0 min 0,000 mm 0,6 UV-I 67 W/m² 14,3 °C 15,8 °C 3,2 km/h (1 Bft)
23.07.2017 16:45 15,8 °C 15,8 °C 90 % 1015,0 hPa 0,0 mm 0,1 km/h (0 Bft) W 279 ° 0 min 0,000 mm 0,7 UV-I 81 W/m² 14,2 °C 15,8 °C 1,6 km/h (1 Bft)
23.07.2017 16:46 15,8 °C 15,8 °C 90 % 1015,0 hPa 0,0 mm 1,5 km/h (1 Bft) SW 234 ° 0 min 0,000 mm 0,7 UV-I 91 W/m² 14,2 °C 15,8 °C 4,8 km/h (1 Bft)
23.07.2017 16:47 15,7 °C 15,8 °C 90 % 1014,9 hPa 0,0 mm 0,1 km/h (0 Bft) SW 234 ° 0 min 0,000 mm 0,8 UV-I 104 W/m² 14,1 °C 15,7 °C 1,6 km/h (1 Bft)
23.07.2017 16:48 15,8 °C 15,8 °C 90 % 1015,0 hPa 0,0 mm 1,9 km/h (1 Bft) W-SW 250 ° 0 min 0,000 mm 0,9 UV-I 125 W/m² 14,2 °C 15,8 °C 3,2 km/h (1 Bft)
23.07.2017 16:49 15,8 °C 15,8 °C 90 % 1014,9 hPa 0,0 mm 0,7 km/h (0 Bft) W-SW 250 ° 0 min 0,000 mm 1,0 UV-I 123 W/m² 14,2 °C 15,8 °C 3,2 km/h (1 Bft)
23.07.2017 16:50 15,8 °C 15,8 °C 91 % 1014,9 hPa 0,0 mm 1,6 km/h (1 Bft) W-SW 244 ° 0 min 0,000 mm 0,9 UV-I 113 W/m² 14,3 °C 15,8 °C 4,8 km/h (1 Bft)
23.07.2017 16:51 15,8 °C 15,8 °C 90 % 1014,9 hPa 0,0 mm 2,7 km/h (1 Bft) W-SW 244 ° 0 min 0,000 mm 0,8 UV-I 100 W/m² 14,2 °C 15,8 °C 4,8 km/h (1 Bft)
23.07.2017 16:52 15,9 °C 15,9 °C 91 % 1014,9 hPa 0,0 mm 2,6 km/h (1 Bft) W-SW 244 ° 0 min 0,000 mm 0,8 UV-I 93 W/m² 14,4 °C 15,9 °C 3,2 km/h (1 Bft)
23.07.2017 16:53 15,9 °C 15,9 °C 91 % 1014,9 hPa 0,0 mm 4,0 km/h (1 Bft) W-SW 245 ° 0 min 0,000 mm 0,8 UV-I 93 W/m² 14,4 °C 15,9 °C 6,4 km/h (2 Bft)
23.07.2017 16:54 16,0 °C 16,0 °C 91 % 1014,9 hPa 0,0 mm 4,6 km/h (1 Bft) W-SW 249 ° 0 min 0,000 mm 0,8 UV-I 93 W/m² 14,5 °C 16,0 °C 6,4 km/h (2 Bft)
23.07.2017 16:55 16,0 °C 16,0 °C 90 % 1014,9 hPa 0,0 mm 2,4 km/h (1 Bft) W-SW 249 ° 0 min 0,000 mm 0,7 UV-I 86 W/m² 14,4 °C 16,0 °C 4,8 km/h (1 Bft)
23.07.2017 16:56 16,0 °C 16,0 °C 90 % 1014,8 hPa 0,0 mm 1,8 km/h (1 Bft) W-SW 249 ° 0 min 0,000 mm 0,7 UV-I 76 W/m² 14,4 °C 16,0 °C 3,2 km/h (1 Bft)
23.07.2017 16:57 16,1 °C 16,1 °C 90 % 1014,8 hPa 0,0 mm 2,0 km/h (1 Bft) W-SW 249 ° 0 min 0,000 mm 0,6 UV-I 76 W/m² 14,5 °C 16,1 °C 3,2 km/h (1 Bft)
23.07.2017 16:58 16,0 °C 16,1 °C 89 % 1014,9 hPa 0,0 mm 2,3 km/h (1 Bft) W-SW 244 ° 0 min 0,000 mm 0,5 UV-I 60 W/m² 14,2 °C 16,0 °C 3,2 km/h (1 Bft)
23.07.2017 16:59 16,0 °C 16,0 °C 89 % 1015,0 hPa 0,0 mm 4,0 km/h (1 Bft) SW 232 ° 0 min 0,000 mm 0,5 UV-I 56 W/m² 14,2 °C 16,0 °C 8,0 km/h (2 Bft)
23.07.2017 17:00 16,0 °C 16,0 °C 89 % 1014,9 hPa 0,0 mm 3,3 km/h (1 Bft) W 269 ° 0 min 0,000 mm 0,5 UV-I 58 W/m² 14,2 °C 16,0 °C 6,4 km/h (2 Bft)
23.07.2017 17:01 16,0 °C 16,0 °C 89 % 1014,9 hPa 0,0 mm 0,8 km/h (0 Bft) W 269 ° 0 min 0,051 mm 0,5 UV-I 62 W/m² 14,2 °C 16,0 °C 1,6 km/h (1 Bft)
23.07.2017 17:02 16,0 °C 16,0 °C 89 % 1014,9 hPa 0,0 mm 1,3 km/h (1 Bft) SW 233 ° 0 min 0,000 mm 0,5 UV-I 67 W/m² 14,2 °C 16,0 °C 4,8 km/h (1 Bft)
23.07.2017 17:03 16,0 °C 16,0 °C 89 % 1014,8 hPa 0,0 mm 5,4 km/h (1 Bft) S-SW 197 ° 0 min 0,000 mm 0,6 UV-I 67 W/m² 14,2 °C 16,0 °C 8,0 km/h (2 Bft)
23.07.2017 17:04 15,9 °C 16,0 °C 89 % 1014,8 hPa 0,0 mm 4,6 km/h (1 Bft) S-SW 196 ° 0 min 0,000 mm 0,6 UV-I 72 W/m² 14,1 °C 15,9 °C 8,0 km/h (2 Bft)
23.07.2017 17:05 16,0 °C 16,0 °C 89 % 1014,8 hPa 0,0 mm 5,5 km/h (1 Bft) S-SW 192 ° 0 min 0,000 mm 0,6 UV-I 77 W/m² 14,2 °C 16,0 °C 8,0 km/h (2 Bft)
23.07.2017 17:06 16,0 °C 16,0 °C 89 % 1014,8 hPa 0,0 mm 0,9 km/h (0 Bft) S-SW 192 ° 0 min 0,000 mm 0,6 UV-I 88 W/m² 14,2 °C 16,0 °C 3,2 km/h (1 Bft)
23.07.2017 17:07 16,0 °C 16,0 °C 89 % 1014,8 hPa 0,0 mm 0,2 km/h (0 Bft) S-SW 192 ° 0 min 0,000 mm 0,7 UV-I 93 W/m² 14,2 °C 16,0 °C 1,6 km/h (1 Bft)
23.07.2017 17:08 16,1 °C 16,1 °C 89 % 1014,8 hPa 0,0 mm 0,0 km/h (0 Bft) S-SW 192 ° 0 min 0,000 mm 0,8 UV-I 97 W/m² 14,3 °C 16,1 °C 0,0 km/h (0 Bft)
23.07.2017 17:09 16,1 °C 16,1 °C 90 % 1014,8 hPa 0,0 mm 0,0 km/h (0 Bft) S-SW 192 ° 0 min 0,000 mm 0,8 UV-I 95 W/m² 14,5 °C 16,1 °C 0,0 km/h (0 Bft)
23.07.2017 17:10 16,1 °C 16,1 °C 90 % 1014,8 hPa 0,0 mm 0,0 km/h (0 Bft) S-SW 192 ° 0 min 0,000 mm 0,7 UV-I 91 W/m² 14,5 °C 16,1 °C 0,0 km/h (0 Bft)
23.07.2017 17:11 16,2 °C 16,2 °C 89 % 1014,9 hPa 0,0 mm 3,1 km/h (1 Bft) W-SW 250 ° 0 min 0,000 mm 0,7 UV-I 86 W/m² 14,4 °C 16,2 °C 4,8 km/h (1 Bft)
23.07.2017 17:12 16,2 °C 16,2 °C 89 % 1014,8 hPa 0,0 mm 4,1 km/h (1 Bft) W-SW 255 ° 0 min 0,000 mm 0,7 UV-I 83 W/m² 14,4 °C 16,2 °C 6,4 km/h (2 Bft)
23.07.2017 17:13 16,2 °C 16,2 °C 89 % 1014,8 hPa 0,0 mm 2,6 km/h (1 Bft) W-SW 258 ° 0 min 0,000 mm 0,7 UV-I 84 W/m² 14,4 °C 16,2 °C 4,8 km/h (1 Bft)
23.07.2017 17:14 16,3 °C 16,3 °C 89 % 1014,9 hPa 0,0 mm 4,5 km/h (1 Bft) W-SW 248 ° 0 min 0,000 mm 0,7 UV-I 86 W/m² 14,5 °C 16,3 °C 6,4 km/h (2 Bft)
23.07.2017 17:15 16,3 °C 16,3 °C 89 % 1015,0 hPa 0,0 mm 3,9 km/h (1 Bft) W 259 ° 0 min 0,000 mm 0,7 UV-I 88 W/m² 14,5 °C 16,3 °C 4,8 km/h (1 Bft)
23.07.2017 17:16 16,3 °C 16,3 °C 89 % 1014,9 hPa 0,0 mm 4,0 km/h (1 Bft) W 259 ° 0 min 0,000 mm 0,7 UV-I 90 W/m² 14,5 °C 16,3 °C 4,8 km/h (1 Bft)
23.07.2017 17:17 16,3 °C 16,3 °C 90 % 1014,9 hPa 0,0 mm 2,9 km/h (1 Bft) W-SW 246 ° 0 min 0,000 mm 0,7 UV-I 91 W/m² 14,7 °C 16,3 °C 6,4 km/h (2 Bft)
23.07.2017 17:18 16,3 °C 16,3 °C 88 % 1015,0 hPa 0,0 mm 3,8 km/h (1 Bft) W 262 ° 0 min 0,000 mm 0,7 UV-I 86 W/m² 14,3 °C 16,3 °C 12,9 km/h (3 Bft)
23.07.2017 17:19 16,3 °C 16,3 °C 89 % 1015,0 hPa 0,0 mm 8,0 km/h (2 Bft) W 274 ° 0 min 0,000 mm 0,7 UV-I 84 W/m² 14,5 °C 16,3 °C 12,9 km/h (3 Bft)
23.07.2017 17:20 16,3 °C 16,3 °C 88 % 1015,0 hPa 0,0 mm 2,9 km/h (1 Bft) W 273 ° 0 min 0,000 mm 0,7 UV-I 83 W/m² 14,3 °C 16,3 °C 4,8 km/h (1 Bft)
23.07.2017 17:21 16,3 °C 16,3 °C 89 % 1015,0 hPa 0,0 mm 4,2 km/h (1 Bft) W-SW 258 ° 0 min 0,000 mm 0,7 UV-I 83 W/m² 14,5 °C 16,3 °C 6,4 km/h (2 Bft)
23.07.2017 17:22 16,3 °C 16,3 °C 88 % 1015,0 hPa 0,0 mm 5,6 km/h (1 Bft) W-NW 283 ° 0 min 0,000 mm 0,7 UV-I 81 W/m² 14,3 °C 16,3 °C 6,4 km/h (2 Bft)
23.07.2017 17:23 16,3 °C 16,3 °C 88 % 1015,0 hPa 0,0 mm 6,9 km/h (2 Bft) W 261 ° 0 min 0,000 mm 0,7 UV-I 86 W/m² 14,3 °C 16,3 °C 11,3 km/h (2 Bft)
23.07.2017 17:24 16,3 °C 16,3 °C 88 % 1015,0 hPa 0,0 mm 5,0 km/h (1 Bft) W-SW 244 ° 0 min 0,000 mm 0,7 UV-I 91 W/m² 14,3 °C 16,3 °C 8,0 km/h (2 Bft)
23.07.2017 17:25 16,3 °C 16,3 °C 88 % 1014,9 hPa 0,0 mm 6,1 km/h (2 Bft) W-SW 243 ° 0 min 0,000 mm 0,8 UV-I 100 W/m² 14,3 °C 16,3 °C 11,3 km/h (2 Bft)
23.07.2017 17:26 16,3 °C 16,3 °C 88 % 1014,9 hPa 0,0 mm 3,2 km/h (1 Bft) W-SW 244 ° 0 min 0,000 mm 0,8 UV-I 109 W/m² 14,3 °C 16,3 °C 6,4 km/h (2 Bft)
23.07.2017 17:27 16,3 °C 16,3 °C 88 % 1014,9 hPa 0,0 mm 5,2 km/h (1 Bft) W 267 ° 0 min 0,000 mm 0,9 UV-I 116 W/m² 14,3 °C 16,3 °C 9,7 km/h (2 Bft)
23.07.2017 17:28 16,3 °C 16,3 °C 88 % 1014,8 hPa 0,0 mm 6,3 km/h (2 Bft) W-SW 255 ° 0 min 0,000 mm 0,9 UV-I 123 W/m² 14,3 °C 16,3 °C 11,3 km/h (2 Bft)
23.07.2017 17:29 16,3 °C 16,3 °C 88 % 1014,8 hPa 0,0 mm 3,4 km/h (1 Bft) W 275 ° 0 min 0,000 mm 0,9 UV-I 127 W/m² 14,3 °C 16,3 °C 6,4 km/h (2 Bft)
23.07.2017 17:30 16,4 °C 16,4 °C 88 % 1014,8 hPa 0,0 mm 2,9 km/h (1 Bft) S-SW 211 ° 0 min 0,000 mm 0,9 UV-I 121 W/m² 14,4 °C 16,4 °C 4,8 km/h (1 Bft)
23.07.2017 17:31 16,4 °C 16,4 °C 87 % 1014,8 hPa 0,0 mm 1,1 km/h (1 Bft) S-SW 211 ° 0 min 0,000 mm 0,8 UV-I 111 W/m² 14,2 °C 16,4 °C 3,2 km/h (1 Bft)
23.07.2017 17:32 16,4 °C 16,4 °C 87 % 1014,8 hPa 0,0 mm 4,2 km/h (1 Bft) W-SW 257 ° 0 min 0,000 mm 0,8 UV-I 111 W/m² 14,2 °C 16,4 °C 9,7 km/h (2 Bft)
23.07.2017 17:33 16,4 °C 16,4 °C 87 % 1014,8 hPa 0,0 mm 5,8 km/h (2 Bft) SW 225 ° 0 min 0,000 mm 0,7 UV-I 111 W/m² 14,2 °C 16,4 °C 9,7 km/h (2 Bft)
23.07.2017 17:34 16,4 °C 16,4 °C 87 % 1014,8 hPa 0,0 mm 2,9 km/h (1 Bft) W-SW 240 ° 0 min 0,000 mm 0,7 UV-I 84 W/m² 14,2 °C 16,4 °C 4,8 km/h (1 Bft)
23.07.2017 17:35 16,4 °C 16,4 °C 88 % 1014,8 hPa 0,0 mm 4,2 km/h (1 Bft) W-SW 252 ° 0 min 0,000 mm 0,6 UV-I 77 W/m² 14,4 °C 16,4 °C 8,0 km/h (2 Bft)
23.07.2017 17:36 16,4 °C 16,4 °C 87 % 1014,8 hPa 0,0 mm 3,0 km/h (1 Bft) W 259 ° 0 min 0,000 mm 0,6 UV-I 76 W/m² 14,2 °C 16,4 °C 4,8 km/h (1 Bft)
23.07.2017 17:37 16,4 °C 16,4 °C 88 % 1014,8 hPa 0,0 mm 5,6 km/h (1 Bft) W-SW 258 ° 0 min 0,000 mm 0,6 UV-I 76 W/m² 14,4 °C 16,4 °C 8,0 km/h (2 Bft)
23.07.2017 17:38 16,4 °C 16,4 °C 87 % 1014,9 hPa 0,0 mm 3,0 km/h (1 Bft) W-SW 242 ° 0 min 0,000 mm 0,6 UV-I 81 W/m² 14,2 °C 16,4 °C 4,8 km/h (1 Bft)
23.07.2017 17:39 16,4 °C 16,4 °C 88 % 1014,8 hPa 0,0 mm 2,2 km/h (1 Bft) W-SW 242 ° 0 min 0,000 mm 0,6 UV-I 86 W/m² 14,4 °C 16,4 °C 4,8 km/h (1 Bft)
23.07.2017 17:40 16,4 °C 16,4 °C 87 % 1014,8 hPa 0,0 mm 2,6 km/h (1 Bft) W 265 ° 0 min 0,000 mm 0,7 UV-I 90 W/m² 14,2 °C 16,4 °C 4,8 km/h (1 Bft)
23.07.2017 17:41 16,4 °C 16,4 °C 88 % 1014,8 hPa 0,0 mm 2,8 km/h (1 Bft) W 265 ° 0 min 0,000 mm 0,7 UV-I 83 W/m² 14,4 °C 16,4 °C 3,2 km/h (1 Bft)
23.07.2017 17:42 16,4 °C 16,4 °C 88 % 1014,8 hPa 0,0 mm 3,8 km/h (1 Bft) W 263 ° 0 min 0,000 mm 0,6 UV-I 77 W/m² 14,4 °C 16,4 °C 6,4 km/h (2 Bft)
23.07.2017 17:43 16,4 °C 16,4 °C 87 % 1014,8 hPa 0,0 mm 3,9 km/h (1 Bft) W-SW 249 ° 0 min 0,000 mm 0,6 UV-I 74 W/m² 14,2 °C 16,4 °C 6,4 km/h (2 Bft)
23.07.2017 17:44 16,4 °C 16,4 °C 86 % 1014,8 hPa 0,0 mm 4,9 km/h (1 Bft) SW 214 ° 0 min 0,000 mm 0,5 UV-I 72 W/m² 14,1 °C 16,4 °C 8,0 km/h (2 Bft)
23.07.2017 17:45 16,4 °C 16,4 °C 86 % 1014,9 hPa 0,0 mm 5,3 km/h (1 Bft) S 190 ° 0 min 0,000 mm 0,5 UV-I 70 W/m² 14,1 °C 16,4 °C 8,0 km/h (2 Bft)
23.07.2017 17:46 16,3 °C 16,4 °C 87 % 1014,9 hPa 0,0 mm 3,1 km/h (1 Bft) W 273 ° 0 min 0,000 mm 0,5 UV-I 69 W/m² 14,1 °C 16,3 °C 4,8 km/h (1 Bft)
23.07.2017 17:47 16,4 °C 16,4 °C 87 % 1014,9 hPa 0,0 mm 5,7 km/h (1 Bft) W-SW 241 ° 0 min 0,000 mm 0,5 UV-I 65 W/m² 14,2 °C 16,4 °C 12,9 km/h (3 Bft)
23.07.2017 17:48 16,3 °C 16,4 °C 87 % 1014,8 hPa 0,0 mm 1,9 km/h (1 Bft) SW 223 ° 0 min 0,000 mm 0,5 UV-I 62 W/m² 14,1 °C 16,3 °C 4,8 km/h (1 Bft)
23.07.2017 17:49 16,3 °C 16,3 °C 87 % 1014,8 hPa 0,0 mm 1,5 km/h (1 Bft) W-NW 288 ° 0 min 0,000 mm 0,5 UV-I 56 W/m² 14,1 °C 16,3 °C 4,8 km/h (1 Bft)
23.07.2017 17:50 16,3 °C 16,3 °C 87 % 1014,8 hPa 0,0 mm 2,0 km/h (1 Bft) W 273 ° 0 min 0,000 mm 0,0 UV-I 56 W/m² 14,1 °C 16,3 °C 3,2 km/h (1 Bft)
23.07.2017 17:51 16,3 °C 16,3 °C 87 % 1014,8 hPa 0,0 mm 2,7 km/h (1 Bft) W 272 ° 0 min 0,000 mm 0,0 UV-I 51 W/m² 14,1 °C 16,3 °C 4,8 km/h (1 Bft)
23.07.2017 17:52 16,3 °C 16,3 °C 87 % 1014,9 hPa 0,0 mm 6,2 km/h (2 Bft) W-SW 243 ° 0 min 0,000 mm 0,0 UV-I 53 W/m² 14,1 °C 16,3 °C 11,3 km/h (2 Bft)
23.07.2017 17:53 16,3 °C 16,3 °C 87 % 1014,8 hPa 0,0 mm 3,6 km/h (1 Bft) W-SW 254 ° 0 min 0,000 mm 0,0 UV-I 56 W/m² 14,1 °C 16,3 °C 6,4 km/h (2 Bft)
23.07.2017 17:54 16,3 °C 16,3 °C 87 % 1014,8 hPa 0,0 mm 3,2 km/h (1 Bft) W 271 ° 0 min 0,000 mm 0,0 UV-I 58 W/m² 14,1 °C 16,3 °C 6,4 km/h (2 Bft)
23.07.2017 17:55 16,3 °C 16,3 °C 87 % 1014,8 hPa 0,0 mm 0,9 km/h (0 Bft) W 271 ° 0 min 0,000 mm 0,0 UV-I 58 W/m² 14,1 °C 16,3 °C 1,6 km/h (1 Bft)
23.07.2017 17:56 16,3 °C 16,3 °C 87 % 1014,8 hPa 0,0 mm 1,3 km/h (1 Bft) W 271 ° 0 min 0,000 mm 0,5 UV-I 62 W/m² 14,1 °C 16,3 °C 4,8 km/h (1 Bft)
23.07.2017 17:57 16,3 °C 16,3 °C 88 % 1014,8 hPa 0,0 mm 4,0 km/h (1 Bft) W 275 ° 0 min 0,000 mm 0,5 UV-I 63 W/m² 14,3 °C 16,3 °C 9,7 km/h (2 Bft)
23.07.2017 17:58 16,3 °C 16,3 °C 87 % 1014,8 hPa 0,0 mm 3,3 km/h (1 Bft) W 264 ° 0 min 0,000 mm 0,5 UV-I 63 W/m² 14,1 °C 16,3 °C 4,8 km/h (1 Bft)
23.07.2017 17:59 16,3 °C 16,3 °C 87 % 1014,8 hPa 0,0 mm 3,4 km/h (1 Bft) W 271 ° 0 min 0,000 mm 0,5 UV-I 65 W/m² 14,1 °C 16,3 °C 4,8 km/h (1 Bft)
23.07.2017 18:00 16,3 °C 16,3 °C 87 % 1014,7 hPa 0,0 mm 2,2 km/h (1 Bft) SW 231 ° 0 min 0,000 mm 0,5 UV-I 69 W/m² 14,1 °C 16,3 °C 3,2 km/h (1 Bft)
23.07.2017 18:01 16,3 °C 16,3 °C 87 % 1014,8 hPa 0,0 mm 0,5 km/h (0 Bft) SW 231 ° 0 min 0,050 mm 0,5 UV-I 72 W/m² 14,1 °C 16,3 °C 3,2 km/h (1 Bft)
23.07.2017 18:02 16,3 °C 16,3 °C 86 % 1014,7 hPa 0,0 mm 0,0 km/h (0 Bft) SW 232 ° 0 min 0,000 mm 0,5 UV-I 77 W/m² 14,0 °C 16,3 °C 0,0 km/h (0 Bft)
23.07.2017 18:03 16,3 °C 16,3 °C 87 % 1014,7 hPa 0,0 mm 0,0 km/h (0 Bft) SW 231 ° 0 min 0,000 mm 0,6 UV-I 81 W/m² 14,1 °C 16,3 °C 0,0 km/h (0 Bft)
23.07.2017 18:04 16,3 °C 16,3 °C 87 % 1014,7 hPa 0,0 mm 0,0 km/h (0 Bft) SW 231 ° 0 min 0,000 mm 0,6 UV-I 84 W/m² 14,1 °C 16,3 °C 0,0 km/h (0 Bft)
23.07.2017 18:05 16,3 °C 16,3 °C 87 % 1014,7 hPa 0,0 mm 0,0 km/h (0 Bft) SW 232 ° 0 min 0,000 mm 0,6 UV-I 86 W/m² 14,1 °C 16,3 °C 0,0 km/h (0 Bft)
23.07.2017 18:06 16,3 °C 16,3 °C 88 % 1014,7 hPa 0,0 mm 1,9 km/h (1 Bft) SW 232 ° 0 min 0,000 mm 0,6 UV-I 88 W/m² 14,3 °C 16,3 °C 3,2 km/h (1 Bft)
23.07.2017 18:07 16,4 °C 16,4 °C 88 % 1014,7 hPa 0,0 mm 1,5 km/h (1 Bft) SW 232 ° 0 min 0,000 mm 0,6 UV-I 88 W/m² 14,4 °C 16,4 °C 3,2 km/h (1 Bft)
23.07.2017 18:08 16,4 °C 16,4 °C 88 % 1014,7 hPa 0,0 mm 0,9 km/h (0 Bft) SW 232 ° 0 min 0,000 mm 0,6 UV-I 84 W/m² 14,4 °C 16,4 °C 3,2 km/h (1 Bft)
23.07.2017 18:09 16,4 °C 16,4 °C 87 % 1014,7 hPa 0,0 mm 0,0 km/h (0 Bft) SW 232 ° 0 min 0,000 mm 0,6 UV-I 79 W/m² 14,2 °C 16,4 °C 0,0 km/h (0 Bft)
23.07.2017 18:10 16,4 °C 16,4 °C 86 % 1014,7 hPa 0,0 mm 0,2 km/h (0 Bft) SW 232 ° 0 min 0,000 mm 0,5 UV-I 65 W/m² 14,1 °C 16,4 °C 1,6 km/h (1 Bft)
23.07.2017 18:11 16,4 °C 16,4 °C 87 % 1014,7 hPa 0,0 mm 4,2 km/h (1 Bft) W-SW 254 ° 0 min 0,000 mm 0,0 UV-I 62 W/m² 14,2 °C 16,4 °C 6,4 km/h (2 Bft)
23.07.2017 18:12 16,4 °C 16,4 °C 87 % 1014,7 hPa 0,0 mm 2,3 km/h (1 Bft) W-SW 254 ° 0 min 0,000 mm 0,0 UV-I 62 W/m² 14,2 °C 16,4 °C 4,8 km/h (1 Bft)
23.07.2017 18:13 16,4 °C 16,4 °C 88 % 1014,7 hPa 0,0 mm 0,0 km/h (0 Bft) W-SW 254 ° 0 min 0,000 mm 0,0 UV-I 58 W/m² 14,4 °C 16,4 °C 0,0 km/h (0 Bft)
23.07.2017 18:14 16,4 °C 16,4 °C 86 % 1014,7 hPa 0,0 mm 0,5 km/h (0 Bft) W-SW 254 ° 0 min 0,000 mm 0,0 UV-I 53 W/m² 14,1 °C 16,4 °C 1,6 km/h (1 Bft)
23.07.2017 18:15 16,4 °C 16,4 °C 86 % 1014,7 hPa 0,0 mm 1,4 km/h (1 Bft) W-SW 254 ° 0 min 0,000 mm 0,0 UV-I 53 W/m² 14,1 °C 16,4 °C 3,2 km/h (1 Bft)
23.07.2017 18:16 16,4 °C 16,4 °C 87 % 1014,7 hPa 0,0 mm 3,1 km/h (1 Bft) SW 227 ° 0 min 0,000 mm 0,0 UV-I 54 W/m² 14,2 °C 16,4 °C 4,8 km/h (1 Bft)
23.07.2017 18:17 16,4 °C 16,4 °C 88 % 1014,7 hPa 0,0 mm 4,3 km/h (1 Bft) SW 236 ° 0 min 0,000 mm 0,0 UV-I 54 W/m² 14,4 °C 16,4 °C 6,4 km/h (2 Bft)
23.07.2017 18:18 16,4 °C 16,4 °C 88 % 1014,7 hPa 0,0 mm 1,9 km/h (1 Bft) SW 236 ° 0 min 0,000 mm 0,0 UV-I 56 W/m² 14,4 °C 16,4 °C 3,2 km/h (1 Bft)
23.07.2017 18:19 16,3 °C 16,4 °C 87 % 1014,7 hPa 0,0 mm 0,1 km/h (0 Bft) SW 236 ° 0 min 0,000 mm 0,0 UV-I 56 W/m² 14,1 °C 16,3 °C 1,6 km/h (1 Bft)
23.07.2017 18:20 16,4 °C 16,4 °C 87 % 1014,6 hPa 0,0 mm 0,0 km/h (0 Bft) SW 236 ° 0 min 0,000 mm 0,0 UV-I 54 W/m² 14,2 °C 16,4 °C 0,0 km/h (0 Bft)
23.07.2017 18:21 16,4 °C 16,4 °C 87 % 1014,7 hPa 0,0 mm 0,0 km/h (0 Bft) SW 236 ° 0 min 0,000 mm 0,0 UV-I 53 W/m² 14,2 °C 16,4 °C 0,0 km/h (0 Bft)
23.07.2017 18:22 16,3 °C 16,4 °C 86 % 1014,7 hPa 0,0 mm 1,3 km/h (1 Bft) SW 217 ° 0 min 0,000 mm 0,0 UV-I 53 W/m² 14,0 °C 16,3 °C 3,2 km/h (1 Bft)
23.07.2017 18:23 16,3 °C 16,4 °C 87 % 1014,7 hPa 0,0 mm 1,8 km/h (1 Bft) SW 217 ° 0 min 0,000 mm 0,0 UV-I 53 W/m² 14,1 °C 16,3 °C 3,2 km/h (1 Bft)
23.07.2017 18:24 16,3 °C 16,3 °C 87 % 1014,7 hPa 0,0 mm 0,6 km/h (0 Bft) SW 217 ° 0 min 0,000 mm 0,0 UV-I 51 W/m² 14,1 °C 16,3 °C 1,6 km/h (1 Bft)
23.07.2017 18:25 16,3 °C 16,3 °C 87 % 1014,7 hPa 0,0 mm 0,0 km/h (0 Bft) SW 217 ° 0 min 0,000 mm 0,0 UV-I 49 W/m² 14,1 °C 16,3 °C 0,0 km/h (0 Bft)
23.07.2017 18:26 16,3 °C 16,3 °C 86 % 1014,6 hPa 0,0 mm 0,5 km/h (0 Bft) SW 217 ° 0 min 0,000 mm 0,0 UV-I 47 W/m² 14,0 °C 16,3 °C 1,6 km/h (1 Bft)
23.07.2017 18:27 16,3 °C 16,3 °C 86 % 1014,6 hPa 0,0 mm 0,3 km/h (0 Bft) SW 217 ° 0 min 0,000 mm 0,0 UV-I 46 W/m² 14,0 °C 16,3 °C 1,6 km/h (1 Bft)
23.07.2017 18:28 16,3 °C 16,3 °C 86 % 1014,7 hPa 0,0 mm 0,9 km/h (0 Bft) SW 217 ° 0 min 0,000 mm 0,0 UV-I 47 W/m² 14,0 °C 16,3 °C 3,2 km/h (1 Bft)
23.07.2017 18:29 16,3 °C 16,3 °C 85 % 1014,6 hPa 0,0 mm 1,7 km/h (1 Bft) SW 217 ° 0 min 0,000 mm 0,0 UV-I 47 W/m² 13,8 °C 16,3 °C 3,2 km/h (1 Bft)
23.07.2017 18:30 16,3 °C 16,3 °C 86 % 1014,7 hPa 0,0 mm 0,0 km/h (0 Bft) SW 217 ° 0 min 0,000 mm 0,0 UV-I 47 W/m² 14,0 °C 16,3 °C 0,0 km/h (0 Bft)
23.07.2017 18:31 16,3 °C 16,3 °C 86 % 1014,7 hPa 0,0 mm 0,5 km/h (0 Bft) SW 217 ° 0 min 0,000 mm 0,0 UV-I 46 W/m² 14,0 °C 16,3 °C 1,6 km/h (1 Bft)
23.07.2017 18:32 16,3 °C 16,3 °C 87 % 1014,6 hPa 0,0 mm 1,4 km/h (1 Bft) SW 217 ° 0 min 0,000 mm 0,0 UV-I 44 W/m² 14,1 °C 16,3 °C 3,2 km/h (1 Bft)
23.07.2017 18:33 16,3 °C 16,3 °C 86 % 1014,7 hPa 0,0 mm 3,0 km/h (1 Bft) SW 229 ° 0 min 0,000 mm 0,0 UV-I 40 W/m² 14,0 °C 16,3 °C 4,8 km/h (1 Bft)
23.07.2017 18:34 16,3 °C 16,3 °C 86 % 1014,7 hPa 0,0 mm 0,1 km/h (0 Bft) SW 229 ° 0 min 0,000 mm 0,0 UV-I 33 W/m² 14,0 °C 16,3 °C 1,6 km/h (1 Bft)
23.07.2017 18:35 16,3 °C 16,3 °C 86 % 1014,7 hPa 0,0 mm 0,0 km/h (0 Bft) SW 229 ° 0 min 0,000 mm 0,0 UV-I 33 W/m² 14,0 °C 16,3 °C 0,0 km/h (0 Bft)
23.07.2017 18:36 16,3 °C 16,3 °C 86 % 1014,7 hPa 0,0 mm 1,5 km/h (1 Bft) SW 229 ° 0 min 0,000 mm 0,0 UV-I 33 W/m² 14,0 °C 16,3 °C 3,2 km/h (1 Bft)
23.07.2017 18:37 16,3 °C 16,3 °C 86 % 1014,8 hPa 0,0 mm 2,9 km/h (1 Bft) W-SW 238 ° 0 min 0,000 mm 0,0 UV-I 32 W/m² 14,0 °C 16,3 °C 4,8 km/h (1 Bft)
23.07.2017 18:38 16,3 °C 16,3 °C 85 % 1014,8 hPa 0,0 mm 1,5 km/h (1 Bft) W-SW 238 ° 0 min 0,000 mm 0,0 UV-I 32 W/m² 13,8 °C 16,3 °C 3,2 km/h (1 Bft)
23.07.2017 18:39 16,3 °C 16,3 °C 85 % 1014,8 hPa 0,0 mm 0,2 km/h (0 Bft) W-SW 238 ° 0 min 0,000 mm 0,0 UV-I 32 W/m² 13,8 °C 16,3 °C 1,6 km/h (1 Bft)
23.07.2017 18:40 16,3 °C 16,3 °C 85 % 1014,8 hPa 0,0 mm 0,0 km/h (0 Bft) W-SW 238 ° 0 min 0,000 mm 0,0 UV-I 32 W/m² 13,8 °C 16,3 °C 0,0 km/h (0 Bft)
23.07.2017 18:41 16,3 °C 16,3 °C 86 % 1014,8 hPa 0,0 mm 1,7 km/h (1 Bft) W-SW 238 ° 0 min 0,000 mm 0,0 UV-I 32 W/m² 14,0 °C 16,3 °C 3,2 km/h (1 Bft)
23.07.2017 18:42 16,2 °C 16,3 °C 86 % 1014,8 hPa 0,0 mm 1,5 km/h (1 Bft) W-SW 251 ° 0 min 0,000 mm 0,0 UV-I 30 W/m² 13,9 °C 16,2 °C 4,8 km/h (1 Bft)
23.07.2017 18:43 16,3 °C 16,3 °C 86 % 1014,8 hPa 0,0 mm 2,9 km/h (1 Bft) S-SW 192 ° 0 min 0,000 mm 0,0 UV-I 30 W/m² 14,0 °C 16,3 °C 6,4 km/h (2 Bft)
23.07.2017 18:44 16,2 °C 16,3 °C 86 % 1014,8 hPa 0,0 mm 2,1 km/h (1 Bft) S-SW 193 ° 0 min 0,000 mm 0,0 UV-I 28 W/m² 13,9 °C 16,2 °C 4,8 km/h (1 Bft)
23.07.2017 18:45 16,2 °C 16,2 °C 86 % 1014,7 hPa 0,0 mm 0,5 km/h (0 Bft) S-SW 193 ° 0 min 0,000 mm 0,0 UV-I 25 W/m² 13,9 °C 16,2 °C 1,6 km/h (1 Bft)
23.07.2017 18:46 16,2 °C 16,2 °C 85 % 1014,8 hPa 0,0 mm 2,1 km/h (1 Bft) W-SW 237 ° 0 min 0,000 mm 0,0 UV-I 23 W/m² 13,7 °C 16,2 °C 4,8 km/h (1 Bft)
23.07.2017 18:47 16,2 °C 16,2 °C 86 % 1014,7 hPa 0,0 mm 1,9 km/h (1 Bft) W-SW 237 ° 0 min 0,000 mm 0,0 UV-I 26 W/m² 13,9 °C 16,2 °C 3,2 km/h (1 Bft)
23.07.2017 18:48 16,2 °C 16,2 °C 85 % 1014,8 hPa 0,0 mm 0,0 km/h (0 Bft) W-SW 237 ° 0 min 0,000 mm 0,0 UV-I 32 W/m² 13,7 °C 16,2 °C 0,0 km/h (0 Bft)
23.07.2017 18:49 16,1 °C 16,2 °C 85 % 1014,8 hPa 0,0 mm 0,0 km/h (0 Bft) W-SW 237 ° 0 min 0,000 mm 0,0 UV-I 35 W/m² 13,6 °C 16,1 °C 0,0 km/h (0 Bft)
23.07.2017 18:50 16,2 °C 16,2 °C 85 % 1014,7 hPa 0,0 mm 0,7 km/h (0 Bft) W-SW 237 ° 0 min 0,000 mm 0,0 UV-I 33 W/m² 13,7 °C 16,2 °C 1,6 km/h (1 Bft)
23.07.2017 18:51 16,2 °C 16,2 °C 85 % 1014,7 hPa 0,0 mm 0,2 km/h (0 Bft) W-SW 237 ° 0 min 0,000 mm 0,0 UV-I 30 W/m² 13,7 °C 16,2 °C 1,6 km/h (1 Bft)
23.07.2017 18:52 16,2 °C 16,2 °C 86 % 1014,7 hPa 0,0 mm 0,0 km/h (0 Bft) W-SW 237 ° 0 min 0,000 mm 0,0 UV-I 28 W/m² 13,9 °C 16,2 °C 0,0 km/h (0 Bft)
23.07.2017 18:53 16,1 °C 16,2 °C 88 % 1014,7 hPa 0,0 mm 0,0 km/h (0 Bft) W-SW 237 ° 0 min 0,000 mm 0,0 UV-I 28 W/m² 14,1 °C 16,1 °C 0,0 km/h (0 Bft)
23.07.2017 18:54 16,1 °C 16,1 °C 86 % 1014,7 hPa 0,0 mm 0,0 km/h (0 Bft) W-SW 237 ° 0 min 0,000 mm 0,0 UV-I 26 W/m² 13,8 °C 16,1 °C 0,0 km/h (0 Bft)
23.07.2017 18:55 16,1 °C 16,1 °C 86 % 1014,7 hPa 0,0 mm 0,1 km/h (0 Bft) W-SW 237 ° 0 min 0,000 mm 0,0 UV-I 26 W/m² 13,8 °C 16,1 °C 1,6 km/h (1 Bft)
23.07.2017 18:56 16,1 °C 16,1 °C 86 % 1014,6 hPa 0,0 mm 0,1 km/h (0 Bft) W-SW 237 ° 0 min 0,000 mm 0,0 UV-I 26 W/m² 13,8 °C 16,1 °C 1,6 km/h (1 Bft)
23.07.2017 18:57 16,1 °C 16,1 °C 86 % 1014,6 hPa 0,0 mm 0,0 km/h (0 Bft) W-SW 237 ° 0 min 0,000 mm 0,0 UV-I 30 W/m² 13,8 °C 16,1 °C 0,0 km/h (0 Bft)
23.07.2017 18:58 16,0 °C 16,1 °C 86 % 1014,7 hPa 0,0 mm 0,0 km/h (0 Bft) W-SW 237 ° 0 min 0,000 mm 0,0 UV-I 33 W/m² 13,7 °C 16,0 °C 0,0 km/h (0 Bft)
23.07.2017 18:59 16,0 °C 16,1 °C 86 % 1014,6 hPa 0,0 mm 0,0 km/h (0 Bft) W-SW 237 ° 0 min 0,000 mm 0,0 UV-I 35 W/m² 13,7 °C 16,0 °C 0,0 km/h (0 Bft)
23.07.2017 19:00 16,0 °C 16,1 °C 86 % 1014,5 hPa 0,0 mm 0,0 km/h (0 Bft) W-SW 237 ° 0 min 0,000 mm 0,0 UV-I 37 W/m² 13,7 °C 16,0 °C 0,0 km/h (0 Bft)
23.07.2017 19:01 16,0 °C 16,0 °C 88 % 1014,6 hPa 0,0 mm 0,0 km/h (0 Bft) W-SW 237 ° 0 min 0,026 mm 0,0 UV-I 35 W/m² 14,0 °C 16,0 °C 0,0 km/h (0 Bft)
23.07.2017 19:02 15,9 °C 16,0 °C 89 % 1014,6 hPa 0,0 mm 0,5 km/h (0 Bft) W-SW 237 ° 0 min 0,000 mm 0,0 UV-I 33 W/m² 14,1 °C 15,9 °C 1,6 km/h (1 Bft)
23.07.2017 19:03 15,9 °C 15,9 °C 88 % 1014,6 hPa 0,0 mm 0,0 km/h (0 Bft) W-SW 237 ° 0 min 0,000 mm 0,0 UV-I 32 W/m² 13,9 °C 15,9 °C 0,0 km/h (0 Bft)
23.07.2017 19:04 15,8 °C 15,9 °C 88 % 1014,6 hPa 0,0 mm 0,0 km/h (0 Bft) W-SW 237 ° 0 min 0,000 mm 0,0 UV-I 33 W/m² 13,8 °C 15,8 °C 0,0 km/h (0 Bft)
23.07.2017 19:05 15,8 °C 15,8 °C 89 % 1014,5 hPa 0,0 mm 0,0 km/h (0 Bft) W-SW 237 ° 0 min 0,000 mm 0,0 UV-I 39 W/m² 14,0 °C 15,8 °C 0,0 km/h (0 Bft)
23.07.2017 19:06 15,8 °C 15,8 °C 89 % 1014,5 hPa 0,0 mm 0,0 km/h (0 Bft) W-SW 237 ° 0 min 0,000 mm 0,0 UV-I 40 W/m² 14,0 °C 15,8 °C 0,0 km/h (0 Bft)
23.07.2017 19:07 15,8 °C 15,8 °C 89 % 1014,5 hPa 0,0 mm 0,0 km/h (0 Bft) W-SW 237 ° 0 min 0,000 mm 0,0 UV-I 42 W/m² 14,0 °C 15,8 °C 0,0 km/h (0 Bft)
23.07.2017 19:08 15,8 °C 15,8 °C 89 % 1014,5 hPa 0,0 mm 0,0 km/h (0 Bft) W-SW 237 ° 0 min 0,000 mm 0,0 UV-I 44 W/m² 14,0 °C 15,8 °C 0,0 km/h (0 Bft)
23.07.2017 19:09 15,7 °C 15,8 °C 89 % 1014,5 hPa 0,0 mm 0,0 km/h (0 Bft) W-SW 237 ° 0 min 0,000 mm 0,0 UV-I 49 W/m² 13,9 °C 15,7 °C 0,0 km/h (0 Bft)
23.07.2017 19:10 15,7 °C 15,8 °C 89 % 1014,5 hPa 0,0 mm 0,0 km/h (0 Bft) W-SW 237 ° 0 min 0,000 mm 0,0 UV-I 51 W/m² 13,9 °C 15,7 °C 0,0 km/h (0 Bft)
23.07.2017 19:11 15,7 °C 15,8 °C 89 % 1014,5 hPa 0,0 mm 0,0 km/h (0 Bft) W-SW 237 ° 0 min 0,000 mm 0,0 UV-I 47 W/m² 13,9 °C 15,7 °C 0,0 km/h (0 Bft)
23.07.2017 19:12 15,8 °C 15,8 °C 89 % 1014,5 hPa 0,0 mm 0,0 km/h (0 Bft) W-SW 237 ° 0 min 0,000 mm 0,0 UV-I 44 W/m² 14,0 °C 15,8 °C 0,0 km/h (0 Bft)
23.07.2017 19:13 15,8 °C 15,8 °C 89 % 1014,5 hPa 0,0 mm 0,0 km/h (0 Bft) W-SW 237 ° 0 min 0,000 mm 0,0 UV-I 40 W/m² 14,0 °C 15,8 °C 0,0 km/h (0 Bft)
23.07.2017 19:14 15,7 °C 15,8 °C 89 % 1014,5 hPa 0,0 mm 0,0 km/h (0 Bft) W-SW 237 ° 0 min 0,000 mm 0,0 UV-I 37 W/m² 13,9 °C 15,7 °C 0,0 km/h (0 Bft)
23.07.2017 19:15 15,7 °C 15,7 °C 89 % 1014,5 hPa 0,0 mm 0,0 km/h (0 Bft) W-SW 237 ° 0 min 0,000 mm 0,0 UV-I 28 W/m² 13,9 °C 15,7 °C 0,0 km/h (0 Bft)
23.07.2017 19:16 15,7 °C 15,7 °C 89 % 1014,6 hPa 0,0 mm 0,0 km/h (0 Bft) W-SW 237 ° 0 min 0,000 mm 0,0 UV-I 26 W/m² 13,9 °C 15,7 °C 0,0 km/h (0 Bft)
23.07.2017 19:17 15,7 °C 15,7 °C 89 % 1014,6 hPa 0,0 mm 0,0 km/h (0 Bft) W-SW 237 ° 0 min 0,000 mm 0,0 UV-I 26 W/m² 13,9 °C 15,7 °C 0,0 km/h (0 Bft)
23.07.2017 19:18 15,7 °C 15,7 °C 89 % 1014,5 hPa 0,0 mm 0,0 km/h (0 Bft) W-SW 237 ° 0 min 0,000 mm 0,0 UV-I 30 W/m² 13,9 °C 15,7 °C 0,0 km/h (0 Bft)
23.07.2017 19:19 15,6 °C 15,7 °C 88 % 1014,5 hPa 0,0 mm 0,0 km/h (0 Bft) W-SW 237 ° 0 min 0,000 mm 0,0 UV-I 30 W/m² 13,6 °C 15,6 °C 0,0 km/h (0 Bft)
23.07.2017 19:20 15,7 °C 15,7 °C 88 % 1014,6 hPa 0,0 mm 0,0 km/h (0 Bft) W-SW 237 ° 0 min 0,000 mm 0,0 UV-I 28 W/m² 13,7 °C 15,7 °C 0,0 km/h (0 Bft)
23.07.2017 19:21 15,7 °C 15,7 °C 88 % 1014,6 hPa 0,0 mm 0,5 km/h (0 Bft) W-SW 237 ° 0 min 0,000 mm 0,0 UV-I 21 W/m² 13,7 °C 15,7 °C 1,6 km/h (1 Bft)
23.07.2017 19:22 15,7 °C 15,7 °C 89 % 1014,6 hPa 0,0 mm 0,0 km/h (0 Bft) W-SW 237 ° 0 min 0,000 mm 0,0 UV-I 19 W/m² 13,9 °C 15,7 °C 0,0 km/h (0 Bft)
23.07.2017 19:23 15,6 °C 15,7 °C 89 % 1014,6 hPa 0,0 mm 0,0 km/h (0 Bft) W-SW 237 ° 0 min 0,000 mm 0,0 UV-I 18 W/m² 13,8 °C 15,6 °C 0,0 km/h (0 Bft)
23.07.2017 19:24 15,6 °C 15,7 °C 89 % 1014,6 hPa 0,0 mm 0,0 km/h (0 Bft) W-SW 237 ° 0 min 0,000 mm 0,0 UV-I 14 W/m² 13,8 °C 15,6 °C 0,0 km/h (0 Bft)
23.07.2017 19:25 15,6 °C 15,6 °C 88 % 1014,6 hPa 0,0 mm 0,0 km/h (0 Bft) W-SW 237 ° 0 min 0,000 mm 0,0 UV-I 12 W/m² 13,6 °C 15,6 °C 0,0 km/h (0 Bft)
23.07.2017 19:26 15,6 °C 15,6 °C 88 % 1014,6 hPa 0,0 mm 0,0 km/h (0 Bft) W-SW 237 ° 0 min 0,000 mm 0,0 UV-I 11 W/m² 13,6 °C 15,6 °C 0,0 km/h (0 Bft)
23.07.2017 19:27 15,6 °C 15,6 °C 86 % 1014,6 hPa 0,0 mm 0,0 km/h (0 Bft) W-SW 237 ° 0 min 0,000 mm 0,0 UV-I 9 W/m² 13,3 °C 15,6 °C 0,0 km/h (0 Bft)
23.07.2017 19:28 15,7 °C 15,7 °C 86 % 1014,5 hPa 0,0 mm 0,0 km/h (0 Bft) W-SW 237 ° 0 min 0,000 mm 0,0 UV-I 9 W/m² 13,4 °C 15,7 °C 0,0 km/h (0 Bft)
23.07.2017 19:29 15,7 °C 15,7 °C 88 % 1014,6 hPa 0,0 mm 0,0 km/h (0 Bft) W-SW 237 ° 0 min 0,000 mm 0,0 UV-I 9 W/m² 13,7 °C 15,7 °C 0,0 km/h (0 Bft)
23.07.2017 19:30 15,7 °C 15,7 °C 88 % 1014,6 hPa 0,0 mm 0,0 km/h (0 Bft) W-SW 237 ° 0 min 0,000 mm 0,0 UV-I 9 W/m² 13,7 °C 15,7 °C 0,0 km/h (0 Bft)
23.07.2017 19:31 15,7 °C 15,7 °C 88 % 1014,6 hPa 0,0 mm 0,0 km/h (0 Bft) W-SW 237 ° 0 min 0,000 mm 0,0 UV-I 11 W/m² 13,7 °C 15,7 °C 0,0 km/h (0 Bft)
23.07.2017 19:32 15,6 °C 15,7 °C 86 % 1014,6 hPa 0,0 mm 0,0 km/h (0 Bft) W-SW 237 ° 0 min 0,000 mm 0,0 UV-I 12 W/m² 13,3 °C 15,6 °C 0,0 km/h (0 Bft)
23.07.2017 19:33 15,7 °C 15,7 °C 86 % 1014,6 hPa 0,0 mm 0,0 km/h (0 Bft) W-SW 237 ° 0 min 0,000 mm 0,0 UV-I 14 W/m² 13,4 °C 15,7 °C 0,0 km/h (0 Bft)
23.07.2017 19:34 15,7 °C 15,7 °C 86 % 1014,6 hPa 0,0 mm 0,0 km/h (0 Bft) W-SW 237 ° 0 min 0,000 mm 0,0 UV-I 16 W/m² 13,4 °C 15,7 °C 0,0 km/h (0 Bft)
23.07.2017 19:35 15,7 °C 15,7 °C 86 % 1014,7 hPa 0,0 mm 0,0 km/h (0 Bft) W-SW 237 ° 0 min 0,000 mm 0,0 UV-I 16 W/m² 13,4 °C 15,7 °C 0,0 km/h (0 Bft)
23.07.2017 19:36 15,8 °C 15,8 °C 86 % 1014,6 hPa 0,0 mm 0,0 km/h (0 Bft) W-SW 237 ° 0 min 0,000 mm 0,0 UV-I 14 W/m² 13,5 °C 15,8 °C 0,0 km/h (0 Bft)
23.07.2017 19:37 15,8 °C 15,8 °C 86 % 1014,6 hPa 0,0 mm 0,0 km/h (0 Bft) W-SW 237 ° 0 min 0,000 mm 0,0 UV-I 14 W/m² 13,5 °C 15,8 °C 0,0 km/h (0 Bft)
23.07.2017 19:39 15,7 °C 15,8 °C 86 % 1014,6 hPa 0,0 mm 0,0 km/h (0 Bft) SW 236 ° 0 min 0,000 mm 0,0 UV-I 16 W/m² 13,4 °C 15,7 °C 0,0 km/h (0 Bft)
23.07.2017 19:40 15,6 °C 15,7 °C 86 % 1014,6 hPa 0,0 mm 0,0 km/h (0 Bft) SW 236 ° 0 min 0,000 mm 0,0 UV-I 16 W/m² 13,3 °C 15,6 °C 0,0 km/h (0 Bft)
23.07.2017 19:41 15,6 °C 15,6 °C 87 % 1014,6 hPa 0,0 mm 0,0 km/h (0 Bft) SW 236 ° 0 min 0,000 mm 0,0 UV-I 16 W/m² 13,4 °C 15,6 °C 0,0 km/h (0 Bft)
23.07.2017 19:42 15,5 °C 15,6 °C 87 % 1014,6 hPa 0,0 mm 0,0 km/h (0 Bft) SW 236 ° 0 min 0,000 mm 0,0 UV-I 16 W/m² 13,3 °C 15,5 °C 0,0 km/h (0 Bft)
23.07.2017 19:43 15,4 °C 15,5 °C 87 % 1014,6 hPa 0,0 mm 0,0 km/h (0 Bft) SW 236 ° 0 min 0,000 mm 0,0 UV-I 18 W/m² 13,2 °C 15,4 °C 0,0 km/h (0 Bft)
23.07.2017 19:44 15,4 °C 15,4 °C 87 % 1014,6 hPa 0,0 mm 0,0 km/h (0 Bft) SW 236 ° 0 min 0,000 mm 0,0 UV-I 18 W/m² 13,2 °C 15,4 °C 0,0 km/h (0 Bft)
23.07.2017 19:45 15,4 °C 15,4 °C 88 % 1014,6 hPa 0,0 mm 0,0 km/h (0 Bft) SW 236 ° 0 min 0,000 mm 0,0 UV-I 16 W/m² 13,4 °C 15,4 °C 0,0 km/h (0 Bft)
23.07.2017 19:46 15,4 °C 15,4 °C 88 % 1014,6 hPa 0,0 mm 0,0 km/h (0 Bft) SW 236 ° 0 min 0,000 mm 0,0 UV-I 16 W/m² 13,4 °C 15,4 °C 0,0 km/h (0 Bft)
23.07.2017 19:47 15,4 °C 15,4 °C 87 % 1014,7 hPa 0,0 mm 0,0 km/h (0 Bft) SW 236 ° 0 min 0,000 mm 0,0 UV-I 14 W/m² 13,2 °C 15,4 °C 0,0 km/h (0 Bft)
23.07.2017 19:48 15,3 °C 15,4 °C 87 % 1014,6 hPa 0,0 mm 0,0 km/h (0 Bft) SW 236 ° 0 min 0,000 mm 0,0 UV-I 16 W/m² 13,1 °C 15,3 °C 0,0 km/h (0 Bft)
23.07.2017 19:49 15,3 °C 15,4 °C 87 % 1014,6 hPa 0,0 mm 0,0 km/h (0 Bft) SW 236 ° 0 min 0,000 mm 0,0 UV-I 16 W/m² 13,1 °C 15,3 °C 0,0 km/h (0 Bft)
23.07.2017 19:50 15,4 °C 15,4 °C 88 % 1014,6 hPa 0,0 mm 0,0 km/h (0 Bft) SW 236 ° 0 min 0,000 mm 0,0 UV-I 18 W/m² 13,4 °C 15,4 °C 0,0 km/h (0 Bft)
23.07.2017 19:51 15,4 °C 15,4 °C 87 % 1014,6 hPa 0,0 mm 0,0 km/h (0 Bft) SW 236 ° 0 min 0,000 mm 0,0 UV-I 18 W/m² 13,2 °C 15,4 °C 0,0 km/h (0 Bft)
23.07.2017 19:52 15,4 °C 15,4 °C 87 % 1014,7 hPa 0,0 mm 0,0 km/h (0 Bft) SW 236 ° 0 min 0,000 mm 0,0 UV-I 16 W/m² 13,2 °C 15,4 °C 0,0 km/h (0 Bft)
23.07.2017 19:53 15,4 °C 15,4 °C 87 % 1014,6 hPa 0,0 mm 0,0 km/h (0 Bft) SW 236 ° 0 min 0,000 mm 0,0 UV-I 16 W/m² 13,2 °C 15,4 °C 0,0 km/h (0 Bft)
23.07.2017 19:54 15,3 °C 15,4 °C 88 % 1014,6 hPa 0,0 mm 0,0 km/h (0 Bft) SW 236 ° 0 min 0,000 mm 0,0 UV-I 18 W/m² 13,3 °C 15,3 °C 0,0 km/h (0 Bft)
23.07.2017 19:55 15,3 °C 15,3 °C 88 % 1014,6 hPa 0,0 mm 0,0 km/h (0 Bft) SW 236 ° 0 min 0,000 mm 0,0 UV-I 18 W/m² 13,3 °C 15,3 °C 0,0 km/h (0 Bft)
23.07.2017 19:56 15,3 °C 15,3 °C 87 % 1014,6 hPa 0,0 mm 0,0 km/h (0 Bft) SW 236 ° 0 min 0,000 mm 0,0 UV-I 18 W/m² 13,1 °C 15,3 °C 0,0 km/h (0 Bft)
23.07.2017 19:57 15,3 °C 15,3 °C 87 % 1014,6 hPa 0,0 mm 0,0 km/h (0 Bft) SW 236 ° 0 min 0,000 mm 0,0 UV-I 18 W/m² 13,1 °C 15,3 °C 0,0 km/h (0 Bft)
23.07.2017 19:58 15,3 °C 15,3 °C 87 % 1014,6 hPa 0,0 mm 0,0 km/h (0 Bft) SW 236 ° 0 min 0,000 mm 0,0 UV-I 18 W/m² 13,1 °C 15,3 °C 0,0 km/h (0 Bft)
23.07.2017 19:59 15,3 °C 15,3 °C 88 % 1014,5 hPa 0,0 mm 0,0 km/h (0 Bft) SW 236 ° 0 min 0,000 mm 0,0 UV-I 18 W/m² 13,3 °C 15,3 °C 0,0 km/h (0 Bft)
23.07.2017 20:00 15,3 °C 15,3 °C 89 % 1014,5 hPa 0,0 mm 0,0 km/h (0 Bft) SW 236 ° 0 min 0,000 mm 0,0 UV-I 19 W/m² 13,5 °C 15,3 °C 0,0 km/h (0 Bft)
23.07.2017 20:01 15,3 °C 15,3 °C 89 % 1014,5 hPa 0,0 mm 0,0 km/h (0 Bft) SW 236 ° 0 min 0,025 mm 0,0 UV-I 19 W/m² 13,5 °C 15,3 °C 0,0 km/h (0 Bft)
23.07.2017 20:02 15,3 °C 15,3 °C 89 % 1014,5 hPa 0,0 mm 0,0 km/h (0 Bft) SW 236 ° 0 min 0,000 mm 0,0 UV-I 18 W/m² 13,5 °C 15,3 °C 0,0 km/h (0 Bft)
23.07.2017 20:04 15,3 °C 15,3 °C 89 % 1014,5 hPa 0,0 mm 0,0 km/h (0 Bft) SW 236 ° 0 min 0,000 mm 0,0 UV-I 11 W/m² 13,5 °C 15,3 °C 0,0 km/h (0 Bft)
23.07.2017 20:05 15,3 °C 15,3 °C 89 % 1014,5 hPa 0,0 mm 0,0 km/h (0 Bft) SW 236 ° 0 min 0,000 mm 0,0 UV-I 9 W/m² 13,5 °C 15,3 °C 0,0 km/h (0 Bft)
23.07.2017 20:06 15,3 °C 15,3 °C 89 % 1014,5 hPa 0,0 mm 0,0 km/h (0 Bft) SW 236 ° 0 min 0,000 mm 0,0 UV-I 9 W/m² 13,5 °C 15,3 °C 0,0 km/h (0 Bft)
23.07.2017 20:07 15,3 °C 15,3 °C 89 % 1014,5 hPa 0,0 mm 0,0 km/h (0 Bft) SW 236 ° 0 min 0,000 mm 0,0 UV-I 12 W/m² 13,5 °C 15,3 °C 0,0 km/h (0 Bft)
23.07.2017 20:08 15,3 °C 15,3 °C 89 % 1014,5 hPa 0,0 mm 0,0 km/h (0 Bft) SW 236 ° 0 min 0,000 mm 0,0 UV-I 12 W/m² 13,5 °C 15,3 °C 0,0 km/h (0 Bft)
23.07.2017 20:09 15,3 °C 15,3 °C 89 % 1014,5 hPa 0,0 mm 0,0 km/h (0 Bft) SW 236 ° 0 min 0,000 mm 0,0 UV-I 12 W/m² 13,5 °C 15,3 °C 0,0 km/h (0 Bft)
23.07.2017 20:10 15,3 °C 15,3 °C 89 % 1014,5 hPa 0,0 mm 0,0 km/h (0 Bft) SW 236 ° 0 min 0,000 mm 0,0 UV-I 14 W/m² 13,5 °C 15,3 °C 0,0 km/h (0 Bft)
23.07.2017 20:11 15,3 °C 15,3 °C 88 % 1014,5 hPa 0,0 mm 0,0 km/h (0 Bft) SW 236 ° 0 min 0,000 mm 0,0 UV-I 14 W/m² 13,3 °C 15,3 °C 0,0 km/h (0 Bft)
23.07.2017 20:12 15,3 °C 15,3 °C 89 % 1014,5 hPa 0,0 mm 0,0 km/h (0 Bft) SW 236 ° 0 min 0,000 mm 0,0 UV-I 14 W/m² 13,5 °C 15,3 °C 0,0 km/h (0 Bft)
23.07.2017 20:13 15,3 °C 15,3 °C 88 % 1014,5 hPa 0,0 mm 0,0 km/h (0 Bft) SW 236 ° 0 min 0,000 mm 0,0 UV-I 12 W/m² 13,3 °C 15,3 °C 0,0 km/h (0 Bft)
23.07.2017 20:14 15,3 °C 15,3 °C 89 % 1014,5 hPa 0,0 mm 0,0 km/h (0 Bft) SW 236 ° 0 min 0,000 mm 0,0 UV-I 12 W/m² 13,5 °C 15,3 °C 0,0 km/h (0 Bft)
23.07.2017 20:15 15,3 °C 15,3 °C 89 % 1014,5 hPa 0,0 mm 0,0 km/h (0 Bft) SW 236 ° 0 min 0,000 mm 0,0 UV-I 12 W/m² 13,5 °C 15,3 °C 0,0 km/h (0 Bft)
23.07.2017 20:16 15,3 °C 15,3 °C 88 % 1014,6 hPa 0,0 mm 0,0 km/h (0 Bft) SW 236 ° 0 min 0,000 mm 0,0 UV-I 11 W/m² 13,3 °C 15,3 °C 0,0 km/h (0 Bft)
23.07.2017 20:17 15,3 °C 15,3 °C 89 % 1014,5 hPa 0,0 mm 0,0 km/h (0 Bft) SW 236 ° 0 min 0,000 mm 0,0 UV-I 11 W/m² 13,5 °C 15,3 °C 0,0 km/h (0 Bft)
23.07.2017 20:19 15,3 °C 15,3 °C 89 % 1014,5 hPa 0,0 mm 0,0 km/h (0 Bft) SW 236 ° 0 min 0,000 mm 0,0 UV-I 7 W/m² 13,5 °C 15,3 °C 0,0 km/h (0 Bft)
23.07.2017 20:20 15,3 °C 15,3 °C 88 % 1014,5 hPa 0,0 mm 0,0 km/h (0 Bft) SW 236 ° 0 min 0,000 mm 0,0 UV-I 7 W/m² 13,3 °C 15,3 °C 0,0 km/h (0 Bft)
23.07.2017 20:21 15,3 °C 15,3 °C 89 % 1014,5 hPa 0,0 mm 0,0 km/h (0 Bft) SW 236 ° 0 min 0,000 mm 0,0 UV-I 7 W/m² 13,5 °C 15,3 °C 0,0 km/h (0 Bft)
23.07.2017 20:22 15,3 °C 15,3 °C 89 % 1014,5 hPa 0,0 mm 0,0 km/h (0 Bft) SW 236 ° 0 min 0,000 mm 0,0 UV-I 7 W/m² 13,5 °C 15,3 °C 0,0 km/h (0 Bft)
23.07.2017 20:23 15,3 °C 15,3 °C 89 % 1014,5 hPa 0,0 mm 0,0 km/h (0 Bft) SW 236 ° 0 min 0,000 mm 0,0 UV-I 7 W/m² 13,5 °C 15,3 °C 0,0 km/h (0 Bft)
23.07.2017 20:24 15,3 °C 15,3 °C 90 % 1014,5 hPa 0,0 mm 0,0 km/h (0 Bft) SW 236 ° 0 min 0,000 mm 0,0 UV-I 7 W/m² 13,7 °C 15,3 °C 0,0 km/h (0 Bft)
23.07.2017 20:25 15,3 °C 15,3 °C 89 % 1014,5 hPa 0,0 mm 0,0 km/h (0 Bft) SW 236 ° 0 min 0,000 mm 0,0 UV-I 5 W/m² 13,5 °C 15,3 °C 0,0 km/h (0 Bft)
23.07.2017 20:26 15,3 °C 15,3 °C 89 % 1014,5 hPa 0,0 mm 0,0 km/h (0 Bft) SW 236 ° 0 min 0,000 mm 0,0 UV-I 5 W/m² 13,5 °C 15,3 °C 0,0 km/h (0 Bft)
23.07.2017 20:27 15,2 °C 15,3 °C 89 % 1014,5 hPa 0,0 mm 0,0 km/h (0 Bft) SW 236 ° 0 min 0,000 mm 0,0 UV-I 5 W/m² 13,4 °C 15,2 °C 0,0 km/h (0 Bft)
23.07.2017 20:28 15,2 °C 15,2 °C 88 % 1014,5 hPa 0,0 mm 0,0 km/h (0 Bft) SW 236 ° 0 min 0,000 mm 0,0 UV-I 5 W/m² 13,2 °C 15,2 °C 0,0 km/h (0 Bft)
23.07.2017 20:29 15,2 °C 15,2 °C 88 % 1014,5 hPa 0,0 mm 0,0 km/h (0 Bft) SW 236 ° 0 min 0,000 mm 0,0 UV-I 5 W/m² 13,2 °C 15,2 °C 0,0 km/h (0 Bft)
23.07.2017 20:30 15,2 °C 15,2 °C 88 % 1014,5 hPa 0,0 mm 0,0 km/h (0 Bft) SW 236 ° 0 min 0,000 mm 0,0 UV-I 5 W/m² 13,2 °C 15,2 °C 0,0 km/h (0 Bft)
23.07.2017 20:31 15,2 °C 15,2 °C 88 % 1014,5 hPa 0,0 mm 0,0 km/h (0 Bft) SW 236 ° 0 min 0,000 mm 0,0 UV-I 5 W/m² 13,2 °C 15,2 °C 0,0 km/h (0 Bft)
23.07.2017 20:32 15,2 °C 15,2 °C 88 % 1014,5 hPa 0,0 mm 0,0 km/h (0 Bft) SW 236 ° 0 min 0,000 mm 0,0 UV-I 5 W/m² 13,2 °C 15,2 °C 0,0 km/h (0 Bft)
23.07.2017 20:33 15,2 °C 15,2 °C 88 % 1014,5 hPa 0,0 mm 0,0 km/h (0 Bft) SW 236 ° 0 min 0,000 mm 0,0 UV-I 5 W/m² 13,2 °C 15,2 °C 0,0 km/h (0 Bft)
23.07.2017 20:34 15,2 °C 15,2 °C 89 % 1014,5 hPa 0,0 mm 0,0 km/h (0 Bft) SW 236 ° 0 min 0,000 mm 0,0 UV-I 5 W/m² 13,4 °C 15,2 °C 0,0 km/h (0 Bft)
23.07.2017 20:35 15,2 °C 15,2 °C 89 % 1014,5 hPa 0,0 mm 0,0 km/h (0 Bft) SW 236 ° 0 min 0,000 mm 0,0 UV-I 5 W/m² 13,4 °C 15,2 °C 0,0 km/h (0 Bft)
23.07.2017 20:36 15,2 °C 15,2 °C 88 % 1014,5 hPa 0,0 mm 0,0 km/h (0 Bft) SW 236 ° 0 min 0,000 mm 0,0 UV-I 0 W/m² 13,2 °C 15,2 °C 0,0 km/h (0 Bft)
23.07.2017 20:37 15,2 °C 15,2 °C 88 % 1014,5 hPa 0,0 mm 0,0 km/h (0 Bft) SW 236 ° 0 min 0,000 mm 0,0 UV-I 0 W/m² 13,2 °C 15,2 °C 0,0 km/h (0 Bft)
23.07.2017 20:38 15,3 °C 15,3 °C 88 % 1014,5 hPa 0,0 mm 0,0 km/h (0 Bft) SW 236 ° 0 min 0,000 mm 0,0 UV-I 0 W/m² 13,3 °C 15,3 °C 0,0 km/h (0 Bft)
23.07.2017 20:39 15,3 °C 15,3 °C 88 % 1014,5 hPa 0,0 mm 0,0 km/h (0 Bft) SW 236 ° 0 min 0,000 mm 0,0 UV-I 0 W/m² 13,3 °C 15,3 °C 0,0 km/h (0 Bft)
23.07.2017 20:40 15,3 °C 15,3 °C 88 % 1014,5 hPa 0,0 mm 0,0 km/h (0 Bft) SW 236 ° 0 min 0,000 mm 0,0 UV-I 0 W/m² 13,3 °C 15,3 °C 0,0 km/h (0 Bft)
23.07.2017 20:41 15,3 °C 15,3 °C 89 % 1014,5 hPa 0,0 mm 0,0 km/h (0 Bft) SW 236 ° 0 min 0,000 mm 0,0 UV-I 0 W/m² 13,5 °C 15,3 °C 0,0 km/h (0 Bft)
23.07.2017 20:42 15,2 °C 15,3 °C 89 % 1014,5 hPa 0,0 mm 0,0 km/h (0 Bft) SW 236 ° 0 min 0,000 mm 0,0 UV-I 0 W/m² 13,4 °C 15,2 °C 0,0 km/h (0 Bft)
23.07.2017 20:43 15,2 °C 15,2 °C 89 % 1014,5 hPa 0,0 mm 0,0 km/h (0 Bft) SW 236 ° 0 min 0,000 mm 0,0 UV-I 0 W/m² 13,4 °C 15,2 °C 0,0 km/h (0 Bft)
23.07.2017 20:44 15,2 °C 15,2 °C 89 % 1014,5 hPa 0,0 mm 0,0 km/h (0 Bft) SW 236 ° 0 min 0,000 mm 0,0 UV-I 0 W/m² 13,4 °C 15,2 °C 0,0 km/h (0 Bft)
23.07.2017 20:45 15,2 °C 15,3 °C 89 % 1014,5 hPa 0,0 mm 0,0 km/h (0 Bft) SW 236 ° 0 min 0,000 mm 0,0 UV-I 0 W/m² 13,4 °C 15,2 °C 0,0 km/h (0 Bft)
23.07.2017 20:46 15,3 °C 15,3 °C 89 % 1014,5 hPa 0,0 mm 0,0 km/h (0 Bft) SW 236 ° 0 min 0,000 mm 0,0 UV-I 0 W/m² 13,5 °C 15,3 °C 0,0 km/h (0 Bft)
23.07.2017 20:47 15,2 °C 15,3 °C 89 % 1014,5 hPa 0,0 mm 0,0 km/h (0 Bft) SW 236 ° 0 min 0,000 mm 0,0 UV-I 0 W/m² 13,4 °C 15,2 °C 0,0 km/h (0 Bft)
23.07.2017 20:48 15,2 °C 15,2 °C 90 % 1014,6 hPa 0,0 mm 0,0 km/h (0 Bft) SW 236 ° 0 min 0,000 mm 0,0 UV-I 0 W/m² 13,6 °C 15,2 °C 0,0 km/h (0 Bft)
23.07.2017 20:49 15,2 °C 15,2 °C 90 % 1014,5 hPa 0,0 mm 0,0 km/h (0 Bft) SW 236 ° 0 min 0,000 mm 0,0 UV-I 0 W/m² 13,6 °C 15,2 °C 0,0 km/h (0 Bft)
23.07.2017 20:50 15,2 °C 15,2 °C 90 % 1014,5 hPa 0,0 mm 0,0 km/h (0 Bft) SW 236 ° 0 min 0,000 mm 0,0 UV-I 0 W/m² 13,6 °C 15,2 °C 0,0 km/h (0 Bft)
23.07.2017 20:51 15,2 °C 15,2 °C 90 % 1014,5 hPa 0,0 mm 0,0 km/h (0 Bft) SW 236 ° 0 min 0,000 mm 0,0 UV-I 0 W/m² 13,6 °C 15,2 °C 0,0 km/h (0 Bft)
23.07.2017 20:52 15,2 °C 15,2 °C 91 % 1014,5 hPa 0,0 mm 0,0 km/h (0 Bft) SW 236 ° 0 min 0,000 mm 0,0 UV-I 0 W/m² 13,7 °C 15,2 °C 0,0 km/h (0 Bft)
23.07.2017 20:53 15,1 °C 15,2 °C 90 % 1014,5 hPa 0,0 mm 0,0 km/h (0 Bft) SW 236 ° 0 min 0,000 mm 0,0 UV-I 0 W/m² 13,5 °C 15,1 °C 0,0 km/h (0 Bft)
23.07.2017 20:54 15,1 °C 15,1 °C 90 % 1014,5 hPa 0,0 mm 0,0 km/h (0 Bft) SW 236 ° 0 min 0,000 mm 0,0 UV-I 0 W/m² 13,5 °C 15,1 °C 0,0 km/h (0 Bft)
23.07.2017 20:55 15,1 °C 15,1 °C 91 % 1014,5 hPa 0,0 mm 0,0 km/h (0 Bft) SW 236 ° 0 min 0,000 mm 0,0 UV-I 0 W/m² 13,6 °C 15,1 °C 0,0 km/h (0 Bft)
23.07.2017 20:56 15,1 °C 15,1 °C 90 % 1014,5 hPa 0,0 mm 0,0 km/h (0 Bft) SW 236 ° 0 min 0,000 mm 0,0 UV-I 0 W/m² 13,5 °C 15,1 °C 0,0 km/h (0 Bft)
23.07.2017 20:57 15,1 °C 15,1 °C 90 % 1014,5 hPa 0,0 mm 0,0 km/h (0 Bft) SW 236 ° 0 min 0,000 mm 0,0 UV-I 0 W/m² 13,5 °C 15,1 °C 0,0 km/h (0 Bft)
23.07.2017 20:58 15,1 °C 15,1 °C 90 % 1014,4 hPa 0,0 mm 0,0 km/h (0 Bft) SW 236 ° 0 min 0,000 mm 0,0 UV-I 0 W/m² 13,5 °C 15,1 °C 0,0 km/h (0 Bft)
23.07.2017 20:59 15,0 °C 15,1 °C 90 % 1014,4 hPa 0,0 mm 0,0 km/h (0 Bft) SW 236 ° 0 min 0,000 mm 0,0 UV-I 0 W/m² 13,4 °C 15,0 °C 0,0 km/h (0 Bft)
23.07.2017 21:00 15,0 °C 15,0 °C 90 % 1014,4 hPa 0,0 mm 0,0 km/h (0 Bft) SW 236 ° 0 min 0,000 mm 0,0 UV-I 0 W/m² 13,4 °C 15,0 °C 0,0 km/h (0 Bft)
23.07.2017 21:01 15,1 °C 15,1 °C 90 % 1014,4 hPa 0,0 mm 0,0 km/h (0 Bft) SW 236 ° 0 min 0,000 mm 0,0 UV-I 0 W/m² 13,5 °C 15,1 °C 0,0 km/h (0 Bft)
23.07.2017 21:02 15,0 °C 15,1 °C 90 % 1014,4 hPa 0,0 mm 0,0 km/h (0 Bft) SW 236 ° 0 min 0,000 mm 0,0 UV-I 0 W/m² 13,4 °C 15,0 °C 0,0 km/h (0 Bft)
23.07.2017 21:03 15,1 °C 15,1 °C 90 % 1014,4 hPa 0,0 mm 0,0 km/h (0 Bft) SW 236 ° 0 min 0,000 mm 0,0 UV-I 0 W/m² 13,5 °C 15,1 °C 0,0 km/h (0 Bft)
23.07.2017 21:04 15,1 °C 15,1 °C 90 % 1014,5 hPa 0,0 mm 0,0 km/h (0 Bft) SW 236 ° 0 min 0,000 mm 0,0 UV-I 0 W/m² 13,5 °C 15,1 °C 0,0 km/h (0 Bft)
23.07.2017 21:05 15,0 °C 15,1 °C 90 % 1014,5 hPa 0,0 mm 0,0 km/h (0 Bft) SW 236 ° 0 min 0,000 mm 0,0 UV-I 0 W/m² 13,4 °C 15,0 °C 0,0 km/h (0 Bft)
23.07.2017 21:06 15,0 °C 15,1 °C 90 % 1014,4 hPa 0,0 mm 0,0 km/h (0 Bft) SW 236 ° 0 min 0,000 mm 0,0 UV-I 0 W/m² 13,4 °C 15,0 °C 0,0 km/h (0 Bft)
23.07.2017 21:07 15,0 °C 15,1 °C 90 % 1014,5 hPa 0,0 mm 0,0 km/h (0 Bft) SW 236 ° 0 min 0,000 mm 0,0 UV-I 0 W/m² 13,4 °C 15,0 °C 0,0 km/h (0 Bft)
23.07.2017 21:09 15,0 °C 15,0 °C 90 % 1014,5 hPa 0,0 mm 0,0 km/h (0 Bft) SW 236 ° 0 min 0,000 mm 0,0 UV-I 0 W/m² 13,4 °C 15,0 °C 0,0 km/h (0 Bft)
23.07.2017 21:10 15,0 °C 15,0 °C 90 % 1014,5 hPa 0,0 mm 0,0 km/h (0 Bft) SW 236 ° 0 min 0,000 mm 0,0 UV-I 0 W/m² 13,4 °C 15,0 °C 0,0 km/h (0 Bft)
23.07.2017 21:11 15,0 °C 15,0 °C 90 % 1014,5 hPa 0,0 mm 0,0 km/h (0 Bft) SW 236 ° 0 min 0,000 mm 0,0 UV-I 0 W/m² 13,4 °C 15,0 °C 0,0 km/h (0 Bft)
23.07.2017 21:12 14,9 °C 15,0 °C 90 % 1014,5 hPa 0,0 mm 0,0 km/h (0 Bft) SW 236 ° 0 min 0,000 mm 0,0 UV-I 0 W/m² 13,3 °C 14,9 °C 0,0 km/h (0 Bft)
23.07.2017 21:13 14,9 °C 15,0 °C 90 % 1014,5 hPa 0,0 mm 0,0 km/h (0 Bft) SW 236 ° 0 min 0,000 mm 0,0 UV-I 0 W/m² 13,3 °C 14,9 °C 0,0 km/h (0 Bft)
23.07.2017 21:14 15,0 °C 15,0 °C 90 % 1014,5 hPa 0,0 mm 0,0 km/h (0 Bft) SW 236 ° 0 min 0,000 mm 0,0 UV-I 0 W/m² 13,4 °C 15,0 °C 0,0 km/h (0 Bft)
23.07.2017 21:15 15,0 °C 15,0 °C 90 % 1014,5 hPa 0,0 mm 0,0 km/h (0 Bft) SW 236 ° 0 min 0,000 mm 0,0 UV-I 0 W/m² 13,4 °C 15,0 °C 0,0 km/h (0 Bft)
23.07.2017 21:16 15,0 °C 15,0 °C 90 % 1014,5 hPa 0,0 mm 0,0 km/h (0 Bft) SW 236 ° 0 min 0,000 mm 0,0 UV-I 0 W/m² 13,4 °C 15,0 °C 0,0 km/h (0 Bft)
23.07.2017 21:17 15,1 °C 15,1 °C 91 % 1014,5 hPa 0,0 mm 0,0 km/h (0 Bft) SW 236 ° 0 min 0,000 mm 0,0 UV-I 0 W/m² 13,6 °C 15,1 °C 0,0 km/h (0 Bft)
23.07.2017 21:18 15,0 °C 15,1 °C 90 % 1014,5 hPa 0,0 mm 0,0 km/h (0 Bft) SW 236 ° 0 min 0,000 mm 0,0 UV-I 0 W/m² 13,4 °C 15,0 °C 0,0 km/h (0 Bft)
23.07.2017 21:19 14,9 °C 15,0 °C 90 % 1014,6 hPa 0,0 mm 0,0 km/h (0 Bft) SW 236 ° 0 min 0,000 mm 0,0 UV-I 0 W/m² 13,3 °C 14,9 °C 0,0 km/h (0 Bft)
23.07.2017 21:20 15,0 °C 15,0 °C 90 % 1014,6 hPa 0,0 mm 0,0 km/h (0 Bft) SW 236 ° 0 min 0,000 mm 0,0 UV-I 0 W/m² 13,4 °C 15,0 °C 0,0 km/h (0 Bft)
23.07.2017 21:21 15,0 °C 15,0 °C 90 % 1014,6 hPa 0,0 mm 0,0 km/h (0 Bft) SW 236 ° 0 min 0,000 mm 0,0 UV-I 0 W/m² 13,4 °C 15,0 °C 0,0 km/h (0 Bft)
23.07.2017 21:22 15,0 °C 15,1 °C 91 % 1014,6 hPa 0,0 mm 0,0 km/h (0 Bft) SW 236 ° 0 min 0,000 mm 0,0 UV-I 0 W/m² 13,5 °C 15,0 °C 0,0 km/h (0 Bft)
23.07.2017 21:23 15,1 °C 15,1 °C 91 % 1014,7 hPa 0,0 mm 0,0 km/h (0 Bft) SW 236 ° 0 min 0,000 mm 0,0 UV-I 0 W/m² 13,6 °C 15,1 °C 0,0 km/h (0 Bft)
23.07.2017 21:24 15,0 °C 15,1 °C 90 % 1014,6 hPa 0,0 mm 0,0 km/h (0 Bft) SW 236 ° 0 min 0,000 mm 0,0 UV-I 0 W/m² 13,4 °C 15,0 °C 0,0 km/h (0 Bft)
23.07.2017 21:25 15,0 °C 15,0 °C 90 % 1014,6 hPa 0,0 mm 0,0 km/h (0 Bft) SW 236 ° 0 min 0,000 mm 0,0 UV-I 0 W/m² 13,4 °C 15,0 °C 0,0 km/h (0 Bft)
23.07.2017 21:26 15,0 °C 15,0 °C 90 % 1014,7 hPa 0,0 mm 0,0 km/h (0 Bft) SW 236 ° 0 min 0,000 mm 0,0 UV-I 0 W/m² 13,4 °C 15,0 °C 0,0 km/h (0 Bft)
23.07.2017 21:27 15,0 °C 15,1 °C 90 % 1014,7 hPa 0,0 mm 0,0 km/h (0 Bft) SW 236 ° 0 min 0,000 mm 0,0 UV-I 0 W/m² 13,4 °C 15,0 °C 0,0 km/h (0 Bft)
23.07.2017 21:28 15,0 °C 15,0 °C 90 % 1014,7 hPa 0,0 mm 0,0 km/h (0 Bft) SW 236 ° 0 min 0,000 mm 0,0 UV-I 0 W/m² 13,4 °C 15,0 °C 0,0 km/h (0 Bft)
23.07.2017 21:29 15,0 °C 15,0 °C 90 % 1014,7 hPa 0,0 mm 0,0 km/h (0 Bft) SW 236 ° 0 min 0,000 mm 0,0 UV-I 0 W/m² 13,4 °C 15,0 °C 0,0 km/h (0 Bft)
23.07.2017 21:30 15,0 °C 15,0 °C 90 % 1014,7 hPa 0,0 mm 0,0 km/h (0 Bft) SW 236 ° 0 min 0,000 mm 0,0 UV-I 0 W/m² 13,4 °C 15,0 °C 0,0 km/h (0 Bft)
23.07.2017 21:31 15,0 °C 15,0 °C 91 % 1014,7 hPa 0,0 mm 0,0 km/h (0 Bft) SW 236 ° 0 min 0,000 mm 0,0 UV-I 0 W/m² 13,5 °C 15,0 °C 0,0 km/h (0 Bft)
23.07.2017 21:32 14,9 °C 15,0 °C 90 % 1014,7 hPa 0,0 mm 0,0 km/h (0 Bft) SW 236 ° 0 min 0,000 mm 0,0 UV-I 0 W/m² 13,3 °C 14,9 °C 0,0 km/h (0 Bft)
23.07.2017 21:34 14,9 °C 14,9 °C 90 % 1014,7 hPa 0,0 mm 0,0 km/h (0 Bft) SW 236 ° 0 min 0,000 mm 0,0 UV-I 0 W/m² 13,3 °C 14,9 °C 0,0 km/h (0 Bft)
23.07.2017 21:35 14,9 °C 14,9 °C 90 % 1014,7 hPa 0,0 mm 0,0 km/h (0 Bft) SW 236 ° 0 min 0,000 mm 0,0 UV-I 0 W/m² 13,3 °C 14,9 °C 0,0 km/h (0 Bft)
23.07.2017 21:36 14,9 °C 15,0 °C 90 % 1014,7 hPa 0,0 mm 0,0 km/h (0 Bft) SW 236 ° 0 min 0,000 mm 0,0 UV-I 0 W/m² 13,3 °C 14,9 °C 0,0 km/h (0 Bft)
23.07.2017 21:37 14,9 °C 14,9 °C 90 % 1014,7 hPa 0,0 mm 0,0 km/h (0 Bft) SW 236 ° 0 min 0,000 mm 0,0 UV-I 0 W/m² 13,3 °C 14,9 °C 0,0 km/h (0 Bft)
23.07.2017 21:38 14,9 °C 14,9 °C 90 % 1014,7 hPa 0,0 mm 0,0 km/h (0 Bft) SW 236 ° 0 min 0,000 mm 0,0 UV-I 0 W/m² 13,3 °C 14,9 °C 0,0 km/h (0 Bft)
23.07.2017 21:39 14,9 °C 15,0 °C 90 % 1014,7 hPa 0,0 mm 0,0 km/h (0 Bft) SW 236 ° 0 min 0,000 mm 0,0 UV-I 0 W/m² 13,3 °C 14,9 °C 0,0 km/h (0 Bft)
23.07.2017 21:40 14,9 °C 14,9 °C 91 % 1014,7 hPa 0,0 mm 0,0 km/h (0 Bft) SW 236 ° 0 min 0,000 mm 0,0 UV-I 0 W/m² 13,4 °C 14,9 °C 0,0 km/h (0 Bft)
23.07.2017 21:41 14,9 °C 14,9 °C 90 % 1014,8 hPa 0,0 mm 0,0 km/h (0 Bft) SW 236 ° 0 min 0,000 mm 0,0 UV-I 0 W/m² 13,3 °C 14,9 °C 0,0 km/h (0 Bft)
23.07.2017 21:42 14,9 °C 14,9 °C 91 % 1014,8 hPa 0,0 mm 0,0 km/h (0 Bft) SW 236 ° 0 min 0,000 mm 0,0 UV-I 0 W/m² 13,4 °C 14,9 °C 0,0 km/h (0 Bft)
23.07.2017 21:43 15,0 °C 15,0 °C 91 % 1014,7 hPa 0,0 mm 0,0 km/h (0 Bft) SW 236 ° 0 min 0,000 mm 0,0 UV-I 0 W/m² 13,5 °C 15,0 °C 0,0 km/h (0 Bft)
23.07.2017 21:44 14,9 °C 15,0 °C 90 % 1014,8 hPa 0,0 mm 0,0 km/h (0 Bft) SW 236 ° 0 min 0,000 mm 0,0 UV-I 0 W/m² 13,3 °C 14,9 °C 0,0 km/h (0 Bft)
23.07.2017 21:45 14,9 °C 14,9 °C 90 % 1014,9 hPa 0,0 mm 0,0 km/h (0 Bft) SW 236 ° 0 min 0,000 mm 0,0 UV-I 0 W/m² 13,3 °C 14,9 °C 0,0 km/h (0 Bft)
23.07.2017 21:46 14,9 °C 14,9 °C 90 % 1014,8 hPa 0,0 mm 0,0 km/h (0 Bft) SW 236 ° 0 min 0,000 mm 0,0 UV-I 0 W/m² 13,3 °C 14,9 °C 0,0 km/h (0 Bft)
23.07.2017 21:47 14,9 °C 14,9 °C 90 % 1014,8 hPa 0,0 mm 0,0 km/h (0 Bft) SW 236 ° 0 min 0,000 mm 0,0 UV-I 0 W/m² 13,3 °C 14,9 °C 0,0 km/h (0 Bft)
23.07.2017 21:48 14,9 °C 14,9 °C 90 % 1014,8 hPa 0,0 mm 0,0 km/h (0 Bft) SW 236 ° 0 min 0,000 mm 0,0 UV-I 0 W/m² 13,3 °C 14,9 °C 0,0 km/h (0 Bft)
23.07.2017 21:49 14,9 °C 14,9 °C 90 % 1014,8 hPa 0,0 mm 0,0 km/h (0 Bft) SW 236 ° 0 min 0,000 mm 0,0 UV-I 0 W/m² 13,3 °C 14,9 °C 0,0 km/h (0 Bft)
23.07.2017 21:50 14,9 °C 14,9 °C 90 % 1014,8 hPa 0,0 mm 0,0 km/h (0 Bft) SW 236 ° 0 min 0,000 mm 0,0 UV-I 0 W/m² 13,3 °C 14,9 °C 0,0 km/h (0 Bft)
23.07.2017 21:51 14,9 °C 15,0 °C 91 % 1014,8 hPa 0,0 mm 0,0 km/h (0 Bft) SW 236 ° 0 min 0,000 mm 0,0 UV-I 0 W/m² 13,4 °C 14,9 °C 0,0 km/h (0 Bft)
23.07.2017 21:52 14,9 °C 14,9 °C 91 % 1014,8 hPa 0,0 mm 0,0 km/h (0 Bft) SW 236 ° 0 min 0,000 mm 0,0 UV-I 0 W/m² 13,4 °C 14,9 °C 0,0 km/h (0 Bft)
23.07.2017 21:53 14,9 °C 14,9 °C 91 % 1014,8 hPa 0,0 mm 0,0 km/h (0 Bft) SW 236 ° 0 min 0,000 mm 0,0 UV-I 0 W/m² 13,4 °C 14,9 °C 0,0 km/h (0 Bft)
23.07.2017 21:54 14,9 °C 14,9 °C 91 % 1014,9 hPa 0,0 mm 0,0 km/h (0 Bft) SW 236 ° 0 min 0,000 mm 0,0 UV-I 0 W/m² 13,4 °C 14,9 °C 0,0 km/h (0 Bft)
23.07.2017 21:55 14,9 °C 14,9 °C 91 % 1014,8 hPa 0,0 mm 0,0 km/h (0 Bft) SW 236 ° 0 min 0,000 mm 0,0 UV-I 0 W/m² 13,4 °C 14,9 °C 0,0 km/h (0 Bft)
23.07.2017 21:56 14,9 °C 14,9 °C 90 % 1014,9 hPa 0,0 mm 0,0 km/h (0 Bft) SW 236 ° 0 min 0,000 mm 0,0 UV-I 0 W/m² 13,3 °C 14,9 °C 0,0 km/h (0 Bft)
23.07.2017 21:57 14,9 °C 14,9 °C 91 % 1014,9 hPa 0,0 mm 0,0 km/h (0 Bft) SW 236 ° 0 min 0,000 mm 0,0 UV-I 0 W/m² 13,4 °C 14,9 °C 0,0 km/h (0 Bft)
23.07.2017 21:58 14,9 °C 14,9 °C 90 % 1014,8 hPa 0,0 mm 0,0 km/h (0 Bft) SW 236 ° 0 min 0,000 mm 0,0 UV-I 0 W/m² 13,3 °C 14,9 °C 0,0 km/h (0 Bft)
23.07.2017 21:59 14,9 °C 14,9 °C 90 % 1014,9 hPa 0,0 mm 0,0 km/h (0 Bft) SW 236 ° 0 min 0,000 mm 0,0 UV-I 0 W/m² 13,3 °C 14,9 °C 0,0 km/h (0 Bft)
23.07.2017 22:00 14,9 °C 14,9 °C 90 % 1014,9 hPa 0,0 mm 0,0 km/h (0 Bft) SW 236 ° 0 min 0,000 mm 0,0 UV-I 0 W/m² 13,3 °C 14,9 °C 0,0 km/h (0 Bft)
23.07.2017 22:01 14,9 °C 14,9 °C 90 % 1014,9 hPa 0,0 mm 0,0 km/h (0 Bft) SW 236 ° 0 min 0,000 mm 0,0 UV-I 0 W/m² 13,3 °C 14,9 °C 0,0 km/h (0 Bft)
23.07.2017 22:02 14,9 °C 14,9 °C 91 % 1014,9 hPa 0,0 mm 0,0 km/h (0 Bft) SW 236 ° 0 min 0,000 mm 0,0 UV-I 0 W/m² 13,4 °C 14,9 °C 0,0 km/h (0 Bft)
23.07.2017 22:03 14,9 °C 14,9 °C 91 % 1014,9 hPa 0,0 mm 0,0 km/h (0 Bft) SW 236 ° 0 min 0,000 mm 0,0 UV-I 0 W/m² 13,4 °C 14,9 °C 0,0 km/h (0 Bft)
23.07.2017 22:04 14,9 °C 14,9 °C 91 % 1014,9 hPa 0,0 mm 0,0 km/h (0 Bft) SW 236 ° 0 min 0,000 mm 0,0 UV-I 0 W/m² 13,4 °C 14,9 °C 0,0 km/h (0 Bft)
23.07.2017 22:05 14,9 °C 14,9 °C 90 % 1014,9 hPa 0,0 mm 0,0 km/h (0 Bft) SW 236 ° 0 min 0,000 mm 0,0 UV-I 0 W/m² 13,3 °C 14,9 °C 0,0 km/h (0 Bft)
23.07.2017 22:06 14,9 °C 14,9 °C 90 % 1014,8 hPa 0,0 mm 0,0 km/h (0 Bft) SW 236 ° 0 min 0,000 mm 0,0 UV-I 0 W/m² 13,3 °C 14,9 °C 0,0 km/h (0 Bft)
23.07.2017 22:07 14,9 °C 14,9 °C 91 % 1014,7 hPa 0,0 mm 0,0 km/h (0 Bft) SW 236 ° 0 min 0,000 mm 0,0 UV-I 0 W/m² 13,4 °C 14,9 °C 0,0 km/h (0 Bft)
23.07.2017 22:08 14,9 °C 14,9 °C 90 % 1014,8 hPa 0,0 mm 0,0 km/h (0 Bft) SW 236 ° 0 min 0,000 mm 0,0 UV-I 0 W/m² 13,3 °C 14,9 °C 0,0 km/h (0 Bft)
23.07.2017 22:09 14,9 °C 14,9 °C 90 % 1014,7 hPa 0,0 mm 0,0 km/h (0 Bft) SW 236 ° 0 min 0,000 mm 0,0 UV-I 0 W/m² 13,3 °C 14,9 °C 0,0 km/h (0 Bft)
23.07.2017 22:10 14,9 °C 14,9 °C 91 % 1014,8 hPa 0,0 mm 0,0 km/h (0 Bft) SW 236 ° 0 min 0,000 mm 0,0 UV-I 0 W/m² 13,4 °C 14,9 °C 0,0 km/h (0 Bft)
23.07.2017 22:11 14,9 °C 14,9 °C 91 % 1014,7 hPa 0,0 mm 0,0 km/h (0 Bft) SW 236 ° 0 min 0,000 mm 0,0 UV-I 0 W/m² 13,4 °C 14,9 °C 0,0 km/h (0 Bft)
23.07.2017 22:12 14,8 °C 14,9 °C 90 % 1014,7 hPa 0,0 mm 0,0 km/h (0 Bft) SW 236 ° 0 min 0,000 mm 0,0 UV-I 0 W/m² 13,2 °C 14,8 °C 0,0 km/h (0 Bft)
23.07.2017 22:13 14,9 °C 14,9 °C 90 % 1014,7 hPa 0,0 mm 0,0 km/h (0 Bft) SW 236 ° 0 min 0,000 mm 0,0 UV-I 0 W/m² 13,3 °C 14,9 °C 0,0 km/h (0 Bft)
23.07.2017 22:14 14,9 °C 14,9 °C 89 % 1014,7 hPa 0,0 mm 0,0 km/h (0 Bft) SW 236 ° 0 min 0,000 mm 0,0 UV-I 0 W/m² 13,1 °C 14,9 °C 0,0 km/h (0 Bft)
23.07.2017 22:15 14,9 °C 14,9 °C 89 % 1014,6 hPa 0,0 mm 0,0 km/h (0 Bft) SW 236 ° 0 min 0,000 mm 0,0 UV-I 0 W/m² 13,1 °C 14,9 °C 0,0 km/h (0 Bft)
23.07.2017 22:16 14,9 °C 14,9 °C 90 % 1014,7 hPa 0,0 mm 0,0 km/h (0 Bft) SW 236 ° 0 min 0,000 mm 0,0 UV-I 0 W/m² 13,3 °C 14,9 °C 0,0 km/h (0 Bft)
23.07.2017 22:17 14,9 °C 14,9 °C 90 % 1014,7 hPa 0,0 mm 0,0 km/h (0 Bft) SW 236 ° 0 min 0,000 mm 0,0 UV-I 0 W/m² 13,3 °C 14,9 °C 0,0 km/h (0 Bft)
23.07.2017 22:18 14,9 °C 14,9 °C 89 % 1014,7 hPa 0,0 mm 0,0 km/h (0 Bft) SW 236 ° 0 min 0,000 mm 0,0 UV-I 0 W/m² 13,1 °C 14,9 °C 0,0 km/h (0 Bft)
23.07.2017 22:19 14,9 °C 14,9 °C 89 % 1014,7 hPa 0,0 mm 0,0 km/h (0 Bft) SW 236 ° 0 min 0,000 mm 0,0 UV-I 0 W/m² 13,1 °C 14,9 °C 0,0 km/h (0 Bft)
23.07.2017 22:20 15,0 °C 15,0 °C 89 % 1014,6 hPa 0,0 mm 0,0 km/h (0 Bft) SW 236 ° 0 min 0,000 mm 0,0 UV-I 0 W/m² 13,2 °C 15,0 °C 0,0 km/h (0 Bft)
23.07.2017 22:21 14,9 °C 15,0 °C 89 % 1014,6 hPa 0,0 mm 0,0 km/h (0 Bft) SW 236 ° 0 min 0,000 mm 0,0 UV-I 0 W/m² 13,1 °C 14,9 °C 0,0 km/h (0 Bft)
23.07.2017 22:22 14,9 °C 15,0 °C 90 % 1014,6 hPa 0,0 mm 0,0 km/h (0 Bft) SW 236 ° 0 min 0,000 mm 0,0 UV-I 0 W/m² 13,3 °C 14,9 °C 0,0 km/h (0 Bft)
23.07.2017 22:23 15,0 °C 15,0 °C 90 % 1014,6 hPa 0,0 mm 0,0 km/h (0 Bft) SW 236 ° 0 min 0,000 mm 0,0 UV-I 0 W/m² 13,4 °C 15,0 °C 0,0 km/h (0 Bft)
23.07.2017 22:24 15,0 °C 15,0 °C 89 % 1014,6 hPa 0,0 mm 0,0 km/h (0 Bft) SW 236 ° 0 min 0,000 mm 0,0 UV-I 0 W/m² 13,2 °C 15,0 °C 0,0 km/h (0 Bft)
23.07.2017 22:25 14,9 °C 15,0 °C 89 % 1014,6 hPa 0,0 mm 0,0 km/h (0 Bft) SW 236 ° 0 min 0,000 mm 0,0 UV-I 0 W/m² 13,1 °C 14,9 °C 0,0 km/h (0 Bft)
23.07.2017 22:26 15,0 °C 15,0 °C 90 % 1014,7 hPa 0,0 mm 0,0 km/h (0 Bft) SW 236 ° 0 min 0,000 mm 0,0 UV-I 0 W/m² 13,4 °C 15,0 °C 0,0 km/h (0 Bft)
23.07.2017 22:27 14,9 °C 15,0 °C 90 % 1014,7 hPa 0,0 mm 0,0 km/h (0 Bft) SW 236 ° 0 min 0,000 mm 0,0 UV-I 0 W/m² 13,3 °C 14,9 °C 0,0 km/h (0 Bft)
23.07.2017 22:28 14,9 °C 15,0 °C 90 % 1014,7 hPa 0,0 mm 0,0 km/h (0 Bft) SW 236 ° 0 min 0,000 mm 0,0 UV-I 0 W/m² 13,3 °C 14,9 °C 0,0 km/h (0 Bft)
23.07.2017 22:29 15,0 °C 15,0 °C 89 % 1014,7 hPa 0,0 mm 0,0 km/h (0 Bft) SW 236 ° 0 min 0,000 mm 0,0 UV-I 0 W/m² 13,2 °C 15,0 °C 0,0 km/h (0 Bft)
23.07.2017 22:30 14,9 °C 15,0 °C 90 % 1014,7 hPa 0,0 mm 0,0 km/h (0 Bft) SW 236 ° 0 min 0,000 mm 0,0 UV-I 0 W/m² 13,3 °C 14,9 °C 0,0 km/h (0 Bft)
23.07.2017 22:31 14,9 °C 14,9 °C 90 % 1014,6 hPa 0,0 mm 0,0 km/h (0 Bft) SW 236 ° 0 min 0,000 mm 0,0 UV-I 0 W/m² 13,3 °C 14,9 °C 0,0 km/h (0 Bft)
23.07.2017 22:32 14,9 °C 14,9 °C 89 % 1014,6 hPa 0,0 mm 0,0 km/h (0 Bft) SW 236 ° 0 min 0,000 mm 0,0 UV-I 0 W/m² 13,1 °C 14,9 °C 0,0 km/h (0 Bft)
23.07.2017 22:33 14,9 °C 14,9 °C 89 % 1014,6 hPa 0,0 mm 0,0 km/h (0 Bft) SW 236 ° 0 min 0,000 mm 0,0 UV-I 0 W/m² 13,1 °C 14,9 °C 0,0 km/h (0 Bft)
23.07.2017 22:34 14,9 °C 14,9 °C 89 % 1014,6 hPa 0,0 mm 0,0 km/h (0 Bft) SW 236 ° 0 min 0,000 mm 0,0 UV-I 0 W/m² 13,1 °C 14,9 °C 0,0 km/h (0 Bft)
23.07.2017 22:35 14,9 °C 14,9 °C 90 % 1014,6 hPa 0,0 mm 0,0 km/h (0 Bft) SW 236 ° 0 min 0,000 mm 0,0 UV-I 0 W/m² 13,3 °C 14,9 °C 0,0 km/h (0 Bft)
23.07.2017 22:36 14,9 °C 14,9 °C 90 % 1014,6 hPa 0,0 mm 0,0 km/h (0 Bft) SW 236 ° 0 min 0,000 mm 0,0 UV-I 0 W/m² 13,3 °C 14,9 °C 0,0 km/h (0 Bft)
23.07.2017 22:37 14,8 °C 14,9 °C 90 % 1014,6 hPa 0,0 mm 0,0 km/h (0 Bft) SW 236 ° 0 min 0,000 mm 0,0 UV-I 0 W/m² 13,2 °C 14,8 °C 0,0 km/h (0 Bft)
23.07.2017 22:38 14,8 °C 14,8 °C 90 % 1014,6 hPa 0,0 mm 0,0 km/h (0 Bft) SW 236 ° 0 min 0,000 mm 0,0 UV-I 0 W/m² 13,2 °C 14,8 °C 0,0 km/h (0 Bft)
23.07.2017 22:39 14,8 °C 14,8 °C 90 % 1014,5 hPa 0,0 mm 0,0 km/h (0 Bft) SW 236 ° 0 min 0,000 mm 0,0 UV-I 0 W/m² 13,2 °C 14,8 °C 0,0 km/h (0 Bft)
23.07.2017 22:40 14,8 °C 14,8 °C 90 % 1014,5 hPa 0,0 mm 0,0 km/h (0 Bft) SW 236 ° 0 min 0,000 mm 0,0 UV-I 0 W/m² 13,2 °C 14,8 °C 0,0 km/h (0 Bft)
23.07.2017 22:41 14,8 °C 14,8 °C 90 % 1014,5 hPa 0,0 mm 0,0 km/h (0 Bft) SW 236 ° 0 min 0,000 mm 0,0 UV-I 0 W/m² 13,2 °C 14,8 °C 0,0 km/h (0 Bft)
23.07.2017 22:42 14,8 °C 14,8 °C 91 % 1014,5 hPa 0,0 mm 0,0 km/h (0 Bft) SW 236 ° 0 min 0,000 mm 0,0 UV-I 0 W/m² 13,3 °C 14,8 °C 0,0 km/h (0 Bft)
23.07.2017 22:43 14,8 °C 14,8 °C 91 % 1014,5 hPa 0,0 mm 0,3 km/h (0 Bft) SW 236 ° 0 min 0,000 mm 0,0 UV-I 0 W/m² 13,3 °C 14,8 °C 1,6 km/h (1 Bft)
23.07.2017 22:44 14,8 °C 14,8 °C 91 % 1014,5 hPa 0,0 mm 0,0 km/h (0 Bft) SW 236 ° 0 min 0,000 mm 0,0 UV-I 0 W/m² 13,3 °C 14,8 °C 0,0 km/h (0 Bft)
23.07.2017 22:45 14,8 °C 14,8 °C 91 % 1014,5 hPa 0,0 mm 1,1 km/h (1 Bft) SW 236 ° 0 min 0,000 mm 0,0 UV-I 0 W/m² 13,3 °C 14,8 °C 3,2 km/h (1 Bft)
23.07.2017 22:46 14,8 °C 14,8 °C 91 % 1014,5 hPa 0,0 mm 0,0 km/h (0 Bft) SW 236 ° 0 min 0,000 mm 0,0 UV-I 0 W/m² 13,3 °C 14,8 °C 0,0 km/h (0 Bft)
23.07.2017 22:47 14,8 °C 14,8 °C 91 % 1014,5 hPa 0,0 mm 0,0 km/h (0 Bft) SW 236 ° 0 min 0,000 mm 0,0 UV-I 0 W/m² 13,3 °C 14,8 °C 0,0 km/h (0 Bft)
23.07.2017 22:48 14,8 °C 14,8 °C 91 % 1014,5 hPa 0,0 mm 0,0 km/h (0 Bft) SW 236 ° 0 min 0,000 mm 0,0 UV-I 0 W/m² 13,3 °C 14,8 °C 0,0 km/h (0 Bft)
23.07.2017 22:49 14,8 °C 14,8 °C 91 % 1014,5 hPa 0,0 mm 0,0 km/h (0 Bft) SW 236 ° 0 min 0,000 mm 0,0 UV-I 0 W/m² 13,3 °C 14,8 °C 0,0 km/h (0 Bft)
23.07.2017 22:50 14,8 °C 14,8 °C 91 % 1014,5 hPa 0,0 mm 0,0 km/h (0 Bft) SW 236 ° 0 min 0,000 mm 0,0 UV-I 0 W/m² 13,3 °C 14,8 °C 0,0 km/h (0 Bft)
23.07.2017 22:51 14,8 °C 14,8 °C 91 % 1014,4 hPa 0,0 mm 0,0 km/h (0 Bft) SW 236 ° 0 min 0,000 mm 0,0 UV-I 0 W/m² 13,3 °C 14,8 °C 0,0 km/h (0 Bft)
23.07.2017 22:52 14,8 °C 14,8 °C 91 % 1014,4 hPa 0,0 mm 0,0 km/h (0 Bft) SW 236 ° 0 min 0,000 mm 0,0 UV-I 0 W/m² 13,3 °C 14,8 °C 0,0 km/h (0 Bft)
23.07.2017 22:53 14,7 °C 14,8 °C 91 % 1014,4 hPa 0,0 mm 0,0 km/h (0 Bft) SW 236 ° 0 min 0,000 mm 0,0 UV-I 0 W/m² 13,2 °C 14,7 °C 0,0 km/h (0 Bft)
23.07.2017 22:54 14,8 °C 14,8 °C 90 % 1014,4 hPa 0,0 mm 0,0 km/h (0 Bft) SW 236 ° 0 min 0,000 mm 0,0 UV-I 0 W/m² 13,2 °C 14,8 °C 0,0 km/h (0 Bft)
23.07.2017 22:55 14,8 °C 14,8 °C 91 % 1014,4 hPa 0,0 mm 0,0 km/h (0 Bft) SW 236 ° 0 min 0,000 mm 0,0 UV-I 0 W/m² 13,3 °C 14,8 °C 0,0 km/h (0 Bft)
23.07.2017 22:56 14,8 °C 14,8 °C 91 % 1014,4 hPa 0,0 mm 0,0 km/h (0 Bft) SW 236 ° 0 min 0,000 mm 0,0 UV-I 0 W/m² 13,3 °C 14,8 °C 0,0 km/h (0 Bft)
23.07.2017 22:57 14,8 °C 14,8 °C 91 % 1014,4 hPa 0,0 mm 0,0 km/h (0 Bft) SW 236 ° 0 min 0,000 mm 0,0 UV-I 0 W/m² 13,3 °C 14,8 °C 0,0 km/h (0 Bft)
23.07.2017 22:58 14,8 °C 14,8 °C 91 % 1014,4 hPa 0,0 mm 0,0 km/h (0 Bft) SW 236 ° 0 min 0,000 mm 0,0 UV-I 0 W/m² 13,3 °C 14,8 °C 0,0 km/h (0 Bft)
23.07.2017 22:59 14,8 °C 14,8 °C 91 % 1014,4 hPa 0,0 mm 0,0 km/h (0 Bft) SW 236 ° 0 min 0,000 mm 0,0 UV-I 0 W/m² 13,3 °C 14,8 °C 0,0 km/h (0 Bft)
23.07.2017 23:00 14,8 °C 14,8 °C 91 % 1014,4 hPa 0,0 mm 0,1 km/h (0 Bft) SW 236 ° 0 min 0,000 mm 0,0 UV-I 0 W/m² 13,3 °C 14,8 °C 1,6 km/h (1 Bft)
23.07.2017 23:01 14,8 °C 14,8 °C 91 % 1014,4 hPa 0,0 mm 0,0 km/h (0 Bft) SW 236 ° 0 min 0,000 mm 0,0 UV-I 0 W/m² 13,3 °C 14,8 °C 0,0 km/h (0 Bft)
23.07.2017 23:02 14,8 °C 14,8 °C 91 % 1014,4 hPa 0,0 mm 0,1 km/h (0 Bft) SW 236 ° 0 min 0,000 mm 0,0 UV-I 0 W/m² 13,3 °C 14,8 °C 1,6 km/h (1 Bft)
23.07.2017 23:03 14,8 °C 14,8 °C 90 % 1014,4 hPa 0,0 mm 0,0 km/h (0 Bft) SW 236 ° 0 min 0,000 mm 0,0 UV-I 0 W/m² 13,2 °C 14,8 °C 0,0 km/h (0 Bft)
23.07.2017 23:04 14,8 °C 14,8 °C 90 % 1014,4 hPa 0,0 mm 0,0 km/h (0 Bft) SW 236 ° 0 min 0,000 mm 0,0 UV-I 0 W/m² 13,2 °C 14,8 °C 0,0 km/h (0 Bft)
23.07.2017 23:05 14,8 °C 14,8 °C 90 % 1014,4 hPa 0,0 mm 0,0 km/h (0 Bft) SW 236 ° 0 min 0,000 mm 0,0 UV-I 0 W/m² 13,2 °C 14,8 °C 0,0 km/h (0 Bft)
23.07.2017 23:06 14,8 °C 14,8 °C 90 % 1014,4 hPa 0,0 mm 0,0 km/h (0 Bft) SW 236 ° 0 min 0,000 mm 0,0 UV-I 0 W/m² 13,2 °C 14,8 °C 0,0 km/h (0 Bft)
23.07.2017 23:07 14,8 °C 14,8 °C 90 % 1014,4 hPa 0,0 mm 0,0 km/h (0 Bft) SW 236 ° 0 min 0,000 mm 0,0 UV-I 0 W/m² 13,2 °C 14,8 °C 0,0 km/h (0 Bft)
23.07.2017 23:08 14,8 °C 14,8 °C 90 % 1014,4 hPa 0,0 mm 0,0 km/h (0 Bft) SW 236 ° 0 min 0,000 mm 0,0 UV-I 0 W/m² 13,2 °C 14,8 °C 0,0 km/h (0 Bft)
23.07.2017 23:09 14,8 °C 14,8 °C 90 % 1014,4 hPa 0,0 mm 0,0 km/h (0 Bft) SW 236 ° 0 min 0,000 mm 0,0 UV-I 0 W/m² 13,2 °C 14,8 °C 0,0 km/h (0 Bft)
23.07.2017 23:10 14,8 °C 14,8 °C 90 % 1014,4 hPa 0,0 mm 0,0 km/h (0 Bft) SW 236 ° 0 min 0,000 mm 0,0 UV-I 0 W/m² 13,2 °C 14,8 °C 0,0 km/h (0 Bft)
23.07.2017 23:11 14,9 °C 14,9 °C 90 % 1014,4 hPa 0,0 mm 0,0 km/h (0 Bft) SW 236 ° 0 min 0,000 mm 0,0 UV-I 0 W/m² 13,3 °C 14,9 °C 0,0 km/h (0 Bft)
23.07.2017 23:12 14,8 °C 14,9 °C 90 % 1014,4 hPa 0,0 mm 0,0 km/h (0 Bft) SW 236 ° 0 min 0,000 mm 0,0 UV-I 0 W/m² 13,2 °C 14,8 °C 0,0 km/h (0 Bft)
23.07.2017 23:13 14,8 °C 14,8 °C 90 % 1014,4 hPa 0,0 mm 0,0 km/h (0 Bft) SW 236 ° 0 min 0,000 mm 0,0 UV-I 0 W/m² 13,2 °C 14,8 °C 0,0 km/h (0 Bft)
23.07.2017 23:14 14,8 °C 14,8 °C 90 % 1014,3 hPa 0,0 mm 0,0 km/h (0 Bft) SW 236 ° 0 min 0,000 mm 0,0 UV-I 0 W/m² 13,2 °C 14,8 °C 0,0 km/h (0 Bft)
23.07.2017 23:15 14,8 °C 14,8 °C 90 % 1014,3 hPa 0,0 mm 0,0 km/h (0 Bft) SW 236 ° 0 min 0,000 mm 0,0 UV-I 0 W/m² 13,2 °C 14,8 °C 0,0 km/h (0 Bft)
23.07.2017 23:16 14,8 °C 14,8 °C 90 % 1014,4 hPa 0,0 mm 0,0 km/h (0 Bft) SW 236 ° 0 min 0,000 mm 0,0 UV-I 0 W/m² 13,2 °C 14,8 °C 0,0 km/h (0 Bft)
23.07.2017 23:17 14,8 °C 14,8 °C 90 % 1014,3 hPa 0,0 mm 0,0 km/h (0 Bft) SW 236 ° 0 min 0,000 mm 0,0 UV-I 0 W/m² 13,2 °C 14,8 °C 0,0 km/h (0 Bft)
23.07.2017 23:18 14,8 °C 14,8 °C 90 % 1014,3 hPa 0,0 mm 0,0 km/h (0 Bft) SW 236 ° 0 min 0,000 mm 0,0 UV-I 0 W/m² 13,2 °C 14,8 °C 0,0 km/h (0 Bft)
23.07.2017 23:19 14,8 °C 14,8 °C 90 % 1014,3 hPa 0,0 mm 0,0 km/h (0 Bft) SW 236 ° 0 min 0,000 mm 0,0 UV-I 0 W/m² 13,2 °C 14,8 °C 0,0 km/h (0 Bft)
23.07.2017 23:20 14,8 °C 14,8 °C 91 % 1014,3 hPa 0,0 mm 0,0 km/h (0 Bft) SW 236 ° 0 min 0,000 mm 0,0 UV-I 0 W/m² 13,3 °C 14,8 °C 0,0 km/h (0 Bft)
23.07.2017 23:21 14,8 °C 14,8 °C 91 % 1014,3 hPa 0,0 mm 0,0 km/h (0 Bft) SW 236 ° 0 min 0,000 mm 0,0 UV-I 0 W/m² 13,3 °C 14,8 °C 0,0 km/h (0 Bft)
23.07.2017 23:22 14,7 °C 14,8 °C 91 % 1014,3 hPa 0,0 mm 0,2 km/h (0 Bft) SW 236 ° 0 min 0,000 mm 0,0 UV-I 0 W/m² 13,2 °C 14,7 °C 1,6 km/h (1 Bft)
23.07.2017 23:23 14,7 °C 14,7 °C 91 % 1014,2 hPa 0,0 mm 0,0 km/h (0 Bft) SW 236 ° 0 min 0,000 mm 0,0 UV-I 0 W/m² 13,2 °C 14,7 °C 0,0 km/h (0 Bft)
23.07.2017 23:24 14,7 °C 14,7 °C 91 % 1014,3 hPa 0,0 mm 0,0 km/h (0 Bft) SW 236 ° 0 min 0,000 mm 0,0 UV-I 0 W/m² 13,2 °C 14,7 °C 0,0 km/h (0 Bft)
23.07.2017 23:25 14,7 °C 14,7 °C 91 % 1014,3 hPa 0,0 mm 0,0 km/h (0 Bft) SW 236 ° 0 min 0,000 mm 0,0 UV-I 0 W/m² 13,2 °C 14,7 °C 0,0 km/h (0 Bft)
23.07.2017 23:26 14,7 °C 14,7 °C 91 % 1014,2 hPa 0,0 mm 0,0 km/h (0 Bft) SW 236 ° 0 min 0,000 mm 0,0 UV-I 0 W/m² 13,2 °C 14,7 °C 0,0 km/h (0 Bft)
23.07.2017 23:27 14,7 °C 14,7 °C 91 % 1014,3 hPa 0,0 mm 0,0 km/h (0 Bft) SW 236 ° 0 min 0,000 mm 0,0 UV-I 0 W/m² 13,2 °C 14,7 °C 0,0 km/h (0 Bft)
23.07.2017 23:28 14,7 °C 14,7 °C 91 % 1014,2 hPa 0,0 mm 0,0 km/h (0 Bft) SW 236 ° 0 min 0,000 mm 0,0 UV-I 0 W/m² 13,2 °C 14,7 °C 0,0 km/h (0 Bft)
23.07.2017 23:29 14,7 °C 14,7 °C 90 % 1014,3 hPa 0,0 mm 0,0 km/h (0 Bft) SW 236 ° 0 min 0,000 mm 0,0 UV-I 0 W/m² 13,1 °C 14,7 °C 0,0 km/h (0 Bft)
23.07.2017 23:30 14,7 °C 14,7 °C 91 % 1014,2 hPa 0,0 mm 0,0 km/h (0 Bft) SW 236 ° 0 min 0,000 mm 0,0 UV-I 0 W/m² 13,2 °C 14,7 °C 0,0 km/h (0 Bft)
23.07.2017 23:31 14,7 °C 14,7 °C 90 % 1014,2 hPa 0,0 mm 0,0 km/h (0 Bft) SW 236 ° 0 min 0,000 mm 0,0 UV-I 0 W/m² 13,1 °C 14,7 °C 0,0 km/h (0 Bft)
23.07.2017 23:32 14,7 °C 14,7 °C 90 % 1014,2 hPa 0,0 mm 0,0 km/h (0 Bft) SW 236 ° 0 min 0,000 mm 0,0 UV-I 0 W/m² 13,1 °C 14,7 °C 0,0 km/h (0 Bft)
23.07.2017 23:33 14,7 °C 14,8 °C 90 % 1014,3 hPa 0,0 mm 0,0 km/h (0 Bft) SW 236 ° 0 min 0,000 mm 0,0 UV-I 0 W/m² 13,1 °C 14,7 °C 0,0 km/h (0 Bft)
23.07.2017 23:34 14,7 °C 14,8 °C 90 % 1014,3 hPa 0,0 mm 0,0 km/h (0 Bft) SW 236 ° 0 min 0,000 mm 0,0 UV-I 0 W/m² 13,1 °C 14,7 °C 0,0 km/h (0 Bft)
23.07.2017 23:35 14,8 °C 14,8 °C 90 % 1014,2 hPa 0,0 mm 0,0 km/h (0 Bft) SW 236 ° 0 min 0,000 mm 0,0 UV-I 0 W/m² 13,2 °C 14,8 °C 0,0 km/h (0 Bft)
23.07.2017 23:36 14,8 °C 14,8 °C 90 % 1014,2 hPa 0,0 mm 0,0 km/h (0 Bft) SW 236 ° 0 min 0,000 mm 0,0 UV-I 0 W/m² 13,2 °C 14,8 °C 0,0 km/h (0 Bft)
23.07.2017 23:37 14,8 °C 14,8 °C 91 % 1014,2 hPa 0,0 mm 0,0 km/h (0 Bft) SW 236 ° 0 min 0,000 mm 0,0 UV-I 0 W/m² 13,3 °C 14,8 °C 0,0 km/h (0 Bft)
23.07.2017 23:38 14,8 °C 14,8 °C 91 % 1014,2 hPa 0,0 mm 0,0 km/h (0 Bft) SW 236 ° 0 min 0,000 mm 0,0 UV-I 0 W/m² 13,3 °C 14,8 °C 0,0 km/h (0 Bft)
23.07.2017 23:39 14,7 °C 14,8 °C 90 % 1014,2 hPa 0,0 mm 0,0 km/h (0 Bft) SW 236 ° 0 min 0,000 mm 0,0 UV-I 0 W/m² 13,1 °C 14,7 °C 0,0 km/h (0 Bft)
23.07.2017 23:40 14,7 °C 14,8 °C 91 % 1014,2 hPa 0,0 mm 0,0 km/h (0 Bft) SW 236 ° 0 min 0,000 mm 0,0 UV-I 0 W/m² 13,2 °C 14,7 °C 0,0 km/h (0 Bft)
23.07.2017 23:41 14,7 °C 14,7 °C 91 % 1014,1 hPa 0,0 mm 0,0 km/h (0 Bft) SW 236 ° 0 min 0,000 mm 0,0 UV-I 0 W/m² 13,2 °C 14,7 °C 0,0 km/h (0 Bft)
23.07.2017 23:42 14,7 °C 14,7 °C 91 % 1014,1 hPa 0,0 mm 0,0 km/h (0 Bft) SW 236 ° 0 min 0,000 mm 0,0 UV-I 0 W/m² 13,2 °C 14,7 °C 0,0 km/h (0 Bft)
23.07.2017 23:43 14,7 °C 14,7 °C 91 % 1014,1 hPa 0,0 mm 0,0 km/h (0 Bft) SW 236 ° 0 min 0,000 mm 0,0 UV-I 0 W/m² 13,2 °C 14,7 °C 0,0 km/h (0 Bft)
23.07.2017 23:44 14,7 °C 14,7 °C 91 % 1014,0 hPa 0,0 mm 0,0 km/h (0 Bft) SW 236 ° 0 min 0,000 mm 0,0 UV-I 0 W/m² 13,2 °C 14,7 °C 0,0 km/h (0 Bft)
23.07.2017 23:45 14,7 °C 14,7 °C 91 % 1014,0 hPa 0,0 mm 0,0 km/h (0 Bft) SW 236 ° 0 min 0,000 mm 0,0 UV-I 0 W/m² 13,2 °C 14,7 °C 0,0 km/h (0 Bft)
23.07.2017 23:46 14,7 °C 14,7 °C 91 % 1014,0 hPa 0,0 mm 0,0 km/h (0 Bft) SW 236 ° 0 min 0,000 mm 0,0 UV-I 0 W/m² 13,2 °C 14,7 °C 0,0 km/h (0 Bft)
23.07.2017 23:47 14,7 °C 14,7 °C 91 % 1014,0 hPa 0,0 mm 0,0 km/h (0 Bft) SW 236 ° 0 min 0,000 mm 0,0 UV-I 0 W/m² 13,2 °C 14,7 °C 0,0 km/h (0 Bft)
23.07.2017 23:48 14,6 °C 14,7 °C 91 % 1014,0 hPa 0,0 mm 0,0 km/h (0 Bft) SW 236 ° 0 min 0,000 mm 0,0 UV-I 0 W/m² 13,1 °C 14,6 °C 0,0 km/h (0 Bft)
23.07.2017 23:49 14,6 °C 14,6 °C 91 % 1013,9 hPa 0,0 mm 0,0 km/h (0 Bft) SW 236 ° 0 min 0,000 mm 0,0 UV-I 0 W/m² 13,1 °C 14,6 °C 0,0 km/h (0 Bft)
23.07.2017 23:50 14,6 °C 14,7 °C 91 % 1014,0 hPa 0,0 mm 0,0 km/h (0 Bft) SW 236 ° 0 min 0,000 mm 0,0 UV-I 0 W/m² 13,1 °C 14,6 °C 0,0 km/h (0 Bft)
23.07.2017 23:51 14,6 °C 14,7 °C 91 % 1013,9 hPa 0,0 mm 0,0 km/h (0 Bft) SW 236 ° 0 min 0,000 mm 0,0 UV-I 0 W/m² 13,1 °C 14,6 °C 0,0 km/h (0 Bft)
23.07.2017 23:52 14,6 °C 14,6 °C 91 % 1013,9 hPa 0,0 mm 0,0 km/h (0 Bft) SW 236 ° 0 min 0,000 mm 0,0 UV-I 0 W/m² 13,1 °C 14,6 °C 0,0 km/h (0 Bft)
23.07.2017 23:53 14,6 °C 14,6 °C 91 % 1013,9 hPa 0,0 mm 0,0 km/h (0 Bft) SW 236 ° 0 min 0,000 mm 0,0 UV-I 0 W/m² 13,1 °C 14,6 °C 0,0 km/h (0 Bft)
23.07.2017 23:54 14,6 °C 14,6 °C 91 % 1013,9 hPa 0,0 mm 0,0 km/h (0 Bft) SW 236 ° 0 min 0,000 mm 0,0 UV-I 0 W/m² 13,1 °C 14,6 °C 0,0 km/h (0 Bft)
23.07.2017 23:55 14,6 °C 14,6 °C 91 % 1013,9 hPa 0,0 mm 0,0 km/h (0 Bft) SW 236 ° 0 min 0,000 mm 0,0 UV-I 0 W/m² 13,1 °C 14,6 °C 0,0 km/h (0 Bft)
23.07.2017 23:56 14,6 °C 14,6 °C 91 % 1013,9 hPa 0,0 mm 0,0 km/h (0 Bft) SW 236 ° 0 min 0,000 mm 0,0 UV-I 0 W/m² 13,1 °C 14,6 °C 0,0 km/h (0 Bft)
23.07.2017 23:57 14,6 °C 14,6 °C 91 % 1013,9 hPa 0,0 mm 0,0 km/h (0 Bft) SW 236 ° 0 min 0,000 mm 0,0 UV-I 0 W/m² 13,1 °C 14,6 °C 0,0 km/h (0 Bft)
23.07.2017 23:58 14,6 °C 14,6 °C 91 % 1013,9 hPa 0,0 mm 0,1 km/h (0 Bft) SW 236 ° 0 min 0,000 mm 0,0 UV-I 0 W/m² 13,1 °C 14,6 °C 1,6 km/h (1 Bft)
23.07.2017 23:59 14,7 °C 14,7 °C 91 % 1013,9 hPa 0,0 mm 0,0 km/h (0 Bft) SW 236 ° 0 min 0,000 mm 0,0 UV-I 0 W/m² 13,2 °C 14,7 °C 0,0 km/h (0 Bft)
_ Min-Zeit 05:58 05:58 11:43 01:03 - 23:59 - - - - - - 05:53 05:58 23:59
Minimum _ 12,9 °C 12,9 °C 80 % 1011,8 hPa - 0,0 km/h (0 Bft) - - - - - - 12,1 °C 12,9 °C 0,0 km/h (0 Bft)
_ Max-Zeit 10:48 10:49 07:18 02:10 01:46 01:40 - - 14:10 12:01 11:58 11:57 10:48 10:48 01:27
Maximum _ 18,8 °C 18,8 °C 96 % 1015,7 hPa 0,6 mm 32,6 km/h
SW (5 Bft)
- - 1 min 0,178 mm 4,0 UV-I 471 W/m² 16,2 °C 18,8 °C 59,5 km/h
W-NW (7 Bft)
Durchschnitt _ 15,7 °C 15,7 °C 89 % 1014,5 hPa #9,6 mm 2,9 km/h (1 Bft) W - #1:09 h #1,092 mm 1,4 UV-I 72 W/m² 13,9 °C 15,7 °C 4,9 km/h (1 Bft)